# Wetter Temperatur Luftdruck Luftfeuchtigkeit Sichtweite Windgeschwindigkeit Windrichtung Zeit
1 Clouds 6 1022 75 10000 5.14 230 15:55 01.02.2023
2 Clouds 6 1022 72 10000 4.63 240 13:43 01.02.2023
3 Clouds 6 1023 72 10000 4.63 240 13:19 01.02.2023
4 Clouds 6 1023 76 10000 4.12 230 12:26 01.02.2023
5 Clouds 5 1023 83 10000 2.57 210 09:54 01.02.2023
6 Drizzle 5 1022 84 10000 3.6 210 06:54 01.02.2023
7 Clear 5 1023 83 10000 6.69 230 22:26 31.01.2023
8 Clouds 5 1024 80 10000 7.2 230 20:46 31.01.2023
9 Clouds 4 1024 79 10000 6.17 230 19:24 31.01.2023
10 Clouds 5 1024 78 10000 3.6 240 17:31 31.01.2023
11 Clear 5 1024 73 10000 5.14 240 15:36 31.01.2023
12 Rain 5 1024 73 10000 4.63 240 15:18 31.01.2023
13 Clouds 5 1025 75 10000 5.66 230 13:19 31.01.2023
14 Clear 4 1027 77 10000 3.6 220 11:28 31.01.2023
15 Clear 3 1027 85 10000 4.12 220 10:18 31.01.2023
16 Clear 2 1027 86 10000 3.6 220 09:44 31.01.2023
17 Clear 1 1026 89 10000 2.06 220 08:36 31.01.2023
18 Clouds 2 1029 88 10000 2.99 270 06:25 31.01.2023
19 Clear 3 1025 85 10000 4.12 250 01:54 31.01.2023
20 Clear 3 1025 87 10000 5.14 230 23:26 30.01.2023
21 Clouds 3 1025 87 10000 3.09 230 22:50 30.01.2023
22 Clouds 3 1025 88 10000 2.57 230 21:43 30.01.2023
23 Clouds 3 1024 88 10000 3.6 230 20:44 30.01.2023
24 Clear 3 1022 87 10000 3.09 220 18:26 30.01.2023
25 Clouds 3 1021 87 10000 4.12 240 17:25 30.01.2023
26 Clouds 3 1019 87 6000 5.14 230 14:47 30.01.2023
27 Mist 3 1019 86 4100 7.72 230 13:39 30.01.2023
28 Clouds 3 1019 81 10000 8.23 230 12:18 30.01.2023
29 Clouds 1 1021 82 10000 3.6 210 10:21 30.01.2023
30 Clouds 1 1021 81 10000 4.63 220 09:53 30.01.2023
31 Clouds 0 1021 81 10000 4.63 210 08:23 30.01.2023
32 Clouds -2 1023 89 10000 1.03 0 04:32 30.01.2023
33 Clear -3 1023 89 10000 1.54 200 00:50 30.01.2023
34 Clear -2 1024 90 10000 2.06 240 23:31 29.01.2023
35 Clouds -2 1028 91 10000 1.59 209 22:36 29.01.2023
36 Clear -2 1025 88 10000 1.03 0 20:54 29.01.2023
37 Clear -1 1025 87 10000 1.03 210 20:22 29.01.2023
38 Clear -1 1025 86 10000 1.54 230 19:33 29.01.2023
39 Clear 0 1025 80 10000 2.06 250 17:56 29.01.2023
40 Clear 2 1025 76 10000 2.57 260 16:48 29.01.2023
41 Clouds 2 1025 75 10000 2.06 270 16:20 29.01.2023
42 Clouds 2 1025 73 10000 1.54 150 14:20 29.01.2023
43 Clouds 1 1027 75 10000 0.51 0 13:18 29.01.2023
44 Clouds 1 1027 76 10000 1.03 0 12:38 29.01.2023
45 Clouds 1 1027 76 10000 1.03 0 12:19 29.01.2023
46 Clouds 1 1027 77 10000 1.03 0 11:37 29.01.2023
47 Clouds 0 1028 81 10000 1.03 0 10:53 29.01.2023
48 Clouds -1 1027 82 10000 0.51 0 08:54 29.01.2023
49 Clouds -1 1027 82 10000 1.03 0 04:49 29.01.2023
50 Clouds 0 1027 81 10000 4.12 340 23:51 28.01.2023
51 Clouds 1 1027 85 10000 2.57 350 21:28 28.01.2023
52 Clouds 1 1026 87 10000 3.09 10 19:58 28.01.2023
53 Clouds 1 1026 86 10000 2.57 20 19:25 28.01.2023
54 Clouds 2 1026 85 10000 3.6 360 17:49 28.01.2023
55 Clouds 2 1025 85 10000 4.63 30 16:57 28.01.2023
56 Clouds 2 1025 86 10000 4.12 20 16:19 28.01.2023
57 Clouds 2 1024 87 10000 4.12 30 15:37 28.01.2023
58 Clouds 2 1024 87 10000 3.6 20 13:57 28.01.2023
59 Clouds 2 1024 85 10000 3.6 40 12:46 28.01.2023
60 Clouds 2 1024 86 10000 3.09 30 11:25 28.01.2023
61 Snow 2 1024 89 10000 3.09 20 10:33 28.01.2023
62 Clouds 1 1022 88 10000 3.09 20 06:35 28.01.2023
63 Clouds 0 1022 85 10000 3.09 20 01:35 28.01.2023
64 Clouds 0 1022 84 10000 3.6 10 00:23 28.01.2023
65 Clouds 0 1021 87 10000 1.54 350 20:57 27.01.2023
66 Clouds 0 1021 85 10000 3.6 20 18:25 27.01.2023
67 Clouds 0 1021 85 10000 3.6 20 17:54 27.01.2023
68 Clouds 0 1020 86 10000 3.6 20 17:18 27.01.2023
69 Clouds 0 1020 86 10000 3.09 360 16:34 27.01.2023
70 Clouds 0 1019 85 10000 2.57 360 14:53 27.01.2023
71 Clouds 0 1019 85 10000 3.09 40 14:24 27.01.2023
72 Clouds 0 1020 85 10000 2.57 40 12:49 27.01.2023
73 Clouds -1 1019 89 10000 2.57 20 08:41 27.01.2023
74 Clouds -1 1018 90 10000 2.06 360 04:55 27.01.2023
75 Clouds -1 1019 93 7000 4.12 330 22:54 26.01.2023
76 Clouds -1 1019 93 7000 4.12 330 21:40 26.01.2023
77 Clouds -1 1019 93 7000 4.12 320 20:36 26.01.2023
78 Clouds -1 1019 90 10000 1.03 0 19:21 26.01.2023
79 Clouds 0 1019 89 10000 2.57 340 17:42 26.01.2023
80 Clouds 0 1019 88 10000 2.06 340 16:27 26.01.2023
81 Clouds 0 1019 88 10000 2.06 360 15:56 26.01.2023
82 Clouds 0 1018 90 10000 1.54 360 15:32 26.01.2023
83 Clouds 0 1019 88 10000 2.57 350 14:58 26.01.2023
84 Clouds 0 1019 88 10000 2.57 310 13:30 26.01.2023
85 Clouds 0 1020 89 10000 2.57 350 11:53 26.01.2023
86 Clouds 0 1020 90 10000 2.57 360 10:33 26.01.2023
87 Clouds 0 1020 91 9000 2.06 360 09:44 26.01.2023
88 Clouds 0 1020 93 7000 3.6 360 08:26 26.01.2023
89 Clouds 0 1019 92 6000 1.54 10 06:27 26.01.2023
90 Clouds 1 1022 89 10000 1.54 120 23:40 25.01.2023
91 Clouds 1 1023 90 10000 0.51 0 22:36 25.01.2023
92 Clouds 1 1024 88 10000 1.03 0 21:25 25.01.2023
93 Clouds 2 1024 88 10000 1.03 0 20:48 25.01.2023
94 Clouds 2 1025 89 10000 1.03 0 18:24 25.01.2023
95 Clouds 2 1027 88 10000 2.57 50 15:58 25.01.2023
96 Clouds 2 1028 87 10000 2.57 40 14:30 25.01.2023
97 Clouds 2 1030 88 10000 2.06 80 11:53 25.01.2023
98 Clouds 2 1030 89 10000 2.57 80 09:53 25.01.2023
99 Clouds 2 1030 90 10000 2.57 110 09:20 25.01.2023
100 Clouds 2 1031 92 10000 3.09 40 06:26 25.01.2023
101 Clouds 2 1033 94 7000 2.57 20 00:30 25.01.2023
102 Clouds 2 1033 94 6000 3.6 10 21:56 24.01.2023
103 Clouds 2 1033 94 6000 3.6 10 21:28 24.01.2023
104 Clouds 3 1033 91 10000 3.6 20 19:38 24.01.2023
105 Clouds 3 1033 88 10000 3.09 30 18:30 24.01.2023
106 Clouds 3 1032 88 10000 2.57 10 17:19 24.01.2023
107 Clouds 3 1032 88 10000 3.09 20 16:52 24.01.2023
108 Clouds 4 1032 85 10000 4.12 30 14:49 24.01.2023
109 Clouds 3 1033 86 10000 4.63 40 12:28 24.01.2023
110 Clouds 3 1032 88 10000 3.6 30 10:36 24.01.2023
111 Clouds 2 1031 89 10000 4.12 40 08:21 24.01.2023
112 Clouds 2 1031 89 10000 4.12 50 07:50 24.01.2023
113 Clouds 2 1031 89 10000 5.66 40 05:22 24.01.2023
114 Clouds 3 1030 88 10000 4.63 50 00:46 24.01.2023
115 Clouds 3 1030 88 10000 5.14 40 23:43 23.01.2023
116 Clouds 3 1029 86 10000 5.14 40 21:50 23.01.2023
117 Clouds 2 1029 87 10000 5.14 10 19:45 23.01.2023
118 Clouds 2 1029 87 10000 5.14 30 17:59 23.01.2023
119 Clouds 3 1028 84 10000 5.14 20 15:35 23.01.2023
120 Clouds 2 1028 84 10000 5.14 10 14:21 23.01.2023
121 Clouds 2 1029 84 10000 4.63 30 13:23 23.01.2023
122 Clouds 2 1029 84 10000 4.12 30 12:48 23.01.2023
123 Clouds 1 1030 84 10000 6.69 50 11:43 23.01.2023
124 Clouds 0 1030 91 10000 3.09 40 08:42 23.01.2023
125 Clouds 0 1029 93 10000 2.06 50 06:29 23.01.2023
126 Clouds 0 1028 91 6000 1.54 10 23:28 22.01.2023
127 Clouds 0 1027 91 10000 3.09 360 21:46 22.01.2023
128 Clouds 0 1027 91 9000 2.57 360 20:53 22.01.2023
129 Snow 1 1027 91 8000 2.57 330 19:53 22.01.2023
130 Snow 1 1027 90 10000 2.06 330 19:20 22.01.2023
131 Clouds 1 1026 90 10000 1.54 340 18:18 22.01.2023
132 Clouds 1 1026 90 10000 1.54 360 17:44 22.01.2023
133 Clouds 1 1026 89 10000 1.54 360 16:55 22.01.2023
134 Clouds 1 1025 89 10000 2.06 350 14:56 22.01.2023
135 Clouds 1 1025 90 10000 2.06 20 13:50 22.01.2023
136 Clouds 1 1025 90 10000 2.57 10 12:54 22.01.2023
137 Clouds 1 1025 91 10000 2.57 360 12:26 22.01.2023
138 Mist 0 1024 92 4100 0.51 0 09:56 22.01.2023
139 Mist -1 1024 92 3500 1.03 0 08:44 22.01.2023
140 Snow -1 1023 92 10000 4.63 330 02:54 22.01.2023
141 Snow -1 1024 91 2600 4.12 310 23:42 21.01.2023
142 Snow -1 1024 92 3500 4.12 320 22:48 21.01.2023
143 Snow -1 1024 91 8000 4.12 340 20:59 21.01.2023
144 Snow -1 1024 88 9000 4.12 340 18:49 21.01.2023
145 Snow -1 1023 89 7000 6.17 360 15:36 21.01.2023
146 Clouds -1 1023 88 10000 3.6 350 13:31 21.01.2023
147 Clouds -1 1023 87 10000 4.12 350 12:52 21.01.2023
148 Clouds -2 1023 89 10000 3.09 340 11:28 21.01.2023
149 Clouds -2 1023 90 10000 3.09 320 10:47 21.01.2023
150 Clouds -5 1022 92 10000 0.51 0 08:31 21.01.2023
151 Clear -3 1020 87 10000 0.51 50 02:18 21.01.2023
152 Clear -2 1018 89 10000 1.54 90 22:27 20.01.2023
153 Clear -2 1018 87 10000 1.54 90 21:36 20.01.2023
154 Clear -2 1018 87 10000 1.03 0 20:42 20.01.2023
155 Clouds 0 1017 82 10000 1.03 0 18:36 20.01.2023
156 Rain 2 1016 75 10000 1.03 0 15:53 20.01.2023
157 Rain 3 1016 76 10000 2.57 240 14:41 20.01.2023
158 Clear 2 1015 83 10000 2.57 280 12:45 20.01.2023
159 Clouds -1 1014 90 10000 0.51 0 09:37 20.01.2023
160 Clouds -1 1013 89 10000 0.51 0 08:22 20.01.2023
161 Clouds -1 1010 92 10000 0.51 0 02:35 20.01.2023
162 Clear -1 1008 90 10000 0 0 22:59 19.01.2023
163 Clear 0 1008 90 10000 1.54 30 22:32 19.01.2023
164 Clouds 0 1008 90 10000 0.51 0 20:22 19.01.2023
165 Clouds -1 1011 89 10000 0.67 347 19:20 19.01.2023
166 Snow 1 1007 83 10000 2.06 220 15:39 19.01.2023
167 Clouds -1 1008 85 10000 3.6 230 10:53 19.01.2023
168 Clouds -3 1007 87 10000 1.54 230 08:59 19.01.2023
169 Clear -2 1005 88 10000 1.03 0 23:52 18.01.2023
170 Clear -1 1003 87 10000 1.03 0 21:19 18.01.2023
171 Clouds 0 1002 87 10000 2.57 240 20:19 18.01.2023
172 Clouds 0 1001 88 10000 1.54 250 19:37 18.01.2023
173 Snow 1 999 87 10000 2.06 270 17:49 18.01.2023
174 Clouds 1 997 87 10000 3.6 290 15:41 18.01.2023
175 Clouds 1 995 88 10000 4.12 280 13:30 18.01.2023
176 Clouds 0 994 91 10000 4.63 280 11:25 18.01.2023
177 Snow 0 991 93 4000 2.57 300 08:47 18.01.2023
178 Snow 1 986 92 2600 0.51 0 01:28 18.01.2023
179 Mist 1 986 92 3700 1.03 340 00:19 18.01.2023
180 Snow 1 986 90 5000 1.03 300 20:40 17.01.2023
181 Snow 2 985 86 4400 1.54 70 19:35 17.01.2023
182 Snow 3 985 71 10000 4.12 110 18:36 17.01.2023
183 Rain 3 984 64 10000 3.09 70 17:31 17.01.2023
184 Clear 5 984 60 10000 5.14 70 15:20 17.01.2023
185 Clouds 5 985 60 10000 4.12 80 14:24 17.01.2023
186 Clouds 5 988 62 10000 2.11 77 13:27 17.01.2023
187 Clear 5 987 72 10000 3.09 80 11:44 17.01.2023
188 Clouds 1 988 88 10000 1.54 180 09:35 17.01.2023
189 Clouds 1 988 86 10000 0.51 0 08:20 17.01.2023
190 Snow 2 989 87 10000 2.06 200 05:52 17.01.2023
191 Snow 3 987 83 10000 3.6 210 00:58 17.01.2023
192 Rain 4 987 80 10000 4.63 230 23:57 16.01.2023
193 Clouds 5 987 78 10000 6.17 220 22:26 16.01.2023
194 Drizzle 5 985 83 10000 7.2 220 20:50 16.01.2023
195 Drizzle 5 985 85 10000 5.66 210 19:45 16.01.2023
196 Rain 5 985 85 10000 6.17 200 18:56 16.01.2023
197 Rain 5 984 85 10000 7.2 190 18:28 16.01.2023
198 Rain 5 985 83 10000 9.26 190 17:57 16.01.2023
199 Rain 6 985 77 10000 8.23 200 17:19 16.01.2023
200 Clouds 6 988 71 10000 6.17 180 13:47 16.01.2023
201 Clouds 6 989 70 10000 7.72 170 13:29 16.01.2023
202 Rain 4 992 71 10000 4.63 160 10:22 16.01.2023
203 Clear 3 996 78 10000 2.57 170 07:36 16.01.2023
204 Clear 3 1007 79 10000 4.12 200 22:43 15.01.2023
205 Clear 4 1008 79 10000 5.14 220 20:50 15.01.2023
206 Clear 4 1008 80 10000 5.14 210 20:26 15.01.2023
207 Clear 4 1009 81 10000 4.12 190 18:57 15.01.2023
208 Clear 5 1010 79 10000 6.17 230 17:23 15.01.2023
209 Rain 4 1009 87 10000 6.69 250 13:44 15.01.2023
210 Rain 5 1008 89 10000 4.63 240 12:19 15.01.2023
211 Rain 6 1007 86 10000 3.09 220 11:28 15.01.2023
212 Rain 6 1006 87 10000 4.12 260 10:21 15.01.2023
213 Rain 8 1003 88 10000 6.17 280 07:45 15.01.2023
214 Rain 11 1006 78 10000 5.66 210 23:39 14.01.2023
215 Clear 11 1007 78 10000 5.14 210 22:43 14.01.2023
216 Clear 11 1007 79 10000 6.17 210 21:36 14.01.2023
217 Rain 11 1008 80 10000 5.66 210 21:18 14.01.2023
218 Rain 11 1008 80 10000 5.66 210 21:18 14.01.2023
219 Rain 10 1008 79 10000 5.66 220 20:42 14.01.2023
220 Clear 10 1009 79 10000 4.63 210 20:21 14.01.2023
221 Rain 10 1010 67 10000 5.14 210 17:51 14.01.2023
222 Rain 10 1011 73 10000 4.12 170 15:36 14.01.2023
223 Rain 10 1011 74 10000 4.12 170 15:18 14.01.2023
224 Rain 9 1013 77 10000 3.6 170 14:19 14.01.2023
225 Rain 9 1015 78 10000 2.57 160 12:49 14.01.2023
226 Clouds 7 1017 83 10000 3.6 180 10:49 14.01.2023
227 Clouds 5 1019 85 10000 1.54 170 08:22 14.01.2023
228 Clear 5 1021 87 10000 0.51 0 02:35 14.01.2023
229 Rain 6 1020 85 10000 3.09 210 22:59 13.01.2023
230 Clouds 6 1020 84 10000 3.09 210 22:41 13.01.2023
231 Clouds 6 1020 84 10000 3.09 180 21:58 13.01.2023
232 Clear 7 1018 81 10000 5.66 230 20:38 13.01.2023
233 Clear 7 1017 82 10000 4.12 240 19:27 13.01.2023
234 Clouds 7 1016 85 10000 1.03 0 17:40 13.01.2023
235 Clouds 9 1014 72 10000 5.66 230 14:58 13.01.2023
236 Rain 9 1013 84 10000 6.17 270 12:25 13.01.2023
237 Rain 9 1013 83 10000 6.17 270 12:25 13.01.2023
238 Rain 9 1013 85 10000 5.66 240 10:43 13.01.2023
239 Rain 10 1012 83 10000 4.12 210 10:23 13.01.2023
240 Rain 10 1012 79 10000 4.63 200 09:44 13.01.2023
241 Clouds 11 1011 77 10000 3.6 190 08:51 13.01.2023
242 Clouds 11 1011 75 10000 4.12 200 06:57 13.01.2023
243 Clouds 11 1011 74 10000 4.63 210 06:27 13.01.2023
244 Clouds 11 1013 73 10000 4.12 220 02:29 13.01.2023
245 Clouds 10 1014 74 10000 5.14 220 22:57 12.01.2023
246 Rain 10 1015 74 10000 5.66 240 21:59 12.01.2023
247 Rain 10 1015 73 10000 4.63 230 20:52 12.01.2023
248 Clear 10 1016 77 10000 4.63 220 18:39 12.01.2023
249 Clouds 10 1016 77 10000 6.17 230 17:20 12.01.2023
250 Clouds 10 1016 75 10000 7.72 230 15:45 12.01.2023
251 Clouds 10 1016 75 10000 6.69 230 14:43 12.01.2023
252 Clouds 10 1016 74 10000 8.75 230 14:20 12.01.2023
253 Clouds 10 1017 73 10000 7.2 220 12:44 12.01.2023
254 Clouds 9 1018 76 10000 5.66 210 10:27 12.01.2023
255 Clear 8 1018 79 10000 4.63 220 07:38 12.01.2023
256 Clouds 6 1020 85 10000 2.57 200 01:40 12.01.2023
257 Clear 6 1020 82 10000 3.09 190 23:58 11.01.2023
258 Clear 6 1020 84 10000 2.57 210 23:39 11.01.2023
259 Clear 6 1020 83 10000 2.57 210 23:20 11.01.2023
260 Clouds 7 1020 73 10000 3.6 230 21:41 11.01.2023
261 Clouds 8 1019 87 10000 3.09 220 19:40 11.01.2023
262 Clear 9 1018 84 10000 3.6 250 18:26 11.01.2023
263 Clouds 10 1016 87 10000 3.6 250 16:34 11.01.2023
264 Rain 11 1014 88 10000 4.63 230 14:40 11.01.2023
265 Rain 11 1015 82 10000 3.6 210 12:38 11.01.2023
266 Rain 10 1015 82 10000 4.12 200 11:54 11.01.2023
267 Clear 10 1015 80 10000 3.09 190 09:49 11.01.2023
268 Clouds 8 1015 86 10000 2.06 140 07:38 11.01.2023
269 Clouds 8 1016 86 10000 2.57 170 07:20 11.01.2023
270 Clouds 5 1019 81 10000 2.06 140 23:58 10.01.2023
271 Rain 5 1019 78 10000 2.57 170 22:45 10.01.2023
272 Clouds 5 1020 76 10000 2.06 170 21:32 10.01.2023
273 Clear 5 1020 76 10000 1.03 0 20:37 10.01.2023
274 Rain 5 1021 75 10000 2.06 190 19:38 10.01.2023
275 Rain 5 1021 77 10000 2.57 180 18:47 10.01.2023
276 Clear 5 1021 75 10000 2.57 190 17:58 10.01.2023
277 Clouds 6 1022 72 10000 3.09 210 16:39 10.01.2023
278 Clouds 7 1022 70 10000 4.12 230 15:24 10.01.2023
279 Clouds 7 1023 75 10000 4.63 230 14:31 10.01.2023
280 Clouds 6 1023 83 10000 3.6 210 12:22 10.01.2023
281 Clouds 5 1021 84 10000 2.57 230 09:25 10.01.2023
282 Clouds 4 1021 86 10000 3.6 240 08:29 10.01.2023
283 Clouds 4 1020 86 10000 4.12 250 07:27 10.01.2023
284 Clouds 5 1017 88 10000 7.72 280 04:54 10.01.2023
285 Clouds 5 1011 88 10000 2.06 220 23:28 09.01.2023
286 Drizzle 5 1010 87 10000 3.09 230 21:51 09.01.2023
287 Drizzle 5 1009 88 10000 3.6 230 20:45 09.01.2023
288 Clouds 5 1007 86 10000 3.09 200 19:22 09.01.2023
289 Clouds 6 1006 84 10000 3.6 220 17:54 09.01.2023
290 Clouds 6 1006 84 10000 3.6 200 17:24 09.01.2023
291 Clouds 7 1005 83 10000 4.12 250 16:32 09.01.2023
292 Clouds 7 1004 82 10000 5.66 220 15:28 09.01.2023
293 Rain 8 1003 78 10000 6.17 250 14:45 09.01.2023
294 Clouds 9 1003 77 10000 3.6 210 13:38 09.01.2023
295 Clouds 8 1004 75 10000 3.6 210 12:49 09.01.2023
296 Clouds 8 1004 76 10000 4.63 210 11:42 09.01.2023
297 Clear 7 1004 81 10000 3.6 200 10:26 09.01.2023
298 Clouds 6 1002 86 10000 5.14 230 06:44 09.01.2023
299 Rain 8 999 90 10000 2.06 0 02:54 09.01.2023
300 Rain 8 1000 93 10000 1.03 0 23:53 08.01.2023
301 Rain 8 1001 87 10000 1.03 0 21:33 08.01.2023
302 Rain 8 1002 84 10000 1.03 0 20:58 08.01.2023
303 Rain 8 1002 84 10000 0.51 0 20:29 08.01.2023
304 Clouds 9 1004 82 10000 1.54 130 17:53 08.01.2023
305 Clouds 10 1004 80 10000 1.03 0 17:20 08.01.2023
306 Clouds 11 1005 74 10000 2.57 190 15:43 08.01.2023
307 Clouds 11 1006 77 10000 3.09 190 15:23 08.01.2023
308 Clouds 10 1007 79 10000 3.09 200 13:57 08.01.2023
309 Clouds 10 1007 80 10000 2.57 200 13:29 08.01.2023
310 Clear 9 1008 84 10000 4.12 200 12:20 08.01.2023
311 Rain 8 1008 86 10000 4.63 200 09:39 08.01.2023
312 Rain 8 1008 85 10000 5.66 200 09:18 08.01.2023
313 Rain 8 1009 82 10000 5.66 240 07:41 08.01.2023
314 Clear 6 1012 80 10000 1.54 0 23:58 07.01.2023
315 Clear 6 1012 84 10000 1.54 220 22:46 07.01.2023
316 Clear 6 1012 83 10000 1.03 0 22:22 07.01.2023
317 Clear 6 1012 83 10000 2.06 170 21:46 07.01.2023
318 Clear 6 1013 84 10000 1.03 0 20:31 07.01.2023
319 Clear 7 1013 82 10000 1.03 0 19:29 07.01.2023
320 Clear 8 1013 80 10000 2.06 190 18:26 07.01.2023
321 Clear 9 1013 79 10000 2.06 180 17:44 07.01.2023
322 Clear 9 1013 78 10000 2.57 180 17:21 07.01.2023
323 Clear 10 1013 74 10000 2.57 160 16:32 07.01.2023
324 Clear 11 1013 69 10000 2.57 160 15:46 07.01.2023
325 Clear 11 1014 70 10000 3.09 160 15:24 07.01.2023
326 Clear 11 1014 71 10000 3.6 170 14:26 07.01.2023
327 Clear 11 1015 72 10000 4.63 170 13:44 07.01.2023
328 Clear 11 1015 73 10000 4.12 150 13:23 07.01.2023
329 Clouds 11 1016 74 10000 3.6 180 12:22 07.01.2023
330 Clouds 10 1017 78 10000 2.57 190 11:18 07.01.2023
331 Clouds 9 1017 81 10000 1.54 160 10:25 07.01.2023
332 Clouds 9 1018 76 10000 2.06 200 08:21 07.01.2023
333 Clouds 9 1018 76 10000 2.06 180 07:44 07.01.2023
334 Clouds 8 1019 81 10000 1.03 140 06:50 07.01.2023
335 Clouds 9 1022 86 10000 0.51 0 00:42 07.01.2023
336 Clouds 9 1022 84 10000 2.06 230 22:23 06.01.2023
337 Clouds 9 1022 84 10000 3.09 250 21:58 06.01.2023
338 Clouds 9 1022 89 10000 0.51 0 20:59 06.01.2023
339 Clouds 9 1022 86 10000 1.03 0 19:57 06.01.2023
340 Clouds 9 1022 85 10000 1.03 0 19:39 06.01.2023
341 Clouds 9 1022 85 10000 1.03 0 19:21 06.01.2023
342 Clouds 10 1022 86 10000 1.03 0 18:28 06.01.2023
343 Clouds 10 1022 82 10000 2.06 230 16:55 06.01.2023
344 Clouds 11 1022 82 10000 2.06 220 16:24 06.01.2023
345 Clouds 11 1022 83 10000 2.57 200 15:55 06.01.2023
346 Clouds 11 1021 82 10000 2.57 200 15:37 06.01.2023
347 Clouds 11 1022 80 10000 2.57 220 14:40 06.01.2023
348 Clouds 11 1022 85 10000 2.06 200 12:25 06.01.2023
349 Clouds 10 1023 86 10000 3.09 250 10:58 06.01.2023
350 Clouds 8 1022 90 10000 3.6 210 08:55 06.01.2023
351 Clouds 8 1021 77 10000 1.54 250 06:42 06.01.2023
352 Clouds 9 1023 87 10000 3.6 240 00:18 06.01.2023
353 Clouds 9 1023 87 10000 2.06 220 22:55 05.01.2023
354 Clouds 9 1024 86 10000 2.57 220 21:47 05.01.2023
355 Clouds 10 1024 81 10000 3.09 220 19:29 05.01.2023
356 Clouds 11 1024 77 10000 2.57 240 17:28 05.01.2023
357 Clouds 11 1024 75 10000 4.12 270 16:20 05.01.2023
358 Clouds 11 1024 75 10000 5.66 270 15:46 05.01.2023
359 Clouds 11 1024 75 10000 7.2 270 14:36 05.01.2023
360 Clouds 11 1023 75 10000 5.66 250 12:43 05.01.2023
361 Clouds 11 1024 78 10000 8.23 270 11:50 05.01.2023
362 Clouds 11 1023 87 10000 3.09 250 09:52 05.01.2023
363 Clouds 10 1022 91 10000 3.09 310 08:28 05.01.2023
364 Rain 11 1021 88 10000 4.12 230 07:19 05.01.2023
365 Clouds 11 1021 84 10000 5.14 210 03:39 05.01.2023
366 Clouds 11 1023 85 10000 4.63 210 22:55 04.01.2023
367 Clouds 11 1022 82 10000 7.2 230 21:33 04.01.2023
368 Clear 11 1022 80 10000 7.72 230 20:36 04.01.2023
369 Clear 11 1022 80 10000 6.69 230 19:56 04.01.2023
370 Clouds 11 1022 78 10000 7.72 230 19:32 04.01.2023
371 Clouds 11 1022 77 10000 4.12 220 18:30 04.01.2023
372 Clouds 11 1023 77 10000 5.14 220 16:32 04.01.2023
373 Clouds 11 1023 77 10000 3.6 210 15:40 04.01.2023
374 Clouds 10 1025 78 10000 3.6 210 13:53 04.01.2023
375 Rain 8 1026 81 10000 4.12 210 11:41 04.01.2023
376 Clouds 7 1026 83 10000 2.57 200 11:20 04.01.2023
377 Rain 6 1026 85 10000 1.54 110 10:42 04.01.2023
378 Rain 7 1026 83 10000 3.09 180 10:21 04.01.2023
379 Clear 4 1027 87 10000 0.51 0 07:40 04.01.2023
380 Clear 3 1029 90 10000 1.54 170 01:48 04.01.2023
381 Clear 3 1030 91 10000 0.51 0 00:31 04.01.2023
382 Clear 4 1030 88 10000 0.51 0 23:34 03.01.2023
383 Clear 3 1030 91 10000 1.03 270 22:41 03.01.2023
384 Clouds 4 1030 87 10000 2.06 260 20:53 03.01.2023
385 Clear 5 1030 88 10000 1.03 0 19:22 03.01.2023
386 Clear 7 1030 82 10000 1.03 200 17:36 03.01.2023
387 Clouds 10 1029 76 10000 2.06 170 15:54 03.01.2023
388 Clear 11 1029 74 10000 0.51 0 13:53 03.01.2023
389 Clear 11 1030 76 10000 1.03 0 13:30 03.01.2023
390 Clear 10 1030 80 10000 0.51 0 12:57 03.01.2023
391 Clear 10 1030 83 10000 0.51 0 12:30 03.01.2023
392 Clear 6 1030 90 10000 1.03 290 10:32 03.01.2023
393 Clear 6 1028 89 10000 2.06 270 06:41 03.01.2023
394 Clear 7 1028 89 10000 1.03 300 04:22 03.01.2023
395 Clear 8 1028 87 10000 1.03 0 03:43 03.01.2023
396 Rain 8 1028 86 10000 2.06 240 01:39 03.01.2023
397 Clouds 10 1026 83 10000 3.6 280 22:42 02.01.2023
398 Rain 10 1026 83 10000 4.12 290 22:18 02.01.2023
399 Clouds 11 1025 82 10000 6.17 270 20:40 02.01.2023
400 Clouds 12 1024 80 10000 5.14 240 19:52 02.01.2023
401 Clear 14 1022 65 10000 5.66 240 17:29 02.01.2023
402 Clouds 15 1022 66 10000 3.74 244 15:19 02.01.2023
403 Clear 16 1020 57 10000 2.57 220 13:25 02.01.2023
404 Clear 13 1020 71 10000 3.09 220 11:57 02.01.2023
405 Clear 10 1019 84 10000 1.03 0 10:43 02.01.2023
406 Clear 8 1018 87 10000 1.54 90 07:34 02.01.2023
407 Clear 10 1019 82 10000 1.03 0 00:58 02.01.2023
408 Clear 10 1019 81 10000 2.57 190 22:32 01.01.2023
409 Clear 10 1019 85 10000 1.54 170 21:30 01.01.2023
410 Clear 9 1020 86 10000 1.54 170 20:47 01.01.2023
411 Clear 10 1019 83 10000 1.03 0 19:48 01.01.2023
412 Clear 12 1020 79 10000 0.51 0 18:24 01.01.2023
413 Clear 13 1020 82 10000 1.03 0 17:21 01.01.2023
414 Clouds 14 1021 76 10000 2.13 173 16:33 01.01.2023
415 Clouds 16 1020 63 10000 2.12 175 14:59 01.01.2023
416 Clear 17 1021 63 10000 1.03 0 13:41 01.01.2023
417 Clear 16 1022 65 10000 1.54 140 12:41 01.01.2023
418 Clear 15 1022 69 10000 2.06 150 11:38 01.01.2023
419 Clear 13 1022 78 10000 1.03 0 10:36 01.01.2023
420 Clear 12 1021 73 10000 2.57 190 08:56 01.01.2023
421 Clear 12 1021 73 10000 2.57 170 08:22 01.01.2023
422 Clear 12 1021 74 10000 2.57 190 07:23 01.01.2023
423 Clear 14 1019 75 10000 1.03 0 03:21 01.01.2023
424 Clear 12 1019 83 10000 1.03 0 23:43 31.12.2022
425 Clear 12 1018 80 10000 1.54 50 22:35 31.12.2022
426 Clear 12 1018 83 10000 0.51 0 21:41 31.12.2022
427 Clear 12 1018 82 10000 0.51 0 21:19 31.12.2022
428 Clear 13 1018 82 10000 1.54 80 19:42 31.12.2022
429 Clear 15 1018 77 10000 1.54 190 18:45 31.12.2022
430 Clear 15 1017 75 10000 0.51 0 18:19 31.12.2022
431 Clear 15 1017 75 10000 1.54 200 17:48 31.12.2022
432 Clear 16 1017 74 10000 2.06 220 16:59 31.12.2022
433 Clear 17 1017 69 10000 1.54 190 16:29 31.12.2022
434 Clear 19 1017 64 10000 2.06 210 15:19 31.12.2022
435 Clear 19 1017 59 10000 3.09 200 13:44 31.12.2022
436 Clear 19 1018 64 10000 5.14 220 12:40 31.12.2022
437 Clear 19 1018 65 10000 5.14 220 12:20 31.12.2022
438 Clear 18 1018 68 10000 4.12 220 11:50 31.12.2022
439 Clear 16 1018 75 10000 4.12 200 10:37 31.12.2022
440 Clear 16 1018 76 10000 3.6 200 09:55 31.12.2022
441 Clear 16 1017 79 10000 3.6 200 09:35 31.12.2022
442 Clear 15 1017 80 10000 4.12 210 07:51 31.12.2022
443 Clouds 13 1014 86 10000 5.66 210 00:59 31.12.2022
444 Clouds 13 1014 87 10000 4.12 210 23:50 30.12.2022
445 Clouds 12 1013 89 10000 4.63 210 22:50 30.12.2022
446 Clouds 12 1013 89 10000 3.6 210 21:54 30.12.2022
447 Rain 11 1012 90 10000 4.63 200 21:31 30.12.2022
448 Rain 11 1011 84 10000 5.14 200 19:52 30.12.2022
449 Rain 10 1011 84 10000 4.12 180 17:53 30.12.2022
450 Rain 10 1011 84 10000 4.12 180 17:33 30.12.2022
451 Rain 10 1011 81 10000 4.12 170 15:58 30.12.2022
452 Clear 10 1012 79 10000 3.6 170 14:54 30.12.2022
453 Clear 10 1014 81 10000 3.6 170 12:52 30.12.2022
454 Clear 3 1016 76 10000 1.54 220 08:23 30.12.2022
455 Clouds 6 1016 79 10000 2.57 200 03:47 30.12.2022
456 Clouds 7 1015 77 10000 1.03 0 02:25 30.12.2022
457 Drizzle 7 1014 75 10000 4.12 200 23:41 29.12.2022
458 Rain 8 1013 78 10000 3.09 270 21:46 29.12.2022
459 Rain 9 1013 89 10000 4.12 290 20:54 29.12.2022
460 Rain 9 1013 91 10000 3.6 310 20:30 29.12.2022
461 Clouds 9 1012 89 10000 3.09 310 18:38 29.12.2022
462 Rain 10 1012 84 10000 4.63 230 17:53 29.12.2022
463 Rain 11 1011 83 10000 4.63 220 17:20 29.12.2022
464 Clear 11 1011 82 10000 3.09 210 16:54 29.12.2022
465 Clouds 12 1011 78 10000 3.6 200 15:47 29.12.2022
466 Clouds 13 1011 74 10000 4.12 210 13:37 29.12.2022
467 Clouds 13 1012 68 10000 4.12 200 11:48 29.12.2022
468 Clear 12 1011 70 10000 4.63 190 09:36 29.12.2022
469 Clear 11 1012 72 10000 3.09 200 03:34 29.12.2022
470 Clear 7 1013 83 10000 1.03 0 23:28 28.12.2022
471 Clear 8 1014 78 10000 2.06 190 21:55 28.12.2022
472 Clear 8 1014 76 10000 1.03 0 21:19 28.12.2022
473 Clear 8 1015 81 10000 2.06 170 19:54 28.12.2022
474 Clear 8 1016 78 10000 1.54 150 18:25 28.12.2022
475 Clear 9 1016 76 10000 2.57 180 16:20 28.12.2022
476 Clear 10 1018 72 10000 3.09 200 13:55 28.12.2022
477 Clouds 10 1020 75 10000 3.66 208 12:48 28.12.2022
478 Clear 8 1020 80 10000 2.57 150 11:33 28.12.2022
479 Clear 5 1021 88 10000 1.54 140 09:30 28.12.2022
480 Clear 4 1021 86 10000 0.51 0 07:32 28.12.2022
481 Clear 4 1021 85 10000 1.03 0 06:45 28.12.2022
482 Clear 1 1025 88 10000 0.51 0 00:56 28.12.2022
483 Clear 2 1026 90 10000 0.51 0 21:29 27.12.2022
484 Clear 3 1027 88 10000 1.54 270 19:51 27.12.2022
485 Clear 4 1027 85 10000 1.03 230 18:27 27.12.2022
486 Clear 6 1028 81 10000 1.54 180 16:59 27.12.2022
487 Clouds 7 1028 74 10000 2.57 180 15:54 27.12.2022
488 Clouds 8 1028 76 10000 3.09 230 14:25 27.12.2022
489 Clear 7 1029 78 10000 1.54 160 12:23 27.12.2022
490 Clear 3 1028 89 10000 2.06 220 09:48 27.12.2022
491 Clear 2 1029 92 10000 0 0 09:24 27.12.2022
492 Clear 2 1028 90 10000 0.51 0 08:47 27.12.2022
493 Clear 3 1027 89 10000 2.06 230 04:54 27.12.2022
494 Clouds 7 1023 86 10000 5.66 280 23:39 26.12.2022
495 Clouds 7 1023 86 10000 5.66 280 23:39 26.12.2022
496 Clouds 8 1021 91 10000 4.63 260 21:51 26.12.2022
497 Clouds 9 1020 87 10000 5.66 260 20:44 26.12.2022
498 Rain 10 1019 91 8000 4.63 260 19:51 26.12.2022
499 Rain 10 1018 91 10000 2.57 220 18:42 26.12.2022
500 Clouds 10 1018 88 10000 3.09 210 16:53 26.12.2022
501 Clouds 10 1018 90 10000 3.6 200 15:37 26.12.2022
502 Rain 10 1019 75 10000 2.06 200 12:59 26.12.2022
503 Rain 10 1018 90 10000 1.54 210 10:49 26.12.2022
504 Clear 10 1016 83 10000 2.06 210 05:43 26.12.2022
505 Clear 10 1016 83 10000 2.57 200 23:41 25.12.2022
506 Clear 10 1015 84 10000 2.06 190 22:51 25.12.2022
507 Clear 10 1015 85 10000 2.06 210 22:22 25.12.2022
508 Clear 11 1015 83 10000 2.57 210 19:56 25.12.2022
509 Clouds 11 1015 91 10000 2.13 192 17:52 25.12.2022
510 Clear 11 1014 87 10000 1.54 210 17:34 25.12.2022
511 Clear 12 1014 87 10000 0.51 0 16:41 25.12.2022
512 Clouds 14 1015 85 10000 1.5 181 14:26 25.12.2022
513 Clear 12 1016 89 10000 1.03 0 11:47 25.12.2022
514 Clouds 8 1018 79 6000 0.51 0 04:48 25.12.2022
515 Rain 9 1019 91 10000 1.54 190 22:56 24.12.2022
516 Clear 9 1018 88 10000 2.57 230 19:54 24.12.2022
517 Clear 9 1017 86 10000 1.03 0 17:35 24.12.2022
518 Clear 11 1016 85 10000 2.06 210 15:38 24.12.2022
519 Clouds 12 1016 84 10000 4.63 250 14:31 24.12.2022
520 Clouds 12 1017 82 10000 3.09 220 12:24 24.12.2022
521 Clouds 9 1016 89 10000 2.57 210 10:24 24.12.2022
522 Clouds 9 1015 90 10000 1.54 210 09:37 24.12.2022
523 Clouds 9 1015 91 10000 2.06 210 09:18 24.12.2022
524 Clouds 10 1013 90 10000 2.06 260 03:51 24.12.2022
525 Clear 11 1010 88 10000 3.09 230 00:43 24.12.2022
526 Clear 12 1010 89 10000 1.54 0 23:22 23.12.2022
527 Rain 12 1008 79 10000 4.12 250 21:44 23.12.2022
528 Rain 13 1007 77 7000 8.75 270 20:20 23.12.2022
529 Rain 13 1006 88 10000 3.6 210 19:39 23.12.2022
530 Rain 13 1006 88 10000 3.6 210 19:21 23.12.2022
531 Drizzle 13 1006 90 10000 3.6 210 18:38 23.12.2022
532 Clouds 13 1006 91 10000 3.09 200 18:18 23.12.2022
533 Clouds 12 1006 76 10000 3.6 200 15:55 23.12.2022
534 Clouds 12 1007 75 10000 3.09 200 14:37 23.12.2022
535 Clouds 11 1010 78 10000 1.03 180 10:34 23.12.2022
536 Clouds 11 1009 79 10000 1.03 0 09:36 23.12.2022
537 Clouds 11 1009 78 10000 1.03 0 07:45 23.12.2022
538 Clouds 11 1009 78 10000 1.03 190 06:50 23.12.2022
539 Clouds 11 1008 79 10000 4.12 230 05:19 23.12.2022
540 Rain 10 1008 90 10000 4.12 190 23:20 22.12.2022
541 Rain 10 1009 89 10000 3.09 210 21:56 22.12.2022
542 Rain 10 1010 86 10000 1.03 0 20:25 22.12.2022
543 Clouds 11 1011 84 10000 2.57 200 19:22 22.12.2022
544 Clear 11 1011 84 10000 4.12 220 18:25 22.12.2022
545 Clouds 11 1011 83 10000 6.69 230 16:54 22.12.2022
546 Clouds 11 1011 83 10000 6.69 230 16:30 22.12.2022
547 Clouds 12 1011 83 10000 4.63 220 15:30 22.12.2022
548 Clouds 12 1010 83 10000 6.69 240 14:45 22.12.2022
549 Clouds 11 1009 87 10000 3.6 210 13:31 22.12.2022
550 Clouds 11 1010 90 10000 5.14 230 12:32 22.12.2022
551 Rain 11 1009 83 10000 4.63 210 10:32 22.12.2022
552 Clouds 11 1009 85 10000 3.6 210 09:59 22.12.2022
553 Clouds 11 1009 83 10000 4.63 210 09:19 22.12.2022
554 Clouds 11 1009 84 10000 4.63 210 09:19 22.12.2022
555 Clouds 11 1009 87 10000 5.14 190 07:54 22.12.2022
556 Drizzle 10 1010 88 10000 4.63 210 04:19 22.12.2022
557 Clouds 9 1011 86 10000 0.51 0 00:51 22.12.2022
558 Clear 8 1012 89 10000 2.57 200 22:42 21.12.2022
559 Rain 8 1013 89 10000 2.57 210 21:51 21.12.2022
560 Rain 8 1013 91 10000 2.06 210 21:20 21.12.2022
561 Clear 8 1013 89 10000 2.06 210 20:45 21.12.2022
562 Clear 8 1014 89 10000 2.06 220 19:58 21.12.2022
563 Clear 9 1014 88 10000 2.06 220 19:39 21.12.2022
564 Clear 9 1014 89 10000 2.06 210 19:20 21.12.2022
565 Clouds 10 1014 81 10000 3.09 190 18:43 21.12.2022
566 Clouds 9 1014 92 10000 1.54 220 17:34 21.12.2022
567 Clouds 11 1014 87 10000 3.09 220 14:24 21.12.2022
568 Clouds 10 1015 92 10000 2.57 210 12:33 21.12.2022
569 Clouds 10 1015 91 10000 2.06 220 11:41 21.12.2022
570 Clouds 9 1015 89 10000 2.57 200 11:19 21.12.2022
571 Rain 9 1014 90 10000 2.06 210 08:52 21.12.2022
572 Rain 9 1014 70 10000 2.57 200 06:59 21.12.2022
573 Rain 4 1016 93 10000 0.51 0 00:32 21.12.2022
574 Rain 5 1016 90 10000 1.03 0 22:41 20.12.2022
575 Clear 5 1015 87 10000 1.03 0 21:18 20.12.2022
576 Clear 5 1016 87 10000 0.51 0 20:19 20.12.2022
577 Clouds 4 1018 94 10000 1.9 185 18:49 20.12.2022
578 Rain 5 1016 84 10000 1.03 0 18:26 20.12.2022
579 Clear 5 1016 91 10000 1.03 0 17:51 20.12.2022
580 Clear 4 1016 92 10000 0.51 120 17:28 20.12.2022
581 Clear 5 1016 92 10000 1.03 0 16:32 20.12.2022
582 Clouds 5 1018 91 6180 1.49 177 15:27 20.12.2022
583 Clear 6 1017 87 10000 0.51 0 14:36 20.12.2022
584 Clear 5 1017 90 10000 1.54 50 13:56 20.12.2022
585 Clear 6 1018 87 10000 1.03 0 12:44 20.12.2022
586 Clear 5 1019 90 10000 1.03 0 12:23 20.12.2022
587 Clear 5 1019 90 10000 1.03 0 11:28 20.12.2022
588 Clouds 2 1020 93 8000 0.51 0 08:23 20.12.2022
589 Clouds 2 1023 92 6000 1.03 60 00:32 20.12.2022
590 Clouds 2 1023 92 6000 0.51 0 22:36 19.12.2022
591 Clouds 2 1022 92 8000 1.54 60 21:41 19.12.2022
592 Clear 2 1023 90 10000 1.54 100 19:55 19.12.2022
593 Clear 2 1023 90 10000 1.54 100 19:37 19.12.2022
594 Clouds 2 1022 95 8000 0.51 0 18:24 19.12.2022
595 Clouds 3 1023 94 8000 0.51 150 16:35 19.12.2022
596 Clouds 4 1023 87 8000 1.54 60 13:26 19.12.2022
597 Clouds 3 1024 89 7000 0.51 0 11:55 19.12.2022
598 Mist 1 1025 92 3900 0.51 0 10:34 19.12.2022
599 Snow 0 1025 92 6000 1.03 0 07:40 19.12.2022
600 Snow -2 1025 89 7000 1.54 120 03:31 19.12.2022
601 Clear -3 1026 88 10000 1.03 0 22:33 18.12.2022
602 Snow -3 1026 88 10000 2.06 160 21:43 18.12.2022
603 Snow -3 1027 88 10000 2.57 160 21:21 18.12.2022
604 Clear -4 1027 89 10000 1.03 0 19:52 18.12.2022
605 Clear -4 1027 91 10000 1.03 140 19:34 18.12.2022
606 Clouds -4 1027 91 7000 0.51 120 17:53 18.12.2022
607 Clouds -3 1027 88 9000 0.51 0 16:32 18.12.2022
608 Clear -2 1027 86 10000 0.51 0 15:40 18.12.2022
609 Clear -2 1027 86 10000 0.51 0 15:40 18.12.2022
610 Clear -2 1027 86 10000 0.51 0 15:19 18.12.2022
611 Clouds -2 1028 86 8000 0.51 0 13:40 18.12.2022
612 Clouds -2 1030 88 10000 1.35 135 12:53 18.12.2022
613 Clouds -3 1028 92 8000 0.51 0 12:20 18.12.2022
614 Clouds -5 1032 93 10000 1.5 154 10:38 18.12.2022
615 Clouds -11 1028 90 8000 1.03 0 08:47 18.12.2022
616 Clouds -10 1033 92 10000 1.75 164 07:43 18.12.2022
617 Clouds -10 1028 92 7000 1.03 0 06:21 18.12.2022
618 Mist -10 1027 92 5000 0.51 0 03:40 18.12.2022
619 Fog -10 1027 94 500 0.51 0 00:45 18.12.2022
620 Fog -8 1027 93 400 0.51 0 22:21 17.12.2022
621 Fog -8 1026 92 300 1.03 0 19:42 17.12.2022
622 Fog -6 1026 91 450 0.51 0 17:18 17.12.2022
623 Fog -4 1025 92 500 1.03 0 14:44 17.12.2022
624 Mist -4 1025 91 2200 1.54 120 12:28 17.12.2022
625 Mist -5 1024 93 1800 1.54 220 10:50 17.12.2022
626 Mist -6 1024 93 4400 1.54 150 09:48 17.12.2022
627 Fog -6 1023 93 650 1.54 180 08:34 17.12.2022
628 Clouds -7 1022 93 10000 0 0 06:46 17.12.2022
629 Clouds -3 1018 80 10000 1.03 0 23:59 16.12.2022
630 Clouds -2 1016 80 10000 1.54 310 21:38 16.12.2022
631 Clouds -2 1015 80 10000 1.03 300 20:24 16.12.2022
632 Clouds -2 1013 79 10000 2.06 310 17:19 16.12.2022
633 Clouds -1 1011 82 10000 3.09 330 14:50 16.12.2022
634 Clouds -1 1010 82 10000 2.57 330 13:50 16.12.2022
635 Clouds -1 1010 85 10000 2.57 320 12:21 16.12.2022
636 Clouds -2 1009 88 10000 2.06 310 10:47 16.12.2022
637 Clouds -2 1008 91 10000 2.06 310 09:33 16.12.2022
638 Mist -2 1007 93 4100 3.09 320 08:26 16.12.2022
639 Snow -2 1006 92 4100 2.57 310 07:54 16.12.2022
640 Snow -1 1002 92 5000 3.6 350 23:53 15.12.2022
641 Clouds 0 1002 89 10000 3.09 20 22:33 15.12.2022
642 Clouds 0 1002 89 10000 3.6 20 20:54 15.12.2022
643 Clouds 0 1003 89 10000 3.6 40 19:37 15.12.2022
644 Clouds 0 1003 89 10000 3.09 40 18:34 15.12.2022
645 Clouds 0 1004 89 10000 3.6 30 17:27 15.12.2022
646 Clouds 1 1003 89 10000 2.57 60 15:41 15.12.2022
647 Clouds 1 1004 89 10000 2.06 40 14:37 15.12.2022
648 Clouds 0 1005 89 8000 1.54 10 12:47 15.12.2022
649 Clouds 0 1006 91 6000 1.54 10 10:41 15.12.2022
650 Mist -2 1005 93 5000 1.03 0 08:55 15.12.2022
651 Snow -2 1005 93 6000 0.51 0 07:58 15.12.2022
652 Snow -2 1005 93 4400 1.03 0 05:36 15.12.2022
653 Snow -2 1002 92 2500 1.54 10 22:35 14.12.2022
654 Snow -1 1002 92 3200 1.54 350 21:23 14.12.2022
655 Mist -1 1001 92 4600 1.54 340 20:36 14.12.2022
656 Mist -1 1001 94 3200 2.06 330 19:34 14.12.2022
657 Mist -1 999 94 3800 3.09 320 16:58 14.12.2022
658 Mist -1 999 94 4700 3.09 330 16:38 14.12.2022
659 Mist 0 997 93 2800 2.06 340 14:50 14.12.2022
660 Snow -1 997 92 3300 0.51 0 12:56 14.12.2022
661 Mist -1 998 89 3700 1.54 70 10:46 14.12.2022
662 Snow -1 998 87 10000 1.03 0 10:22 14.12.2022
663 Clouds -2 999 84 10000 2.57 70 06:37 14.12.2022
664 Clear -3 1004 80 10000 2.06 80 22:19 13.12.2022
665 Clear -3 1004 80 10000 2.57 80 21:37 13.12.2022
666 Snow -3 1005 80 10000 3.09 90 20:47 13.12.2022
667 Clear -3 1006 78 10000 3.6 80 19:21 13.12.2022
668 Clear -1 1007 72 10000 3.6 80 16:40 13.12.2022
669 Clear -1 1007 69 10000 4.63 80 14:59 13.12.2022
670 Clear -1 1007 69 10000 4.63 80 14:59 13.12.2022
671 Clear -1 1007 74 10000 4.12 70 13:37 13.12.2022
672 Clear -3 1008 84 10000 4.12 70 10:54 13.12.2022
673 Clear -4 1008 86 10000 4.12 80 10:27 13.12.2022
674 Clear -4 1008 86 10000 4.12 80 10:27 13.12.2022
675 Clear -7 1007 87 10000 1.54 90 08:30 13.12.2022
676 Clear -7 1007 87 10000 1.54 90 08:30 13.12.2022
677 Clear -5 1010 92 10000 1.03 0 22:37 12.12.2022
678 Clear -5 1010 92 10000 1.03 0 22:37 12.12.2022
679 Clear -5 1010 91 10000 2.06 70 21:59 12.12.2022
680 Clear -4 1011 90 10000 0.51 110 20:30 12.12.2022
681 Clear -3 1010 87 10000 1.03 100 18:25 12.12.2022
682 Clear 0 1010 83 10000 1.03 0 15:41 12.12.2022
683 Clear 1 1011 78 10000 1.54 0 14:25 12.12.2022
684 Snow -3 1011 90 10000 1.54 190 09:56 12.12.2022
685 Snow -3 1011 91 10000 1.03 0 09:18 12.12.2022
686 Clouds -3 1009 92 8000 0.51 280 04:52 12.12.2022
687 Clouds -1 1009 90 8000 0.51 0 01:51 12.12.2022
688 Clouds -2 1009 92 8000 1.54 350 22:19 11.12.2022
689 Clouds -2 1008 91 9000 2.06 50 20:41 11.12.2022
690 Clouds -1 1008 90 10000 0.51 0 19:40 11.12.2022
691 Clouds -1 1008 90 10000 0.51 0 18:55 11.12.2022
692 Clouds -1 1009 89 10000 1.54 360 17:55 11.12.2022
693 Clouds -1 1008 89 10000 2.06 360 17:28 11.12.2022
694 Clouds 0 1008 88 10000 2.06 360 16:49 11.12.2022
695 Clouds 0 1008 87 10000 1.54 60 15:45 11.12.2022
696 Snow 0 1008 87 10000 1.54 80 13:43 11.12.2022
697 Snow 0 1008 87 10000 1.03 0 12:43 11.12.2022
698 Snow -1 1009 90 10000 1.54 150 10:44 11.12.2022
699 Snow -1 1010 90 10000 0.51 0 04:54 11.12.2022
700 Clouds -1 1010 90 10000 2.06 300 00:32 11.12.2022
701 Clear -1 1009 91 10000 3.6 330 22:51 10.12.2022
702 Clear -1 1009 91 10000 3.6 330 22:32 10.12.2022
703 Clouds 0 1009 90 10000 2.57 280 21:18 10.12.2022
704 Clouds 0 1009 91 10000 3.09 300 20:24 10.12.2022
705 Clouds 0 1009 88 10000 4.12 320 18:33 10.12.2022
706 Clouds 1 1008 89 10000 4.12 310 16:47 10.12.2022
707 Clouds 2 1007 87 9000 4.12 320 15:53 10.12.2022
708 Clouds 2 1007 85 10000 3.09 340 15:34 10.12.2022
709 Clouds 2 1006 86 10000 4.12 320 13:59 10.12.2022
710 Snow 2 1006 87 10000 3.6 320 12:49 10.12.2022
711 Snow 2 1006 90 10000 4.12 350 11:28 10.12.2022
712 Clouds 1 1005 90 10000 4.12 350 10:28 10.12.2022
713 Clouds 1 1005 90 9000 3.6 350 08:37 10.12.2022
714 Clouds 1 1004 92 9000 2.57 10 07:19 10.12.2022
715 Clouds 1 1003 89 8000 1.03 0 23:56 09.12.2022
716 Clouds 1 1003 92 6000 0.51 0 22:44 09.12.2022
717 Clouds 1 1003 94 6000 1.54 30 21:48 09.12.2022
718 Drizzle 1 1003 94 6000 1.54 360 21:21 09.12.2022
719 Mist 1 1002 94 5000 1.54 10 20:41 09.12.2022
720 Clouds 1 1002 92 7000 1.54 350 18:40 09.12.2022
721 Snow 1 1002 92 8000 1.54 330 17:45 09.12.2022
722 Mist 1 1001 93 3200 1.03 0 16:30 09.12.2022
723 Snow 2 1001 90 10000 2.57 350 15:33 09.12.2022
724 Clouds 2 1001 87 10000 2.06 350 14:25 09.12.2022
725 Clouds 0 1002 89 10000 1.54 360 11:29 09.12.2022
726 Clouds -1 1002 90 10000 0.51 0 10:32 09.12.2022
727 Clouds -3 1003 90 10000 0.51 0 08:24 09.12.2022
728 Clear -3 1005 92 10000 1.03 0 03:19 09.12.2022
729 Clear -1 1006 89 10000 0.51 230 23:37 08.12.2022
730 Clouds 1 1007 86 10000 0.51 0 21:23 08.12.2022
731 Clouds 2 1007 85 10000 0.51 0 20:21 08.12.2022
732 Clouds 3 1008 80 10000 1.03 0 16:52 08.12.2022
733 Clear 4 1008 75 10000 2.06 190 14:52 08.12.2022
734 Clouds 4 1008 74 10000 1.54 170 14:24 08.12.2022
735 Clear 2 1010 83 10000 1.54 190 11:18 08.12.2022
736 Clear 0 1010 91 10000 1.03 0 09:45 08.12.2022
737 Clear -1 1010 94 10000 1.03 0 09:20 08.12.2022
738 Clear 2 1013 89 10000 1.54 190 23:56 07.12.2022
739 Clear 3 1013 89 10000 0.51 0 22:19 07.12.2022
740 Clear 3 1013 89 10000 1.03 0 21:48 07.12.2022
741 Clear 3 1014 89 10000 0.51 0 20:36 07.12.2022
742 Clouds 3 1014 86 10000 3.6 270 19:24 07.12.2022
743 Clouds 4 1015 87 10000 2.57 310 17:22 07.12.2022
744 Clouds 5 1015 85 10000 2.06 250 14:40 07.12.2022
745 Clear 4 1016 86 10000 2.57 230 11:41 07.12.2022
746 Clear 4 1017 87 10000 2.06 210 10:39 07.12.2022
747 Clear 3 1017 89 10000 1.03 0 09:41 07.12.2022
748 Clear 2 1016 92 10000 1.03 0 08:46 07.12.2022
749 Clouds 2 1016 92 10000 1.54 0 06:46 07.12.2022
750 Clear 3 1016 90 10000 1.03 0 04:44 07.12.2022
751 Clouds 4 1017 92 10000 2.06 290 22:39 06.12.2022
752 Clouds 4 1017 91 10000 1.54 290 20:24 06.12.2022
753 Clouds 4 1017 91 10000 2.57 290 18:21 06.12.2022
754 Clouds 4 1017 90 10000 2.57 310 16:41 06.12.2022
755 Clouds 4 1017 92 10000 3.6 290 15:51 06.12.2022
756 Clouds 4 1017 92 10000 3.09 310 15:20 06.12.2022
757 Clouds 4 1017 89 10000 3.09 330 14:25 06.12.2022
758 Clouds 4 1017 90 10000 0.51 0 12:58 06.12.2022
759 Clouds 4 1017 90 10000 0.51 0 12:40 06.12.2022
760 Clouds 3 1017 89 10000 1.54 260 08:44 06.12.2022
761 Clouds 3 1017 93 10000 0.51 0 05:57 06.12.2022
762 Clouds 3 1018 91 10000 1.03 0 01:26 06.12.2022
763 Clouds 4 1019 93 10000 1.03 0 22:36 05.12.2022
764 Clouds 4 1019 93 10000 0 0 20:56 05.12.2022
765 Clouds 4 1019 92 10000 0.51 0 20:36 05.12.2022
766 Clouds 4 1019 90 10000 1.03 0 19:45 05.12.2022
767 Clouds 5 1018 88 10000 1.03 0 17:56 05.12.2022
768 Clouds 5 1018 89 10000 4.63 260 16:48 05.12.2022
769 Clouds 6 1017 82 10000 4.12 250 15:22 05.12.2022
770 Clouds 6 1017 87 10000 2.57 0 13:22 05.12.2022
771 Rain 6 1018 87 10000 1.54 200 12:52 05.12.2022
772 Rain 6 1018 87 10000 1.54 200 12:33 05.12.2022
773 Rain 5 1018 90 10000 1.54 200 10:58 05.12.2022
774 Clouds 3 1015 92 10000 0.51 0 04:52 05.12.2022
775 Clouds 3 1013 90 10000 2.06 200 23:25 04.12.2022
776 Clouds 3 1012 92 9000 1.03 0 22:37 04.12.2022
777 Clouds 3 1012 92 9000 1.03 0 22:18 04.12.2022
778 Clouds 3 1012 92 6000 2.06 200 21:27 04.12.2022
779 Mist 3 1012 93 5000 0.51 0 19:48 04.12.2022
780 Mist 3 1012 93 5000 1.03 0 19:22 04.12.2022
781 Rain 3 1011 90 10000 1.54 10 17:40 04.12.2022
782 Rain 3 1011 91 10000 1.54 30 17:21 04.12.2022
783 Rain 3 1011 92 10000 1.54 330 16:36 04.12.2022
784 Clouds 3 1011 91 10000 1.54 330 16:18 04.12.2022
785 Rain 3 1011 91 10000 1.54 350 14:50 04.12.2022
786 Rain 3 1011 91 10000 1.03 0 13:44 04.12.2022
787 Rain 3 1012 91 10000 1.54 40 12:45 04.12.2022
788 Rain 3 1012 92 10000 2.06 360 11:59 04.12.2022
789 Rain 2 1013 92 10000 1.54 60 10:48 04.12.2022
790 Clouds 2 1012 91 10000 3.09 70 07:34 04.12.2022
791 Clouds 2 1012 90 10000 3.6 70 02:24 04.12.2022
792 Clouds 2 1013 90 10000 3.6 80 23:43 03.12.2022
793 Clouds 2 1014 90 10000 4.63 80 22:24 03.12.2022
794 Clouds 2 1014 90 10000 4.12 80 21:41 03.12.2022
795 Clouds 2 1014 90 10000 3.6 90 20:35 03.12.2022
796 Clouds 2 1014 90 10000 2.57 90 18:40 03.12.2022
797 Clouds 2 1015 89 10000 3.6 60 17:30 03.12.2022
798 Clouds 2 1014 91 10000 3.09 80 15:49 03.12.2022
799 Clouds 3 1016 89 10000 3.6 70 12:56 03.12.2022
800 Clouds 3 1016 89 10000 3.6 70 12:28 03.12.2022
801 Clouds 3 1016 93 10000 4.12 80 10:30 03.12.2022
802 Clouds 3 1016 92 9000 1.03 0 07:59 03.12.2022
803 Clouds 3 1017 78 7000 1.03 70 01:31 03.12.2022
804 Clouds 3 1017 78 7000 1.03 70 01:31 03.12.2022
805 Clouds 3 1017 80 7000 1.03 70 01:31 03.12.2022
806 Clouds 3 1017 76 9000 1.54 90 23:26 02.12.2022
807 Clouds 3 1017 94 10000 2.06 10 21:42 02.12.2022
808 Drizzle 3 1017 81 10000 1.03 0 19:37 02.12.2022
809 Drizzle 4 1016 93 10000 1.03 0 16:26 02.12.2022
810 Drizzle 4 1016 93 10000 2.06 330 15:53 02.12.2022
811 Drizzle 4 1016 93 6000 2.06 320 14:28 02.12.2022
812 Drizzle 4 1017 92 4500 2.06 320 13:43 02.12.2022
813 Drizzle 4 1017 93 5000 2.57 330 11:49 02.12.2022
814 Drizzle 4 1018 93 3700 2.06 310 10:30 02.12.2022
815 Clouds 4 1018 91 6000 2.06 330 07:50 02.12.2022
816 Drizzle 4 1018 91 7000 2.06 340 07:22 02.12.2022
817 Drizzle 4 1021 92 10000 2.57 350 22:50 01.12.2022
818 Clouds 4 1021 92 10000 2.06 340 21:41 01.12.2022
819 Clouds 4 1021 92 10000 2.06 330 20:37 01.12.2022
820 Clouds 4 1021 90 10000 3.09 330 18:59 01.12.2022
821 Clouds 5 1021 89 10000 2.57 340 17:21 01.12.2022
822 Clouds 5 1021 87 10000 2.57 350 14:32 01.12.2022
823 Clouds 3 1022 89 10000 2.57 350 11:20 01.12.2022
824 Clouds 3 1022 89 10000 2.57 360 09:54 01.12.2022
825 Clouds 3 1022 89 10000 2.57 360 09:36 01.12.2022
826 Clouds 3 1021 89 10000 2.57 20 06:38 01.12.2022
827 Clouds 4 1021 90 10000 3.6 60 22:41 30.11.2022
828 Clouds 4 1021 89 10000 3.6 60 21:46 30.11.2022
829 Clouds 5 1021 90 10000 2.06 80 21:19 30.11.2022
830 Clouds 5 1021 90 10000 2.06 70 20:23 30.11.2022
831 Clouds 6 1020 90 10000 2.06 30 18:50 30.11.2022
832 Clouds 6 1020 91 10000 2.06 60 18:31 30.11.2022
833 Clouds 6 1020 92 10000 2.06 40 16:53 30.11.2022
834 Clouds 7 1020 90 10000 2.57 40 14:46 30.11.2022
835 Clouds 7 1020 88 10000 2.57 40 14:26 30.11.2022
836 Clouds 7 1020 89 10000 2.57 70 12:21 30.11.2022
837 Clouds 6 1020 92 7000 2.06 80 09:44 30.11.2022
838 Clouds 6 1019 76 10000 2.06 40 08:30 30.11.2022
839 Clouds 6 1019 79 7000 1.54 20 06:43 30.11.2022
840 Rain 6 1019 76 9000 1.54 10 23:29 29.11.2022
841 Rain 6 1019 76 9000 1.54 10 23:29 29.11.2022
842 Clouds 6 1018 76 9000 2.57 340 22:19 29.11.2022
843 Clouds 7 1018 76 9000 3.09 340 20:52 29.11.2022
844 Clouds 7 1018 76 10000 2.06 340 20:28 29.11.2022
845 Clouds 7 1018 76 10000 2.06 360 18:44 29.11.2022
846 Rain 7 1017 79 10000 2.57 340 16:51 29.11.2022
847 Drizzle 8 1016 92 10000 3.09 350 15:38 29.11.2022
848 Drizzle 8 1016 92 10000 3.6 340 14:48 29.11.2022
849 Clouds 8 1016 92 9000 2.57 340 12:43 29.11.2022
850 Clouds 8 1016 76 10000 2.06 320 11:31 29.11.2022
851 Rain 7 1015 76 10000 2.06 300 10:31 29.11.2022
852 Clouds 7 1015 79 10000 1.54 250 09:28 29.11.2022
853 Drizzle 7 1014 78 4500 2.57 250 07:46 29.11.2022
854 Rain 6 1013 93 9000 0.51 320 00:33 29.11.2022
855 Drizzle 7 1013 93 10000 0.51 0 23:27 28.11.2022
856 Drizzle 7 1013 93 7000 0.51 0 22:28 28.11.2022
857 Rain 7 1013 93 7000 0.51 210 21:43 28.11.2022
858 Drizzle 7 1012 93 10000 2.06 270 20:33 28.11.2022
859 Rain 7 1012 92 10000 0.51 0 19:37 28.11.2022
860 Drizzle 7 1012 91 10000 1.03 300 18:29 28.11.2022
861 Drizzle 7 1012 90 10000 0.51 290 17:35 28.11.2022
862 Rain 8 1012 88 10000 1.54 80 15:22 28.11.2022
863 Rain 8 1013 85 10000 0.51 0 13:59 28.11.2022
864 Rain 8 1013 85 10000 1.03 70 13:37 28.11.2022
865 Rain 6 1013 86 10000 1.03 0 11:49 28.11.2022
866 Clear 4 1013 90 10000 1.03 0 09:27 28.11.2022
867 Rain 4 1013 89 10000 0.51 0 04:58 28.11.2022
868 Rain 4 1013 89 10000 0.51 0 04:40 28.11.2022
869 Clear 4 1014 88 10000 1.03 0 03:23 28.11.2022
870 Rain 5 1015 86 10000 0.51 0 00:42 28.11.2022
871 Rain 5 1017 87 10000 1.54 80 22:28 27.11.2022
872 Clear 5 1017 88 10000 2.06 100 21:19 27.11.2022
873 Clear 6 1019 79 10000 3.09 140 18:57 27.11.2022
874 Clear 7 1020 77 10000 2.06 140 16:45 27.11.2022
875 Clear 9 1022 77 10000 0.51 0 14:29 27.11.2022
876 Clouds 8 1024 81 10000 2.06 147 12:31 27.11.2022
877 Clouds 5 1026 84 10000 1.96 147 10:39 27.11.2022
878 Clouds 0 1028 98 10000 1.64 157 07:55 27.11.2022
879 Fog 1 1030 73 200 0.51 0 23:41 26.11.2022
880 Clouds 2 1029 76 7000 0.51 0 21:44 26.11.2022
881 Clear 3 1030 93 10000 1.03 310 20:35 26.11.2022
882 Clear 4 1030 91 10000 0.51 290 18:57 26.11.2022
883 Clear 8 1030 87 10000 1.54 30 16:49 26.11.2022
884 Clear 9 1030 81 10000 1.03 0 15:38 26.11.2022
885 Clouds 9 1032 90 10000 0.58 291 12:55 26.11.2022
886 Clouds 8 1031 74 10000 1.03 0 11:23 26.11.2022
887 Clear 6 1032 72 10000 0.93 268 09:44 26.11.2022
888 Clear 6 1032 76 10000 1.1 240 08:46 26.11.2022
889 Clouds 6 1025 76 10000 2.06 240 23:23 25.11.2022
890 Clear 6 1024 74 10000 2.06 230 21:41 25.11.2022
891 Clouds 6 1023 77 10000 3.09 240 21:19 25.11.2022
892 Clouds 7 1022 74 10000 1.54 220 19:44 25.11.2022
893 Clouds 8 1020 70 10000 3.09 250 16:40 25.11.2022
894 Clouds 7 1018 90 10000 4.12 250 13:43 25.11.2022
895 Rain 2 1016 93 10000 1.03 0 09:20 25.11.2022
896 Clear 2 1016 94 10000 1.03 170 08:40 25.11.2022
897 Clear 2 1015 92 10000 0.51 0 06:53 25.11.2022
898 Clear 1 1015 92 10000 0.51 0 02:31 25.11.2022
899 Clear 2 1015 92 10000 1.54 300 23:47 24.11.2022
900 Clear 3 1015 92 10000 1.03 0 22:43 24.11.2022
901 Clear 3 1015 92 10000 1.03 0 21:55 24.11.2022
902 Clear 5 1016 90 10000 1.54 230 19:50 24.11.2022
903 Clear 7 1016 87 10000 0.51 0 18:18 24.11.2022
904 Clouds 8 1015 82 10000 1.03 0 17:38 24.11.2022
905 Clouds 9 1015 81 10000 1.03 0 17:19 24.11.2022
906 Clouds 10 1015 81 10000 4.12 270 14:27 24.11.2022
907 Clouds 10 1014 84 10000 2.57 230 13:42 24.11.2022
908 -273 0 0 0 0 0 11:53 24.11.2022
909 -273 0 0 0 0 0 11:52 24.11.2022
910 Clouds 7 1013 90 10000 2.06 0 10:33 24.11.2022
911 Clear 7 1011 91 10000 2.06 180 06:25 24.11.2022
912 Clouds 7 1009 74 10000 2.06 200 01:56 24.11.2022
913 Clouds 7 1007 87 10000 2.06 230 23:32 23.11.2022
914 Clouds 7 1005 90 10000 3.09 220 21:55 23.11.2022
915 Clouds 7 1005 90 10000 3.6 210 21:19 23.11.2022
916 Rain 7 1003 89 10000 2.57 200 19:57 23.11.2022
917 Rain 7 1002 82 10000 3.6 200 18:58 23.11.2022
918 Rain 8 1002 77 10000 1.54 160 18:20 23.11.2022
919 Clear 9 1001 68 10000 2.57 170 16:22 23.11.2022
920 Clear 10 1003 67 10000 3.6 150 13:26 23.11.2022
921 Clear 10 1003 68 10000 3.09 160 12:58 23.11.2022
922 Clear 9 1003 75 10000 2.06 150 11:54 23.11.2022
923 Clear 8 1003 80 10000 2.57 160 11:19 23.11.2022
924 Clear 7 1003 81 10000 2.06 150 10:42 23.11.2022
925 Clear 5 1003 90 10000 1.03 0 09:41 23.11.2022
926 Clear 5 1003 90 10000 1.54 130 09:23 23.11.2022
927 Clear 3 1003 94 10000 0.51 0 08:36 23.11.2022
928 Clear 3 1003 94 10000 0.51 0 08:36 23.11.2022
929 Clear 4 1003 92 10000 1.03 0 05:21 23.11.2022
930 Clear 4 1003 92 10000 1.03 0 02:36 23.11.2022
931 Clear 6 1002 86 10000 1.54 190 22:58 22.11.2022
932 Clear 7 1002 85 10000 1.54 180 21:54 22.11.2022
933 Clear 7 1001 84 10000 2.57 210 21:32 22.11.2022
934 Clear 7 1001 84 10000 1.54 190 20:45 22.11.2022
935 Clear 7 1001 84 10000 1.54 190 20:45 22.11.2022
936 Clouds 7 1001 82 10000 2.06 210 19:52 22.11.2022
937 Clear 7 1000 78 10000 2.06 190 17:55 22.11.2022
938 Clear 8 1000 77 10000 2.57 180 16:48 22.11.2022
939 Clear 9 999 75 10000 4.12 190 15:24 22.11.2022
940 Clouds 8 999 79 10000 2.57 180 13:41 22.11.2022
941 Clear 7 1000 71 10000 3.6 190 11:40 22.11.2022
942 Clouds 5 999 76 10000 0 0 09:18 22.11.2022
943 Clouds 5 998 77 10000 0.51 250 07:18 22.11.2022
944 Clouds 5 996 93 10000 0.51 0 01:40 22.11.2022
945 Rain 6 997 88 10000 1.03 0 23:40 21.11.2022
946 Rain 5 997 90 10000 0.51 0 22:40 21.11.2022
947 Rain 5 997 89 10000 1.03 250 21:58 21.11.2022
948 Rain 5 997 88 10000 1.03 0 20:49 21.11.2022
949 Rain 5 998 89 10000 1.03 0 19:41 21.11.2022
950 Clear 5 998 88 10000 1.54 90 18:54 21.11.2022
951 Clear 5 999 88 10000 1.54 90 17:51 21.11.2022
952 Clear 7 1001 84 10000 1.54 50 16:55 21.11.2022
953 Clear 7 1001 83 10000 1.54 50 16:37 21.11.2022
954 Clear 9 1002 76 10000 1.54 190 15:37 21.11.2022
955 Clouds 9 1003 77 10000 2.06 260 14:28 21.11.2022
956 Clouds 8 1004 82 10000 2.57 230 13:43 21.11.2022
957 Clear 7 1007 84 10000 3.09 210 10:48 21.11.2022
958 Clouds 5 1007 90 10000 2.06 150 08:59 21.11.2022
959 Clouds 5 1007 90 10000 2.06 200 07:39 21.11.2022
960 Clouds 6 1008 86 10000 4.63 200 22:34 20.11.2022
961 Clouds 6 1008 87 10000 3.09 200 21:34 20.11.2022
962 Rain 7 1008 84 10000 2.57 190 20:24 20.11.2022
963 Rain 6 1009 86 10000 1.03 0 18:25 20.11.2022
964 Clouds 7 1010 81 10000 3.6 240 16:23 20.11.2022
965 Clouds 8 1011 74 10000 5.14 240 15:29 20.11.2022
966 Clouds 9 1011 75 10000 5.66 230 14:41 20.11.2022
967 Clouds 8 1011 83 10000 4.63 230 13:32 20.11.2022
968 Clouds 7 1012 90 10000 3.09 220 12:38 20.11.2022
969 Rain 7 1012 87 10000 5.14 220 11:25 20.11.2022
970 Clouds 7 1011 88 10000 3.6 210 10:40 20.11.2022
971 Clear 6 1011 89 10000 2.57 200 09:23 20.11.2022
972 Clouds 6 1011 89 10000 2.06 190 08:35 20.11.2022
973 Clouds 6 1011 87 10000 2.57 190 07:30 20.11.2022
974 Clear 5 1011 74 10000 2.06 210 04:25 20.11.2022
975 Clear 5 1011 78 10000 2.06 200 01:21 20.11.2022
976 Clear 5 1011 74 10000 2.06 0 00:42 20.11.2022
977 Clouds 5 1011 74 10000 2.06 210 00:23 20.11.2022
978 Clouds 5 1011 75 10000 2.57 200 23:51 19.11.2022
979 Clouds 5 1011 75 10000 2.06 0 23:24 19.11.2022
980 Clouds 6 1011 75 10000 3.09 220 22:39 19.11.2022
981 Clouds 6 1011 78 10000 1.54 210 21:32 19.11.2022
982 Rain 6 1010 75 10000 3.09 220 20:57 19.11.2022
983 Clouds 6 1010 75 10000 3.09 220 20:33 19.11.2022
984 Clouds 6 1010 74 10000 2.57 220 19:22 19.11.2022
985 Clouds 7 1009 75 10000 3.09 250 17:41 19.11.2022
986 Clouds 7 1009 72 10000 2.57 240 17:20 19.11.2022
987 Clouds 8 1009 70 10000 3.09 250 15:59 19.11.2022
988 Clouds 8 1009 70 10000 2.57 240 14:38 19.11.2022
989 Clouds 9 1009 87 10000 2.57 210 12:23 19.11.2022
990 Clouds 8 1009 75 10000 2.06 200 10:57 19.11.2022
991 Clouds 7 1008 77 10000 1.54 230 08:43 19.11.2022
992 Clouds 7 1007 74 10000 2.06 230 04:59 19.11.2022
993 Clouds 7 1007 76 10000 1.54 220 02:56 19.11.2022
994 Rain 7 1007 92 10000 2.57 240 00:18 19.11.2022
995 Rain 7 1007 91 10000 3.09 230 23:19 18.11.2022
996 Clouds 8 1006 89 10000 2.06 210 21:50 18.11.2022
997 Clouds 8 1006 88 10000 3.09 220 21:30 18.11.2022
998 Clouds 8 1006 88 10000 1.54 0 20:38 18.11.2022
999 Clouds 8 1006 89 10000 3.09 230 19:47 18.11.2022
1000 Clear 8 1006 91 10000 1.54 220 18:49 18.11.2022
1001 Clouds 8 1005 89 10000 2.57 240 17:44 18.11.2022
1002 Clouds 9 1004 73 10000 5.66 280 14:33 18.11.2022
1003 Clouds 8 1003 75 10000 2.06 230 11:41 18.11.2022
1004 Rain 7 1002 75 10000 3.6 230 09:19 18.11.2022
1005 Clouds 7 1001 76 10000 1.03 0 07:52 18.11.2022
1006 Rain 8 999 77 10000 2.06 240 05:26 18.11.2022
1007 Rain 8 999 77 10000 2.06 240 05:26 18.11.2022
1008 Rain 8 998 76 10000 1.03 0 01:42 18.11.2022
1009 Rain 9 998 91 10000 1.54 200 22:29 17.11.2022
1010 Rain 11 997 80 10000 3.6 200 20:46 17.11.2022
1011 Clouds 12 997 81 10000 1.54 170 19:51 17.11.2022
1012 Clear 11 996 82 10000 1.54 190 18:57 17.11.2022
1013 Clear 11 996 82 10000 1.03 0 17:54 17.11.2022
1014 Clear 13 997 75 10000 2.57 210 16:54 17.11.2022
1015 Clouds 14 997 69 10000 3.6 210 15:20 17.11.2022
1016 Clear 13 997 77 10000 4.63 200 11:44 17.11.2022
1017 Clear 12 996 84 10000 4.63 200 10:23 17.11.2022
1018 Rain 9 996 77 10000 1.54 150 05:58 17.11.2022
1019 Rain 7 999 76 10000 0.51 40 00:50 17.11.2022
1020 Clear 7 1000 70 10000 0.51 0 22:38 16.11.2022
1021 Clear 7 1001 74 10000 0.51 0 21:49 16.11.2022
1022 Clear 8 1001 76 10000 1.54 60 20:22 16.11.2022
1023 Clear 9 1002 87 10000 1.03 0 18:48 16.11.2022
1024 Clear 10 1002 83 10000 1.03 0 17:58 16.11.2022
1025 Clouds 13 1003 77 10000 3.09 210 14:41 16.11.2022
1026 Clouds 12 1004 72 10000 0.51 0 10:53 16.11.2022
1027 Clouds 10 1003 78 6000 1.03 0 06:49 16.11.2022
1028 Rain 10 1003 91 10000 1.03 0 01:35 16.11.2022
1029 Clear 11 1004 93 10000 1.03 60 23:18 15.11.2022
1030 Rain 11 1005 90 10000 0.51 0 21:23 15.11.2022
1031 Clear 12 1006 87 10000 1.03 0 19:42 15.11.2022
1032 Clear 12 1006 87 10000 1.03 0 18:51 15.11.2022
1033 Clouds 12 1007 87 10000 2.22 124 17:35 15.11.2022
1034 Rain 13 1008 85 10000 2.51 102 16:20 15.11.2022
1035 Rain 14 1009 80 10000 2.06 130 15:35 15.11.2022
1036 Clear 14 1010 82 10000 1.54 90 13:43 15.11.2022
1037 Clear 14 1010 80 10000 0.51 0 12:54 15.11.2022
1038 Clear 13 1011 81 10000 0.51 30 11:21 15.11.2022
1039 Clear 9 1012 90 10000 1.03 0 09:38 15.11.2022
1040 Clouds 9 1015 90 10000 2.07 179 00:42 15.11.2022
1041 Clear 9 1015 92 10000 0.51 0 00:22 15.11.2022
1042 Clear 10 1015 84 10000 1.54 130 21:56 14.11.2022
1043 Clear 10 1015 88 10000 1.54 150 20:44 14.11.2022
1044 Rain 10 1016 89 10000 2.13 163 19:42 14.11.2022
1045 Clear 10 1015 84 10000 0.51 0 18:25 14.11.2022
1046 Clouds 11 1014 84 10000 5.14 170 12:55 14.11.2022
1047 Clouds 11 1014 84 10000 5.14 170 12:55 14.11.2022
1048 Clouds 11 1014 84 10000 5.14 170 12:55 14.11.2022
1049 Clouds 11 1014 84 10000 5.14 170 12:55 14.11.2022
1050 Clouds 11 1014 84 10000 5.14 170 12:55 14.11.2022
1051 Clouds 9 1015 93 10000 2.57 40 11:47 14.11.2022
1052 Rain 8 1015 90 10000 1.54 0 10:58 14.11.2022
1053 Clear 3 1014 98 10000 1.03 0 08:34 14.11.2022
1054 Snow 2 1014 94 10000 0.51 0 07:52 14.11.2022
1055 Clear 3 1017 90 10000 1.23 207 02:32 14.11.2022
1056 Clear 4 1017 87 10000 2.06 230 22:50 13.11.2022
1057 Clear 4 1017 93 10000 1.03 0 21:42 13.11.2022
1058 Clear 5 1017 93 10000 1.03 0 20:48 13.11.2022
1059 Clear 6 1018 89 10000 0.51 0 18:54 13.11.2022
1060 Clear 7 1018 87 10000 1.03 0 17:50 13.11.2022
1061 Clear 10 1018 82 10000 1.54 10 15:55 13.11.2022
1062 Clear 12 1019 71 10000 1.03 0 14:39 13.11.2022
1063 Clear 10 1021 76 10000 1.03 0 12:56 13.11.2022
1064 Clouds 6 1022 87 10000 1.03 0 11:55 13.11.2022
1065 Fog 3 1022 93 6000 1.03 0 10:42 13.11.2022
1066 Fog 1 1024 100 1100 0.51 0 05:53 13.11.2022
1067 Clear 4 1027 94 10000 1.03 0 23:55 12.11.2022
1068 Clear 5 1028 66 10000 1.03 320 21:41 12.11.2022
1069 Clear 6 1028 64 10000 2.06 310 21:19 12.11.2022
1070 Clear 7 1029 91 10000 1.03 80 19:46 12.11.2022
1071 Clear 10 1030 89 10000 0 0 16:58 12.11.2022
1072 Clear 12 1030 85 10000 0.51 0 15:59 12.11.2022
1073 Clear 12 1030 81 10000 0.51 0 14:46 12.11.2022
1074 Clouds 7 1032 91 10000 1.54 100 10:39 12.11.2022
1075 Fog 4 1032 100 450 0.51 0 08:25 12.11.2022
1076 Mist 5 1033 73 10000 0.51 60 00:40 12.11.2022
1077 Fog 6 1033 73 10000 1.03 60 21:35 11.11.2022
1078 Clear 6 1032 71 10000 0.51 0 20:44 11.11.2022
1079 Clear 7 1032 70 10000 0.51 0 19:29 11.11.2022
1080 Clear 9 1032 89 10000 1.03 0 18:41 11.11.2022
1081 Clear 10 1032 90 10000 1.03 210 17:41 11.11.2022
1082 Clear 14 1032 80 10000 0.51 0 15:30 11.11.2022
1083 Clear 14 1032 82 10000 1.54 70 14:18 11.11.2022
1084 Clear 12 1033 84 10000 1.03 0 12:46 11.11.2022
1085 Clear 4 1033 100 10000 0.51 60 09:36 11.11.2022
1086 Clouds 4 1034 96 10000 1.64 179 08:27 11.11.2022
1087 Clouds 5 1031 95 10000 2 176 03:55 11.11.2022
1088 Clear 6 1031 71 10000 0.51 0 23:21 10.11.2022
1089 Clear 7 1031 93 10000 0.51 0 21:55 10.11.2022
1090 Clear 6 1030 92 10000 0.51 0 21:32 10.11.2022
1091 Clear 7 1030 92 10000 1.03 0 20:49 10.11.2022
1092 Clear 7 1030 91 10000 2.06 320 20:20 10.11.2022
1093 Clear 8 1030 89 10000 0.51 0 19:42 10.11.2022
1094 Clear 9 1030 87 10000 1.03 0 18:32 10.11.2022
1095 Clear 14 1028 77 10000 1.54 260 16:26 10.11.2022
1096 Clouds 15 1028 70 10000 1.54 190 13:56 10.11.2022
1097 Clear 13 1028 83 10000 1.54 210 11:38 10.11.2022
1098 Clear 9 1026 77 10000 1.54 250 08:43 10.11.2022
1099 Rain 11 1020 75 10000 1.54 280 01:34 10.11.2022
1100 Rain 11 1019 77 10000 1.54 230 23:39 09.11.2022
1101 Rain 12 1018 76 10000 2.06 220 22:36 09.11.2022
1102 Rain 12 1017 75 10000 3.09 210 20:48 09.11.2022
1103 Rain 12 1017 77 10000 1.54 0 20:29 09.11.2022
1104 Rain 13 1016 77 10000 1.03 0 19:43 09.11.2022
1105 Rain 13 1016 77 10000 2.06 190 19:18 09.11.2022
1106 Rain 14 1015 89 10000 1.03 0 16:31 09.11.2022
1107 Rain 15 1014 87 10000 2.06 200 14:48 09.11.2022
1108 Rain 15 1014 88 10000 1.54 190 14:25 09.11.2022
1109 Rain 14 1014 87 10000 2.06 190 13:30 09.11.2022
1110 Rain 14 1014 73 10000 1.03 0 12:34 09.11.2022
1111 Rain 11 1014 77 10000 1.03 0 08:44 09.11.2022
1112 Rain 10 1013 79 10000 2.06 170 07:46 09.11.2022
1113 Clear 10 1013 89 10000 0.51 0 01:44 09.11.2022
1114 Clear 11 1013 86 10000 0.51 0 21:56 08.11.2022
1115 Clear 11 1013 86 10000 0.51 0 21:35 08.11.2022
1116 Clear 11 1013 83 10000 1.03 280 20:41 08.11.2022
1117 Clear 12 1013 83 10000 1.03 0 19:47 08.11.2022
1118 Clear 12 1013 83 10000 1.03 0 18:59 08.11.2022
1119 Clear 13 1013 82 10000 1.03 70 17:32 08.11.2022
1120 Clear 17 1013 68 10000 1.54 130 14:57 08.11.2022
1121 Clear 17 1013 66 10000 2.06 130 14:23 08.11.2022
1122 Clear 15 1014 71 10000 1.03 0 13:26 08.11.2022
1123 Clear 12 1014 81 10000 1.54 250 10:28 08.11.2022
1124 Clear 5 1014 93 10000 0.51 0 07:38 08.11.2022
1125 Clear 6 1016 93 10000 0.51 0 01:50 08.11.2022
1126 Clear 8 1017 90 10000 0.51 0 22:56 07.11.2022
1127 Clear 9 1017 89 10000 1.54 270 21:40 07.11.2022
1128 Clear 10 1017 87 10000 1.03 0 20:46 07.11.2022
1129 Clear 11 1017 84 10000 1.54 200 19:37 07.11.2022
1130 Clear 13 1017 75 10000 1.03 0 17:41 07.11.2022
1131 Clouds 15 1017 67 10000 3.09 230 15:38 07.11.2022
1132 Clouds 15 1017 66 10000 2.57 240 14:55 07.11.2022
1133 Clear 15 1017 70 10000 4.12 240 13:33 07.11.2022
1134 Clear 14 1017 73 10000 2.06 190 12:24 07.11.2022
1135 Clear 13 1017 78 10000 2.06 200 10:45 07.11.2022
1136 Clear 10 1017 88 10000 1.03 0 08:31 07.11.2022
1137 Clear 9 1016 87 10000 1.54 230 06:33 07.11.2022
1138 Clouds 10 1016 86 10000 2.57 220 01:48 07.11.2022
1139 Clear 10 1014 75 10000 2.57 220 23:46 06.11.2022
1140 Clear 9 1014 79 10000 1.03 0 21:22 06.11.2022
1141 Clear 8 1013 82 10000 1.03 0 20:49 06.11.2022
1142 Rain 8 1013 81 10000 2.57 200 19:57 06.11.2022
1143 Clear 8 1012 80 10000 1.54 190 19:28 06.11.2022
1144 Rain 8 1012 82 10000 1.54 140 18:20 06.11.2022
1145 Rain 8 1012 81 10000 1.54 130 17:45 06.11.2022
1146 Clear 8 1012 79 10000 2.57 150 17:19 06.11.2022
1147 Clear 9 1013 78 10000 1.03 0 16:19 06.11.2022
1148 Clear 10 1013 75 10000 2.57 80 15:20 06.11.2022
1149 Clear 10 1015 83 10000 2.57 70 12:47 06.11.2022
1150 Clear 9 1016 83 10000 1.54 90 11:40 06.11.2022
1151 Clouds 8 1017 87 10000 2.6 151 10:33 06.11.2022
1152 Clouds 2 1019 93 10000 1.76 152 07:44 06.11.2022
1153 Clear 4 1021 94 10000 0.51 0 23:26 05.11.2022
1154 Clear 4 1021 95 10000 0.51 0 23:25 05.11.2022
1155 Clear 5 1021 93 10000 0.51 0 22:35 05.11.2022
1156 Clouds 8 1021 88 10000 0 0 19:18 05.11.2022
1157 Clouds 9 1020 82 10000 2.06 300 16:56 05.11.2022
1158 Clouds 10 1019 82 10000 2.06 260 15:20 05.11.2022
1159 Clouds 10 1019 83 10000 3.09 300 13:51 05.11.2022
1160 Clouds 9 1019 89 10000 5.14 300 11:52 05.11.2022
1161 Rain 9 1018 92 10000 2.57 270 09:33 05.11.2022
1162 Rain 9 1016 92 10000 2.57 240 07:23 05.11.2022
1163 Rain 8 1016 94 9000 2.06 250 06:56 05.11.2022
1164 Clouds 9 1013 92 10000 1.54 240 00:45 05.11.2022
1165 Clouds 9 1012 93 10000 1.03 0 23:29 04.11.2022
1166 Clouds 9 1011 89 10000 2.06 260 21:40 04.11.2022
1167 Clouds 9 1009 91 10000 0.51 0 19:40 04.11.2022
1168 Clouds 10 1008 87 10000 1.03 0 17:44 04.11.2022
1169 Rain 12 1007 75 10000 1.03 0 15:27 04.11.2022
1170 Clouds 12 1007 76 10000 1.54 220 13:19 04.11.2022
1171 Clear 12 1007 79 10000 2.06 160 12:19 04.11.2022
1172 Clear 8 1007 76 10000 0.51 0 09:31 04.11.2022
1173 Clear 8 1008 76 10000 1.03 0 08:20 04.11.2022
1174 Clear 8 1007 92 10000 0.51 0 06:51 04.11.2022
1175 Rain 11 1006 89 10000 3.09 230 00:56 04.11.2022
1176 Rain 11 1005 87 10000 1.03 0 21:48 03.11.2022
1177 Rain 12 1005 84 10000 1.54 0 20:47 03.11.2022
1178 Rain 12 1006 83 10000 1.03 0 19:42 03.11.2022
1179 Rain 12 1006 87 10000 1.03 0 18:27 03.11.2022
1180 Clear 12 1007 86 10000 1.54 80 17:37 03.11.2022
1181 Clear 14 1010 85 10000 1.03 90 15:24 03.11.2022
1182 Clouds 15 1011 83 10000 2.15 153 13:37 03.11.2022
1183 Clear 13 1014 84 10000 0.51 0 12:35 03.11.2022
1184 Clear 12 1015 84 10000 1.03 0 11:41 03.11.2022
1185 Clear 4 1016 57 10000 0.51 0 07:48 03.11.2022
1186 Clear 7 1022 91 10000 0.51 0 22:43 02.11.2022
1187 Clear 8 1023 90 10000 0.51 90 20:56 02.11.2022
1188 Clear 8 1023 87 10000 1.03 0 20:32 02.11.2022
1189 Clear 9 1023 87 10000 0.51 90 18:45 02.11.2022
1190 Clouds 15 1024 69 10000 3.09 310 16:29 02.11.2022
1191 Clouds 15 1024 66 10000 3.09 300 15:33 02.11.2022
1192 Clouds 15 1025 74 10000 4.12 240 13:26 02.11.2022
1193 Clouds 15 1025 74 10000 4.12 240 13:26 02.11.2022
1194 Clouds 14 1025 77 10000 4.63 250 12:34 02.11.2022
1195 Clear 13 1025 86 10000 3.09 0 10:25 02.11.2022
1196 Clouds 10 1024 84 10000 2.06 250 08:41 02.11.2022
1197 Clear 8 1023 98 10000 1.54 220 02:56 02.11.2022
1198 Clear 9 1022 76 10000 1.54 270 22:53 01.11.2022
1199 Clear 9 1022 67 10000 2.06 260 22:18 01.11.2022
1200 Clouds 10 1022 71 10000 1.54 230 21:20 01.11.2022
1201 Clouds 10 1022 71 10000 1.54 230 21:20 01.11.2022
1202 Clear 11 1022 89 10000 1.54 0 20:23 01.11.2022
1203 Clear 11 1022 89 10000 1.54 0 20:23 01.11.2022
1204 Clouds 12 1022 85 10000 1.03 0 19:41 01.11.2022
1205 Clouds 13 1021 87 10000 0.51 0 18:30 01.11.2022
1206 Clouds 15 1020 81 10000 3.09 10 16:53 01.11.2022
1207 Clouds 17 1020 76 10000 3.6 260 14:45 01.11.2022
1208 Clouds 18 1020 73 10000 4.12 240 13:24 01.11.2022
1209 Clouds 18 1020 75 10000 3.6 230 12:26 01.11.2022
1210 Clouds 18 1020 81 10000 2.06 230 11:21 01.11.2022
1211 Clear 14 1019 89 10000 1.54 160 09:25 01.11.2022
1212 Rain 14 1019 89 10000 2.06 0 08:26 01.11.2022
1213 Rain 15 1018 86 10000 2.06 170 07:29 01.11.2022
1214 Clouds 15 1018 73 10000 2.06 210 06:46 01.11.2022
1215 Clear 12 1017 83 10000 1.54 0 05:52 01.11.2022
1216 Clear 12 1016 78 10000 1.03 0 22:52 31.10.2022
1217 Clear 12 1017 74 10000 1.03 0 21:34 31.10.2022
1218 Clear 12 1016 78 10000 1.03 0 20:18 31.10.2022
1219 Clear 13 1016 91 10000 1.03 90 18:45 31.10.2022
1220 Clear 17 1017 83 10000 0 0 16:45 31.10.2022
1221 Clear 18 1017 79 10000 0.51 0 15:45 31.10.2022
1222 Clear 17 1019 83 10000 1.03 0 13:22 31.10.2022
1223 Clear 11 1021 93 10000 0.51 0 09:53 31.10.2022
1224 Fog 9 1020 93 7000 0.51 0 08:20 31.10.2022
1225 Fog 10 1021 98 10000 0.51 0 02:50 31.10.2022
1226 Clear 11 1021 93 10000 0.51 0 01:49 31.10.2022
1227 Clear 12 1021 89 10000 0.51 0 22:33 30.10.2022
1228 Clear 14 1021 92 10000 2.57 320 20:45 30.10.2022
1229 Clear 14 1021 91 10000 1.03 300 19:54 30.10.2022
1230 Clear 18 1020 84 10000 0.51 0 17:53 30.10.2022
1231 Clear 23 1020 67 10000 1.03 0 15:28 30.10.2022
1232 Clear 23 1020 63 10000 1.03 0 13:52 30.10.2022
1233 Clear 23 1020 64 10000 1.54 90 12:46 30.10.2022
1234 Clear 20 1021 75 10000 1.03 0 11:24 30.10.2022
1235 Clouds 16 1020 47 10000 0.83 159 09:37 30.10.2022
1236 Clear 11 1021 93 10000 1.03 0 08:25 30.10.2022
1237 Clear 14 1021 90 10000 0.51 0 00:50 30.10.2022
1238 Clear 14 1021 88 10000 1.03 290 00:27 30.10.2022
1239 Clear 15 1021 89 10000 1.03 0 23:44 29.10.2022
1240 Clear 14 1021 90 10000 1.03 0 23:44 29.10.2022
1241 Clear 16 1021 88 10000 1.03 0 21:25 29.10.2022
1242 Clear 22 1021 77 10000 1.03 130 17:47 29.10.2022
1243 Clear 24 1022 68 10000 1.54 100 16:22 29.10.2022
1244 Clear 24 1022 62 10000 1.54 70 15:37 29.10.2022
1245 Clear 24 1022 63 10000 1.54 80 14:47 29.10.2022
1246 Clear 20 1024 78 10000 1.54 100 12:34 29.10.2022
1247 Clear 16 1024 82 10000 0.51 0 10:46 29.10.2022
1248 Clear 12 1023 70 10000 1.03 0 07:37 29.10.2022
1249 Clear 12 1023 65 10000 1.54 70 05:56 29.10.2022
1250 Clear 12 1024 100 10000 0.51 20 03:59 29.10.2022
1251 Clear 15 1024 88 10000 1.03 0 23:32 28.10.2022
1252 Clear 16 1024 88 10000 1.03 250 20:47 28.10.2022
1253 Clear 18 1023 83 10000 1.54 210 19:26 28.10.2022
1254 Clear 19 1023 82 10000 1.03 100 18:31 28.10.2022
1255 Clear 23 1023 67 10000 1.54 80 15:33 28.10.2022
1256 Clouds 21 1023 74 10000 3.09 120 14:43 28.10.2022
1257 Rain 22 1023 62 10000 2.6 182 12:57 28.10.2022
1258 Rain 15 1024 90 10000 0.51 0 11:35 28.10.2022
1259 Clear 15 1024 94 10000 0.51 0 10:59 28.10.2022
1260 Clear 13 1024 94 10000 1.03 0 09:48 28.10.2022
1261 Clear 13 1023 89 10000 0 0 08:34 28.10.2022
1262 Clear 13 1024 91 10000 0.51 0 03:51 28.10.2022
1263 Clear 13 1024 91 10000 0.51 0 03:51 28.10.2022
1264 Clear 14 1025 88 10000 1.03 0 23:50 27.10.2022
1265 Clear 14 1025 88 10000 1.03 100 22:58 27.10.2022
1266 Clear 15 1025 89 10000 1.54 100 21:56 27.10.2022
1267 Clear 16 1025 88 10000 1.03 0 20:32 27.10.2022
1268 Clear 19 1024 80 10000 0.51 0 18:23 27.10.2022
1269 Clear 23 1024 58 10000 1.03 0 15:42 27.10.2022
1270 Clear 17 1026 86 10000 1.54 80 11:33 27.10.2022
1271 Clouds 10 1025 53 10000 1.91 155 07:32 27.10.2022
1272 Clear 11 1025 76 10000 1.54 290 00:23 27.10.2022
1273 Clear 12 1025 76 10000 0.51 0 23:51 26.10.2022
1274 Clear 13 1024 77 10000 2.06 0 22:40 26.10.2022
1275 Clear 14 1024 89 10000 1.54 260 21:22 26.10.2022
1276 Clouds 20 1022 73 10000 3.09 250 17:40 26.10.2022
1277 Clear 21 1020 71 10000 4.12 240 14:54 26.10.2022
1278 Clear 20 1020 78 10000 3.09 230 13:31 26.10.2022
1279 Clear 18 1019 83 10000 2.57 210 12:19 26.10.2022
1280 Rain 13 1018 74 10000 1.54 170 09:19 26.10.2022
1281 Rain 13 1018 91 10000 1.03 0 08:52 26.10.2022
1282 Clear 12 1017 94 10000 1.03 0 00:54 26.10.2022
1283 Rain 12 1017 92 10000 0.51 0 00:35 26.10.2022
1284 Clear 11 1018 92 10000 1.03 220 22:29 25.10.2022
1285 Clear 12 1018 92 10000 1.03 50 21:45 25.10.2022
1286 Clear 12 1018 89 10000 0.51 0 20:33 25.10.2022
1287 Clear 13 1018 89 10000 0.51 0 20:33 25.10.2022
1288 Clear 15 1018 85 10000 1.54 360 18:56 25.10.2022
1289 Clear 18 1019 73 10000 2.57 220 16:56 25.10.2022
1290 Clear 17 1020 82 10000 1.54 150 11:49 25.10.2022
1291 Clear 14 1020 88 10000 0.51 0 10:56 25.10.2022
1292 Clear 13 1020 74 10000 1.03 0 10:34 25.10.2022
1293 Clear 10 1019 75 10000 1.03 0 08:38 25.10.2022
1294 Clear 10 1019 75 10000 1.03 0 08:18 25.10.2022
1295 Clear 10 1018 74 10000 1.54 220 07:53 25.10.2022
1296 Clear 10 1018 76 10000 2.57 210 06:48 25.10.2022
1297 Clouds 10 1018 76 10000 1.54 240 03:32 25.10.2022
1298 Clear 12 1018 74 10000 1.03 0 00:32 25.10.2022
1299 Rain 12 1017 90 10000 2.57 230 22:28 24.10.2022
1300 Rain 13 1017 86 10000 3.6 250 21:50 24.10.2022
1301 Rain 13 1017 89 10000 4.63 280 21:31 24.10.2022
1302 Rain 14 1016 87 10000 1.03 0 20:29 24.10.2022
1303 Clear 16 1015 81 10000 1.03 0 18:46 24.10.2022
1304 Clear 17 1015 79 10000 2.57 220 16:59 24.10.2022
1305 Clear 17 1015 81 10000 3.09 210 15:43 24.10.2022
1306 Clear 17 1015 82 10000 4.63 200 14:20 24.10.2022
1307 Clouds 16 1015 88 10000 1.54 180 12:53 24.10.2022
1308 Clouds 15 1014 90 10000 2.06 200 09:42 24.10.2022
1309 Clear 17 1013 86 10000 1.03 0 07:56 24.10.2022
1310 Clear 19 1013 62 10000 7.2 200 23:45 23.10.2022
1311 Rain 18 1012 84 10000 1.03 0 20:41 23.10.2022
1312 Rain 18 1011 83 10000 1.03 0 19:29 23.10.2022
1313 Clear 20 1012 80 10000 0.51 0 17:30 23.10.2022
1314 Clear 20 1012 81 10000 0.51 0 17:30 23.10.2022
1315 Clear 21 1012 77 10000 0.51 0 16:41 23.10.2022
1316 Clear 22 1013 70 10000 1.03 0 15:19 23.10.2022
1317 Clear 19 1014 77 10000 1.54 70 12:31 23.10.2022
1318 Clear 15 1015 85 10000 1.03 0 10:58 23.10.2022
1319 Clear 10 1016 77 10000 1.03 280 06:56 23.10.2022
1320 Clear 12 1018 91 10000 1.03 50 23:32 22.10.2022
1321 Clear 12 1018 90 10000 1.03 50 22:30 22.10.2022
1322 Clear 13 1018 88 10000 0.51 40 21:41 22.10.2022
1323 Clear 13 1018 90 10000 1.03 0 20:29 22.10.2022
1324 Clear 15 1018 87 10000 1.3 150 19:31 22.10.2022
1325 Clear 17 1018 79 10000 1.54 180 18:23 22.10.2022
1326 Clouds 20 1017 67 10000 2.06 140 16:50 22.10.2022
1327 Clouds 20 1017 66 10000 1.03 0 15:21 22.10.2022
1328 Clouds 20 1018 68 10000 1.54 0 14:34 22.10.2022
1329 Clear 19 1018 78 10000 3.09 230 12:35 22.10.2022
1330 Clear 13 1017 90 10000 0.51 0 09:49 22.10.2022
1331 Clear 13 1016 74 10000 1.54 290 08:37 22.10.2022
1332 Clouds 13 1014 91 10000 4.12 200 06:30 22.10.2022
1333 Rain 14 1014 76 10000 1.54 0 01:43 22.10.2022
1334 Rain 15 1013 87 10000 1.54 220 22:53 21.10.2022
1335 Rain 15 1012 89 10000 1.03 240 21:34 21.10.2022
1336 Clear 15 1013 89 10000 2.57 330 20:47 21.10.2022
1337 Clear 16 1013 87 10000 2.57 230 18:32 21.10.2022
1338 Rain 18 1013 88 10000 3.09 210 14:47 21.10.2022
1339 Clear 17 1013 89 10000 2.06 200 13:43 21.10.2022
1340 Rain 15 1013 77 10000 3.09 260 11:56 21.10.2022
1341 Rain 15 1012 79 10000 1.54 0 10:27 21.10.2022
1342 Rain 14 1012 80 10000 1.03 80 09:37 21.10.2022
1343 Rain 14 1012 74 10000 1.03 0 08:26 21.10.2022
1344 Clouds 13 1013 95 6000 1.03 0 05:57 21.10.2022
1345 Clouds 14 1015 94 10000 1.03 0 23:59 20.10.2022
1346 Clouds 14 1015 94 10000 1.03 0 23:59 20.10.2022
1347 Rain 15 1015 94 10000 1.54 0 21:50 20.10.2022
1348 Rain 15 1015 91 10000 0.51 0 20:18 20.10.2022
1349 Rain 15 1016 91 10000 1.03 0 19:30 20.10.2022
1350 Rain 16 1016 89 10000 1.54 70 17:51 20.10.2022
1351 Clouds 17 1016 87 10000 2.57 80 15:46 20.10.2022
1352 Clear 16 1018 83 10000 0.51 0 12:36 20.10.2022
1353 Clear 16 1018 84 10000 0.51 0 12:18 20.10.2022
1354 Clear 16 1018 83 10000 0.51 0 12:18 20.10.2022
1355 Clear 15 1017 87 10000 1.03 0 10:56 20.10.2022
1356 Clear 14 1018 89 10000 0.51 0 10:24 20.10.2022
1357 Clouds 11 1017 95 6000 1.03 0 07:45 20.10.2022
1358 Clouds 10 1019 94 7000 0 0 04:29 20.10.2022
1359 Clear 11 1021 93 10000 0.51 0 00:20 20.10.2022
1360 Clouds 13 1021 91 10000 1.03 0 22:45 19.10.2022
1361 Clouds 13 1022 91 10000 0.51 50 21:55 19.10.2022
1362 Clouds 14 1022 88 10000 0.51 0 20:50 19.10.2022
1363 Clouds 17 1022 83 10000 1.03 0 18:21 19.10.2022
1364 Clouds 18 1022 80 10000 2.61 114 17:24 19.10.2022
1365 Clouds 18 1024 78 10000 3.09 90 15:23 19.10.2022
1366 Clouds 17 1025 85 10000 1.54 80 12:49 19.10.2022
1367 Mist 14 1026 76 2400 0.51 0 09:33 19.10.2022
1368 Fog 13 1025 78 150 2.06 60 08:26 19.10.2022
1369 Fog 13 1026 78 350 0.51 0 04:56 19.10.2022
1370 Clear 13 1027 77 10000 2.06 280 00:59 19.10.2022
1371 Clear 15 1027 91 10000 1.03 250 22:53 18.10.2022
1372 Clear 17 1027 89 10000 1.03 0 21:38 18.10.2022
1373 Clear 17 1027 86 10000 1.54 340 20:44 18.10.2022
1374 Clear 18 1027 82 10000 1.54 320 19:51 18.10.2022
1375 Clear 20 1026 81 10000 4.12 320 17:34 18.10.2022
1376 Clouds 21 1026 79 10000 4.63 310 16:49 18.10.2022
1377 Clouds 21 1027 74 10000 3.09 10 14:26 18.10.2022
1378 Clear 20 1027 76 10000 2.57 230 12:32 18.10.2022
1379 Clear 19 1027 83 10000 1.54 220 11:21 18.10.2022
1380 Clear 15 1026 91 10000 1.03 60 09:28 18.10.2022
1381 Clear 13 1026 92 10000 0.51 0 07:56 18.10.2022
1382 Clear 13 1026 75 10000 1.03 50 02:29 18.10.2022
1383 Clear 15 1027 86 10000 2.06 280 22:24 17.10.2022
1384 Clear 16 1026 85 10000 0.51 0 20:55 17.10.2022
1385 Clouds 17 1026 87 10000 0.17 147 20:31 17.10.2022
1386 Clouds 18 1026 84 10000 0.17 332 19:51 17.10.2022
1387 Clear 20 1025 77 10000 2.06 10 18:52 17.10.2022
1388 Clear 24 1025 61 10000 3.09 300 16:52 17.10.2022
1389 Clear 25 1024 52 10000 3.6 220 15:29 17.10.2022
1390 Clear 25 1024 52 10000 3.6 220 15:29 17.10.2022
1391 Clear 25 1024 52 10000 3.6 220 15:29 17.10.2022
1392 Clear 25 1024 51 10000 5.66 240 14:35 17.10.2022
1393 Clear 19 1024 78 10000 1.03 0 11:24 17.10.2022
1394 Clear 11 1023 70 10000 0.51 0 06:41 17.10.2022
1395 Clear 15 1021 87 10000 0.51 300 23:33 16.10.2022
1396 Clear 16 1020 89 10000 0 0 21:56 16.10.2022
1397 Clear 17 1020 88 10000 1.03 0 20:47 16.10.2022
1398 Clear 19 1019 84 10000 1.03 0 19:46 16.10.2022
1399 Clear 22 1019 72 10000 0.51 60 17:58 16.10.2022
1400 Clear 22 1019 74 10000 1.03 90 17:33 16.10.2022
1401 Clear 24 1018 64 10000 2.06 260 15:58 16.10.2022
1402 Clear 24 1018 63 10000 2.57 230 14:34 16.10.2022
1403 Clouds 20 1018 80 10000 2.06 150 12:23 16.10.2022
1404 Clear 16 1017 73 10000 0.51 0 10:28 16.10.2022
1405 Clear 14 1016 78 10000 1.03 290 08:51 16.10.2022
1406 Clear 15 1015 75 10000 1.54 110 02:37 16.10.2022
1407 Clear 16 1015 88 10000 0.51 0 23:41 15.10.2022
1408 Clear 17 1014 87 10000 3.6 220 21:29 15.10.2022
1409 Clear 17 1014 85 10000 5.14 220 20:57 15.10.2022
1410 Rain 17 1013 84 10000 4.12 240 19:28 15.10.2022
1411 Rain 18 1012 84 10000 3.6 210 15:59 15.10.2022
1412 Rain 18 1012 83 10000 3.6 210 15:38 15.10.2022
1413 Clouds 17 1012 87 10000 4.63 220 12:33 15.10.2022
1414 Clouds 16 1012 88 10000 3.09 210 11:37 15.10.2022
1415 Clouds 15 1011 76 10000 2.57 210 09:22 15.10.2022
1416 Drizzle 15 1009 78 10000 3.6 210 05:46 15.10.2022
1417 Rain 14 1010 78 10000 1.54 160 00:40 15.10.2022
1418 Rain 14 1012 92 10000 1.54 130 22:25 14.10.2022
1419 Rain 14 1013 91 6000 3.09 170 21:37 14.10.2022
1420 Rain 15 1013 92 10000 1.54 160 20:28 14.10.2022
1421 Rain 16 1013 90 10000 3.09 180 18:39 14.10.2022
1422 Clouds 17 1014 77 10000 2.06 180 15:32 14.10.2022
1423 Clouds 16 1016 87 10000 2.57 130 12:46 14.10.2022
1424 Clouds 14 1016 87 10000 1.03 0 10:54 14.10.2022
1425 Clear 12 1016 77 10000 0.51 0 08:25 14.10.2022
1426 Clear 12 1016 77 10000 0.51 0 08:25 14.10.2022
1427 Clear 12 1017 77 10000 1.03 0 06:45 14.10.2022
1428 Clouds 12 1017 77 10000 1.54 100 06:18 14.10.2022
1429 Clouds 13 1018 76 10000 1.54 60 05:41 14.10.2022
1430 Clouds 13 1019 78 10000 0.51 0 02:18 14.10.2022
1431 Clear 13 1019 76 10000 2.57 240 23:22 13.10.2022
1432 Clouds 14 1018 94 10000 1.03 0 21:32 13.10.2022
1433 Rain 14 1019 92 10000 0.51 0 20:22 13.10.2022
1434 Clouds 15 1019 89 10000 0.51 0 19:42 13.10.2022
1435 Rain 15 1018 88 10000 2.06 300 18:51 13.10.2022
1436 Rain 16 1018 85 10000 3.6 320 18:20 13.10.2022
1437 Clear 17 1019 76 10000 2.06 120 15:49 13.10.2022
1438 Clear 17 1019 81 10000 1.03 0 14:59 13.10.2022
1439 Clouds 16 1020 83 10000 1.03 0 13:50 13.10.2022
1440 Clear 15 1021 85 10000 2.06 150 11:46 13.10.2022
1441 Clear 13 1021 87 10000 0.51 0 10:31 13.10.2022
1442 Clouds 11 1021 77 10000 1.03 0 08:34 13.10.2022
1443 Clouds 10 1021 92 10000 1.03 0 07:36 13.10.2022
1444 Clouds 9 1022 72 10000 1.38 183 03:45 13.10.2022
1445 Clear 10 1022 92 10000 1.03 0 01:39 13.10.2022
1446 Clouds 10 1022 94 9000 0.51 0 00:24 13.10.2022
1447 Clear 11 1022 94 10000 0.51 270 22:44 12.10.2022
1448 Clear 12 1022 91 10000 0.51 0 21:40 12.10.2022
1449 Clear 12 1022 91 10000 1.54 60 21:18 12.10.2022
1450 Clouds 13 1022 90 10000 0.51 0 20:28 12.10.2022
1451 Clear 15 1022 86 10000 1.03 0 19:22 12.10.2022
1452 Clear 17 1022 79 10000 0.51 0 17:55 12.10.2022
1453 Clouds 17 1022 77 10000 1.54 0 16:54 12.10.2022
1454 Clouds 17 1023 80 10000 1.54 0 14:26 12.10.2022
1455 Clouds 16 1023 84 10000 1.03 0 13:50 12.10.2022
1456 Clouds 15 1023 86 10000 1.03 0 11:47 12.10.2022
1457 Mist 12 1023 93 2800 0.51 0 09:27 12.10.2022
1458 Fog 11 1023 77 1900 0.51 60 07:42 12.10.2022
1459 Clouds 11 1023 76 7000 0.51 0 06:44 12.10.2022
1460 Fog 10 1023 78 3800 0.51 210 05:18 12.10.2022
1461 Clouds 13 1024 91 10000 0.51 0 23:40 11.10.2022
1462 Clouds 13 1024 92 10000 1.54 290 21:25 11.10.2022
1463 Clouds 13 1024 90 10000 1.03 0 20:26 11.10.2022
1464 Clouds 15 1024 86 10000 2.57 340 18:25 11.10.2022
1465 Clouds 17 1024 83 10000 3.09 340 15:56 11.10.2022
1466 Clouds 16 1024 88 10000 1.54 350 13:44 11.10.2022
1467 Clouds 14 1024 74 10000 2.06 330 10:48 11.10.2022
1468 Clouds 14 1024 74 10000 2.57 310 10:26 11.10.2022
1469 Clouds 13 1023 76 10000 3.09 320 08:46 11.10.2022
1470 Clear 13 1022 77 10000 2.57 270 04:23 11.10.2022
1471 Clouds 14 1022 92 10000 0.51 0 01:51 11.10.2022
1472 Clouds 14 1021 91 10000 0.51 0 00:23 11.10.2022
1473 Clouds 16 1020 89 10000 2.57 310 21:18 10.10.2022
1474 Clear 16 1019 83 10000 1.03 170 19:45 10.10.2022
1475 Clear 20 1018 73 10000 1.54 20 18:18 10.10.2022
1476 Clear 21 1017 63 10000 2.57 0 16:39 10.10.2022
1477 Clear 21 1018 66 10000 2.57 170 14:31 10.10.2022
1478 Clouds 18 1018 81 10000 1.03 0 12:24 10.10.2022
1479 Clouds 15 1018 85 10000 1.03 90 10:57 10.10.2022
1480 Clear 10 1017 92 10000 0.51 90 07:47 10.10.2022
1481 Clear 10 1017 91 10000 1.03 80 05:38 10.10.2022
1482 Clear 10 1018 91 10000 1.03 50 02:50 10.10.2022
1483 Clouds 10 1018 90 10000 1.03 0 00:25 10.10.2022
1484 Clouds 10 1018 89 10000 0.51 0 22:27 09.10.2022
1485 Clouds 11 1018 88 10000 1.03 90 21:50 09.10.2022
1486 Clear 12 1019 84 10000 1.03 110 20:57 09.10.2022
1487 Clouds 13 1019 80 10000 2.27 118 19:53 09.10.2022
1488 Clear 14 1019 79 10000 2.57 80 19:32 09.10.2022
1489 Clear 15 1019 71 10000 3.6 90 18:32 09.10.2022
1490 Clear 17 1020 61 10000 5.66 80 16:56 09.10.2022
1491 Clear 17 1020 59 10000 5.66 80 16:32 09.10.2022
1492 Clear 18 1021 56 10000 5.66 80 15:37 09.10.2022
1493 Clear 17 1021 58 10000 6.17 80 14:29 09.10.2022
1494 Clear 16 1022 61 10000 5.14 80 12:58 09.10.2022
1495 Clear 15 1023 67 10000 5.14 70 11:50 09.10.2022
1496 Clear 11 1024 86 10000 2.06 90 10:37 09.10.2022
1497 Clear 6 1023 92 10000 0.51 0 08:25 09.10.2022
1498 Clear 7 1025 92 10000 1.03 10 03:36 09.10.2022
1499 Clear 7 1025 92 10000 1.03 0 02:39 09.10.2022
1500 Clear 9 1025 89 10000 1.03 0 00:26 09.10.2022
1501 Clear 10 1025 90 10000 0.51 240 22:53 08.10.2022
1502 Clear 10 1025 90 10000 1.54 280 21:48 08.10.2022
1503 Clear 12 1024 84 10000 1.03 0 20:26 08.10.2022
1504 Clouds 15 1023 72 10000 3.6 330 18:37 08.10.2022
1505 Clouds 18 1022 59 10000 4.63 310 16:18 08.10.2022
1506 Clouds 18 1022 61 10000 5.14 310 14:52 08.10.2022
1507 Clouds 17 1022 64 10000 4.12 340 13:25 08.10.2022
1508 Clouds 16 1021 78 10000 3.09 290 10:39 08.10.2022
1509 Clear 15 1021 82 10000 2.57 310 10:21 08.10.2022
1510 Clouds 13 1020 91 10000 2.06 280 08:48 08.10.2022
1511 Rain 13 1019 93 10000 0.51 60 03:53 08.10.2022
1512 Clouds 13 1020 91 10000 0 0 00:43 08.10.2022
1513 Clouds 14 1020 91 10000 0 0 23:27 07.10.2022
1514 Clear 14 1020 90 10000 1.03 0 22:50 07.10.2022
1515 Clear 14 1021 92 10000 0.51 0 21:38 07.10.2022
1516 Clear 16 1021 87 10000 0.51 0 19:42 07.10.2022
1517 Clear 19 1021 76 10000 1.54 140 17:53 07.10.2022
1518 Clear 20 1022 71 10000 2.06 150 16:42 07.10.2022
1519 Clouds 20 1023 73 10000 2.57 0 15:21 07.10.2022
1520 Clouds 19 1024 74 10000 3.6 150 13:26 07.10.2022
1521 Clear 17 1025 79 10000 2.57 170 11:28 07.10.2022
1522 Clouds 13 1026 90 10000 0.51 0 09:25 07.10.2022
1523 Clouds 12 1026 91 10000 0.51 80 08:20 07.10.2022
1524 Clouds 12 1028 91 10000 0.51 340 02:30 07.10.2022
1525 Clouds 13 1030 90 10000 0.83 84 22:53 06.10.2022
1526 Clouds 13 1030 85 10000 1.03 340 21:57 06.10.2022
1527 Clouds 14 1030 83 10000 1.03 320 21:36 06.10.2022
1528 Clouds 14 1030 82 10000 1.03 0 20:39 06.10.2022
1529 Clouds 16 1030 79 10000 2.06 30 18:56 06.10.2022
1530 Clouds 17 1030 75 10000 2.06 20 18:32 06.10.2022
1531 Clouds 18 1030 72 10000 3.09 20 15:38 06.10.2022
1532 Clouds 17 1031 76 10000 3.6 330 12:59 06.10.2022
1533 Clouds 14 1029 88 10000 0.51 0 09:27 06.10.2022
1534 Clear 11 1026 92 10000 0.51 0 04:42 06.10.2022
1535 Clouds 12 1025 91 10000 2.5 208 00:51 06.10.2022
1536 Clouds 14 1024 84 10000 2.5 209 21:59 05.10.2022
1537 Clouds 18 1022 80 10000 2.38 205 19:45 05.10.2022
1538 Clear 23 1020 48 10000 3.6 240 17:37 05.10.2022
1539 Clear 23 1020 51 10000 4.12 230 16:45 05.10.2022
1540 Clear 24 1021 57 10000 3.09 0 14:59 05.10.2022
1541 Clear 23 1021 60 10000 3.09 220 14:37 05.10.2022
1542 Clear 21 1021 65 10000 2.57 160 13:29 05.10.2022
1543 Clear 17 1022 74 10000 2.06 90 11:45 05.10.2022
1544 Clear 7 1022 76 10000 1.03 0 08:25 05.10.2022
1545 Clear 6 1021 77 10000 1.03 0 07:20 05.10.2022
1546 Clear 7 1021 94 10000 0.51 0 05:31 05.10.2022
1547 Clear 9 1022 92 10000 1.03 0 02:33 05.10.2022
1548 Clear 10 1023 94 10000 0.51 0 00:28 05.10.2022
1549 Clear 10 1023 91 10000 0.51 90 23:58 04.10.2022
1550 Clear 12 1022 89 10000 0.51 0 21:25 04.10.2022
1551 Clear 13 1022 86 10000 0.51 0 20:20 04.10.2022
1552 Clear 17 1022 74 10000 1.54 80 18:56 04.10.2022
1553 Clear 18 1022 72 10000 2.06 90 18:33 04.10.2022
1554 Clear 19 1022 61 10000 1.54 0 16:57 04.10.2022
1555 Clear 18 1022 68 10000 2.06 80 15:21 04.10.2022
1556 Clouds 9 1023 93 10000 1.54 90 10:43 04.10.2022
1557 Fog 5 1023 77 450 0.51 0 08:28 04.10.2022
1558 Fog 5 1023 78 450 1.54 260 05:56 04.10.2022
1559 Clear 7 1025 92 10000 1.03 0 00:25 04.10.2022
1560 Clear 8 1025 91 10000 0.51 0 22:57 03.10.2022
1561 Clear 9 1026 88 10000 1.03 280 21:41 03.10.2022
1562 Clouds 10 1026 85 10000 1.26 103 20:40 03.10.2022
1563 Clouds 14 1026 69 10000 2.06 350 18:52 03.10.2022
1564 Clouds 15 1026 66 10000 2.06 320 17:38 03.10.2022
1565 Clouds 15 1026 66 10000 2.57 330 16:23 03.10.2022
1566 Clouds 15 1027 72 10000 1.03 0 14:37 03.10.2022
1567 Clouds 14 1027 81 10000 2.06 30 13:39 03.10.2022
1568 Clouds 13 1027 88 10000 2.06 230 11:45 03.10.2022
1569 Clouds 12 1027 87 10000 2.06 310 10:19 03.10.2022
1570 Clouds 11 1026 75 10000 2.57 270 08:56 03.10.2022
1571 Clouds 11 1026 76 10000 1.03 240 04:49 03.10.2022
1572 Clouds 12 1024 76 10000 3.6 270 01:51 03.10.2022
1573 Clouds 12 1022 79 10000 1.03 0 22:24 02.10.2022
1574 Rain 13 1021 92 7000 0.51 0 20:22 02.10.2022
1575 Rain 13 1020 92 3100 1.54 0 18:27 02.10.2022
1576 Drizzle 14 1019 91 10000 3.09 340 17:32 02.10.2022
1577 Clouds 14 1019 93 10000 2.57 340 16:33 02.10.2022
1578 Rain 14 1019 93 10000 3.09 340 15:40 02.10.2022
1579 Clouds 14 1019 93 10000 4.12 350 13:51 02.10.2022
1580 Clouds 14 1019 91 10000 2.29 293 12:48 02.10.2022
1581 Rain 14 1018 87 10000 1.03 0 12:24 02.10.2022
1582 Clouds 14 1019 90 10000 1.54 70 11:36 02.10.2022
1583 Clouds 13 1019 93 10000 0.51 0 10:36 02.10.2022
1584 Rain 13 1020 92 6000 1.54 250 08:40 02.10.2022
1585 Clouds 13 1020 91 10000 1.03 0 07:29 02.10.2022
1586 Clouds 13 1020 93 10000 1.03 0 02:54 02.10.2022
1587 Rain 13 1019 93 8000 2.06 280 00:45 02.10.2022
1588 Rain 13 1018 90 10000 3.6 230 23:43 01.10.2022
1589 Clouds 13 1017 88 10000 4.12 240 22:31 01.10.2022
1590 Rain 14 1015 86 10000 2.57 210 20:21 01.10.2022
1591 Clear 15 1013 82 10000 3.6 200 17:55 01.10.2022
1592 Clouds 15 1013 82 10000 4.12 220 16:30 01.10.2022
1593 Clouds 12 1012 88 10000 4.63 200 14:25 01.10.2022
1594 Rain 11 1012 88 10000 4.12 210 12:59 01.10.2022
1595 Rain 11 1012 87 10000 4.12 220 12:29 01.10.2022
1596 Rain 10 1011 88 10000 3.6 0 11:19 01.10.2022
1597 Rain 10 1011 89 10000 3.6 190 10:31 01.10.2022
1598 Rain 10 1011 87 10000 2.57 170 09:27 01.10.2022
1599 Rain 10 1011 88 10000 2.06 160 08:57 01.10.2022
1600 Clear 8 1013 92 10000 1.54 230 04:19 01.10.2022
1601 Clear 7 1014 92 10000 1.54 220 03:29 01.10.2022
1602 Clear 8 1013 87 10000 1.03 0 23:47 30.09.2022
1603 Clouds 9 1013 88 10000 1.03 0 22:36 30.09.2022
1604 Clear 9 1013 89 10000 1.02 210 21:28 30.09.2022
1605 Clear 10 1013 84 10000 1.03 0 20:43 30.09.2022
1606 Clear 12 1012 79 10000 0.51 0 19:43 30.09.2022
1607 Clear 17 1012 57 10000 1.54 0 17:31 30.09.2022
1608 Clear 16 1011 54 10000 2.06 0 15:56 30.09.2022
1609 Clear 15 1011 69 10000 1.54 0 13:30 30.09.2022
1610 Clouds 12 1011 88 10000 1.03 0 11:57 30.09.2022
1611 Fog 9 1010 91 250 1.03 0 10:30 30.09.2022
1612 Fog 6 1009 94 300 1.03 0 08:26 30.09.2022
1613 Clear 6 1008 94 10000 1.03 60 05:54 30.09.2022
1614 Clear 7 1007 92 10000 1.54 320 02:36 30.09.2022
1615 Clouds 9 1007 90 10000 0.65 117 22:40 29.09.2022
1616 Clouds 10 1005 85 10000 2.06 330 21:28 29.09.2022
1617 Clouds 10 1006 87 10000 0.78 120 20:57 29.09.2022
1618 Clear 13 1003 74 10000 2.06 20 18:45 29.09.2022
1619 Clouds 14 1003 69 10000 1.03 0 17:24 29.09.2022
1620 Clear 14 1002 67 10000 1.03 0 16:28 29.09.2022
1621 Clear 14 1002 61 10000 0.51 170 15:36 29.09.2022
1622 Clouds 14 1002 67 10000 0.51 0 14:29 29.09.2022
1623 Rain 9 1001 91 10000 0.51 0 10:29 29.09.2022
1624 Mist 6 1000 93 10000 1.03 100 06:58 29.09.2022
1625 Clear 7 1001 92 10000 1.03 50 02:49 29.09.2022
1626 Clear 8 1001 91 10000 1.03 0 23:56 28.09.2022
1627 Clear 8 1001 90 10000 0.51 0 22:44 28.09.2022
1628 Clear 9 1001 89 10000 1.54 210 21:29 28.09.2022
1629 Clear 10 1000 85 10000 2.06 220 20:24 28.09.2022
1630 Clear 12 999 72 10000 2.06 0 18:42 28.09.2022
1631 Clouds 13 999 67 10000 4.63 270 15:32 28.09.2022
1632 Clouds 12 999 79 10000 3.6 290 13:27 28.09.2022
1633 Clouds 10 998 86 10000 5.14 300 11:18 28.09.2022
1634 Rain 9 997 90 10000 2.06 300 09:18 28.09.2022
1635 Rain 9 996 90 7000 4.63 290 07:39 28.09.2022
1636 Clouds 9 997 92 10000 3.6 190 04:34 28.09.2022
1637 Clouds 9 1000 92 10000 1.54 110 01:36 28.09.2022
1638 Clouds 8 1002 92 10000 3.09 180 23:27 27.09.2022
1639 Clouds 9 1003 86 10000 3.09 230 21:47 27.09.2022
1640 Drizzle 9 1002 87 10000 3.6 230 20:44 27.09.2022
1641 Clear 10 1002 82 10000 5.66 240 19:48 27.09.2022
1642 Clouds 10 1003 87 10000 5.56 252 18:49 27.09.2022
1643 Clouds 10 1001 81 10000 6.17 240 17:46 27.09.2022
1644 Clouds 10 1001 87 10000 4.12 230 15:59 27.09.2022
1645 Rain 10 1001 85 10000 5.66 250 14:59 27.09.2022
1646 Clouds 12 1002 77 10000 5.14 230 13:28 27.09.2022
1647 Clouds 11 1002 77 10000 5.14 250 12:22 27.09.2022
1648 Rain 10 1001 87 10000 5.14 250 09:46 27.09.2022
1649 Clouds 10 999 90 10000 3.09 240 07:38 27.09.2022
1650 Rain 10 999 91 10000 2.57 200 02:59 27.09.2022
1651 Rain 11 999 87 10000 2.57 0 01:35 27.09.2022
1652 Rain 13 1001 79 10000 7.2 230 23:38 26.09.2022
1653 Clouds 13 1001 79 10000 6.17 230 23:18 26.09.2022
1654 Rain 13 1002 77 10000 1.03 0 20:48 26.09.2022
1655 Clouds 13 1004 74 10000 2.57 200 19:34 26.09.2022
1656 Rain 14 1004 67 10000 3.6 220 18:35 26.09.2022
1657 Rain 15 1005 65 10000 6.69 240 16:58 26.09.2022
1658 Clouds 16 1006 63 10000 3.6 230 14:48 26.09.2022
1659 Clouds 14 1008 78 10000 2.57 0 11:37 26.09.2022
1660 Clear 13 1008 86 10000 2.06 200 10:41 26.09.2022
1661 Clear 12 1009 87 10000 2.57 200 10:22 26.09.2022
1662 Clear 12 1009 89 10000 2.57 200 09:56 26.09.2022
1663 Clear 11 1009 90 10000 1.54 0 09:25 26.09.2022
1664 Clear 10 1009 90 10000 0.51 0 08:58 26.09.2022
1665 Clear 11 1012 93 10000 1.03 0 02:59 26.09.2022
1666 Clouds 11 1012 93 10000 2.06 240 01:52 26.09.2022
1667 Clouds 12 1012 93 10000 3.09 290 23:20 25.09.2022
1668 Clouds 13 1012 91 10000 3.6 300 21:44 25.09.2022
1669 Clouds 13 1014 91 10000 1.92 302 20:57 25.09.2022
1670 Clouds 13 1014 91 10000 1.96 299 20:33 25.09.2022
1671 Clouds 14 1011 84 10000 4.63 320 18:44 25.09.2022
1672 Clouds 15 1011 81 10000 4.12 310 18:24 25.09.2022
1673 Clouds 16 1011 83 10000 3.6 330 16:59 25.09.2022
1674 Clouds 15 1011 83 10000 2.57 250 15:50 25.09.2022
1675 Clouds 15 1012 87 10000 3.6 320 14:35 25.09.2022
1676 Clouds 15 1012 84 10000 2.57 280 13:58 25.09.2022
1677 Clouds 13 1012 92 10000 1.03 0 10:38 25.09.2022
1678 Rain 12 1012 92 10000 1.03 0 09:37 25.09.2022
1679 Clouds 12 1012 93 10000 0.51 0 07:41 25.09.2022
1680 Clouds 12 1012 92 7000 1.03 0 05:22 25.09.2022
1681 Clear 13 1013 95 10000 1.03 0 23:36 24.09.2022
1682 Rain 14 1013 92 10000 0.51 0 21:19 24.09.2022
1683 Clear 15 1012 94 10000 1.03 0 19:45 24.09.2022
1684 Clear 15 1012 91 10000 1.03 0 19:20 24.09.2022
1685 Clouds 16 1012 89 10000 1.03 0 16:51 24.09.2022
1686 Rain 16 1013 87 10000 0.51 0 15:23 24.09.2022
1687 Rain 16 1013 88 10000 0.51 0 15:23 24.09.2022
1688 Rain 17 1013 86 10000 1.03 0 14:37 24.09.2022
1689 Rain 16 1013 84 10000 1.54 180 13:22 24.09.2022
1690 Rain 16 1013 80 10000 2.06 0 12:23 24.09.2022
1691 Rain 12 1013 90 10000 1.03 0 09:59 24.09.2022
1692 Rain 11 1012 91 10000 0.51 0 08:58 24.09.2022
1693 Rain 10 1012 91 10000 0.51 70 07:41 24.09.2022
1694 Clear 10 1013 91 10000 0.51 0 04:55 24.09.2022
1695 Clouds 10 1013 93 10000 1.03 30 04:21 24.09.2022
1696 Clear 12 1015 87 10000 0.51 260 23:18 23.09.2022
1697 Clear 13 1015 85 10000 0.51 0 21:40 23.09.2022
1698 Clear 13 1015 83 10000 1.54 330 21:22 23.09.2022
1699 Clear 14 1015 81 10000 1.03 0 20:45 23.09.2022
1700 Clear 16 1015 72 10000 2.06 330 19:20 23.09.2022
1701 Clear 16 1015 72 10000 2.06 330 19:20 23.09.2022
1702 Clouds 19 1016 57 10000 2.57 20 16:48 23.09.2022
1703 Clouds 19 1017 59 10000 1.03 0 13:40 23.09.2022
1704 Clear 12 1018 79 10000 1.03 0 10:18 23.09.2022
1705 Clear 4 1018 93 10000 0.51 160 07:30 23.09.2022
1706 Clear 6 1019 90 10000 1.54 290 02:25 23.09.2022
1707 Clear 8 1020 86 10000 1.03 60 23:29 22.09.2022
1708 Clear 9 1021 83 10000 1.03 80 22:28 22.09.2022
1709 Clear 11 1021 79 10000 2.06 90 21:30 22.09.2022
1710 Clear 12 1020 69 10000 2.06 90 20:21 22.09.2022
1711 Clear 16 1020 53 10000 3.6 80 18:57 22.09.2022
1712 Clear 18 1021 44 10000 5.14 80 15:23 22.09.2022
1713 Clear 12 1023 77 10000 1.54 70 10:48 22.09.2022
1714 Clear 10 1023 83 10000 1.54 70 10:19 22.09.2022
1715 Clear 4 1023 90 10000 0.51 210 07:55 22.09.2022
1716 Clear 4 1023 88 10000 1.54 290 04:56 22.09.2022
1717 Clear 6 1024 87 10000 1.03 0 01:19 22.09.2022
1718 Clear 8 1024 81 10000 1.03 340 22:29 21.09.2022
1719 Clear 10 1024 75 10000 0.51 0 21:18 21.09.2022
1720 Clear 15 1023 50 10000 4.63 80 18:51 21.09.2022
1721 Clouds 16 1023 46 10000 4.63 50 17:44 21.09.2022
1722 Clouds 17 1024 55 10000 5.14 40 15:47 21.09.2022
1723 Clouds 16 1025 60 10000 4.12 80 13:54 21.09.2022
1724 Clear 14 1025 75 10000 2.06 70 11:43 21.09.2022
1725 Clear 13 1026 77 10000 2.06 80 11:21 21.09.2022
1726 Clear 9 1025 88 10000 1.03 0 09:40 21.09.2022
1727 Clear 7 1025 87 10000 0.51 0 08:43 21.09.2022
1728 Clear 5 1024 93 10000 1.54 320 04:57 21.09.2022
1729 Clear 6 1024 93 10000 0.51 0 02:40 21.09.2022
1730 Clear 7 1024 93 10000 1.54 330 01:58 21.09.2022
1731 Clear 8 1024 93 10000 0.51 0 00:20 21.09.2022
1732 Clouds 10 1024 76 10000 1.54 300 21:53 20.09.2022
1733 Clear 11 1023 80 10000 2.06 280 20:33 20.09.2022
1734 Clear 13 1023 70 10000 3.09 320 19:18 20.09.2022
1735 Clouds 15 1022 59 10000 4.12 300 15:57 20.09.2022
1736 Clear 14 1023 62 10000 2.57 330 14:29 20.09.2022
1737 Clouds 13 1023 69 10000 3.6 330 12:32 20.09.2022
1738 Clouds 9 1022 91 10000 1.03 0 08:51 20.09.2022
1739 Clouds 9 1022 91 10000 1.54 250 08:24 20.09.2022
1740 Clouds 9 1021 90 10000 1.03 0 04:40 20.09.2022
1741 Clear 9 1021 91 10000 1.54 220 02:34 20.09.2022
1742 Clouds 10 1021 90 10000 1.54 240 22:50 19.09.2022
1743 Clear 11 1021 90 10000 1.03 0 21:38 19.09.2022
1744 Clouds 11 1021 91 10000 0.51 0 20:45 19.09.2022
1745 Clouds 12 1021 88 10000 2.06 0 19:27 19.09.2022
1746 Rain 13 1020 84 10000 3.09 340 17:39 19.09.2022
1747 Clouds 13 1021 77 10000 4.12 260 13:56 19.09.2022
1748 Clouds 12 1021 81 10000 5.14 270 12:48 19.09.2022
1749 Clouds 11 1020 86 10000 6.17 270 10:47 19.09.2022
1750 Clouds 9 1019 89 10000 4.63 250 08:51 19.09.2022
1751 Clear 8 1018 90 10000 3.6 250 05:42 19.09.2022
1752 Drizzle 9 1016 88 10000 7.72 270 01:53 19.09.2022
1753 Rain 11 1015 82 10000 5.14 280 23:22 18.09.2022
1754 Clouds 12 1015 70 10000 2.57 220 21:34 18.09.2022
1755 Rain 13 1015 68 10000 2.06 220 20:23 18.09.2022
1756 Clouds 14 1016 67 10000 5.14 250 17:54 18.09.2022
1757 Clouds 14 1016 65 10000 7.72 260 17:35 18.09.2022
1758 Clouds 15 1016 62 10000 6.69 240 15:36 18.09.2022
1759 Clouds 14 1017 72 10000 5.14 230 13:47 18.09.2022
1760 Clouds 12 1018 83 10000 5.66 240 12:35 18.09.2022
1761 Clouds 11 1018 88 10000 6.17 250 10:55 18.09.2022
1762 Rain 10 1017 88 10000 2.57 240 03:42 18.09.2022
1763 Rain 9 1017 90 10000 4.63 250 01:24 18.09.2022
1764 Clear 9 1017 90 10000 3.6 280 00:23 18.09.2022
1765 Rain 10 1016 87 10000 2.57 260 21:40 17.09.2022
1766 Rain 12 1015 82 10000 7.2 260 19:43 17.09.2022
1767 Rain 12 1015 82 10000 7.2 260 19:43 17.09.2022
1768 Clouds 13 1015 76 10000 5.66 260 18:57 17.09.2022
1769 Clouds 13 1015 76 10000 5.66 260 18:57 17.09.2022
1770 Clouds 13 1015 78 10000 5.66 250 16:18 17.09.2022
1771 Clouds 13 1015 72 10000 6.69 280 13:56 17.09.2022
1772 Clouds 10 1015 90 10000 4.63 280 10:57 17.09.2022
1773 Rain 10 1014 85 10000 6.17 270 09:27 17.09.2022
1774 Clouds 9 1013 91 10000 4.12 280 06:25 17.09.2022
1775 Clouds 11 1012 90 10000 3.6 260 00:20 17.09.2022
1776 Clear 11 1012 89 10000 1.54 270 22:52 16.09.2022
1777 Clear 12 1012 88 10000 1.03 0 21:22 16.09.2022
1778 Rain 14 1011 78 10000 4.63 250 19:50 16.09.2022
1779 Clouds 17 1011 67 10000 3.6 250 16:56 16.09.2022
1780 Clear 15 1011 72 10000 5.14 260 15:26 16.09.2022
1781 Clouds 14 1012 86 10000 3.09 260 13:57 16.09.2022
1782 Clouds 13 1012 91 10000 0.51 0 11:42 16.09.2022
1783 Rain 13 1011 89 9000 1.54 260 08:26 16.09.2022
1784 Rain 13 1010 87 10000 1.03 0 07:19 16.09.2022
1785 Clouds 13 1010 85 10000 1.03 0 06:47 16.09.2022
1786 Clear 13 1011 88 10000 2.06 250 02:40 16.09.2022
1787 Clear 14 1011 90 10000 1.54 250 22:56 15.09.2022
1788 Clouds 16 1010 87 10000 1.54 250 21:18 15.09.2022
1789 Clouds 16 1010 83 10000 2.57 250 19:49 15.09.2022
1790 Clouds 17 1010 76 10000 3.09 260 18:29 15.09.2022
1791 Clouds 17 1009 77 10000 3.09 250 17:32 15.09.2022
1792 Clouds 17 1009 85 10000 4.12 290 16:43 15.09.2022
1793 Clouds 15 1008 90 6000 5.14 320 14:36 15.09.2022
1794 Rain 18 1007 88 10000 3.09 220 12:21 15.09.2022
1795 Rain 18 1007 89 10000 2.57 220 10:21 15.09.2022
1796 Rain 18 1006 90 10000 4.12 220 07:51 15.09.2022
1797 Clouds 18 1007 88 10000 1.54 230 03:56 15.09.2022
1798 Rain 18 1006 90 10000 1.54 0 01:26 15.09.2022
1799 Clear 19 1006 88 10000 1.03 0 21:54 14.09.2022
1800 Clear 19 1006 85 10000 4.12 230 19:55 14.09.2022
1801 Clear 20 1006 85 10000 3.09 0 19:20 14.09.2022
1802 Rain 21 1006 85 10000 4.63 240 16:57 14.09.2022
1803 Rain 21 1007 81 10000 6.69 240 15:49 14.09.2022
1804 Rain 26 1006 64 10000 5.66 240 14:33 14.09.2022
1805 Clear 23 1008 83 10000 4.12 230 11:39 14.09.2022
1806 Clouds 20 1007 86 10000 3.6 240 09:48 14.09.2022
1807 Clouds 18 1007 88 10000 1.54 0 07:38 14.09.2022
1808 Clouds 18 1007 89 10000 1.54 130 06:47 14.09.2022
1809 Rain 19 1008 86 10000 3.09 280 04:33 14.09.2022
1810 Clear 20 1008 75 10000 0.51 0 01:48 14.09.2022
1811 Clouds 20 1009 75 10000 0.51 0 01:27 14.09.2022
1812 Rain 20 1009 76 10000 1.54 120 00:50 14.09.2022
1813 Clear 20 1009 74 10000 1.03 0 23:54 13.09.2022
1814 Rain 20 1009 74 10000 0.51 60 23:36 13.09.2022
1815 Rain 20 1009 73 10000 0.51 60 23:18 13.09.2022
1816 Clouds 20 1009 71 10000 0.82 175 22:20 13.09.2022
1817 Clear 24 1009 56 10000 1.03 70 19:52 13.09.2022
1818 Clear 27 1010 45 10000 2.06 80 18:18 13.09.2022
1819 Clear 28 1011 35 10000 1.03 0 15:55 13.09.2022
1820 Clear 27 1012 40 10000 1.03 0 14:36 13.09.2022
1821 Clear 27 1012 41 10000 1.03 110 14:36 13.09.2022
1822 Clear 26 1012 47 10000 1.03 0 13:20 13.09.2022
1823 Clear 15 1013 86 10000 1.03 0 09:23 13.09.2022
1824 Clear 12 1013 91 10000 1.03 0 06:24 13.09.2022
1825 Clear 15 1014 81 10000 1.03 360 00:23 13.09.2022
1826 Clear 16 1014 76 10000 0.51 0 22:50 12.09.2022
1827 Clear 17 1014 75 10000 0.51 0 22:18 12.09.2022
1828 Clear 19 1014 68 10000 1.54 120 20:39 12.09.2022
1829 Clear 23 1014 44 10000 1.03 0 18:51 12.09.2022
1830 Clear 25 1015 41 10000 1.54 90 17:25 12.09.2022
1831 Clear 24 1016 45 10000 1.54 0 14:39 12.09.2022
1832 Clear 20 1017 76 10000 1.54 70 11:31 12.09.2022
1833 Clear 16 1017 82 10000 1.03 0 09:56 12.09.2022
1834 Clear 11 1017 94 10000 0.51 0 04:57 12.09.2022
1835 Clear 11 1018 94 10000 0.51 270 04:27 12.09.2022
1836 Clear 14 1019 90 10000 1.54 300 23:47 11.09.2022
1837 Clear 14 1019 88 10000 0.51 0 22:43 11.09.2022
1838 Clear 17 1019 81 10000 1.03 0 20:53 11.09.2022
1839 Clear 18 1019 76 10000 1.03 170 20:21 11.09.2022
1840 Clouds 20 1019 65 10000 1.03 0 19:26 11.09.2022
1841 Clouds 21 1019 66 10000 1.03 100 18:37 11.09.2022
1842 Clouds 21 1019 64 10000 2.57 0 16:56 11.09.2022
1843 Clouds 21 1020 67 10000 2.57 340 14:56 11.09.2022
1844 Clouds 19 1020 76 10000 4.12 300 12:54 11.09.2022
1845 Clouds 16 1019 89 10000 2.06 240 09:45 11.09.2022
1846 Clouds 15 1018 91 10000 3.09 250 07:43 11.09.2022
1847 Clouds 15 1017 89 10000 3.09 230 03:33 11.09.2022
1848 Clouds 15 1017 89 10000 4.63 230 23:45 10.09.2022
1849 Clear 16 1017 83 10000 2.57 0 21:35 10.09.2022
1850 Clouds 16 1016 87 10000 4.12 250 19:58 10.09.2022
1851 Clouds 16 1016 87 10000 4.12 250 19:40 10.09.2022
1852 Clouds 16 1016 88 10000 3.6 260 19:20 10.09.2022
1853 Clouds 18 1015 74 10000 7.2 250 16:58 10.09.2022
1854 Clear 19 1016 68 10000 5.66 250 15:32 10.09.2022
1855 Clouds 18 1016 80 10000 4.12 240 12:55 10.09.2022
1856 Clouds 17 1016 83 10000 3.09 0 11:36 10.09.2022
1857 Clouds 16 1016 89 10000 2.57 220 10:26 10.09.2022
1858 Clouds 14 1015 93 10000 2.57 230 08:37 10.09.2022
1859 Clouds 14 1015 90 10000 1.54 210 08:18 10.09.2022
1860 Rain 14 1015 91 10000 1.03 0 03:42 10.09.2022
1861 Clear 15 1015 84 10000 1.03 0 23:35 09.09.2022
1862 Clouds 15 1015 83 10000 2.26 214 22:22 09.09.2022
1863 Clear 16 1014 72 10000 1.03 0 20:49 09.09.2022
1864 Clouds 17 1014 67 10000 4.12 260 19:52 09.09.2022
1865 Clouds 19 1014 61 10000 3.09 230 19:22 09.09.2022
1866 Clouds 22 1013 52 10000 6.17 240 16:52 09.09.2022
1867 Clear 20 1014 65 10000 5.66 250 14:42 09.09.2022
1868 Clouds 22 1014 59 10000 4.12 0 13:18 09.09.2022
1869 Clear 19 1014 73 10000 2.57 240 10:37 09.09.2022
1870 Clouds 14 1013 89 10000 1.54 190 07:25 09.09.2022
1871 Clear 14 1013 90 10000 0.51 280 03:31 09.09.2022
1872 Clear 15 1013 85 10000 0.51 0 22:33 08.09.2022
1873 Clear 16 1013 82 10000 1.54 210 21:51 08.09.2022
1874 Clear 18 1013 72 10000 2.57 270 20:46 08.09.2022
1875 Clear 19 1013 68 10000 3.09 250 20:24 08.09.2022
1876 Clear 22 1012 56 10000 4.63 250 18:34 08.09.2022
1877 Clouds 23 1013 55 10000 4.63 250 16:49 08.09.2022
1878 Clouds 22 1013 66 10000 5.14 240 14:50 08.09.2022
1879 Clouds 20 1013 71 10000 2.57 250 13:28 08.09.2022
1880 Clouds 20 1013 74 10000 3.09 230 12:39 08.09.2022
1881 Clouds 19 1012 81 10000 2.57 240 10:59 08.09.2022
1882 Clear 17 1012 90 10000 2.57 210 09:26 08.09.2022
1883 Rain 17 1011 90 10000 2.06 200 06:53 08.09.2022
1884 Rain 18 1011 92 10000 0.51 0 03:23 08.09.2022
1885 Rain 19 1011 90 10000 1.03 0 02:36 08.09.2022
1886 Rain 19 1011 90 10000 1.03 0 02:18 08.09.2022
1887 Clear 20 1013 83 10000 1.03 0 22:58 07.09.2022
1888 Clear 21 1013 77 10000 2.06 280 21:44 07.09.2022
1889 Clouds 22 1013 78 10000 3.09 290 21:21 07.09.2022
1890 Rain 24 1013 59 10000 3.09 290 20:25 07.09.2022
1891 Clear 27 1013 50 10000 4.12 350 18:54 07.09.2022
1892 Clear 28 1014 51 10000 2.06 0 15:51 07.09.2022
1893 Clear 24 1016 71 10000 3.09 240 10:52 07.09.2022
1894 Clear 23 1016 76 10000 2.57 230 10:32 07.09.2022
1895 Clear 18 1015 86 10000 0.51 0 08:23 07.09.2022
1896 Clouds 17 1015 90 10000 1.25 211 05:33 07.09.2022
1897 Clear 19 1016 87 10000 1.54 130 00:27 07.09.2022
1898 Clouds 20 1016 84 10000 0.51 0 21:48 06.09.2022
1899 Clear 20 1015 86 10000 1.55 140 21:30 06.09.2022
1900 Clear 25 1016 65 10000 2.06 160 19:38 06.09.2022
1901 Clear 26 1016 67 10000 1.03 0 18:34 06.09.2022
1902 Rain 27 1017 59 10000 3.09 340 17:37 06.09.2022
1903 Clouds 27 1017 61 10000 2.06 360 16:44 06.09.2022
1904 Rain 28 1017 55 10000 1.54 150 15:55 06.09.2022
1905 Clear 27 1018 61 10000 3.09 220 13:47 06.09.2022
1906 Clear 27 1018 62 10000 3.09 0 13:27 06.09.2022
1907 Clear 27 1018 61 10000 3.6 0 12:56 06.09.2022
1908 Clear 23 1019 75 10000 1.54 140 10:55 06.09.2022
1909 Clear 18 1019 88 10000 1.54 120 09:18 06.09.2022
1910 Clear 17 1019 90 10000 1.03 0 07:52 06.09.2022
1911 Clear 17 1019 90 10000 1.03 0 07:52 06.09.2022
1912 Clouds 17 1019 90 10000 1.54 0 06:18 06.09.2022
1913 Clear 17 1019 83 10000 1.03 0 00:54 06.09.2022
1914 Clear 20 1019 79 10000 1.03 330 22:49 05.09.2022
1915 Clear 21 1019 71 10000 0.51 0 21:38 05.09.2022
1916 Clear 24 1019 61 10000 1.54 140 20:18 05.09.2022
1917 Clear 27 1019 48 10000 1.03 0 18:53 05.09.2022
1918 Clear 28 1019 44 10000 1.03 0 18:24 05.09.2022
1919 Clear 29 1019 40 10000 1.54 100 17:50 05.09.2022
1920 Clear 29 1020 40 10000 1.54 0 15:53 05.09.2022
1921 Clear 29 1021 40 10000 2.06 0 14:40 05.09.2022
1922 Clear 27 1021 53 10000 1.54 0 12:51 05.09.2022
1923 Clear 22 1022 73 10000 1.03 0 10:37 05.09.2022
1924 Clear 17 1022 85 10000 0.51 0 08:45 05.09.2022
1925 Clear 14 1021 90 10000 1.03 260 03:47 05.09.2022
1926 Clear 16 1021 86 10000 0.51 0 00:30 05.09.2022
1927 Clear 19 1021 80 10000 1.54 300 22:29 04.09.2022
1928 Clear 19 1021 78 10000 1.03 0 21:55 04.09.2022
1929 Clear 22 1020 63 10000 1.54 80 20:21 04.09.2022
1930 Clear 26 1020 48 10000 1.03 0 18:35 04.09.2022
1931 Clear 27 1020 46 10000 2.06 30 17:31 04.09.2022
1932 Clouds 27 1020 50 10000 1.54 0 15:43 04.09.2022
1933 Clear 26 1020 54 10000 1.54 0 14:25 04.09.2022
1934 Clouds 24 1021 68 10000 1.54 220 12:40 04.09.2022
1935 Clear 21 1020 82 10000 1.03 0 10:59 04.09.2022
1936 Clear 17 1019 69 10000 1.03 0 09:34 04.09.2022
1937 Fog 14 1018 77 900 0.51 0 06:35 04.09.2022
1938 Clear 15 1017 92 10000 1.03 0 03:18 04.09.2022
1939 Clear 17 1016 89 10000 1.54 40 22:53 03.09.2022
1940 Clear 18 1015 90 10000 0.51 0 21:42 03.09.2022
1941 Clear 18 1015 90 10000 1.03 70 21:22 03.09.2022
1942 Clear 21 1014 79 10000 1.54 0 18:41 03.09.2022
1943 Rain 20 1014 77 10000 1.54 0 17:19 03.09.2022
1944 Clouds 22 1012 49 10000 2.59 266 15:54 03.09.2022
1945 Rain 23 1013 73 10000 2.49 254 14:42 03.09.2022
1946 Clouds 23 1014 65 10000 2.06 10 13:50 03.09.2022
1947 Clear 21 1014 68 10000 1.03 0 11:33 03.09.2022
1948 Clouds 18 1013 75 10000 1.54 60 09:37 03.09.2022
1949 Clear 16 1013 77 10000 0.51 90 07:54 03.09.2022
1950 Clear 16 1013 76 10000 0.51 0 04:55 03.09.2022
1951 Clear 16 1013 73 10000 1.03 0 03:29 03.09.2022
1952 Clear 16 1013 70 10000 1.54 90 23:49 02.09.2022
1953 Clear 18 1013 68 10000 2.06 90 22:27 02.09.2022
1954 Clear 19 1013 63 10000 2.57 90 20:56 02.09.2022
1955 Clear 20 1013 57 10000 2.57 90 20:22 02.09.2022
1956 Clear 23 1013 43 10000 4.63 80 18:51 02.09.2022
1957 Clear 24 1014 43 10000 2.06 110 18:26 02.09.2022
1958 Clear 24 1013 42 10000 4.63 70 17:30 02.09.2022
1959 Clear 24 1014 42 10000 4.12 80 16:44 02.09.2022
1960 Clear 23 1015 44 10000 4.63 100 13:51 02.09.2022
1961 Clouds 21 1016 55 10000 4.55 108 11:36 02.09.2022
1962 Clear 18 1017 75 10000 3.6 70 09:46 02.09.2022
1963 Clear 15 1017 83 10000 1.03 0 08:49 02.09.2022
1964 Clear 12 1017 89 10000 1.54 70 06:50 02.09.2022
1965 Clear 12 1017 90 10000 0.51 0 06:24 02.09.2022
1966 Clear 14 1017 86 10000 0.51 0 02:34 02.09.2022
1967 Clear 17 1018 77 10000 1.54 50 22:24 01.09.2022
1968 Clear 17 1018 79 10000 1.54 90 21:39 01.09.2022
1969 Clear 18 1018 72 10000 1.03 100 21:20 01.09.2022
1970 Clear 19 1018 70 10000 2.57 90 20:37 01.09.2022
1971 Clear 23 1018 56 10000 3.09 90 18:38 01.09.2022
1972 Clouds 23 1018 56 10000 3.6 110 16:58 01.09.2022
1973 Clouds 23 1018 61 10000 3.03 85 15:34 01.09.2022
1974 Clouds 22 1017 67 10000 2.7 91 13:48 01.09.2022
1975 Clouds 21 1019 70 10000 3.6 80 12:57 01.09.2022
1976 Clouds 20 1020 75 10000 3.09 70 11:52 01.09.2022
1977 Clouds 19 1020 79 10000 2.57 90 11:29 01.09.2022
1978 Clouds 17 1019 86 10000 1.54 50 09:49 01.09.2022
1979 Clouds 14 1019 92 7000 1.54 300 07:50 01.09.2022
1980 Clouds 13 1019 92 8000 0.51 360 05:58 01.09.2022
1981 Clouds 15 1019 90 6000 1.03 0 01:31 01.09.2022
1982 Clouds 15 1019 90 6000 1.03 0 01:31 01.09.2022
1983 Clouds 15 1019 92 6000 1.03 0 01:31 01.09.2022
1984 Clouds 15 1019 92 6000 1.03 0 01:31 01.09.2022
1985 Clear 16 1019 90 10000 1.54 90 23:19 31.08.2022
1986 Clear 18 1019 91 10000 0.51 0 21:20 31.08.2022
1987 Clouds 20 1019 84 10000 3.09 290 19:23 31.08.2022
1988 Rain 21 1019 76 10000 2.06 240 17:52 31.08.2022
1989 Clouds 23 1019 65 10000 1.04 32 15:44 31.08.2022
1990 Rain 19 1021 79 10000 2.06 320 13:56 31.08.2022
1991 Clouds 19 1020 80 10000 1.54 290 12:20 31.08.2022
1992 Rain 18 1020 85 10000 3.09 270 10:30 31.08.2022
1993 Rain 18 1019 91 10000 2.06 240 08:34 31.08.2022
1994 Rain 19 1018 81 8000 8.23 290 03:46 31.08.2022
1995 Clear 21 1018 64 10000 2.57 90 22:44 30.08.2022
1996 Clear 23 1017 61 10000 3.09 50 21:33 30.08.2022
1997 Clear 24 1017 50 10000 3.6 60 20:47 30.08.2022
1998 Clear 28 1017 44 10000 3.6 80 17:25 30.08.2022
1999 Clear 28 1018 46 10000 3.6 80 14:42 30.08.2022
2000 Clear 28 1019 47 10000 3.09 70 13:24 30.08.2022
2001 Clear 25 1019 65 10000 1.54 80 11:21 30.08.2022
2002 Clear 24 1020 68 10000 2.06 80 10:35 30.08.2022
2003 Clear 15 1019 91 10000 1.03 0 06:50 30.08.2022
2004 Clear 18 1019 84 10000 1.03 0 01:45 30.08.2022
2005 Clear 18 1019 84 10000 1.03 0 01:45 30.08.2022
2006 Clear 18 1019 84 10000 1.03 0 01:45 30.08.2022
2007 Clear 20 1019 74 10000 1.03 0 22:54 29.08.2022
2008 Clear 20 1019 72 10000 1.03 60 22:20 29.08.2022
2009 Clear 22 1018 69 10000 1.54 60 21:24 29.08.2022
2010 Clear 26 1018 50 10000 2.57 60 19:48 29.08.2022
2011 Clear 27 1018 45 10000 3.09 50 17:50 29.08.2022
2012 Clear 27 1018 46 10000 3.09 350 17:24 29.08.2022
2013 Clear 28 1019 48 10000 3.6 10 16:22 29.08.2022
2014 Clear 27 1019 48 10000 3.6 20 14:44 29.08.2022
2015 Clear 26 1020 58 10000 3.09 100 12:52 29.08.2022
2016 Clear 22 1020 74 10000 1.54 0 10:56 29.08.2022
2017 Clear 19 1020 83 10000 0.51 0 09:45 29.08.2022
2018 Clear 16 1020 85 10000 0.51 340 08:28 29.08.2022
2019 Clear 16 1019 89 10000 1.03 0 02:49 29.08.2022
2020 Clear 17 1019 87 10000 0.51 320 23:55 28.08.2022
2021 Clear 19 1019 81 10000 0.51 0 22:37 28.08.2022
2022 Clear 20 1018 77 10000 1.03 0 21:43 28.08.2022
2023 Clear 22 1018 71 10000 2.57 40 20:54 28.08.2022
2024 Clear 25 1017 62 10000 3.6 10 19:23 28.08.2022
2025 Clouds 25 1017 60 10000 3.09 30 18:20 28.08.2022
2026 Clouds 25 1017 61 10000 3.09 330 16:58 28.08.2022
2027 Clouds 25 1018 61 10000 3.09 30 16:22 28.08.2022
2028 Clouds 24 1018 65 10000 2.57 350 14:41 28.08.2022
2029 Clouds 22 1018 75 10000 2.06 360 12:32 28.08.2022
2030 Clouds 20 1017 89 10000 1.54 40 10:43 28.08.2022
2031 Clouds 20 1017 89 10000 1.54 40 10:43 28.08.2022
2032 Clouds 19 1017 89 10000 2.06 350 09:49 28.08.2022
2033 Clouds 18 1016 92 7000 2.06 360 08:37 28.08.2022
2034 Clouds 18 1016 74 8000 1.03 0 07:43 28.08.2022
2035 Clouds 18 1016 76 6000 1.03 250 02:48 28.08.2022
2036 Clouds 18 1016 93 6000 2.06 290 00:27 28.08.2022
2037 Clouds 19 1016 92 7000 0.51 0 22:36 27.08.2022
2038 Clouds 19 1016 91 10000 1.03 330 21:36 27.08.2022
2039 Clouds 21 1015 88 10000 1.54 290 19:49 27.08.2022
2040 Clouds 22 1015 86 10000 1.03 0 17:43 27.08.2022
2041 Rain 21 1015 84 10000 2.57 60 15:53 27.08.2022
2042 Rain 21 1015 89 10000 2.06 20 15:25 27.08.2022
2043 Rain 20 1015 74 5000 2.57 350 12:30 27.08.2022
2044 Rain 20 1015 90 6000 2.57 340 11:32 27.08.2022
2045 Rain 20 1015 91 10000 3.09 330 11:32 27.08.2022
2046 Clouds 19 1015 90 9000 2.57 310 09:50 27.08.2022
2047 Clouds 19 1014 90 7000 2.06 290 08:22 27.08.2022
2048 Clouds 19 1015 88 10000 1.03 0 03:40 27.08.2022
2049 Clear 18 1015 90 10000 1.54 280 23:58 26.08.2022
2050 Clear 19 1015 91 10000 1.54 240 22:50 26.08.2022
2051 Clouds 20 1015 88 10000 2.57 50 21:30 26.08.2022
2052 Rain 21 1014 73 1300 13.89 280 19:23 26.08.2022
2053 Rain 28 1011 57 10000 2.52 7 17:25 26.08.2022
2054 Clear 29 1012 55 10000 3.6 80 15:35 26.08.2022
2055 Clouds 27 1013 62 10000 1.6 15 14:42 26.08.2022
2056 Clear 26 1014 53 10000 1.03 0 12:53 26.08.2022
2057 Clear 26 1014 58 10000 1.03 0 11:35 26.08.2022
2058 Clear 24 1015 68 10000 1.54 80 10:47 26.08.2022
2059 Clear 17 1014 89 10000 0.51 90 07:32 26.08.2022
2060 Clear 19 1014 83 10000 1.03 0 02:31 26.08.2022
2061 Clear 21 1015 77 10000 0.51 0 23:44 25.08.2022
2062 Clear 24 1014 66 10000 0.51 120 21:40 25.08.2022
2063 Clear 25 1014 62 10000 1.03 80 20:51 25.08.2022
2064 Clear 29 1014 45 10000 2.06 90 19:24 25.08.2022
2065 Clear 30 1014 43 10000 3.09 90 18:28 25.08.2022
2066 Clear 30 1014 45 10000 2.57 70 17:31 25.08.2022
2067 Clear 30 1015 44 10000 3.09 60 16:25 25.08.2022
2068 Clear 30 1015 45 10000 3.09 40 15:27 25.08.2022
2069 Clear 28 1016 54 10000 3.6 100 12:56 25.08.2022
2070 Clear 25 1017 66 10000 3.6 70 10:49 25.08.2022
2071 Clear 22 1017 76 10000 2.06 90 09:44 25.08.2022
2072 Clear 16 1018 90 10000 1.03 0 06:45 25.08.2022
2073 Clear 19 1018 82 10000 0.51 0 01:57 25.08.2022
2074 Clear 21 1019 78 10000 1.03 80 23:28 24.08.2022
2075 Clear 21 1019 76 10000 1.03 80 22:46 24.08.2022
2076 Clear 23 1019 71 10000 0.51 0 21:37 24.08.2022
2077 Clear 23 1019 69 10000 1.54 100 21:19 24.08.2022
2078 Clear 27 1018 47 10000 3.09 80 19:43 24.08.2022
2079 Clear 30 1018 41 10000 4.12 70 16:50 24.08.2022
2080 Clear 30 1018 39 10000 5.14 80 15:52 24.08.2022
2081 Clear 30 1019 34 10000 5.66 60 14:58 24.08.2022
2082 Clear 27 1019 45 10000 3.09 90 12:28 24.08.2022
2083 Clear 25 1020 51 10000 1.54 0 11:18 24.08.2022
2084 Clear 18 1019 79 10000 1.03 90 08:45 24.08.2022
2085 Clear 15 1019 86 10000 0.51 60 05:26 24.08.2022
2086 Clear 19 1019 74 10000 0.51 70 00:41 24.08.2022
2087 Clear 20 1018 65 10000 1.03 330 22:35 23.08.2022
2088 Clear 22 1018 61 10000 0.51 0 21:55 23.08.2022
2089 Clear 23 1017 55 10000 1.03 0 20:43 23.08.2022
2090 Clear 28 1017 36 10000 1.54 180 18:58 23.08.2022
2091 Clear 29 1017 35 10000 1.54 0 17:59 23.08.2022
2092 Clear 30 1017 34 10000 1.54 100 17:22 23.08.2022
2093 Clear 29 1017 35 10000 2.06 0 15:54 23.08.2022
2094 Clear 29 1018 35 10000 1.54 0 14:30 23.08.2022
2095 Clear 28 1018 40 10000 2.57 80 12:46 23.08.2022
2096 Clear 24 1018 55 10000 1.54 110 10:57 23.08.2022
2097 Clear 22 1018 63 10000 2.06 80 10:33 23.08.2022
2098 Clear 20 1018 69 10000 1.03 0 09:32 23.08.2022
2099 Clear 18 1017 77 10000 0.51 0 08:46 23.08.2022
2100 Clear 15 1017 84 10000 0.51 90 08:18 23.08.2022
2101 Clear 13 1017 89 10000 0.51 0 07:31 23.08.2022
2102 Clear 14 1016 84 10000 0.51 270 06:22 23.08.2022
2103 Clear 17 1016 77 10000 0.51 0 01:45 23.08.2022
2104 Clear 19 1016 70 10000 0.51 0 00:27 23.08.2022
2105 Clear 19 1015 70 10000 0.51 90 23:32 22.08.2022
2106 Clear 20 1015 66 10000 0.51 0 22:25 22.08.2022
2107 Clear 23 1014 52 10000 2.06 80 20:44 22.08.2022
2108 Clear 26 1014 41 10000 2.06 90 19:44 22.08.2022
2109 Clear 27 1014 39 10000 4.12 70 18:37 22.08.2022
2110 Clear 28 1015 38 10000 3.09 0 15:55 22.08.2022
2111 Clear 27 1015 40 10000 2.06 0 15:18 22.08.2022
2112 Clear 25 1016 60 10000 2.06 90 11:45 22.08.2022
2113 Clear 18 1016 80 10000 1.03 0 09:24 22.08.2022
2114 Clear 12 1015 91 10000 0.51 0 06:58 22.08.2022
2115 Clear 14 1015 84 10000 0.51 0 02:28 22.08.2022
2116 Clear 16 1015 78 10000 0.51 0 00:37 22.08.2022
2117 Clear 17 1016 75 10000 1.03 0 23:34 21.08.2022
2118 Clear 19 1015 64 10000 0.51 0 21:56 21.08.2022
2119 Clear 21 1015 61 10000 0.51 0 21:20 21.08.2022
2120 Clear 23 1015 49 10000 1.54 90 20:20 21.08.2022
2121 Clear 27 1015 36 10000 1.54 100 18:49 21.08.2022
2122 Clear 28 1016 37 10000 2.06 0 16:50 21.08.2022
2123 Clear 27 1016 40 10000 1.03 0 15:52 21.08.2022
2124 Clear 27 1016 41 10000 1.54 0 14:57 21.08.2022
2125 Clear 26 1017 47 10000 1.54 0 13:51 21.08.2022
2126 Clear 25 1017 50 10000 2.06 90 12:56 21.08.2022
2127 Clear 21 1018 71 10000 1.03 0 10:41 21.08.2022
2128 Clear 18 1018 79 10000 0.51 0 09:21 21.08.2022
2129 Clear 16 1018 82 10000 0.51 0 08:46 21.08.2022
2130 Clear 15 1018 85 10000 0 0 08:28 21.08.2022
2131 Clear 12 1018 88 10000 1.03 0 06:37 21.08.2022
2132 Clear 14 1018 85 10000 1.03 250 02:35 21.08.2022
2133 Clear 17 1018 83 10000 2.06 250 23:35 20.08.2022
2134 Clear 19 1018 84 10000 3.6 250 21:57 20.08.2022
2135 Clouds 20 1017 91 10000 2.28 230 20:56 20.08.2022
2136 Clear 23 1017 69 10000 2.06 130 19:49 20.08.2022
2137 Clear 23 1017 69 10000 1.54 130 19:21 20.08.2022
2138 Clear 24 1017 74 10000 2.57 140 18:26 20.08.2022
2139 Clouds 23 1017 83 10000 2.06 150 17:25 20.08.2022
2140 Clouds 22 1018 87 10000 3.09 70 16:23 20.08.2022
2141 Clouds 22 1018 81 10000 3.6 280 14:35 20.08.2022
2142 Clouds 22 1017 84 10000 3.09 60 12:19 20.08.2022
2143 Clouds 22 1018 79 10000 3.09 220 11:42 20.08.2022
2144 Clear 19 1017 87 10000 2.06 240 09:25 20.08.2022
2145 Clouds 18 1017 86 10000 1.03 0 07:31 20.08.2022
2146 Clear 17 1017 88 10000 1.54 230 05:48 20.08.2022
2147 Clouds 19 1016 89 10000 2.85 251 00:58 20.08.2022
2148 Clouds 19 1016 84 10000 2.68 245 23:52 19.08.2022
2149 Clear 19 1016 91 10000 1.03 170 22:48 19.08.2022
2150 Clear 19 1015 91 10000 1.54 230 21:34 19.08.2022
2151 Clouds 20 1015 90 9000 2.06 100 19:40 19.08.2022
2152 Rain 21 1014 89 6000 2.06 0 16:32 19.08.2022
2153 Rain 21 1014 87 6000 2.57 0 14:22 19.08.2022
2154 Rain 20 1014 87 10000 1.54 320 12:45 19.08.2022
2155 Rain 20 1014 86 8000 2.57 320 10:41 19.08.2022
2156 Rain 20 1013 84 10000 3.6 320 09:36 19.08.2022
2157 Rain 20 1012 77 10000 3.6 280 04:56 19.08.2022
2158 Clouds 21 1012 69 10000 3.09 300 00:45 19.08.2022
2159 Clouds 21 1013 68 10000 1.03 0 00:20 19.08.2022
2160 Clouds 22 1012 64 10000 4.63 320 22:59 18.08.2022
2161 Clear 23 1012 66 10000 4.63 330 22:26 18.08.2022
2162 Clear 23 1011 68 10000 4.63 310 21:51 18.08.2022
2163 Clear 23 1011 68 10000 5.66 310 21:18 18.08.2022
2164 Clouds 25 1011 57 10000 7.2 300 19:54 18.08.2022
2165 Clouds 26 1011 53 10000 5.14 310 19:21 18.08.2022
2166 Clouds 26 1011 52 10000 3.09 10 17:46 18.08.2022
2167 Clouds 27 1011 53 10000 3.09 360 16:25 18.08.2022
2168 Clouds 25 1012 65 10000 4.12 340 14:22 18.08.2022
2169 Clouds 25 1012 67 10000 3.6 30 13:58 18.08.2022
2170 Clouds 24 1013 75 10000 1.03 0 12:46 18.08.2022
2171 Rain 21 1014 83 10000 1.03 0 11:23 18.08.2022
2172 Clear 20 1014 86 10000 1.03 0 09:43 18.08.2022
2173 Clear 19 1013 85 10000 0 0 08:31 18.08.2022
2174 Clear 18 1013 88 10000 1.03 0 07:18 18.08.2022
2175 Rain 19 1014 88 10000 1.54 190 02:59 18.08.2022
2176 Clear 22 1012 71 10000 1.54 250 23:18 17.08.2022
2177 Clear 24 1011 62 10000 3.09 350 21:28 17.08.2022
2178 Clear 26 1011 53 10000 2.57 320 19:59 17.08.2022
2179 Clear 28 1011 47 10000 0.51 0 18:58 17.08.2022
2180 Clear 30 1012 41 10000 2.57 30 17:28 17.08.2022
2181 Clear 29 1012 43 10000 1.54 0 16:21 17.08.2022
2182 Clear 27 1013 41 10000 1.54 0 15:18 17.08.2022
2183 Clouds 25 1013 59 10000 2.57 290 12:52 17.08.2022
2184 Rain 25 1013 60 10000 1.03 0 11:36 17.08.2022
2185 Clear 22 1012 69 10000 0.51 0 09:31 17.08.2022
2186 Clear 17 1012 77 10000 1.03 60 07:36 17.08.2022
2187 Clouds 17 1011 83 10000 1.41 126 02:24 17.08.2022
2188 Clear 20 1011 72 10000 1.03 0 23:49 16.08.2022
2189 Clear 23 1011 64 10000 0.87 82 21:59 16.08.2022
2190 Clear 25 1010 49 10000 2.57 20 20:51 16.08.2022
2191 Clouds 28 1008 45 10000 2.24 0 19:53 16.08.2022
2192 Clear 29 1010 41 10000 2.57 10 18:34 16.08.2022
2193 Clear 29 1010 41 10000 1.54 80 17:41 16.08.2022
2194 Clear 29 1011 44 10000 2.06 0 15:47 16.08.2022
2195 Clear 28 1011 47 10000 1.54 0 14:55 16.08.2022
2196 Clear 27 1011 49 10000 1.54 0 14:37 16.08.2022
2197 Clouds 26 1011 57 10000 1.03 0 12:44 16.08.2022
2198 Clouds 24 1011 68 10000 1.54 0 10:37 16.08.2022
2199 Clear 21 1011 74 10000 2.06 80 09:44 16.08.2022
2200 Clear 19 1011 82 10000 1.03 0 08:45 16.08.2022
2201 Clear 16 1011 90 10000 0.51 110 07:33 16.08.2022
2202 Clear 17 1010 83 10000 1.03 80 02:19 16.08.2022
2203 Clear 19 1010 70 10000 1.54 220 22:30 15.08.2022
2204 Clear 19 1010 70 10000 1.54 220 22:30 15.08.2022
2205 Clear 20 1010 65 10000 1.03 0 21:54 15.08.2022
2206 Clear 21 1009 69 10000 2.06 210 20:52 15.08.2022
2207 Clear 22 1009 67 10000 2.57 250 20:19 15.08.2022
2208 Clear 22 1008 64 10000 2.06 150 18:42 15.08.2022
2209 Rain 27 1005 31 10000 6.01 270 17:36 15.08.2022
2210 Clouds 28 1006 46 10000 4.63 350 16:22 15.08.2022
2211 Clear 28 1007 46 10000 3.6 250 13:58 15.08.2022
2212 Clear 26 1008 52 10000 4.12 250 12:38 15.08.2022
2213 Clouds 22 1008 67 10000 4.63 250 10:18 15.08.2022
2214 Clouds 21 1007 76 10000 2.06 240 08:51 15.08.2022
2215 Clouds 21 1008 74 10000 2.06 220 06:33 15.08.2022
2216 Rain 21 1007 72 10000 2.57 180 02:57 15.08.2022
2217 Rain 23 1007 50 10000 0.51 0 23:22 14.08.2022
2218 Clouds 24 1006 47 10000 2.54 246 21:43 14.08.2022
2219 Clear 27 1006 37 10000 1.03 50 20:33 14.08.2022
2220 Clear 29 1006 32 10000 1.03 0 19:36 14.08.2022
2221 Clear 31 1006 27 10000 1.03 0 18:21 14.08.2022
2222 Clear 32 1007 26 10000 1.54 0 17:27 14.08.2022
2223 Clear 32 1007 28 10000 2.57 0 16:23 14.08.2022
2224 Clear 32 1008 30 10000 4.12 70 14:55 14.08.2022
2225 Clear 31 1009 32 10000 5.66 90 13:51 14.08.2022
2226 Clear 30 1009 34 10000 4.63 80 13:31 14.08.2022
2227 Clear 31 1009 34 10000 4.63 80 13:31 14.08.2022
2228 Clear 29 1010 37 10000 3.09 0 12:42 14.08.2022
2229 Clear 27 1010 42 10000 3.09 90 11:23 14.08.2022
2230 Clear 20 1011 63 10000 0.51 0 08:57 14.08.2022
2231 Clear 14 1011 79 10000 1.03 0 06:41 14.08.2022
2232 Clear 14 1012 79 10000 0.51 0 05:37 14.08.2022
2233 Clear 17 1014 67 10000 1.03 300 01:36 14.08.2022
2234 Clear 20 1014 58 10000 1.03 0 23:22 13.08.2022
2235 Clear 22 1014 53 10000 1.03 0 22:28 13.08.2022
2236 Clear 26 1014 40 10000 1.03 0 20:51 13.08.2022
2237 Clear 28 1014 32 10000 1.54 110 19:49 13.08.2022
2238 Clear 29 1014 30 10000 2.57 70 19:18 13.08.2022
2239 Clear 30 1015 30 10000 3.09 70 17:22 13.08.2022
2240 Clear 29 1016 33 10000 4.63 0 14:51 13.08.2022
2241 Clear 28 1016 35 10000 6.69 50 14:24 13.08.2022
2242 Clear 28 1016 35 10000 3.09 60 13:36 13.08.2022
2243 Clear 25 1017 48 10000 3.6 70 11:49 13.08.2022
2244 Clear 20 1017 63 10000 1.54 20 09:27 13.08.2022
2245 Clear 15 1017 76 10000 1.03 0 07:48 13.08.2022
2246 Clear 17 1017 63 10000 0.51 0 01:56 13.08.2022
2247 Clear 19 1017 56 10000 3.09 90 23:36 12.08.2022
2248 Clear 22 1017 40 10000 2.57 100 21:40 12.08.2022
2249 Clear 26 1016 29 10000 4.63 80 19:51 12.08.2022
2250 Clear 27 1016 30 10000 5.14 60 19:24 12.08.2022
2251 Clear 28 1016 32 10000 2.57 100 18:31 12.08.2022
2252 Clear 29 1017 30 10000 4.63 70 16:27 12.08.2022
2253 Clear 28 1017 33 10000 4.63 80 15:23 12.08.2022
2254 Clear 28 1018 32 10000 4.63 120 13:56 12.08.2022
2255 Clear 28 1018 34 10000 4.63 100 12:51 12.08.2022
2256 Clear 22 1019 53 10000 2.57 60 09:28 12.08.2022
2257 Clear 16 1019 74 10000 0.51 0 07:47 12.08.2022
2258 Clear 14 1018 74 10000 1.54 300 06:28 12.08.2022
2259 Clear 18 1019 61 10000 0.51 0 01:45 12.08.2022
2260 Clear 19 1019 55 10000 2.06 90 00:20 12.08.2022
2261 Clear 20 1019 51 10000 0 0 23:29 11.08.2022
2262 Clear 22 1019 48 10000 1.54 40 21:58 11.08.2022
2263 Clear 23 1018 42 10000 1.03 80 21:35 11.08.2022
2264 Clear 27 1018 31 10000 2.57 70 20:32 11.08.2022
2265 Clear 28 1018 28 10000 3.09 90 19:57 11.08.2022
2266 Clear 29 1018 27 10000 2.57 120 19:32 11.08.2022
2267 Clear 30 1019 27 10000 4.12 110 17:47 11.08.2022
2268 Clear 30 1019 27 10000 4.12 90 16:32 11.08.2022
2269 Clear 30 1020 29 10000 4.12 90 15:21 11.08.2022
2270 Clear 28 1021 35 10000 6.17 60 12:41 11.08.2022
2271 Clear 23 1022 53 10000 5.14 70 09:54 11.08.2022
2272 Clear 15 1021 71 10000 0.51 0 07:19 11.08.2022
2273 Clear 16 1022 69 10000 0.51 0 03:46 11.08.2022
2274 Clear 18 1022 64 10000 1.54 80 00:35 11.08.2022
2275 Clear 21 1022 55 10000 1.54 80 22:22 10.08.2022
2276 Clear 24 1021 41 10000 2.06 70 21:25 10.08.2022
2277 Clear 25 1021 35 10000 2.06 90 20:54 10.08.2022
2278 Clear 28 1021 29 10000 4.63 100 19:27 10.08.2022
2279 Clear 29 1022 28 10000 5.66 90 18:22 10.08.2022
2280 Clear 30 1022 30 10000 4.63 100 16:36 10.08.2022
2281 Clear 28 1023 32 10000 5.66 90 13:35 10.08.2022
2282 Clear 28 1024 35 10000 5.66 90 12:41 10.08.2022
2283 Clear 23 1024 53 10000 3.6 80 09:25 10.08.2022
2284 Clear 19 1024 65 10000 1.54 70 08:33 10.08.2022
2285 Clear 15 1024 75 10000 1.03 40 07:19 10.08.2022
2286 Clear 17 1024 68 10000 2.06 80 03:28 10.08.2022
2287 Clear 20 1024 54 10000 1.03 60 23:34 09.08.2022
2288 Clear 21 1024 51 10000 1.54 60 22:56 09.08.2022
2289 Clear 24 1024 37 10000 3.09 40 21:36 09.08.2022
2290 Clear 27 1023 32 10000 4.12 70 20:30 09.08.2022
2291 Clear 29 1023 28 10000 5.14 90 18:44 09.08.2022
2292 Clear 30 1023 27 10000 5.66 60 17:28 09.08.2022
2293 Clear 30 1023 27 10000 5.66 60 17:28 09.08.2022
2294 Clear 30 1023 29 10000 4.63 50 16:41 09.08.2022
2295 Clear 30 1023 31 10000 5.14 80 15:58 09.08.2022
2296 Clear 29 1024 34 10000 4.12 90 13:51 09.08.2022
2297 Clear 23 1025 56 10000 2.06 90 09:56 09.08.2022
2298 Clear 20 1024 59 10000 1.03 0 08:50 09.08.2022
2299 Clear 18 1024 63 10000 1.54 330 07:54 09.08.2022
2300 Clear 15 1023 74 10000 0.51 0 04:28 09.08.2022
2301 Clear 20 1023 54 10000 0.51 0 23:35 08.08.2022
2302 Clear 20 1023 56 10000 1.3 95 22:56 08.08.2022
2303 Clear 21 1023 52 10000 1.31 94 22:35 08.08.2022
2304 Clear 24 1022 41 10000 2.57 30 21:27 08.08.2022
2305 Clear 28 1021 30 10000 3.09 80 19:51 08.08.2022
2306 Clear 29 1021 28 10000 2.57 80 19:22 08.08.2022
2307 Clear 30 1021 45 10000 3.6 100 17:34 08.08.2022
2308 Clear 30 1022 31 10000 2.06 0 15:45 08.08.2022
2309 Clear 29 1022 34 10000 2.57 0 14:33 08.08.2022
2310 Clear 27 1023 41 10000 3.6 110 12:29 08.08.2022
2311 Clear 22 1023 58 10000 1.54 100 10:23 08.08.2022
2312 Clear 13 1021 81 10000 0.51 0 06:56 08.08.2022
2313 Clear 14 1021 70 10000 0.51 0 03:34 08.08.2022
2314 Clear 20 1021 50 10000 1.03 60 22:44 07.08.2022
2315 Clear 23 1020 35 10000 2.57 10 21:40 07.08.2022
2316 Clear 26 1020 29 10000 4.12 20 20:54 07.08.2022
2317 Clear 26 1019 29 10000 3.09 30 20:18 07.08.2022
2318 Clear 26 1019 28 10000 3.09 40 19:50 07.08.2022
2319 Clear 27 1020 31 10000 2.06 0 18:40 07.08.2022
2320 Clear 28 1020 33 10000 3.09 60 17:18 07.08.2022
2321 Clear 28 1020 32 10000 3.6 50 16:38 07.08.2022
2322 Clear 27 1021 34 10000 3.6 80 15:25 07.08.2022
2323 Clear 26 1021 36 10000 5.66 50 13:44 07.08.2022
2324 Clear 24 1022 40 10000 6.17 60 12:19 07.08.2022
2325 Clear 22 1023 54 10000 5.14 80 10:37 07.08.2022
2326 Clear 17 1023 72 10000 1.03 0 08:26 07.08.2022
2327 Clear 14 1023 72 10000 1.54 340 04:33 07.08.2022
2328 Clear 15 1023 67 10000 1.54 330 01:58 07.08.2022
2329 Clear 19 1023 49 10000 1.41 56 22:30 06.08.2022
2330 Clear 22 1023 42 10000 3.6 20 21:43 06.08.2022
2331 Clear 24 1023 40 10000 2.06 80 19:42 06.08.2022
2332 Clear 25 1023 43 10000 2.06 60 18:35 06.08.2022
2333 Clear 26 1023 42 10000 2.57 80 17:44 06.08.2022
2334 Clouds 25 1024 46 10000 2.06 0 15:21 06.08.2022
2335 Clouds 23 1025 53 10000 3.09 50 13:50 06.08.2022
2336 Clouds 22 1025 57 10000 3.09 50 12:21 06.08.2022
2337 Clouds 20 1025 66 10000 4.12 40 10:40 06.08.2022
2338 Clear 19 1025 69 10000 4.12 20 09:31 06.08.2022
2339 Clouds 18 1023 68 10000 4.12 360 04:38 06.08.2022
2340 Clouds 20 1021 80 10000 4.12 340 00:46 06.08.2022
2341 Clear 22 1019 73 10000 6.69 320 22:35 05.08.2022
2342 Clear 26 1018 57 10000 5.14 340 20:50 05.08.2022
2343 Clear 28 1016 54 10000 7.2 330 18:56 05.08.2022
2344 Clear 28 1016 54 10000 7.2 330 18:38 05.08.2022
2345 Clear 32 1015 43 10000 1.54 110 16:52 05.08.2022
2346 Clear 32 1016 40 10000 3.09 120 15:25 05.08.2022
2347 Clear 32 1017 40 10000 2.57 130 14:38 05.08.2022
2348 Clear 31 1017 43 10000 2.57 0 13:38 05.08.2022
2349 Clear 31 1017 44 10000 2.57 150 13:18 05.08.2022
2350 Clear 29 1017 48 10000 2.57 360 11:55 05.08.2022
2351 Clear 26 1017 61 10000 3.09 340 09:18 05.08.2022
2352 Clear 23 1017 72 10000 5.66 290 07:57 05.08.2022
2353 Clear 22 1014 72 10000 1.54 280 05:20 05.08.2022
2354 Clear 25 1013 63 10000 1.54 300 23:49 04.08.2022
2355 Clear 28 1013 53 10000 1.54 320 21:39 04.08.2022
2356 Clear 29 1013 51 10000 0.51 0 21:21 04.08.2022
2357 Clear 31 1013 46 10000 1.54 130 20:40 04.08.2022
2358 Clear 36 1013 32 10000 2.06 90 19:21 04.08.2022
2359 Clear 36 1013 29 10000 1.54 70 18:34 04.08.2022
2360 Clear 37 1013 30 10000 2.06 40 16:54 04.08.2022
2361 Clear 36 1015 31 10000 2.57 90 13:35 04.08.2022
2362 Clear 33 1015 43 10000 1.54 140 11:46 04.08.2022
2363 Clear 29 1015 50 10000 1.54 70 10:27 04.08.2022
2364 Clear 22 1015 73 10000 0.51 0 07:51 04.08.2022
2365 Clear 20 1015 76 10000 0 0 04:28 04.08.2022
2366 Clear 21 1015 73 10000 1.03 70 01:58 04.08.2022
2367 Clear 23 1015 67 10000 1.54 176 23:42 03.08.2022
2368 Clear 26 1015 57 10000 1.03 0 21:50 03.08.2022
2369 Clear 29 1015 49 10000 2.06 80 20:37 03.08.2022
2370 Clear 33 1015 35 10000 2.57 70 19:28 03.08.2022
2371 Clear 33 1015 47 10000 1.54 150 17:58 03.08.2022
2372 Clear 34 1016 37 10000 1.54 120 16:24 03.08.2022
2373 Clear 33 1017 39 10000 1.54 0 14:43 03.08.2022
2374 Clouds 30 1016 47 10000 1.32 151 11:53 03.08.2022
2375 Clear 20 1018 85 10000 1.03 0 08:20 03.08.2022
2376 Clear 17 1017 86 10000 0.51 110 04:47 03.08.2022
2377 Clear 18 1018 86 10000 1.03 300 03:28 03.08.2022
2378 Clear 19 1018 79 10000 0.51 0 01:18 03.08.2022
2379 Clear 21 1018 72 10000 1.03 0 23:18 02.08.2022
2380 Clear 23 1017 64 10000 1.03 0 21:55 02.08.2022
2381 Clear 25 1017 59 10000 0.51 0 21:21 02.08.2022
2382 Clear 29 1017 42 10000 1.54 0 18:59 02.08.2022
2383 Clear 29 1018 46 10000 1.54 200 16:27 02.08.2022
2384 Clouds 27 1018 61 10000 0.63 235 12:53 02.08.2022
2385 Clear 22 1020 79 10000 0.51 0 09:40 02.08.2022
2386 Clear 19 1020 87 10000 0.51 0 07:56 02.08.2022
2387 Clear 17 1020 88 10000 0.51 0 07:25 02.08.2022
2388 Clouds 17 1019 89 10000 0.51 0 04:55 02.08.2022
2389 Clouds 19 1020 91 10000 2.57 150 23:52 01.08.2022
2390 Clouds 19 1019 87 10000 3.09 170 22:50 01.08.2022
2391 Clear 22 1018 66 10000 2.06 60 20:57 01.08.2022
2392 Clouds 25 1017 55 10000 4.12 330 19:41 01.08.2022
2393 Clouds 28 1017 50 10000 4.63 310 18:43 01.08.2022
2394 Clouds 28 1017 47 10000 3.6 20 16:54 01.08.2022
2395 Clear 28 1017 50 10000 3.09 330 16:29 01.08.2022
2396 Clear 28 1017 50 10000 1.54 110 15:33 01.08.2022
2397 Clouds 27 1018 52 10000 2.06 360 14:43 01.08.2022
2398 Clear 27 1018 55 10000 3.6 290 12:57 01.08.2022
2399 Clouds 25 1018 63 10000 2.57 280 10:30 01.08.2022
2400 Clear 22 1018 70 10000 4.12 260 08:45 01.08.2022
2401 Clear 18 1018 79 10000 3.6 280 06:50 01.08.2022
2402 Clear 18 1018 80 10000 3.6 250 04:29 01.08.2022
2403 Clear 20 1017 74 10000 1.38 245 00:56 01.08.2022
2404 Clouds 23 1016 67 10000 1.76 258 22:42 31.07.2022
2405 Clear 24 1016 55 10000 3.09 270 22:18 31.07.2022
2406 Clear 29 1016 42 10000 4.12 280 20:21 31.07.2022
2407 Clear 31 1016 34 10000 5.14 270 18:38 31.07.2022
2408 Clear 31 1017 37 10000 3.09 190 16:26 31.07.2022
2409 Clouds 30 1016 43 10000 3.55 282 14:33 31.07.2022
2410 Clear 28 1019 43 10000 1.54 100 12:55 31.07.2022
2411 Clear 24 1020 61 10000 1.54 90 10:53 31.07.2022
2412 Clear 19 1020 75 10000 0.51 0 08:46 31.07.2022
2413 Clear 15 1019 87 10000 0.51 0 05:20 31.07.2022
2414 Clear 18 1020 75 10000 1.54 280 01:20 31.07.2022
2415 Clear 21 1019 62 10000 2.06 290 22:40 30.07.2022
2416 Clouds 22 1019 60 10000 1.2 3 21:50 30.07.2022
2417 Clear 23 1018 56 10000 2.57 320 21:32 30.07.2022
2418 Clear 26 1018 42 10000 4.63 300 20:28 30.07.2022
2419 Clear 27 1018 38 10000 4.63 300 19:50 30.07.2022
2420 Clear 28 1018 39 10000 4.12 310 17:53 30.07.2022
2421 Clear 28 1018 38 10000 4.63 290 16:38 30.07.2022
2422 Clear 28 1019 39 10000 3.6 330 15:30 30.07.2022
2423 Clear 26 1019 45 10000 4.63 330 13:23 30.07.2022
2424 Clear 25 1019 48 10000 4.63 290 12:22 30.07.2022
2425 Clear 25 1019 50 10000 5.14 290 11:51 30.07.2022
2426 Clear 23 1019 59 10000 3.6 290 10:19 30.07.2022
2427 Clear 19 1019 76 10000 3.09 250 08:54 30.07.2022
2428 Clear 16 1018 84 10000 1.54 250 06:58 30.07.2022
2429 Clear 17 1017 85 10000 2.06 240 02:33 30.07.2022
2430 Clear 19 1017 83 10000 1.03 0 23:57 29.07.2022
2431 Clear 21 1016 83 10000 0.51 0 21:38 29.07.2022
2432 Clear 23 1016 82 10000 1.03 0 20:50 29.07.2022
2433 Clear 23 1016 73 10000 0.51 0 19:46 29.07.2022
2434 Clear 24 1016 63 10000 1.54 190 17:34 29.07.2022
2435 Rain 20 1016 72 10000 1.03 0 14:50 29.07.2022
2436 Rain 27 1015 58 10000 2.06 80 12:52 29.07.2022
2437 Clear 22 1015 79 10000 2.06 200 09:34 29.07.2022
2438 Clear 20 1015 85 10000 1.54 90 08:41 29.07.2022
2439 Clear 17 1015 89 10000 1.03 0 06:40 29.07.2022
2440 Clouds 19 1016 89 10000 1.54 180 01:19 29.07.2022
2441 Clouds 25 1013 47 10000 4.12 50 21:45 28.07.2022
2442 Clear 27 1013 45 10000 3.09 60 20:54 28.07.2022
2443 Clear 27 1013 43 10000 3.6 60 20:21 28.07.2022
2444 Clear 28 1012 38 10000 4.63 60 19:40 28.07.2022
2445 Clear 29 1013 39 10000 3.6 70 18:26 28.07.2022
2446 Clear 30 1013 37 10000 3.09 100 17:42 28.07.2022
2447 Clear 30 1013 41 10000 3.09 0 16:41 28.07.2022
2448 Clear 28 1014 45 10000 3.09 80 14:50 28.07.2022
2449 Clouds 27 1015 52 10000 2.06 0 12:49 28.07.2022
2450 Clear 22 1016 65 10000 3.6 60 09:45 28.07.2022
2451 Clear 15 1015 76 10000 1.54 360 06:21 28.07.2022
2452 Clear 16 1015 75 10000 2.57 340 05:26 28.07.2022
2453 Clear 19 1017 58 10000 2.06 30 00:45 28.07.2022
2454 Clear 21 1017 61 10000 3.09 10 22:31 27.07.2022
2455 Clear 23 1016 46 10000 3.6 10 20:56 27.07.2022
2456 Clear 25 1016 45 10000 4.12 350 19:34 27.07.2022
2457 Clear 26 1016 43 10000 4.63 10 17:23 27.07.2022
2458 Clear 26 1016 46 10000 4.12 20 15:52 27.07.2022
2459 Clouds 25 1016 50 10000 3.6 350 14:48 27.07.2022
2460 Clouds 24 1017 48 10000 1.54 0 14:30 27.07.2022
2461 Clouds 23 1017 61 10000 3.09 360 12:48 27.07.2022
2462 Clear 17 1017 80 10000 2.06 300 07:53 27.07.2022
2463 Clouds 16 1016 80 10000 1.77 305 06:19 27.07.2022
2464 Clouds 18 1017 72 10000 0.99 323 00:48 27.07.2022
2465 Clear 21 1017 58 10000 2.57 320 22:25 26.07.2022
2466 Clear 23 1016 48 10000 3.09 340 21:20 26.07.2022
2467 Clear 24 1016 43 10000 3.6 350 20:25 26.07.2022
2468 Clear 26 1016 42 10000 3.09 310 18:42 26.07.2022
2469 Clear 26 1016 40 10000 4.12 300 17:58 26.07.2022
2470 Clear 27 1017 41 10000 6.69 310 15:59 26.07.2022
2471 Clear 26 1017 42 10000 6.17 290 15:18 26.07.2022
2472 Clear 25 1017 47 10000 5.66 270 13:38 26.07.2022
2473 Clear 24 1017 52 10000 4.12 250 11:20 26.07.2022
2474 Clear 21 1017 76 10000 4.63 300 08:57 26.07.2022
2475 Clouds 18 1016 86 10000 2.41 263 05:53 26.07.2022
2476 Clear 23 1015 60 10000 3.6 270 00:44 26.07.2022
2477 Clear 24 1014 56 10000 3.09 290 23:32 25.07.2022
2478 Clear 26 1013 52 10000 5.66 290 22:26 25.07.2022
2479 Clear 27 1013 50 10000 7.2 300 21:43 25.07.2022
2480 Clear 29 1011 44 10000 7.72 290 20:42 25.07.2022
2481 Clouds 32 1011 44 10000 7.72 280 19:46 25.07.2022
2482 Clear 32 1011 44 10000 6.69 270 18:21 25.07.2022
2483 Clouds 34 1011 41 10000 2.57 240 17:31 25.07.2022
2484 Clear 35 1011 36 10000 5.66 250 15:20 25.07.2022
2485 Clear 33 1012 42 10000 3.6 0 12:29 25.07.2022
2486 Clear 29 1013 55 10000 1.54 160 10:32 25.07.2022
2487 Clear 19 1014 85 10000 0.51 310 06:32 25.07.2022
2488 Clear 22 1016 74 10000 1.03 0 23:55 24.07.2022
2489 Clear 23 1016 72 10000 0.51 0 23:19 24.07.2022
2490 Clear 24 1016 67 10000 0.51 0 22:35 24.07.2022
2491 Clear 27 1016 58 10000 2.06 70 21:28 24.07.2022
2492 Clear 29 1016 46 10000 1.54 70 20:53 24.07.2022
2493 Clear 30 1016 45 10000 2.06 90 20:27 24.07.2022
2494 Clear 32 1016 39 10000 2.06 130 18:57 24.07.2022
2495 Clear 32 1018 39 10000 1.54 0 16:51 24.07.2022
2496 Clear 31 1018 41 10000 1.03 0 15:53 24.07.2022
2497 Clear 31 1019 41 10000 2.06 0 14:40 24.07.2022
2498 Clear 29 1020 49 10000 2.06 0 12:55 24.07.2022
2499 Clear 29 1020 50 10000 1.54 0 12:19 24.07.2022
2500 Clear 28 1020 56 10000 1.54 0 11:26 24.07.2022
2501 Clear 23 1021 76 10000 1.54 80 09:23 24.07.2022
2502 Clear 20 1021 88 10000 0.51 90 07:53 24.07.2022
2503 Clear 17 1020 91 10000 0.51 0 06:34 24.07.2022
2504 Clear 20 1020 82 10000 1.03 40 01:51 24.07.2022
2505 Clear 24 1020 66 10000 0.51 0 22:31 23.07.2022
2506 Clear 26 1019 54 10000 3.09 360 20:41 23.07.2022
2507 Clear 28 1018 46 10000 3.6 340 18:52 23.07.2022
2508 Clear 29 1018 46 10000 1.54 0 17:48 23.07.2022
2509 Clear 29 1018 47 10000 3.09 300 17:24 23.07.2022
2510 Clear 29 1018 50 10000 3.6 340 15:55 23.07.2022
2511 Clear 29 1018 51 10000 4.12 0 15:21 23.07.2022
2512 Clear 29 1018 50 10000 2.57 20 14:47 23.07.2022
2513 Clouds 28 1018 53 10000 3.09 30 13:54 23.07.2022
2514 Clear 25 1019 64 10000 1.54 0 11:47 23.07.2022
2515 Clear 23 1019 71 10000 3.09 340 10:36 23.07.2022
2516 Clear 23 1018 70 10000 1.03 0 09:28 23.07.2022
2517 Clear 22 1018 74 10000 1.54 230 06:40 23.07.2022
2518 Rain 23 1017 60 10000 4.12 230 03:37 23.07.2022
2519 Rain 25 1018 57 10000 2.06 240 00:27 23.07.2022
2520 Clear 28 1016 47 10000 5.66 320 21:28 22.07.2022
2521 Clear 30 1015 42 10000 2.06 20 20:31 22.07.2022
2522 Clouds 32 1014 43 10000 1.84 4 18:42 22.07.2022
2523 Clear 32 1016 39 10000 1.54 0 17:39 22.07.2022
2524 Clear 32 1017 43 10000 1.03 0 15:46 22.07.2022
2525 Clear 28 1019 54 10000 1.03 0 12:47 22.07.2022
2526 Clear 24 1020 72 10000 2.06 60 10:22 22.07.2022
2527 Clear 21 1020 80 10000 1.03 0 09:21 22.07.2022
2528 Clear 18 1020 88 10000 0.51 0 07:57 22.07.2022
2529 Clear 17 1020 88 10000 0.51 0 04:23 22.07.2022
2530 Clear 20 1020 82 10000 1.43 192 23:43 21.07.2022
2531 Clear 23 1021 67 10000 2.06 340 21:51 21.07.2022
2532 Clear 27 1020 48 10000 2.57 280 19:45 21.07.2022
2533 Clear 28 1020 49 10000 2.57 340 18:43 21.07.2022
2534 Clear 28 1021 49 10000 2.57 0 17:22 21.07.2022
2535 Clear 28 1021 50 10000 2.57 40 16:31 21.07.2022
2536 Clear 27 1021 53 10000 3.09 0 14:46 21.07.2022
2537 Clouds 27 1022 54 10000 3.6 260 13:58 21.07.2022
2538 Clouds 25 1022 64 10000 4.12 0 12:18 21.07.2022
2539 Clouds 23 1022 78 10000 2.06 240 10:21 21.07.2022
2540 Clear 21 1022 86 10000 1.03 0 08:53 21.07.2022
2541 Clear 20 1022 88 10000 1.03 0 08:35 21.07.2022
2542 Clear 19 1022 74 10000 0.51 0 07:22 21.07.2022
2543 Clouds 19 1020 75 10000 1.03 0 03:25 21.07.2022
2544 Clear 20 1019 91 10000 1.03 0 23:22 20.07.2022
2545 Rain 20 1019 90 10000 5.14 310 22:20 20.07.2022
2546 Mist 20 1019 83 4200 13.89 250 20:49 20.07.2022
2547 Clouds 27 1016 83 10000 2.06 20 19:48 20.07.2022
2548 Rain 31 1016 60 10000 1.03 0 19:19 20.07.2022
2549 Clear 32 1017 44 10000 4.63 310 18:33 20.07.2022
2550 Clouds 33 1016 46 10000 4.12 320 17:43 20.07.2022
2551 Thunderstorm 34 1017 41 10000 5.66 320 15:59 20.07.2022
2552 Clear 36 1017 32 10000 3.6 360 14:54 20.07.2022
2553 Clear 35 1018 32 10000 2.57 0 13:53 20.07.2022
2554 Clear 32 1018 40 10000 1.03 0 11:32 20.07.2022
2555 Clear 21 1017 64 10000 1.03 0 07:39 20.07.2022
2556 Clear 20 1017 66 10000 0.51 0 02:45 20.07.2022
2557 Clear 22 1018 53 10000 1.54 60 00:46 20.07.2022
2558 Clear 23 1017 54 10000 1.54 70 23:37 19.07.2022
2559 Clear 25 1017 49 10000 2.57 80 22:22 19.07.2022
2560 Clear 29 1017 35 10000 2.06 110 21:18 19.07.2022
2561 Clear 33 1017 26 10000 2.57 90 20:27 19.07.2022
2562 Clear 35 1017 20 10000 4.12 90 18:43 19.07.2022
2563 Clear 35 1017 23 10000 3.09 110 17:57 19.07.2022
2564 Clear 35 1018 25 10000 4.12 90 16:31 19.07.2022
2565 Clear 35 1019 27 10000 4.63 90 14:52 19.07.2022
2566 Clear 32 1020 31 10000 3.09 90 11:39 19.07.2022
2567 Clear 30 1021 37 10000 2.06 80 10:52 19.07.2022
2568 Clear 25 1021 51 10000 1.03 0 09:23 19.07.2022
2569 Clear 24 1021 49 10000 1.03 0 08:38 19.07.2022
2570 Clear 18 1021 73 10000 0.51 0 07:19 19.07.2022
2571 Clear 16 1021 78 10000 1.03 280 05:30 19.07.2022
2572 Clear 17 1021 75 10000 0.51 0 04:55 19.07.2022
2573 Clear 19 1022 69 10000 1.03 310 01:19 19.07.2022
2574 Clear 21 1022 62 10000 0.51 0 23:49 18.07.2022
2575 Clear 22 1022 58 10000 0.51 0 23:18 18.07.2022
2576 Clear 24 1022 51 10000 1.03 0 22:18 18.07.2022
2577 Clear 28 1021 39 10000 1.54 50 20:51 18.07.2022
2578 Clear 31 1021 27 10000 2.06 70 19:33 18.07.2022
2579 Clear 33 1022 26 10000 1.54 90 17:52 18.07.2022
2580 Clear 32 1023 26 10000 1.54 0 15:58 18.07.2022
2581 Clear 32 1023 27 10000 1.54 160 15:19 18.07.2022
2582 Clear 31 1024 28 10000 1.54 0 13:26 18.07.2022
2583 Clear 27 1024 37 10000 1.03 0 11:31 18.07.2022
2584 Clear 24 1025 44 10000 1.03 0 09:53 18.07.2022
2585 Clear 16 1025 72 10000 0.51 0 07:48 18.07.2022
2586 Clouds 15 1025 70 10000 0.89 139 02:51 18.07.2022
2587 Clear 19 1025 55 10000 1.1 81 22:55 17.07.2022
2588 Clear 21 1024 49 10000 1.61 79 22:28 17.07.2022
2589 Clear 23 1024 41 10000 2.57 350 21:35 17.07.2022
2590 Clear 27 1024 29 10000 2.57 350 20:45 17.07.2022
2591 Clear 29 1024 25 10000 2.57 0 19:49 17.07.2022
2592 Clear 29 1024 27 10000 2.57 20 19:20 17.07.2022
2593 Clear 30 1025 27 10000 2.06 330 17:42 17.07.2022
2594 Clear 30 1025 28 10000 2.57 0 17:22 17.07.2022
2595 Clear 30 1025 30 10000 2.06 0 16:28 17.07.2022
2596 Clear 29 1025 31 10000 2.06 0 15:49 17.07.2022
2597 Clear 28 1026 36 10000 1.03 0 13:51 17.07.2022
2598 Clear 26 1026 39 10000 2.06 0 12:42 17.07.2022
2599 Clear 22 1026 53 10000 1.54 50 10:19 17.07.2022
2600 Clear 12 1025 85 10000 1.03 330 06:59 17.07.2022
2601 Clear 13 1025 85 10000 1.03 330 06:59 17.07.2022
2602 Clear 14 1025 76 10000 1.03 0 02:34 17.07.2022
2603 Clear 18 1025 64 10000 1.33 32 23:26 16.07.2022
2604 Clear 19 1024 62 10000 1.73 18 22:20 16.07.2022
2605 Clear 24 1023 38 10000 3.09 360 20:30 16.07.2022
2606 Clear 26 1023 37 10000 5.14 350 18:58 16.07.2022
2607 Clear 26 1023 36 10000 5.66 350 17:38 16.07.2022
2608 Clear 26 1023 36 10000 3.09 350 15:54 16.07.2022
2609 Clear 24 1023 40 10000 1.54 0 12:37 16.07.2022
2610 Clear 21 1023 52 10000 1.54 90 10:28 16.07.2022
2611 Clear 19 1022 61 10000 1.03 0 09:25 16.07.2022
2612 Clear 17 1022 70 10000 1.03 0 08:41 16.07.2022
2613 Clear 13 1022 87 10000 0.61 196 07:23 16.07.2022
2614 Clear 13 1021 77 10000 1.54 290 03:35 16.07.2022
2615 Clear 16 1021 69 10000 2.06 310 00:45 16.07.2022
2616 Clear 17 1021 66 10000 0.77 74 22:57 15.07.2022
2617 Clear 19 1021 58 10000 2.57 340 22:26 15.07.2022
2618 Clear 23 1020 41 10000 4.12 360 20:44 15.07.2022
2619 Clear 24 1020 39 10000 5.66 350 19:34 15.07.2022
2620 Clear 26 1020 50 10000 4.12 360 18:23 15.07.2022
2621 Clear 27 1020 50 10000 5.14 350 17:19 15.07.2022
2622 Clear 26 1020 40 10000 3.6 350 14:24 15.07.2022
2623 Clear 25 1021 42 10000 1.54 0 12:38 15.07.2022
2624 Clear 23 1021 44 10000 2.57 50 10:52 15.07.2022
2625 Clear 17 1021 69 10000 0.51 0 07:55 15.07.2022
2626 Clear 14 1020 75 10000 1.54 310 05:54 15.07.2022
2627 Clear 21 1020 54 10000 4.12 340 00:47 15.07.2022
2628 Clear 21 1019 57 10000 1.03 0 23:25 14.07.2022
2629 Clear 23 1019 51 10000 2.57 360 22:42 14.07.2022
2630 Clear 24 1018 48 10000 6.69 350 21:42 14.07.2022
2631 Clear 24 1017 50 10000 5.14 340 21:24 14.07.2022
2632 Clear 25 1016 45 10000 8.23 350 20:43 14.07.2022
2633 Clear 25 1016 45 10000 8.23 350 20:43 14.07.2022
2634 Clouds 26 1016 44 10000 5.74 4 20:19 14.07.2022
2635 Clear 31 1015 41 10000 7.2 310 18:41 14.07.2022
2636 Clear 33 1016 32 10000 8.75 300 16:21 14.07.2022
2637 Clear 33 1016 31 10000 4.63 290 15:26 14.07.2022
2638 Clear 34 1017 30 10000 4.63 270 13:52 14.07.2022
2639 Clear 32 1018 33 10000 3.6 230 12:48 14.07.2022
2640 Clear 30 1018 41 10000 2.06 180 11:41 14.07.2022
2641 Clear 30 1018 45 10000 1.54 220 11:22 14.07.2022
2642 Clear 25 1019 58 10000 1.03 0 09:49 14.07.2022
2643 Clear 17 1020 78 10000 1.03 50 05:25 14.07.2022
2644 Clouds 19 1020 73 10000 1.88 194 01:22 14.07.2022
2645 Clear 20 1021 70 10000 1.03 290 00:53 14.07.2022
2646 Clear 22 1021 61 10000 1.03 0 22:33 13.07.2022
2647 Clear 24 1021 58 10000 1.03 0 21:55 13.07.2022
2648 Clear 26 1021 47 10000 1.54 320 20:45 13.07.2022
2649 Rain 27 1021 37 10000 4.12 350 19:30 13.07.2022
2650 Clear 28 1021 39 10000 1.03 0 17:51 13.07.2022
2651 Clear 30 1021 31 10000 1.54 90 16:40 13.07.2022
2652 Clear 32 1022 28 10000 1.54 70 15:24 13.07.2022
2653 Clear 29 1023 38 10000 1.03 0 12:56 13.07.2022
2654 Clear 26 1023 52 10000 1.03 0 10:46 13.07.2022
2655 Clear 25 1023 56 10000 1.03 0 10:24 13.07.2022
2656 Clear 22 1024 67 10000 0.51 0 09:25 13.07.2022
2657 Clear 15 1024 82 10000 1.03 0 06:46 13.07.2022
2658 Clear 15 1025 85 10000 0.51 0 03:19 13.07.2022
2659 Clear 18 1025 75 10000 1.03 270 23:52 12.07.2022
2660 Clear 21 1025 64 10000 0.51 0 22:18 12.07.2022
2661 Clear 21 1024 61 10000 1.03 20 21:35 12.07.2022
2662 Clear 25 1024 47 10000 2.06 40 20:42 12.07.2022
2663 Clear 27 1024 40 10000 1.54 0 19:37 12.07.2022
2664 Clear 28 1024 41 10000 2.57 0 17:55 12.07.2022
2665 Clear 27 1025 45 10000 3.09 10 16:20 12.07.2022
2666 Clouds 26 1025 49 10000 2.57 350 14:31 12.07.2022
2667 Clouds 25 1025 52 10000 2.57 0 13:21 12.07.2022
2668 Clouds 23 1025 59 10000 3.09 40 11:46 12.07.2022
2669 Clear 22 1025 65 10000 1.54 0 10:25 12.07.2022
2670 Clear 18 1025 82 10000 1.03 0 08:38 12.07.2022
2671 Clear 15 1024 87 10000 0.51 0 07:47 12.07.2022
2672 Clear 13 1024 89 10000 0 0 05:45 12.07.2022
2673 Clouds 14 1024 88 10000 0 0 04:18 12.07.2022
2674 Clouds 17 1023 82 10000 1.54 320 23:50 11.07.2022
2675 Clear 18 1023 75 10000 0.51 0 22:37 11.07.2022
2676 Clear 21 1023 63 10000 1.54 60 20:56 11.07.2022
2677 Clear 22 1023 58 10000 1.54 90 20:32 11.07.2022
2678 Clouds 24 1023 52 10000 2.06 20 18:48 11.07.2022
2679 Clouds 24 1023 56 10000 3.09 30 18:23 11.07.2022
2680 Clouds 24 1023 54 10000 3.09 30 18:23 11.07.2022
2681 Clear 23 1023 58 10000 3.6 40 16:26 11.07.2022
2682 Clouds 23 1023 58 10000 2.06 0 15:23 11.07.2022
2683 Clouds 22 1023 58 10000 4.12 50 12:42 11.07.2022
2684 Clouds 21 1023 65 10000 1.54 0 11:23 11.07.2022
2685 Clouds 19 1024 73 10000 1.03 0 09:55 11.07.2022
2686 Clouds 18 1024 74 10000 1.03 0 09:27 11.07.2022
2687 Clouds 16 1023 81 10000 1.54 130 08:31 11.07.2022
2688 Clear 15 1024 71 10000 0.51 0 00:59 11.07.2022
2689 Clear 15 1024 70 10000 2.06 320 23:54 10.07.2022
2690 Clear 16 1024 72 10000 2.57 310 22:45 10.07.2022
2691 Clear 19 1024 56 10000 3.6 330 20:56 10.07.2022
2692 Clear 20 1024 53 10000 4.12 330 20:36 10.07.2022
2693 Clear 21 1023 46 10000 4.12 340 19:30 10.07.2022
2694 Clear 21 1023 46 10000 4.12 340 19:30 10.07.2022
2695 Clear 21 1024 47 10000 4.63 350 18:35 10.07.2022
2696 Clear 21 1024 48 10000 5.14 340 17:35 10.07.2022
2697 Clear 21 1024 49 10000 4.12 310 16:24 10.07.2022
2698 Clouds 20 1024 55 10000 5.66 350 14:47 10.07.2022
2699 Clouds 20 1024 58 10000 5.14 340 13:31 10.07.2022
2700 Clouds 18 1024 64 10000 3.6 340 11:57 10.07.2022
2701 Clouds 17 1024 73 10000 5.14 350 09:47 10.07.2022
2702 Clouds 16 1024 82 10000 4.12 350 08:44 10.07.2022
2703 Clouds 16 1023 87 10000 3.6 340 07:24 10.07.2022
2704 Clouds 18 1024 84 10000 3.6 360 23:58 09.07.2022
2705 Rain 21 1023 70 10000 1.54 310 22:27 09.07.2022
2706 Clear 22 1023 62 10000 2.57 320 21:49 09.07.2022
2707 Clear 24 1023 54 10000 3.6 340 20:23 09.07.2022
2708 Clear 25 1024 50 10000 4.12 320 18:32 09.07.2022
2709 Clear 26 1024 48 10000 3.09 330 17:33 09.07.2022
2710 Clear 25 1025 47 10000 2.57 330 16:44 09.07.2022
2711 Clear 26 1025 47 10000 2.06 0 15:40 09.07.2022
2712 Clear 25 1026 49 10000 1.54 0 14:27 09.07.2022
2713 Clear 25 1026 52 10000 1.03 0 13:49 09.07.2022
2714 Clear 24 1027 51 10000 2.06 140 12:45 09.07.2022
2715 Clear 22 1028 58 10000 1.03 0 11:22 09.07.2022
2716 Clear 20 1028 63 10000 1.03 0 10:22 09.07.2022
2717 Clear 14 1028 82 10000 0.51 110 07:45 09.07.2022
2718 Clear 11 1028 90 10000 0.51 60 04:57 09.07.2022
2719 Clear 13 1029 82 10000 1.03 0 01:50 09.07.2022
2720 Clear 16 1029 76 10000 1.33 198 22:54 08.07.2022
2721 Clear 18 1029 62 10000 2.06 330 21:43 08.07.2022
2722 Clear 22 1029 40 10000 2.57 350 20:40 08.07.2022
2723 Clear 22 1029 42 10000 3.09 10 19:52 08.07.2022
2724 Clear 23 1029 45 10000 2.57 0 18:24 08.07.2022
2725 Clear 23 1029 47 10000 2.06 0 16:40 08.07.2022
2726 Clear 21 1030 50 10000 1.54 0 14:53 08.07.2022
2727 Clouds 20 1030 52 10000 3.09 20 13:29 08.07.2022
2728 Clouds 18 1030 57 10000 2.57 350 11:51 08.07.2022
2729 Clouds 17 1030 62 10000 2.57 360 10:29 08.07.2022
2730 Clear 15 1029 75 10000 2.06 340 08:33 08.07.2022
2731 Clouds 13 1029 80 10000 3.09 320 06:50 08.07.2022
2732 Clouds 17 1027 72 10000 4.12 310 01:31 08.07.2022
2733 Clear 18 1026 75 10000 4.12 310 23:22 07.07.2022
2734 Clear 18 1026 74 10000 4.63 310 22:35 07.07.2022
2735 Clear 19 1024 69 10000 7.72 320 20:36 07.07.2022
2736 Clouds 19 1024 76 10000 6.17 310 18:20 07.07.2022
2737 Rain 19 1023 77 10000 8.23 290 16:53 07.07.2022
2738 Rain 20 1023 61 10000 6.69 280 14:56 07.07.2022
2739 Clouds 20 1022 68 10000 7.72 280 13:25 07.07.2022
2740 Clouds 19 1022 74 10000 4.57 287 12:24 07.07.2022
2741 Clouds 19 1022 70 10000 4.57 287 11:46 07.07.2022
2742 Clouds 20 1022 64 10000 6.69 270 11:27 07.07.2022
2743 Clouds 19 1022 62 10000 4.12 260 10:42 07.07.2022
2744 Clouds 19 1022 62 10000 2.57 0 10:24 07.07.2022
2745 Clear 15 1022 75 10000 0.51 0 06:58 07.07.2022
2746 Clear 14 1023 77 10000 1.54 260 02:55 07.07.2022
2747 Clouds 16 1024 68 10000 1.41 271 23:36 06.07.2022
2748 Clear 16 1024 61 10000 4.12 320 23:18 06.07.2022
2749 Clear 16 1024 58 10000 4.12 320 22:56 06.07.2022
2750 Clear 17 1023 55 10000 4.12 320 22:38 06.07.2022
2751 Clear 20 1023 45 10000 4.12 340 20:54 06.07.2022
2752 Clear 22 1022 49 10000 5.14 330 19:35 06.07.2022
2753 Clouds 24 1023 49 10000 4.63 320 17:32 06.07.2022
2754 Clouds 24 1023 52 10000 5.14 320 16:19 06.07.2022
2755 Clouds 23 1023 56 10000 4.63 320 14:46 06.07.2022
2756 Clouds 23 1024 56 10000 2.06 0 12:35 06.07.2022
2757 Clear 22 1024 58 10000 1.54 0 11:49 06.07.2022
2758 Clear 20 1024 64 10000 2.57 340 10:18 06.07.2022
2759 Clear 16 1024 78 10000 1.54 310 07:46 06.07.2022
2760 Clear 15 1023 79 10000 2.06 290 07:23 06.07.2022
2761 Clear 15 1023 80 10000 1.61 281 02:55 06.07.2022
2762 Clear 19 1021 63 10000 1.54 260 22:45 05.07.2022
2763 Clear 19 1021 63 10000 1.54 260 22:45 05.07.2022
2764 Clear 22 1021 40 10000 3.09 300 21:39 05.07.2022
2765 Clear 25 1021 35 10000 4.12 320 20:38 05.07.2022
2766 Clear 26 1020 35 10000 4.12 330 19:41 05.07.2022
2767 Clear 27 1020 37 10000 3.6 330 19:22 05.07.2022
2768 Clear 27 1020 39 10000 4.63 330 17:47 05.07.2022
2769 Clear 27 1021 40 10000 3.09 20 16:44 05.07.2022
2770 Clear 27 1021 39 10000 3.6 340 15:25 05.07.2022
2771 Clear 26 1021 42 10000 1.54 10 13:59 05.07.2022
2772 Clear 26 1021 43 10000 2.06 0 12:42 05.07.2022
2773 Clear 25 1021 50 10000 1.54 0 11:33 05.07.2022
2774 Clear 23 1021 55 10000 1.03 0 10:40 05.07.2022
2775 Clear 21 1021 65 10000 0.51 0 09:22 05.07.2022
2776 Clear 16 1021 83 10000 0.51 0 07:45 05.07.2022
2777 Clear 14 1020 89 10000 0.51 220 04:51 05.07.2022
2778 Clear 14 1020 89 10000 1.03 0 04:23 05.07.2022
2779 Clouds 19 1019 74 10000 0.51 280 23:56 04.07.2022
2780 Clouds 19 1019 71 10000 0.47 348 23:26 04.07.2022
2781 Clear 22 1019 59 10000 2.06 330 22:25 04.07.2022
2782 Clouds 23 1019 54 10000 2.06 320 21:41 04.07.2022
2783 Rain 24 1018 47 10000 3.09 320 20:52 04.07.2022
2784 Clear 25 1018 48 10000 3.6 330 20:33 04.07.2022
2785 Clear 25 1018 45 10000 3.6 330 19:54 04.07.2022
2786 Clear 26 1018 47 10000 3.09 320 19:35 04.07.2022
2787 Clear 27 1018 48 10000 3.6 320 17:58 04.07.2022
2788 Clear 26 1019 53 10000 2.57 0 15:50 04.07.2022
2789 Clear 27 1019 54 10000 3.09 340 15:31 04.07.2022
2790 Clear 25 1020 56 10000 2.06 60 13:29 04.07.2022
2791 Clouds 23 1021 65 10000 1.54 0 12:21 04.07.2022
2792 Clear 21 1020 72 10000 1.54 90 10:34 04.07.2022
2793 Clear 20 1020 73 10000 1.54 350 09:41 04.07.2022
2794 Clear 18 1021 78 10000 3.6 280 07:37 04.07.2022
2795 Clear 19 1019 72 10000 3.09 280 04:48 04.07.2022
2796 Clear 20 1018 77 10000 1.54 270 00:36 04.07.2022
2797 Clear 21 1018 71 10000 0.51 0 22:59 03.07.2022
2798 Clear 26 1017 44 10000 2.57 340 20:58 03.07.2022
2799 Clear 27 1017 45 10000 3.09 350 20:31 03.07.2022
2800 Clear 29 1017 43 10000 4.12 340 19:27 03.07.2022
2801 Clear 30 1017 40 10000 4.12 350 18:43 03.07.2022
2802 Clear 30 1017 39 10000 4.12 340 17:44 03.07.2022
2803 Clear 30 1018 37 10000 2.57 0 15:54 03.07.2022
2804 Clear 30 1019 43 10000 2.06 0 14:59 03.07.2022
2805 Clear 29 1019 44 10000 3.09 0 14:18 03.07.2022
2806 Clear 29 1019 42 10000 2.06 0 13:48 03.07.2022
2807 Clear 28 1020 46 10000 3.09 240 12:33 03.07.2022
2808 Clear 27 1020 49 10000 2.06 200 11:29 03.07.2022
2809 Clear 25 1020 55 10000 2.57 0 10:39 03.07.2022
2810 Clear 24 1020 67 10000 2.06 0 09:42 03.07.2022
2811 Clear 17 1020 90 10000 0.51 0 07:35 03.07.2022
2812 Clear 16 1020 88 10000 1.03 0 07:35 03.07.2022
2813 Clear 15 1019 88 10000 1.54 330 04:22 03.07.2022
2814 Clear 17 1020 82 10000 1.81 175 00:22 03.07.2022
2815 Clear 19 1019 79 10000 2.57 90 22:34 02.07.2022
2816 Clear 23 1019 56 10000 2.57 70 21:28 02.07.2022
2817 Clear 25 1019 44 10000 2.57 90 19:52 02.07.2022
2818 Clear 26 1019 41 10000 3.09 80 19:20 02.07.2022
2819 Clear 27 1020 43 10000 3.09 120 17:51 02.07.2022
2820 Clear 27 1020 43 10000 3.09 120 17:33 02.07.2022
2821 Clear 25 1022 48 10000 2.57 110 14:52 02.07.2022
2822 Clear 24 1023 52 10000 5.14 80 12:22 02.07.2022
2823 Rain 22 1023 61 10000 3.6 70 11:27 02.07.2022
2824 Clear 21 1023 67 10000 2.57 0 10:46 02.07.2022
2825 Clear 19 1024 80 10000 1.54 80 09:37 02.07.2022
2826 Clear 16 1024 84 10000 1.54 70 08:36 02.07.2022
2827 Clear 15 1024 87 10000 1.54 70 08:18 02.07.2022
2828 Clear 13 1024 91 10000 0 0 02:52 02.07.2022
2829 Clear 14 1023 88 10000 1.54 70 00:27 02.07.2022
2830 Clear 15 1023 86 10000 0.51 0 22:59 01.07.2022
2831 Clouds 16 1023 85 10000 1.35 151 21:56 01.07.2022
2832 Clear 17 1022 77 10000 1.03 0 21:37 01.07.2022
2833 Clear 19 1022 72 10000 1.03 0 20:56 01.07.2022
2834 Clouds 20 1021 63 10000 1.03 0 19:47 01.07.2022
2835 Clouds 20 1021 63 10000 1.54 0 18:42 01.07.2022
2836 Clouds 18 1021 74 10000 2.57 110 16:35 01.07.2022
2837 Clouds 16 1021 84 10000 1.03 0 13:55 01.07.2022
2838 Clouds 15 1021 89 10000 0.51 0 13:22 01.07.2022
2839 Drizzle 14 1020 89 10000 1.54 300 10:46 01.07.2022
2840 Rain 14 1020 90 10000 2.57 300 10:18 01.07.2022
2841 Rain 14 1017 90 10000 3.6 280 05:58 01.07.2022
2842 Rain 15 1017 89 10000 3.6 300 01:30 01.07.2022
2843 Rain 18 1017 84 10000 5.94 280 23:33 30.06.2022
2844 Clouds 21 1013 83 10000 1.54 220 22:47 30.06.2022
2845 Clouds 21 1012 91 10000 2.06 150 22:27 30.06.2022
2846 Clouds 22 1012 84 10000 3.6 320 21:51 30.06.2022
2847 Clear 23 1012 83 10000 3.09 270 20:41 30.06.2022
2848 Clear 24 1010 83 10000 1.54 0 19:55 30.06.2022
2849 Clear 24 1010 81 10000 1.54 0 19:35 30.06.2022
2850 Rain 26 1008 69 10000 2.54 120 18:43 30.06.2022
2851 Rain 29 1011 58 10000 0.51 0 17:49 30.06.2022
2852 Rain 31 1010 49 10000 1.03 0 16:56 30.06.2022
2853 Clear 31 1011 44 10000 2.57 50 15:52 30.06.2022
2854 Clouds 30 1011 46 10000 2.57 90 13:51 30.06.2022
2855 Clouds 29 1012 49 10000 1.54 0 13:19 30.06.2022
2856 Clear 29 1012 52 10000 2.06 80 12:33 30.06.2022
2857 Clear 26 1012 70 10000 1.56 127 10:21 30.06.2022
2858 Clear 24 1013 76 10000 1.03 0 09:41 30.06.2022
2859 Clear 21 1013 86 10000 1.03 100 08:26 30.06.2022
2860 Clear 19 1013 89 10000 1.03 0 07:41 30.06.2022
2861 Clear 17 1013 92 10000 0.51 0 03:53 30.06.2022
2862 Clear 20 1013 85 10000 1.54 280 23:39 29.06.2022
2863 Clear 21 1013 88 10000 1.31 209 22:41 29.06.2022
2864 Clouds 22 1013 80 10000 1.54 30 22:19 29.06.2022
2865 Clouds 26 1013 58 10000 1.54 340 20:35 29.06.2022
2866 Clouds 27 1013 53 10000 1.03 0 19:57 29.06.2022
2867 Clouds 27 1013 55 10000 1.54 120 18:46 29.06.2022
2868 Clouds 27 1014 56 10000 2.06 250 17:38 29.06.2022
2869 Clouds 26 1014 55 10000 1.03 0 16:24 29.06.2022
2870 Clouds 26 1013 64 10000 2.48 317 13:52 29.06.2022
2871 Clouds 25 1015 65 10000 2.06 120 12:38 29.06.2022
2872 Rain 22 1015 80 10000 2.06 80 10:18 29.06.2022
2873 Rain 20 1015 87 10000 1.03 0 09:27 29.06.2022
2874 Clear 16 1015 90 10000 0.51 190 06:57 29.06.2022
2875 Clear 16 1015 90 10000 1.54 270 04:46 29.06.2022
2876 Clear 18 1016 86 10000 2.06 230 00:54 29.06.2022
2877 Clear 19 1016 85 10000 0.51 0 00:35 29.06.2022
2878 Clear 21 1017 79 10000 1.03 0 22:52 28.06.2022
2879 Clear 21 1016 77 10000 3.09 40 22:21 28.06.2022
2880 Clouds 22 1016 75 10000 3.09 50 21:49 28.06.2022
2881 Clouds 22 1016 72 10000 2.06 80 21:30 28.06.2022
2882 Clear 24 1016 63 10000 2.57 90 20:18 28.06.2022
2883 Clouds 24 1017 64 10000 3.6 80 19:32 28.06.2022
2884 Clouds 24 1018 63 10000 3.6 90 18:40 28.06.2022
2885 Clear 25 1018 60 10000 3.6 70 17:37 28.06.2022
2886 Rain 25 1019 59 10000 4.12 60 15:56 28.06.2022
2887 Clouds 24 1020 63 10000 3.6 50 14:59 28.06.2022
2888 Clouds 23 1020 67 10000 3.09 30 14:19 28.06.2022
2889 Clouds 23 1020 67 10000 3.6 40 13:47 28.06.2022
2890 Clouds 22 1021 73 10000 2.06 60 12:47 28.06.2022
2891 Clouds 20 1022 82 10000 2.57 10 10:44 28.06.2022
2892 Clouds 18 1022 88 10000 1.03 0 09:25 28.06.2022
2893 Clouds 18 1023 89 10000 1.54 340 08:43 28.06.2022
2894 Clouds 16 1023 72 10000 2.57 320 07:20 28.06.2022
2895 Clouds 15 1022 68 10000 0.17 341 04:56 28.06.2022
2896 Clouds 18 1022 88 10000 1.03 0 23:56 27.06.2022
2897 Clouds 18 1022 87 10000 1.03 0 23:36 27.06.2022
2898 Rain 18 1022 87 10000 1.54 250 22:50 27.06.2022
2899 Clouds 19 1021 89 10000 1.03 0 21:30 27.06.2022
2900 Rain 19 1020 89 10000 0.51 0 20:39 27.06.2022
2901 Thunderstorm 20 1019 85 10000 2.57 340 18:58 27.06.2022
2902 Rain 21 1019 78 10000 1.54 0 17:46 27.06.2022
2903 Clouds 21 1019 77 10000 3.09 340 16:18 27.06.2022
2904 Clouds 21 1018 81 10000 3.09 340 14:44 27.06.2022
2905 Clouds 22 1018 80 10000 4.12 330 13:25 27.06.2022
2906 Clouds 21 1017 82 10000 4.12 360 12:52 27.06.2022
2907 Clouds 20 1016 86 10000 1.03 0 10:22 27.06.2022
2908 Clouds 19 1016 89 10000 3.09 290 08:48 27.06.2022
2909 Clouds 19 1015 87 10000 2.06 0 08:19 27.06.2022
2910 Clouds 17 1014 90 10000 1.54 0 06:38 27.06.2022
2911 Rain 19 1013 86 10000 9.77 310 02:28 27.06.2022
2912 Clear 21 1011 80 10000 2.57 70 23:55 26.06.2022
2913 Clear 24 1012 60 10000 2.06 360 21:58 26.06.2022
2914 Clear 26 1012 54 10000 3.09 360 20:44 26.06.2022
2915 Clear 29 1013 50 10000 3.6 10 19:32 26.06.2022
2916 Clear 29 1013 50 10000 4.12 10 18:30 26.06.2022
2917 Clear 28 1014 52 10000 2.57 350 16:33 26.06.2022
2918 Clear 28 1015 54 10000 3.6 350 14:41 26.06.2022
2919 Clear 27 1015 56 10000 2.06 350 13:38 26.06.2022
2920 Clear 27 1016 56 10000 2.57 0 13:18 26.06.2022
2921 Clear 25 1016 64 10000 2.06 0 11:26 26.06.2022
2922 Clear 23 1016 67 10000 1.54 110 10:26 26.06.2022
2923 Clear 21 1016 74 10000 1.54 80 09:22 26.06.2022
2924 Clear 19 1015 85 10000 1.03 0 07:44 26.06.2022
2925 Clear 18 1014 84 10000 1.03 310 01:55 26.06.2022
2926 Clear 19 1013 79 10000 0.51 0 00:21 26.06.2022
2927 Clear 19 1013 79 10000 1.54 90 23:49 25.06.2022
2928 Clear 20 1013 80 10000 1.03 0 23:20 25.06.2022
2929 Clouds 21 1013 77 10000 1.89 131 22:27 25.06.2022
2930 Clear 22 1012 64 10000 1.54 130 21:40 25.06.2022
2931 Clear 23 1012 64 10000 2.06 100 21:18 25.06.2022
2932 Clear 26 1012 50 10000 2.06 90 20:27 25.06.2022
2933 Clear 27 1012 46 10000 2.57 80 19:21 25.06.2022
2934 Clear 27 1013 46 10000 2.57 80 17:57 25.06.2022
2935 Clear 27 1013 46 10000 2.57 100 17:22 25.06.2022
2936 Clouds 27 1014 51 10000 1.54 0 15:36 25.06.2022
2937 Clouds 25 1014 57 10000 2.06 190 13:41 25.06.2022
2938 Clouds 24 1015 63 10000 2.06 0 12:38 25.06.2022
2939 Clouds 22 1015 71 10000 1.54 0 10:45 25.06.2022
2940 Clear 20 1016 82 10000 1.54 0 09:20 25.06.2022
2941 Clear 18 1016 85 10000 1.54 170 08:41 25.06.2022
2942 Clear 18 1016 84 10000 1.03 0 08:19 25.06.2022
2943 Clear 15 1015 90 10000 1.54 240 04:18 25.06.2022
2944 Clouds 16 1014 89 10000 2.13 206 00:43 25.06.2022
2945 Clear 17 1013 88 10000 1.54 210 22:56 24.06.2022
2946 Rain 17 1013 90 10000 2.06 250 21:44 24.06.2022
2947 Rain 17 1012 89 10000 5.14 230 20:57 24.06.2022
2948 Rain 18 1011 90 10000 4.63 230 20:19 24.06.2022
2949 Rain 18 1011 89 10000 2.57 210 19:22 24.06.2022
2950 Rain 18 1011 90 10000 1.54 0 18:49 24.06.2022
2951 Rain 18 1011 94 10000 1.54 0 18:30 24.06.2022
2952 Rain 18 1011 94 10000 2.06 230 17:41 24.06.2022
2953 Rain 22 1009 74 10000 4.12 350 15:56 24.06.2022
2954 Clouds 25 1009 62 10000 3.6 330 14:29 24.06.2022
2955 Clouds 25 1009 61 10000 2.06 0 13:55 24.06.2022
2956 Clear 25 1010 64 10000 1.54 0 11:54 24.06.2022
2957 Clouds 24 1010 67 10000 2.57 230 11:34 24.06.2022
2958 Clouds 23 1011 74 10000 3.6 240 10:22 24.06.2022
2959 Clear 23 1011 75 10000 3.6 230 09:40 24.06.2022
2960 Clear 21 1011 84 10000 2.57 190 08:52 24.06.2022
2961 Clear 18 1011 88 10000 1.03 0 07:20 24.06.2022
2962 Clear 17 1011 90 10000 0.51 0 06:40 24.06.2022
2963 Clear 17 1011 90 10000 2.06 250 06:18 24.06.2022
2964 Rain 18 1012 92 10000 2.57 90 02:44 24.06.2022
2965 Clear 23 1010 68 10000 1.54 90 22:57 23.06.2022
2966 Clear 24 1010 66 10000 1.54 90 22:38 23.06.2022
2967 Clear 28 1009 47 10000 3.09 70 20:57 23.06.2022
2968 Clear 28 1009 49 10000 4.12 70 20:32 23.06.2022
2969 Clear 30 1009 44 10000 3.6 80 19:25 23.06.2022
2970 Clear 30 1010 45 10000 2.06 100 17:51 23.06.2022
2971 Clear 30 1011 46 10000 3.09 120 16:58 23.06.2022
2972 Clouds 30 1011 50 10000 1.54 0 15:50 23.06.2022
2973 Clouds 30 1012 51 10000 2.06 100 15:24 23.06.2022
2974 Clouds 28 1013 57 10000 2.06 0 13:40 23.06.2022
2975 Clear 26 1014 69 10000 2.06 70 11:27 23.06.2022
2976 Clear 24 1014 77 10000 2.06 80 10:35 23.06.2022
2977 Clear 21 1014 84 10000 2.06 140 08:53 23.06.2022
2978 Fog 18 1013 91 8000 0.51 0 03:39 23.06.2022
2979 Clouds 19 1013 86 10000 1.03 0 00:26 23.06.2022
2980 Clouds 19 1013 88 10000 1.03 230 23:41 22.06.2022
2981 Clouds 20 1012 85 10000 0.51 0 22:41 22.06.2022
2982 Clear 21 1013 87 10000 1.54 0 21:22 22.06.2022
2983 Clouds 21 1012 88 10000 2.06 360 20:43 22.06.2022
2984 Rain 21 1011 86 10000 1.03 0 19:56 22.06.2022
2985 Clear 23 1012 73 10000 2.06 140 18:47 22.06.2022
2986 Clouds 22 1012 72 10000 1.03 0 17:28 22.06.2022
2987 Rain 22 1012 82 10000 1.03 0 16:33 22.06.2022
2988 Rain 22 1013 82 10000 2.06 230 15:27 22.06.2022
2989 Rain 21 1013 84 10000 2.57 220 14:21 22.06.2022
2990 Clouds 22 1013 85 10000 1.03 0 13:42 22.06.2022
2991 Clouds 22 1013 83 10000 1.03 0 13:23 22.06.2022
2992 Rain 22 1012 77 10000 0.51 0 11:50 22.06.2022
2993 Rain 22 1012 77 10000 0.51 0 11:50 22.06.2022
2994 Rain 22 1012 77 10000 0.51 0 11:50 22.06.2022
2995 Clear 22 1012 87 10000 1.54 60 10:57 22.06.2022
2996 Clear 21 1012 82 10000 0.51 0 10:19 22.06.2022
2997 Rain 22 1012 82 10000 1.03 0 08:37 22.06.2022
2998 Clear 19 1011 87 10000 1.03 0 05:59 22.06.2022
2999 Clouds 21 1011 73 10000 1.03 0 01:49 22.06.2022
3000 Rain 22 1012 73 10000 0.51 0 00:36 22.06.2022
3001 Rain 23 1011 73 10000 1.54 80 22:37 21.06.2022
3002 Clear 26 1011 53 10000 3.09 40 20:39 21.06.2022
3003 Clear 28 1011 50 10000 2.57 70 18:51 21.06.2022
3004 Clear 28 1011 52 10000 3.6 40 17:42 21.06.2022
3005 Clear 27 1012 57 10000 3.6 70 15:21 21.06.2022
3006 Clouds 22 1013 57 10000 2.21 105 11:55 21.06.2022
3007 Clear 20 1015 57 10000 2.06 90 10:20 21.06.2022
3008 Clear 18 1015 63 10000 1.03 0 08:51 21.06.2022
3009 Clear 15 1015 73 10000 2.06 80 07:35 21.06.2022
3010 Clear 12 1015 83 10000 1.03 0 04:40 21.06.2022
3011 Clouds 17 1016 77 10000 3.09 10 23:27 20.06.2022
3012 Clouds 19 1016 69 10000 4.63 330 21:59 20.06.2022
3013 Clouds 20 1015 74 10000 4.12 320 21:32 20.06.2022
3014 Clouds 21 1015 73 10000 5.14 350 20:25 20.06.2022
3015 Clouds 23 1014 70 10000 2.06 320 18:56 20.06.2022
3016 Clouds 23 1014 70 10000 2.57 10 18:24 20.06.2022
3017 Clouds 23 1014 72 10000 3.6 330 17:44 20.06.2022
3018 Clouds 23 1014 72 10000 6.69 330 16:24 20.06.2022
3019 Clear 26 1013 61 10000 10.29 290 14:36 20.06.2022
3020 Clear 26 1012 64 10000 2.57 0 11:47 20.06.2022
3021 Clouds 23 1012 77 10000 0.51 0 09:55 20.06.2022
3022 Clouds 21 1012 88 10000 0.51 0 08:46 20.06.2022
3023 Clouds 20 1011 69 10000 1.03 0 07:36 20.06.2022
3024 Rain 21 1009 80 10000 0.51 0 04:56 20.06.2022
3025 Clear 22 1009 74 10000 1.03 0 01:32 20.06.2022
3026 Clear 25 1009 53 10000 3.09 300 23:48 19.06.2022
3027 Clear 26 1009 55 10000 1.03 0 22:20 19.06.2022
3028 Clear 29 1009 47 10000 1.54 330 21:42 19.06.2022
3029 Clear 32 1009 40 10000 2.06 350 20:52 19.06.2022
3030 Clear 34 1008 32 10000 3.09 250 19:49 19.06.2022
3031 Clear 34 1008 30 10000 3.09 250 19:49 19.06.2022
3032 Clear 35 1008 30 10000 2.57 250 19:25 19.06.2022
3033 Clear 36 1008 28 10000 4.63 250 18:32 19.06.2022
3034 Clear 35 1009 27 10000 4.12 250 17:48 19.06.2022
3035 Clear 36 1009 30 10000 3.6 230 17:20 19.06.2022
3036 Clear 36 1009 28 10000 6.17 250 16:34 19.06.2022
3037 Clear 36 1010 28 10000 5.14 250 15:35 19.06.2022
3038 Clear 36 1010 28 10000 6.69 230 14:51 19.06.2022
3039 Clear 36 1010 28 10000 5.66 240 13:54 19.06.2022
3040 Clear 34 1010 31 10000 8.75 270 12:39 19.06.2022
3041 Clear 31 1009 49 10000 3.48 246 10:54 19.06.2022
3042 Clear 28 1011 56 10000 1.54 110 09:40 19.06.2022
3043 Clear 26 1011 58 10000 1.54 110 08:47 19.06.2022
3044 Clear 23 1011 69 10000 0.51 0 07:48 19.06.2022
3045 Clear 19 1011 78 10000 1.03 0 04:45 19.06.2022
3046 Clear 21 1013 78 10000 1.54 0 01:29 19.06.2022
3047 Clear 22 1014 74 10000 1.03 70 00:24 19.06.2022
3048 Clear 23 1015 70 10000 1.54 60 23:35 18.06.2022
3049 Clear 24 1015 65 10000 2.06 70 22:36 18.06.2022
3050 Clear 29 1015 47 10000 1.54 130 20:56 18.06.2022
3051 Clear 31 1016 43 10000 1.54 120 20:28 18.06.2022
3052 Clear 32 1016 35 10000 2.57 140 19:37 18.06.2022
3053 Clear 33 1016 31 10000 2.57 140 18:45 18.06.2022
3054 Clear 35 1017 30 10000 2.57 110 17:31 18.06.2022
3055 Clear 34 1018 32 10000 2.06 0 16:47 18.06.2022
3056 Clear 34 1019 32 10000 2.06 100 15:31 18.06.2022
3057 Clear 33 1019 31 10000 1.54 0 14:42 18.06.2022
3058 Clear 32 1020 33 10000 1.03 0 13:22 18.06.2022
3059 Clear 32 1020 33 10000 1.03 0 13:22 18.06.2022
3060 Clear 29 1021 43 10000 1.54 70 11:39 18.06.2022
3061 Clear 27 1021 50 10000 1.03 0 10:46 18.06.2022
3062 Clear 24 1022 61 10000 1.03 0 09:23 18.06.2022
3063 Clear 20 1022 70 10000 1.03 0 08:24 18.06.2022
3064 Clear 16 1022 78 10000 1.03 0 06:46 18.06.2022
3065 Clear 16 1023 79 10000 0 0 03:45 18.06.2022
3066 Clear 18 1023 74 10000 1.03 350 01:26 18.06.2022
3067 Clear 18 1023 74 10000 1.03 350 01:26 18.06.2022
3068 Clear 18 1023 74 10000 1.03 350 01:26 18.06.2022
3069 Clear 18 1023 72 10000 1.03 320 00:48 18.06.2022
3070 Clear 19 1023 68 10000 1.54 320 23:52 17.06.2022
3071 Clear 20 1023 65 10000 0.51 0 23:24 17.06.2022
3072 Clear 24 1023 50 10000 1.54 70 21:18 17.06.2022
3073 Clear 28 1023 36 10000 1.54 0 20:00 17.06.2022
3074 Clear 29 1024 32 10000 1.54 0 18:49 17.06.2022
3075 Clear 29 1024 30 10000 2.06 60 17:44 17.06.2022
3076 Clear 29 1024 31 10000 2.06 0 16:43 17.06.2022
3077 Clear 29 1024 31 10000 2.06 0 16:43 17.06.2022
3078 Clear 28 1024 35 10000 1.54 0 15:49 17.06.2022
3079 Clear 28 1024 37 10000 1.54 150 15:22 17.06.2022
3080 Clear 27 1025 40 10000 1.54 0 14:20 17.06.2022
3081 Clear 27 1025 40 10000 1.03 0 13:46 17.06.2022
3082 Clear 26 1025 41 10000 1.03 0 13:26 17.06.2022
3083 Clear 25 1025 48 10000 1.54 0 11:58 17.06.2022
3084 Clear 24 1025 51 10000 1.54 70 11:39 17.06.2022
3085 Clear 23 1025 53 10000 1.54 70 11:21 17.06.2022
3086 Clear 18 1025 71 10000 1.03 0 08:33 17.06.2022
3087 Clear 16 1025 77 10000 0.51 0 07:51 17.06.2022
3088 Clear 13 1024 81 10000 1.54 320 06:32 17.06.2022
3089 Clouds 15 1024 76 10000 0.99 24 03:24 17.06.2022
3090 Clear 17 1023 63 10000 3.6 310 00:46 17.06.2022
3091 Clear 20 1022 49 10000 2.06 290 23:30 16.06.2022
3092 Clouds 20 1022 58 10000 1.66 330 22:38 16.06.2022
3093 Clouds 20 1022 58 10000 1.66 330 22:38 16.06.2022
3094 Clear 25 1021 29 10000 3.09 340 21:19 16.06.2022
3095 Clear 26 1021 29 10000 5.14 330 20:50 16.06.2022
3096 Clear 27 1020 34 10000 5.66 320 19:59 16.06.2022
3097 Clear 28 1020 35 10000 4.63 330 18:48 16.06.2022
3098 Clear 29 1020 36 10000 5.66 320 17:49 16.06.2022
3099 Clear 29 1020 37 10000 5.66 320 17:49 16.06.2022
3100 Clear 29 1020 36 10000 6.69 320 17:27 16.06.2022
3101 Clear 29 1020 37 10000 7.2 320 16:19 16.06.2022
3102 Clear 29 1020 43 10000 7.72 330 15:21 16.06.2022
3103 Rain 29 1020 46 10000 6.69 340 14:27 16.06.2022
3104 Rain 27 1019 48 10000 5.66 320 12:53 16.06.2022
3105 Rain 27 1019 50 10000 5.14 290 12:34 16.06.2022
3106 Clear 26 1019 50 10000 6.69 300 11:48 16.06.2022
3107 Clear 25 1018 56 10000 1.54 60 10:41 16.06.2022
3108 Rain 23 1018 60 10000 1.03 0 09:43 16.06.2022
3109 Clear 21 1017 68 10000 1.54 90 08:59 16.06.2022
3110 Clear 18 1017 74 10000 1.03 0 07:42 16.06.2022
3111 Clear 16 1017 85 10000 1.03 0 06:36 16.06.2022
3112 Clear 15 1017 82 10000 1.03 0 04:27 16.06.2022
3113 Clear 17 1017 75 10000 1.54 270 01:53 16.06.2022
3114 Clear 18 1017 73 10000 1.03 0 01:29 16.06.2022
3115 Clear 18 1017 70 10000 1.03 0 00:31 16.06.2022
3116 Clear 21 1017 61 10000 0.51 0 22:59 15.06.2022
3117 Clear 22 1016 65 10000 0.77 146 21:55 15.06.2022
3118 Clear 25 1016 47 10000 2.06 340 21:20 15.06.2022
3119 Clear 27 1016 42 10000 3.6 360 20:37 15.06.2022
3120 Clear 28 1016 39 10000 3.6 360 20:18 15.06.2022
3121 Clear 30 1016 34 10000 1.54 40 18:48 15.06.2022
3122 Clear 30 1016 33 10000 1.03 0 17:54 15.06.2022
3123 Clear 31 1017 35 10000 1.03 0 16:37 15.06.2022
3124 Clear 30 1017 35 10000 1.03 0 15:23 15.06.2022
3125 Clear 28 1017 41 10000 2.06 100 13:37 15.06.2022
3126 Clear 28 1018 44 10000 1.03 0 12:53 15.06.2022
3127 Rain 26 1018 49 10000 1.54 0 11:42 15.06.2022
3128 Rain 24 1017 55 10000 1.03 0 10:23 15.06.2022
3129 Clear 22 1017 60 10000 1.03 0 09:37 15.06.2022
3130 Clear 19 1017 71 10000 1.03 80 08:27 15.06.2022
3131 Clear 13 1017 85 10000 1.03 0 06:33 15.06.2022
3132 Clear 14 1018 82 10000 1.54 290 03:30 15.06.2022
3133 Clear 15 1018 80 10000 1.03 0 01:38 15.06.2022
3134 Clear 16 1018 78 10000 1.03 0 00:50 15.06.2022
3135 Clear 17 1018 71 10000 1.03 90 23:39 14.06.2022
3136 Clear 19 1018 63 10000 2.06 90 22:52 14.06.2022
3137 Clear 19 1018 68 10000 2.57 90 22:18 14.06.2022
3138 Clear 21 1018 61 10000 2.06 90 21:28 14.06.2022
3139 Clear 23 1018 49 10000 3.09 80 20:48 14.06.2022
3140 Clear 24 1018 46 10000 2.57 80 20:28 14.06.2022
3141 Clear 26 1018 38 10000 1.54 80 18:45 14.06.2022
3142 Clear 26 1019 38 10000 2.57 70 17:39 14.06.2022
3143 Clear 26 1019 38 10000 2.06 0 16:43 14.06.2022
3144 Clear 26 1020 39 10000 1.54 0 15:50 14.06.2022
3145 Clear 26 1020 39 10000 1.54 0 15:50 14.06.2022
3146 Clear 25 1021 40 10000 2.06 80 14:57 14.06.2022
3147 Clear 25 1021 40 10000 2.06 80 14:57 14.06.2022
3148 Clear 25 1021 40 10000 3.09 0 14:23 14.06.2022
3149 Clear 24 1021 42 10000 2.06 0 13:40 14.06.2022
3150 Clear 23 1022 47 10000 2.06 0 12:30 14.06.2022
3151 Clear 22 1022 52 10000 1.54 0 11:28 14.06.2022
3152 Clear 21 1022 58 10000 1.54 100 10:44 14.06.2022
3153 Clear 19 1023 67 10000 1.03 0 09:48 14.06.2022
3154 Clear 16 1022 77 10000 1.03 0 08:46 14.06.2022
3155 Clear 13 1022 87 10000 1.03 0 07:31 14.06.2022
3156 Clear 10 1022 87 10000 1.03 0 05:19 14.06.2022
3157 Clear 12 1023 81 10000 0.51 0 02:49 14.06.2022
3158 Clouds 14 1023 81 10000 0.72 312 00:28 14.06.2022
3159 Clouds 15 1023 80 10000 1 341 23:27 13.06.2022
3160 Clear 17 1022 66 10000 3.09 340 22:26 13.06.2022
3161 Clear 18 1021 62 10000 2.57 320 21:49 13.06.2022
3162 Clear 21 1021 43 10000 3.09 340 20:31 13.06.2022
3163 Clear 23 1021 39 10000 3.09 330 19:34 13.06.2022
3164 Clear 23 1021 44 10000 3.6 330 18:25 13.06.2022
3165 Clear 23 1021 43 10000 5.14 340 17:46 13.06.2022
3166 Clear 23 1021 44 10000 5.14 340 16:52 13.06.2022
3167 Clear 23 1022 46 10000 4.63 330 15:38 13.06.2022
3168 Clear 22 1021 49 10000 5.14 310 14:43 13.06.2022
3169 Clear 22 1022 48 10000 5.66 290 13:54 13.06.2022
3170 Clouds 22 1022 54 10000 4.12 280 12:48 13.06.2022
3171 Clouds 22 1022 53 10000 4.12 280 12:48 13.06.2022
3172 Clouds 21 1022 61 10000 3.6 330 11:34 13.06.2022
3173 Clear 19 1021 68 10000 3.6 320 10:27 13.06.2022
3174 Clear 18 1021 71 10000 4.63 320 09:39 13.06.2022
3175 Clear 16 1020 83 10000 2.06 300 07:53 13.06.2022
3176 Clear 15 1019 69 10000 3.6 270 06:28 13.06.2022
3177 Clear 17 1019 91 10000 1.03 0 03:18 13.06.2022
3178 Rain 19 1018 88 10000 2.06 210 01:38 13.06.2022
3179 Clouds 20 1018 87 10000 1.54 220 00:22 13.06.2022
3180 Rain 23 1019 60 10000 2.57 320 23:29 12.06.2022
3181 Rain 24 1019 53 10000 3.6 320 22:23 12.06.2022
3182 Clear 26 1018 47 10000 3.09 320 21:39 12.06.2022
3183 Clear 27 1018 41 10000 2.57 330 20:39 12.06.2022
3184 Clear 27 1018 41 10000 3.09 330 19:38 12.06.2022
3185 Clear 28 1019 41 10000 2.06 320 18:43 12.06.2022
3186 Clear 29 1020 44 10000 3.6 20 16:42 12.06.2022
3187 Clear 29 1020 44 10000 2.06 0 15:30 12.06.2022
3188 Clear 28 1021 43 10000 1.54 0 14:32 12.06.2022
3189 Clear 29 1021 45 10000 2.06 0 13:57 12.06.2022
3190 Clear 28 1021 46 10000 2.06 0 13:38 12.06.2022
3191 Clear 26 1022 56 10000 1.54 90 11:48 12.06.2022
3192 Clear 25 1023 62 10000 1.03 0 10:45 12.06.2022
3193 Rain 22 1023 69 10000 0.51 0 09:36 12.06.2022
3194 Rain 21 1023 74 10000 1.03 0 08:49 12.06.2022
3195 Clear 17 1023 82 10000 0.51 0 07:47 12.06.2022
3196 Clear 14 1023 92 10000 1.03 50 05:51 12.06.2022
3197 Clear 14 1023 90 10000 0.51 0 03:38 12.06.2022
3198 Clear 15 1023 88 10000 1.54 340 03:38 12.06.2022
3199 Clear 16 1023 86 10000 1.03 340 01:44 12.06.2022
3200 Clear 17 1023 84 10000 2.57 320 00:59 12.06.2022
3201 Clear 17 1023 82 10000 0.51 0 00:30 12.06.2022
3202 Clear 18 1023 80 10000 1.03 0 23:56 11.06.2022
3203 Clear 19 1023 74 10000 0.51 0 22:53 11.06.2022
3204 Clear 20 1023 77 10000 1.32 146 22:29 11.06.2022
3205 Clear 25 1023 50 10000 2.57 360 20:55 11.06.2022
3206 Clear 25 1022 47 10000 3.09 360 20:26 11.06.2022
3207 Clear 26 1022 44 10000 3.09 10 19:33 11.06.2022
3208 Clear 27 1022 44 10000 2.57 20 18:37 11.06.2022
3209 Clear 27 1022 42 10000 0.51 0 17:58 11.06.2022
3210 Clear 28 1023 41 10000 1.54 0 17:38 11.06.2022
3211 Clear 27 1023 41 10000 1.54 0 17:19 11.06.2022
3212 Clear 27 1023 41 10000 1.54 0 16:38 11.06.2022
3213 Clear 27 1023 41 10000 2.06 100 15:46 11.06.2022
3214 Clear 26 1024 47 10000 1.54 0 13:54 11.06.2022
3215 Clear 26 1022 50 10000 0.65 239 13:36 11.06.2022
3216 Rain 24 1024 54 10000 1.54 0 11:36 11.06.2022
3217 Rain 22 1024 61 10000 1.54 0 10:29 11.06.2022
3218 Rain 21 1024 66 10000 1.03 0 09:40 11.06.2022
3219 Clear 17 1024 79 10000 1.03 0 08:21 11.06.2022
3220 Clear 12 1023 91 10000 1.54 70 06:32 11.06.2022
3221 Clear 11 1023 92 10000 1.03 0 05:26 11.06.2022
3222 Clear 13 1023 89 10000 0 0 02:42 11.06.2022
3223 Clear 14 1023 85 10000 0.51 0 01:41 11.06.2022
3224 Clear 15 1023 85 10000 0.51 0 00:54 11.06.2022
3225 Clear 17 1023 76 10000 0.51 70 22:55 10.06.2022
3226 Clear 18 1023 77 10000 1.19 157 22:20 10.06.2022
3227 Clear 20 1022 67 10000 1.03 0 21:22 10.06.2022
3228 Clear 21 1023 56 10000 1.03 0 20:36 10.06.2022
3229 Clear 23 1023 47 10000 1.54 140 20:18 10.06.2022
3230 Clear 24 1023 45 10000 2.57 140 19:19 10.06.2022
3231 Clear 24 1023 43 10000 2.06 160 18:29 10.06.2022
3232 Clear 24 1023 43 10000 2.57 160 17:42 10.06.2022
3233 Clear 24 1023 41 10000 2.06 140 16:59 10.06.2022
3234 Clear 24 1023 45 10000 2.06 0 16:23 10.06.2022
3235 Clear 25 1023 40 10000 2.06 0 15:37 10.06.2022
3236 Clouds 23 1024 49 10000 2.06 0 13:55 10.06.2022
3237 Clouds 22 1024 55 10000 1.54 0 12:50 10.06.2022
3238 Clear 21 1025 60 10000 1.03 0 11:43 10.06.2022
3239 Rain 19 1025 67 10000 1.03 0 10:45 10.06.2022
3240 Clear 18 1024 73 10000 1.03 0 09:48 10.06.2022
3241 Clear 15 1024 83 10000 1.03 0 08:42 10.06.2022
3242 Clear 12 1024 86 10000 0 0 07:26 10.06.2022
3243 Clear 10 1024 89 10000 1.54 80 06:44 10.06.2022
3244 Clear 10 1023 89 10000 1.03 40 06:25 10.06.2022
3245 Clouds 10 1023 89 10000 0.51 0 03:55 10.06.2022
3246 Clear 12 1022 90 10000 1.03 190 01:41 10.06.2022
3247 Clear 13 1022 87 10000 1.54 260 00:32 10.06.2022
3248 Clear 14 1022 83 10000 2.06 280 23:39 09.06.2022
3249 Clear 15 1021 78 10000 2.06 270 22:18 09.06.2022
3250 Clear 16 1020 74 10000 4.12 300 21:33 09.06.2022
3251 Clear 17 1020 71 10000 4.63 300 20:54 09.06.2022
3252 Clear 17 1019 68 10000 5.14 300 20:21 09.06.2022
3253 Clouds 17 1019 67 10000 6.17 310 19:21 09.06.2022
3254 Clear 18 1018 66 10000 6.69 280 18:28 09.06.2022
3255 Clouds 20 1017 55 10000 4.63 320 16:51 09.06.2022
3256 Clouds 21 1016 56 10000 4.63 310 15:49 09.06.2022
3257 Clouds 20 1016 60 10000 6.69 330 14:35 09.06.2022
3258 Clouds 19 1015 62 10000 5.14 320 13:54 09.06.2022
3259 Clouds 19 1015 64 10000 5.66 300 13:28 09.06.2022
3260 Clouds 18 1015 68 10000 6.17 300 11:54 09.06.2022
3261 Clouds 17 1015 70 10000 6.17 280 11:19 09.06.2022
3262 Clouds 16 1014 79 10000 4.63 260 09:45 09.06.2022
3263 Clouds 15 1014 83 10000 6.17 260 09:24 09.06.2022
3264 Clouds 14 1013 90 10000 4.12 270 07:52 09.06.2022
3265 Clear 14 1012 90 10000 3.6 270 06:41 09.06.2022
3266 Rain 14 1011 89 10000 2.57 260 03:19 09.06.2022
3267 Clouds 15 1011 92 10000 2.21 198 23:48 08.06.2022
3268 Clouds 15 1010 90 10000 1.54 210 22:58 08.06.2022
3269 Rain 15 1010 91 10000 1.03 0 22:27 08.06.2022
3270 Clouds 16 1010 91 10000 0.51 0 21:55 08.06.2022
3271 Clouds 16 1010 90 10000 1.54 220 21:23 08.06.2022
3272 Rain 16 1010 84 10000 1.03 0 20:22 08.06.2022
3273 Rain 16 1010 86 10000 3.09 250 19:39 08.06.2022
3274 Rain 17 1010 83 10000 5.14 250 18:47 08.06.2022
3275 Rain 20 1009 63 10000 4.12 230 17:25 08.06.2022
3276 Clear 23 1009 46 10000 3.09 230 15:48 08.06.2022
3277 Clear 24 1009 48 10000 2.57 180 13:58 08.06.2022
3278 Clouds 22 1011 57 10000 2.57 150 12:22 08.06.2022
3279 Clouds 21 1010 65 10000 2.28 194 11:33 08.06.2022
3280 Clouds 20 1011 73 10000 1.99 181 10:30 08.06.2022
3281 Clear 17 1012 80 10000 1.54 0 09:22 08.06.2022
3282 Clear 16 1013 81 10000 1.03 0 08:43 08.06.2022
3283 Clear 13 1013 77 10000 1.03 80 06:36 08.06.2022
3284 Clear 13 1014 91 10000 1.86 190 04:22 08.06.2022
3285 Clear 15 1015 89 10000 1.03 0 00:49 08.06.2022
3286 Clear 16 1016 90 10000 0.51 0 23:30 07.06.2022
3287 Clouds 16 1016 88 10000 0.51 0 22:48 07.06.2022
3288 Rain 16 1016 87 10000 1.03 0 22:30 07.06.2022
3289 Clear 16 1015 87 10000 1.03 0 21:35 07.06.2022
3290 Clouds 16 1016 87 10000 1.03 0 20:59 07.06.2022
3291 Clouds 17 1015 86 10000 2.06 220 20:33 07.06.2022
3292 Mist 17 1015 88 8000 5.14 260 19:48 07.06.2022
3293 Clouds 22 1014 56 10000 1.54 70 18:24 07.06.2022
3294 Clouds 22 1014 55 10000 1.54 100 17:27 07.06.2022
3295 Clouds 22 1014 56 10000 1.54 140 16:43 07.06.2022
3296 Clouds 22 1015 56 10000 2.06 310 15:57 07.06.2022
3297 Clouds 22 1015 61 10000 1.54 0 15:27 07.06.2022
3298 Clouds 21 1015 62 10000 1.54 250 14:52 07.06.2022
3299 Clouds 21 1015 64 10000 2.06 0 14:34 07.06.2022
3300 Clouds 21 1016 63 10000 2.57 200 13:32 07.06.2022
3301 Clouds 21 1016 67 10000 2.06 180 12:52 07.06.2022
3302 Clouds 21 1015 67 10000 1.79 298 11:49 07.06.2022
3303 Clouds 19 1017 71 10000 2.06 220 10:27 07.06.2022
3304 Clear 17 1017 83 10000 1.54 0 08:53 07.06.2022
3305 Clouds 16 1016 87 10000 1.03 0 07:35 07.06.2022
3306 Clouds 15 1016 86 10000 1.03 0 06:38 07.06.2022
3307 Clouds 15 1016 86 10000 1.03 0 06:38 07.06.2022
3308 Clouds 15 1016 87 10000 0.51 0 04:39 07.06.2022
3309 Clear 17 1017 79 10000 1.54 220 01:27 07.06.2022
3310 Clear 18 1017 75 10000 0.51 220 23:52 06.06.2022
3311 Clear 18 1017 74 10000 1.03 0 22:54 06.06.2022
3312 Clear 19 1017 74 10000 0.51 0 22:29 06.06.2022
3313 Clear 20 1017 61 10000 3.09 290 20:47 06.06.2022
3314 Clear 21 1016 66 10000 5.66 310 19:28 06.06.2022
3315 Clear 21 1016 65 10000 4.63 320 18:49 06.06.2022
3316 Clear 22 1016 62 10000 4.12 320 18:21 06.06.2022
3317 Clear 22 1017 59 10000 4.63 300 17:24 06.06.2022
3318 Clear 22 1017 58 10000 5.14 260 16:18 06.06.2022
3319 Clear 22 1017 56 10000 4.63 250 15:23 06.06.2022
3320 Clear 23 1017 57 10000 5.14 250 14:30 06.06.2022
3321 Clouds 23 1018 54 10000 4.63 250 13:22 06.06.2022
3322 Clouds 22 1018 62 10000 3.09 220 12:36 06.06.2022
3323 Clouds 22 1018 67 10000 2.57 240 11:53 06.06.2022
3324 Clouds 20 1019 79 10000 2.57 230 10:21 06.06.2022
3325 Clear 19 1019 86 10000 1.54 80 09:24 06.06.2022
3326 Clear 17 1019 87 10000 1.54 90 08:31 06.06.2022
3327 Clouds 15 1018 88 10000 0.51 0 07:28 06.06.2022
3328 Clear 13 1017 90 10000 0.51 0 05:18 06.06.2022
3329 Clear 14 1018 88 10000 4.12 240 02:42 06.06.2022
3330 Clear 15 1019 89 10000 1.54 240 00:57 06.06.2022
3331 Clear 15 1018 90 10000 1.54 190 00:37 06.06.2022
3332 Clear 15 1018 89 10000 1.03 0 23:28 05.06.2022
3333 Clear 16 1018 89 10000 1.54 230 22:45 05.06.2022
3334 Clear 16 1018 89 10000 1.54 230 22:45 05.06.2022
3335 Clouds 18 1017 86 10000 2.57 240 20:46 05.06.2022
3336 Clouds 18 1015 88 10000 4.07 268 19:38 05.06.2022
3337 Rain 19 1014 92 10000 4.27 281 18:29 05.06.2022
3338 Rain 21 1015 84 10000 4.12 190 17:51 05.06.2022
3339 Rain 20 1015 82 10000 3.6 190 17:25 05.06.2022
3340 Clear 20 1015 81 10000 3.6 170 16:49 05.06.2022
3341 Clear 22 1014 76 10000 4.63 180 16:30 05.06.2022
3342 Clouds 21 1015 82 10000 4.12 160 14:24 05.06.2022
3343 Rain 22 1015 79 10000 4.12 160 12:49 05.06.2022
3344 Clear 21 1015 79 10000 4.12 160 11:45 05.06.2022
3345 Clouds 18 1014 88 10000 3.6 200 10:33 05.06.2022
3346 Rain 17 1013 100 10000 9.26 80 09:59 05.06.2022
3347 Thunderstorm 17 1017 94 4500 3.6 240 08:32 05.06.2022
3348 Rain 17 1017 93 10000 6.17 290 07:43 05.06.2022
3349 Clear 18 1015 90 10000 3.6 30 05:22 05.06.2022
3350 Clear 17 1017 91 10000 2.06 60 03:47 05.06.2022
3351 Clear 18 1017 91 10000 2.06 90 01:32 05.06.2022
3352 Rain 19 1018 90 10000 1.54 60 00:33 05.06.2022
3353 Clear 20 1018 83 10000 1.54 50 22:22 04.06.2022
3354 Clear 24 1018 66 10000 1.54 50 20:33 04.06.2022
3355 Clear 25 1018 60 10000 2.06 40 18:45 04.06.2022
3356 Clouds 25 1019 68 10000 2.06 0 16:47 04.06.2022
3357 Clouds 24 1019 73 10000 2.06 0 16:18 04.06.2022
3358 Clouds 22 1019 86 10000 3.09 20 14:53 04.06.2022
3359 Rain 22 1018 81 10000 1.03 0 12:38 04.06.2022
3360 Clouds 21 1018 86 10000 2.06 110 11:22 04.06.2022
3361 Clouds 20 1018 87 10000 2.06 150 10:49 04.06.2022
3362 Rain 18 1017 92 10000 3.09 50 09:45 04.06.2022
3363 Rain 18 1019 92 10000 3.6 210 08:43 04.06.2022
3364 Clouds 17 1017 89 10000 0.51 0 07:42 04.06.2022
3365 Clear 14 1017 92 10000 1.03 0 05:38 04.06.2022
3366 Clear 16 1017 91 10000 1.03 0 02:20 04.06.2022
3367 Clear 18 1016 87 10000 0.51 200 00:20 04.06.2022
3368 Clear 19 1017 87 10000 1.03 0 22:41 03.06.2022
3369 Clear 21 1016 83 10000 2.57 330 21:39 03.06.2022
3370 Clouds 23 1016 62 10000 1.54 170 20:38 03.06.2022
3371 Clouds 25 1015 64 10000 2.06 0 19:19 03.06.2022
3372 Clouds 24 1015 68 10000 2.57 340 16:54 03.06.2022
3373 Rain 26 1015 64 10000 1.54 10 15:40 03.06.2022
3374 Rain 28 1015 51 10000 1.54 240 13:49 03.06.2022
3375 Rain 26 1015 58 10000 3.09 80 11:51 03.06.2022
3376 Clear 22 1017 67 10000 1.54 0 09:54 03.06.2022
3377 Clear 21 1017 70 10000 1.03 0 09:29 03.06.2022
3378 Clear 15 1017 78 10000 0.51 0 07:42 03.06.2022
3379 Clear 13 1017 86 10000 0.51 160 06:46 03.06.2022
3380 Clear 13 1017 86 10000 0.51 0 06:27 03.06.2022
3381 Clear 14 1018 85 10000 1.03 0 02:50 03.06.2022
3382 Clear 16 1018 75 10000 0.51 0 23:36 02.06.2022
3383 Clear 19 1018 62 10000 1.54 70 21:58 02.06.2022
3384 Clear 21 1018 56 10000 2.06 80 20:34 02.06.2022
3385 Clear 23 1018 43 10000 3.09 60 19:55 02.06.2022
3386 Clear 23 1018 43 10000 3.09 60 19:37 02.06.2022
3387 Clear 23 1018 53 10000 1.54 80 18:39 02.06.2022
3388 Clear 24 1019 45 10000 1.54 0 16:28 02.06.2022
3389 Clear 23 1019 44 10000 1.54 10 15:46 02.06.2022
3390 Clear 22 1020 43 10000 3.6 70 13:31 02.06.2022
3391 Clear 22 1020 44 10000 2.57 0 12:49 02.06.2022
3392 Clear 19 1020 53 10000 3.09 80 10:36 02.06.2022
3393 Clear 17 1020 58 10000 2.06 70 09:29 02.06.2022
3394 Clear 16 1020 61 10000 3.09 80 08:44 02.06.2022
3395 Clear 15 1020 64 10000 2.57 60 08:23 02.06.2022
3396 Clear 12 1019 76 10000 2.57 10 06:21 02.06.2022
3397 Clear 14 1018 54 10000 3.6 350 03:50 02.06.2022
3398 Clouds 15 1019 73 10000 1.81 294 00:55 02.06.2022
3399 Clear 17 1016 59 10000 2.06 300 22:58 01.06.2022
3400 Clear 18 1016 55 10000 2.06 280 22:18 01.06.2022
3401 Clear 19 1015 47 10000 3.6 300 21:24 01.06.2022
3402 Clear 21 1015 40 10000 5.66 300 20:38 01.06.2022
3403 Clear 22 1014 40 10000 6.17 280 19:52 01.06.2022
3404 Clear 22 1014 37 10000 4.12 290 18:37 01.06.2022
3405 Clear 23 1014 38 10000 4.12 260 16:58 01.06.2022
3406 Clouds 23 1014 39 10000 4.09 306 15:45 01.06.2022
3407 Clear 24 1015 36 10000 5.14 260 14:49 01.06.2022
3408 Clear 23 1015 43 10000 6.17 250 13:26 01.06.2022
3409 Clear 21 1015 48 10000 3.09 210 10:48 01.06.2022
3410 Clear 18 1015 70 10000 2.57 210 09:30 01.06.2022
3411 Clear 14 1015 83 10000 1.03 0 08:19 01.06.2022
3412 Clear 11 1015 89 10000 1.54 80 07:20 01.06.2022
3413 Clear 10 1015 88 10000 1.03 0 04:41 01.06.2022
3414 Clear 14 1014 78 10000 1.54 240 23:50 31.05.2022
3415 Clear 15 1014 82 10000 1.54 260 22:43 31.05.2022
3416 Clear 15 1013 79 10000 1.54 280 22:24 31.05.2022
3417 Clouds 16 1013 82 10000 0.51 0 21:44 31.05.2022
3418 Rain 16 1013 72 10000 4.12 310 20:44 31.05.2022
3419 Rain 16 1013 72 10000 4.12 310 20:44 31.05.2022
3420 Rain 16 1013 72 10000 4.12 310 20:44 31.05.2022
3421 Rain 20 1012 39 10000 1.54 50 19:46 31.05.2022
3422 Clear 20 1012 45 10000 3.6 330 18:33 31.05.2022
3423 Clear 20 1011 40 10000 3.6 360 17:46 31.05.2022
3424 Rain 22 1011 39 10000 4.63 360 16:21 31.05.2022
3425 Clear 22 1011 38 10000 4.12 310 15:37 31.05.2022
3426 Clear 22 1012 42 10000 2.06 0 13:22 31.05.2022
3427 Clear 21 1012 47 10000 2.57 0 12:19 31.05.2022
3428 Clear 19 1012 55 10000 1.54 0 10:52 31.05.2022
3429 Clear 13 1012 74 10000 0.51 0 08:35 31.05.2022
3430 Clear 8 1012 87 10000 1.03 0 06:52 31.05.2022
3431 Clear 8 1012 84 10000 1.54 290 04:34 31.05.2022
3432 Clear 11 1013 73 10000 1.03 60 23:49 30.05.2022
3433 Clear 10 1014 78 10000 2.02 93 23:25 30.05.2022
3434 Clear 11 1014 74 10000 2.02 93 22:44 30.05.2022
3435 Clear 15 1012 44 10000 2.57 30 21:47 30.05.2022
3436 Clear 15 1012 49 10000 3.09 30 21:29 30.05.2022
3437 Clear 18 1012 36 10000 3.09 40 19:51 30.05.2022
3438 Clear 19 1012 33 10000 3.6 360 18:26 30.05.2022
3439 Clouds 20 1011 34 10000 1.79 3 17:23 30.05.2022
3440 Clear 19 1012 35 10000 3.6 70 16:36 30.05.2022
3441 Clear 18 1011 46 10000 1.03 0 13:44 30.05.2022
3442 Clear 16 1011 51 10000 1.54 0 12:19 30.05.2022
3443 Clear 14 1011 71 10000 1.54 0 10:26 30.05.2022
3444 Clear 11 1011 77 10000 1.03 0 09:19 30.05.2022
3445 Clear 4 1010 91 10000 0 0 06:28 30.05.2022
3446 Clear 4 1010 91 10000 1.03 210 05:47 30.05.2022
3447 Clear 6 1011 91 10000 0.51 0 01:32 30.05.2022
3448 Clear 9 1012 84 10000 0.51 290 22:50 29.05.2022
3449 Clear 9 1011 85 10000 0.51 0 22:31 29.05.2022
3450 Clouds 12 1011 69 10000 0.51 0 20:51 29.05.2022
3451 Clouds 14 1012 56 10000 1.03 0 19:30 29.05.2022
3452 Clear 14 1012 55 10000 2.57 20 18:37 29.05.2022
3453 Rain 13 1012 62 10000 2.06 30 17:23 29.05.2022
3454 Clouds 13 1012 64 10000 4.12 70 15:48 29.05.2022
3455 Clouds 12 1012 77 10000 5.14 80 14:57 29.05.2022
3456 Clouds 10 1013 83 10000 2.57 0 13:52 29.05.2022
3457 Rain 12 1013 69 10000 5.14 320 11:41 29.05.2022
3458 Clouds 12 1013 66 10000 3.6 20 10:38 29.05.2022
3459 Clouds 11 1012 80 10000 1.54 350 08:51 29.05.2022
3460 Rain 10 1012 85 10000 2.57 360 05:54 29.05.2022
3461 Clouds 10 1013 80 10000 7.2 50 04:44 29.05.2022
3462 Rain 11 1013 79 10000 0.51 0 03:47 29.05.2022
3463 Clear 12 1016 73 10000 0.51 0 23:50 28.05.2022
3464 Clear 12 1016 71 10000 2.06 310 23:26 28.05.2022
3465 Clear 13 1017 69 10000 2.06 350 22:36 28.05.2022
3466 Clear 14 1016 62 10000 2.06 350 21:38 28.05.2022
3467 Clear 16 1017 46 10000 4.12 330 19:49 28.05.2022
3468 Clear 17 1017 44 10000 5.14 330 18:50 28.05.2022
3469 Clear 18 1018 44 10000 4.63 340 17:37 28.05.2022
3470 Clear 18 1018 44 10000 2.57 0 16:43 28.05.2022
3471 Clear 17 1019 46 10000 4.12 320 15:43 28.05.2022
3472 Clear 17 1020 50 10000 3.6 320 14:26 28.05.2022
3473 Clouds 16 1020 56 10000 3.6 350 12:51 28.05.2022
3474 Clouds 16 1021 55 10000 3.6 0 12:33 28.05.2022
3475 Clear 15 1021 58 10000 4.12 320 11:22 28.05.2022
3476 Clear 14 1022 64 10000 3.09 330 09:59 28.05.2022
3477 Clear 13 1021 69 10000 4.12 330 09:21 28.05.2022
3478 Clear 10 1021 79 10000 3.09 290 07:23 28.05.2022
3479 Clouds 10 1021 85 10000 3.09 290 05:48 28.05.2022
3480 Clouds 13 1021 89 10000 1.54 330 02:52 28.05.2022
3481 Clear 13 1021 84 10000 3.6 240 00:33 28.05.2022
3482 Clear 14 1021 82 10000 4.63 250 23:32 27.05.2022
3483 Clear 16 1021 70 10000 4.63 270 21:50 27.05.2022
3484 Clear 16 1021 70 10000 4.63 270 21:50 27.05.2022
3485 Clouds 16 1021 70 10000 3.37 274 20:56 27.05.2022
3486 Clear 17 1021 65 10000 7.2 280 20:25 27.05.2022
3487 Clouds 18 1021 64 10000 6.69 280 19:51 27.05.2022
3488 Clouds 18 1021 66 10000 6.69 280 19:32 27.05.2022
3489 Clouds 18 1021 65 10000 8.75 280 18:24 27.05.2022
3490 Clouds 19 1021 66 10000 6.69 290 16:40 27.05.2022
3491 Clouds 20 1021 62 10000 6.17 250 15:34 27.05.2022
3492 Clouds 19 1021 64 10000 7.2 260 14:44 27.05.2022
3493 Clouds 19 1022 66 10000 5.14 250 13:23 27.05.2022
3494 Clouds 17 1023 77 10000 4.12 260 11:34 27.05.2022
3495 Clouds 16 1022 79 10000 3.09 280 10:57 27.05.2022
3496 Clouds 16 1022 79 10000 3.6 260 10:32 27.05.2022
3497 Clouds 15 1022 80 10000 3.09 250 09:37 27.05.2022
3498 Clouds 15 1022 82 10000 2.06 230 08:19 27.05.2022
3499 Clouds 13 1022 86 10000 1.54 240 06:45 27.05.2022
3500 Clear 12 1023 87 10000 2.06 250 02:53 27.05.2022
3501 Clear 13 1024 85 10000 2.06 250 00:37 27.05.2022
3502 Clear 15 1024 77 10000 2.06 290 22:47 26.05.2022
3503 Clouds 17 1023 63 10000 2.57 300 21:42 26.05.2022
3504 Clouds 19 1023 55 10000 3.09 250 20:59 26.05.2022
3505 Clouds 20 1023 60 10000 3.76 291 19:27 26.05.2022
3506 Clear 21 1023 59 10000 5.66 290 18:21 26.05.2022
3507 Clear 20 1024 62 10000 5.14 300 16:56 26.05.2022
3508 Clouds 20 1024 62 10000 4.12 260 15:49 26.05.2022
3509 Clouds 19 1025 63 10000 4.12 260 14:48 26.05.2022
3510 Clouds 19 1024 63 10000 5.14 270 13:23 26.05.2022
3511 Clear 18 1024 61 10000 5.14 260 11:36 26.05.2022
3512 Clear 18 1024 63 10000 4.12 250 10:24 26.05.2022
3513 Clear 17 1023 64 10000 2.06 0 09:35 26.05.2022
3514 Clear 16 1023 69 10000 3.09 230 08:37 26.05.2022
3515 Clear 11 1022 87 10000 1.03 0 05:24 26.05.2022
3516 Clear 13 1021 80 10000 1.54 260 01:24 26.05.2022
3517 Clear 14 1021 65 10000 1.54 240 23:40 25.05.2022
3518 Clear 16 1020 66 10000 1.03 0 22:30 25.05.2022
3519 Clear 18 1019 51 10000 3.09 310 21:33 25.05.2022
3520 Clear 19 1018 48 10000 4.12 330 20:39 25.05.2022
3521 Clear 21 1017 45 10000 3.6 330 19:31 25.05.2022
3522 Clear 21 1017 40 10000 3.09 360 18:20 25.05.2022
3523 Clear 22 1017 45 10000 2.57 10 16:41 25.05.2022
3524 Clear 21 1017 44 10000 2.06 320 15:58 25.05.2022
3525 Clear 21 1018 45 10000 3.09 0 14:56 25.05.2022
3526 Clouds 21 1018 49 10000 2.57 0 14:37 25.05.2022
3527 Clouds 20 1018 49 10000 2.57 0 14:19 25.05.2022
3528 Clouds 20 1017 56 10000 2.2 305 12:48 25.05.2022
3529 Clouds 19 1017 56 10000 1.82 300 11:31 25.05.2022
3530 Clouds 18 1017 62 10000 2.06 0 10:22 25.05.2022
3531 Clouds 15 1017 76 10000 1.85 298 08:45 25.05.2022
3532 Clouds 13 1016 85 10000 1.01 231 07:23 25.05.2022
3533 Clouds 13 1016 86 10000 1.02 230 07:23 25.05.2022
3534 Rain 13 1014 85 10000 0.51 0 05:23 25.05.2022
3535 Clouds 14 1013 79 10000 1.03 0 00:38 25.05.2022
3536 Clouds 15 1013 73 10000 2.57 300 23:47 24.05.2022
3537 Clear 16 1013 70 10000 3.6 320 22:53 24.05.2022
3538 Clouds 16 1012 72 10000 3.09 320 21:46 24.05.2022
3539 Clouds 17 1011 66 10000 3.09 330 21:22 24.05.2022
3540 Clouds 18 1011 55 10000 2.06 330 20:59 24.05.2022
3541 Clear 19 1010 55 10000 2.57 20 19:20 24.05.2022
3542 Clear 19 1010 55 10000 3.6 340 17:50 24.05.2022
3543 Clear 20 1010 52 10000 4.63 300 16:36 24.05.2022
3544 Clouds 20 1010 54 10000 4.12 320 15:31 24.05.2022
3545 Clouds 19 1010 55 10000 5.66 280 14:37 24.05.2022
3546 Clouds 19 1010 57 10000 5.66 260 13:46 24.05.2022
3547 Clouds 17 1010 73 10000 6.69 280 12:19 24.05.2022
3548 Rain 14 1009 83 10000 2.26 264 09:52 24.05.2022
3549 Clear 17 1007 78 10000 2.06 220 08:51 24.05.2022
3550 Clear 16 1006 89 10000 0.51 0 07:44 24.05.2022
3551 Clouds 15 1006 91 10000 1.03 0 06:39 24.05.2022
3552 Clouds 16 1006 88 10000 4.12 300 03:38 24.05.2022
3553 Clear 18 1005 82 10000 3.09 210 01:46 24.05.2022
3554 Clouds 18 1005 77 10000 2.06 200 00:30 24.05.2022
3555 Clouds 19 1004 74 10000 2.57 230 22:24 23.05.2022
3556 Clouds 18 1005 81 10000 3.77 220 21:50 23.05.2022
3557 Clear 19 1003 83 10000 3.09 190 20:49 23.05.2022
3558 Clear 18 1003 85 10000 1.54 90 19:55 23.05.2022
3559 Rain 19 1003 81 10000 2.57 150 19:24 23.05.2022
3560 Rain 20 1003 76 10000 4.12 150 18:41 23.05.2022
3561 Rain 20 1003 76 10000 4.12 150 18:41 23.05.2022
3562 Rain 23 1004 70 10000 3.09 200 17:56 23.05.2022
3563 Clear 22 1004 77 10000 2.57 190 16:40 23.05.2022
3564 Rain 19 1007 88 10000 6.17 220 14:20 23.05.2022
3565 Rain 21 1005 78 10000 1.03 0 11:57 23.05.2022
3566 Rain 20 1006 78 10000 1.03 0 11:20 23.05.2022
3567 Rain 18 1006 83 10000 3.09 90 09:48 23.05.2022
3568 Clouds 16 1007 90 10000 2.57 100 08:50 23.05.2022
3569 Clouds 15 1009 92 10000 2.06 120 07:41 23.05.2022
3570 Rain 15 1007 84 10000 2.57 270 06:41 23.05.2022
3571 Clear 14 1008 85 10000 1.03 0 04:40 23.05.2022
3572 Clear 16 1009 79 10000 1.03 0 02:19 23.05.2022
3573 Clear 17 1010 77 10000 0.51 330 01:34 23.05.2022
3574 Clear 18 1011 73 10000 0.51 0 23:42 22.05.2022
3575 Clear 18 1011 67 10000 0.51 0 22:34 22.05.2022
3576 Clear 20 1011 65 10000 0.51 0 21:54 22.05.2022
3577 Rain 21 1012 48 10000 1.54 360 20:51 22.05.2022
3578 Rain 22 1012 49 10000 1.03 130 20:25 22.05.2022
3579 Clear 22 1011 44 10000 3.09 40 19:54 22.05.2022
3580 Clear 22 1011 46 10000 3.09 40 19:54 22.05.2022
3581 Rain 23 1012 44 10000 3.09 40 18:53 22.05.2022
3582 Rain 23 1013 48 10000 3.6 20 18:24 22.05.2022
3583 Clear 24 1013 42 10000 2.57 30 17:32 22.05.2022
3584 Clear 25 1013 35 10000 1.03 0 16:25 22.05.2022
3585 Clear 24 1014 43 10000 2.06 0 14:48 22.05.2022
3586 Clear 23 1015 45 10000 1.54 0 13:45 22.05.2022
3587 Clear 23 1016 49 10000 1.03 0 12:50 22.05.2022
3588 Clear 22 1016 51 10000 1.54 0 11:42 22.05.2022
3589 Clear 18 1017 70 10000 1.03 0 09:43 22.05.2022
3590 Clear 15 1017 79 10000 0.51 0 08:35 22.05.2022
3591 Clear 12 1017 86 10000 0.51 60 07:21 22.05.2022
3592 Clear 10 1018 90 10000 1.03 0 05:44 22.05.2022
3593 Clear 12 1019 88 10000 0.51 0 01:43 22.05.2022
3594 Clear 13 1020 84 10000 1.03 0 00:43 22.05.2022
3595 Clear 13 1020 81 10000 1.03 260 23:55 21.05.2022
3596 Clear 15 1020 77 10000 1.03 310 23:20 21.05.2022
3597 Clear 17 1020 71 10000 2.06 10 21:45 21.05.2022
3598 Clear 18 1020 67 10000 2.57 30 21:25 21.05.2022
3599 Clear 20 1020 55 10000 2.06 360 20:25 21.05.2022
3600 Clear 21 1020 50 10000 4.12 320 19:35 21.05.2022
3601 Clear 22 1021 50 10000 5.14 330 17:57 21.05.2022
3602 Clear 22 1021 46 10000 5.14 300 16:53 21.05.2022
3603 Clear 22 1022 51 10000 3.6 360 14:38 21.05.2022
3604 Clear 21 1022 54 10000 2.57 40 13:53 21.05.2022
3605 Clear 21 1023 55 10000 3.6 320 12:57 21.05.2022
3606 Clouds 20 1023 57 10000 3.09 300 12:37 21.05.2022
3607 Clear 18 1024 60 10000 4.12 290 10:45 21.05.2022
3608 Clear 17 1024 65 10000 5.14 290 09:49 21.05.2022
3609 Clear 16 1024 70 10000 6.17 280 08:58 21.05.2022
3610 Clear 15 1024 71 10000 6.17 280 08:34 21.05.2022
3611 Clear 15 1024 86 10000 2.6 280 05:28 21.05.2022
3612 Clouds 18 1021 86 10000 3.09 260 01:24 21.05.2022
3613 Rain 20 1019 85 10000 5.18 287 23:29 20.05.2022
3614 Clouds 21 1018 80 10000 4.93 270 22:24 20.05.2022
3615 Clouds 23 1018 81 10000 4.91 270 21:55 20.05.2022
3616 Clear 25 1016 67 10000 1.03 0 20:58 20.05.2022
3617 Clear 25 1016 67 10000 1.03 0 20:58 20.05.2022
3618 Clear 25 1016 65 10000 2.06 160 20:29 20.05.2022
3619 Clear 27 1016 57 10000 2.06 270 19:30 20.05.2022
3620 Clear 26 1016 57 10000 5.66 310 18:48 20.05.2022
3621 Clouds 29 1016 48 10000 8.23 320 17:47 20.05.2022
3622 Clear 32 1016 34 10000 3.6 210 16:21 20.05.2022
3623 Clear 32 1017 33 10000 3.09 0 15:53 20.05.2022
3624 Clear 32 1019 36 10000 4.12 230 14:31 20.05.2022
3625 Clear 31 1019 35 10000 5.66 240 13:56 20.05.2022
3626 Clear 29 1021 52 10000 3.09 230 11:51 20.05.2022
3627 Clear 25 1022 70 10000 1.03 0 10:30 20.05.2022
3628 Clear 22 1022 74 10000 0.51 0 08:58 20.05.2022
3629 Clear 18 1022 86 10000 0.51 0 07:40 20.05.2022
3630 Clear 16 1022 74 10000 0 0 06:38 20.05.2022
3631 Clear 16 1022 74 10000 1.03 0 05:39 20.05.2022
3632 Clear 18 1023 68 10000 1.54 130 01:18 20.05.2022
3633 Clouds 18 1023 57 10000 2.28 190 23:28 19.05.2022
3634 Clouds 18 1023 45 10000 2.28 190 22:34 19.05.2022
3635 Clouds 19 1023 85 10000 3.17 185 21:49 19.05.2022
3636 Clouds 19 1023 45 10000 3.16 185 21:49 19.05.2022
3637 Rain 19 1022 91 10000 2.63 194 21:23 19.05.2022
3638 Clouds 19 1022 99 10000 2.63 194 20:43 19.05.2022
3639 Rain 27 1020 50 10000 3.6 200 19:54 19.05.2022
3640 Clear 28 1020 43 10000 4.12 200 18:59 19.05.2022
3641 Clear 31 1019 40 10000 4.63 240 17:35 19.05.2022
3642 Clear 31 1020 41 10000 4.63 260 15:34 19.05.2022
3643 Clear 30 1020 43 10000 2.06 0 14:39 19.05.2022
3644 Clear 30 1020 41 10000 2.06 0 14:19 19.05.2022
3645 Clear 27 1021 51 10000 2.06 90 11:53 19.05.2022
3646 Clear 23 1022 57 10000 1.54 0 10:30 19.05.2022
3647 Clear 18 1021 69 10000 1.03 0 08:33 19.05.2022
3648 Clear 15 1021 80 10000 0.51 0 07:18 19.05.2022
3649 Clear 14 1021 84 10000 0.51 0 03:26 19.05.2022
3650 Clear 18 1022 70 10000 1.54 100 00:56 19.05.2022
3651 Clear 19 1022 68 10000 2.57 80 23:35 18.05.2022
3652 Clear 20 1022 63 10000 2.57 90 22:43 18.05.2022
3653 Clear 21 1022 60 10000 3.6 80 21:42 18.05.2022
3654 Clear 23 1022 53 10000 3.09 90 21:20 18.05.2022
3655 Clear 25 1021 46 10000 4.63 80 20:19 18.05.2022
3656 Clear 27 1021 38 10000 5.66 80 18:53 18.05.2022
3657 Clear 27 1021 38 10000 5.66 80 18:53 18.05.2022
3658 Clear 27 1022 39 10000 5.14 70 17:42 18.05.2022
3659 Clear 28 1022 41 10000 3.09 100 17:24 18.05.2022
3660 Clear 27 1022 40 10000 3.6 70 16:53 18.05.2022
3661 Clear 27 1022 41 10000 3.6 90 15:45 18.05.2022
3662 Clear 28 1022 40 10000 3.09 110 15:20 18.05.2022
3663 Clear 27 1023 42 10000 3.6 80 14:21 18.05.2022
3664 Clear 27 1023 47 10000 2.06 0 12:54 18.05.2022
3665 Clear 25 1024 49 10000 2.57 60 11:48 18.05.2022
3666 Clear 25 1024 53 10000 1.54 90 11:30 18.05.2022
3667 Clear 24 1024 57 10000 1.54 60 10:43 18.05.2022
3668 Clear 17 1023 79 10000 0.51 0 08:19 18.05.2022
3669 Clear 14 1023 86 10000 0.51 0 07:27 18.05.2022
3670 Clear 14 1022 87 10000 1.03 360 03:40 18.05.2022
3671 Clear 16 1022 81 10000 0.51 0 00:51 18.05.2022
3672 Clouds 17 1022 82 10000 1.67 108 23:33 17.05.2022
3673 Clear 21 1020 59 10000 1.54 90 21:21 17.05.2022
3674 Clear 23 1020 49 10000 1.54 90 20:44 17.05.2022
3675 Clear 24 1020 43 10000 2.06 50 19:41 17.05.2022
3676 Clear 24 1020 48 10000 2.06 70 19:20 17.05.2022
3677 Clear 25 1020 43 10000 2.06 0 17:34 17.05.2022
3678 Clear 26 1020 44 10000 2.06 0 16:57 17.05.2022
3679 Clear 26 1021 45 10000 2.06 0 15:59 17.05.2022
3680 Clear 25 1022 47 10000 1.54 80 14:55 17.05.2022
3681 Clear 25 1022 48 10000 2.57 60 14:28 17.05.2022
3682 Clouds 24 1022 52 10000 2.06 100 13:24 17.05.2022
3683 Clouds 22 1023 70 10000 1.54 120 10:42 17.05.2022
3684 Clouds 17 1023 80 10000 1.03 0 08:53 17.05.2022
3685 Clouds 15 1022 88 10000 1.03 0 07:56 17.05.2022
3686 Clouds 11 1022 92 10000 0.51 0 06:26 17.05.2022
3687 Clear 14 1021 87 10000 2.06 240 01:59 17.05.2022
3688 Clear 16 1022 84 10000 1.54 240 23:59 16.05.2022
3689 Clear 17 1021 80 10000 2.06 280 22:40 16.05.2022
3690 Clouds 19 1021 73 10000 3.09 280 21:31 16.05.2022
3691 Clouds 20 1020 65 10000 5.14 280 20:43 16.05.2022
3692 Clouds 22 1019 65 10000 5.66 310 18:53 16.05.2022
3693 Clouds 23 1019 64 10000 3.09 260 17:34 16.05.2022
3694 Clouds 20 1018 76 10000 3.47 278 15:36 16.05.2022
3695 Clouds 23 1019 60 10000 6.69 280 13:48 16.05.2022
3696 Clouds 24 1019 58 10000 5.14 260 12:46 16.05.2022
3697 Rain 22 1018 65 10000 2.06 170 10:47 16.05.2022
3698 Clouds 17 1018 76 10000 0.51 0 08:37 16.05.2022
3699 Rain 14 1017 81 10000 0.51 0 06:33 16.05.2022
3700 Clear 14 1017 78 10000 1.03 0 02:33 16.05.2022
3701 Clouds 17 1017 69 10000 1.53 151 22:52 15.05.2022
3702 Clear 18 1016 64 10000 1.54 90 22:28 15.05.2022
3703 Clear 20 1016 55 10000 2.06 90 21:38 15.05.2022
3704 Clear 23 1016 46 10000 2.57 90 20:53 15.05.2022
3705 Clear 25 1016 38 10000 3.09 90 19:24 15.05.2022
3706 Clear 26 1017 37 10000 2.57 80 17:48 15.05.2022
3707 Clear 27 1017 37 10000 3.09 70 15:44 15.05.2022
3708 Clear 26 1018 41 10000 4.12 70 13:49 15.05.2022
3709 Clear 24 1019 44 10000 2.57 60 12:23 15.05.2022
3710 Clouds 24 1018 48 10000 2.36 104 11:38 15.05.2022
3711 Clouds 24 1018 48 10000 2.36 104 11:38 15.05.2022
3712 Clear 20 1019 61 10000 1.03 0 10:23 15.05.2022
3713 Clear 13 1020 76 10000 0.51 0 07:46 15.05.2022
3714 Clear 11 1019 76 10000 0.51 0 06:57 15.05.2022
3715 Clear 10 1019 86 10000 0.51 0 05:33 15.05.2022
3716 Clear 12 1020 78 10000 1.03 0 00:49 15.05.2022
3717 Clear 14 1020 70 10000 1.03 0 23:38 14.05.2022
3718 Clear 15 1020 65 10000 1.03 0 22:47 14.05.2022
3719 Clear 17 1020 56 10000 2.06 360 21:29 14.05.2022
3720 Clear 20 1020 44 10000 2.57 20 20:51 14.05.2022
3721 Clear 22 1019 40 10000 3.09 40 19:38 14.05.2022
3722 Clear 23 1019 36 10000 3.6 20 19:19 14.05.2022
3723 Clear 23 1019 37 10000 2.57 70 18:41 14.05.2022
3724 Clear 24 1020 38 10000 2.57 50 16:38 14.05.2022
3725 Clear 24 1021 42 10000 2.06 360 15:30 14.05.2022
3726 Clear 23 1021 44 10000 2.57 50 14:34 14.05.2022
3727 Clouds 21 1022 51 10000 1.03 0 12:24 14.05.2022
3728 Clouds 19 1022 57 10000 1.03 0 10:59 14.05.2022
3729 Clear 18 1022 65 10000 1.54 90 10:21 14.05.2022
3730 Clear 17 1022 73 10000 0.51 0 09:53 14.05.2022
3731 Clear 14 1022 76 10000 0.51 0 08:49 14.05.2022
3732 Clear 9 1022 90 10000 0.51 60 06:41 14.05.2022
3733 Clear 10 1022 86 10000 0.51 0 02:39 14.05.2022
3734 Clear 13 1023 83 10000 1.03 252 23:36 13.05.2022
3735 Clear 14 1022 72 10000 1.54 280 22:58 13.05.2022
3736 Clear 15 1021 70 10000 2.06 310 22:27 13.05.2022
3737 Clear 16 1021 67 10000 2.57 320 21:52 13.05.2022
3738 Clear 19 1021 48 10000 4.12 310 20:46 13.05.2022
3739 Clear 19 1021 42 10000 4.12 310 20:27 13.05.2022
3740 Clear 21 1020 43 10000 4.63 310 19:28 13.05.2022
3741 Clear 22 1020 46 10000 3.6 270 17:51 13.05.2022
3742 Clouds 23 1020 45 10000 4.46 299 17:29 13.05.2022
3743 Clouds 23 1021 50 10000 4.12 260 16:20 13.05.2022
3744 Clouds 21 1021 56 10000 4.12 240 15:29 13.05.2022
3745 Clouds 20 1021 65 10000 4.12 290 13:54 13.05.2022
3746 Clouds 19 1021 69 10000 3.6 280 12:32 13.05.2022
3747 Clouds 19 1021 75 10000 3.6 300 11:23 13.05.2022
3748 Clouds 19 1021 75 10000 3.6 300 11:23 13.05.2022
3749 Clouds 17 1020 70 10000 1.03 0 09:35 13.05.2022
3750 Clouds 16 1020 73 10000 1.54 320 08:49 13.05.2022
3751 Clouds 16 1020 77 10000 0.51 0 07:48 13.05.2022
3752 Clouds 16 1020 79 10000 0.51 260 06:34 13.05.2022
3753 Rain 17 1020 72 10000 1.03 0 03:34 13.05.2022
3754 Rain 17 1020 75 10000 2.06 220 00:39 13.05.2022
3755 Clear 17 1020 73 10000 1.03 0 22:46 12.05.2022
3756 Clear 17 1019 90 10000 1.03 0 21:58 12.05.2022
3757 Clear 17 1019 87 10000 2.06 350 20:37 12.05.2022
3758 Thunderstorm 19 1019 84 10000 8.75 310 19:18 12.05.2022
3759 Clear 24 1018 59 10000 3.09 20 17:27 12.05.2022
3760 Clear 24 1019 51 10000 2.57 0 16:23 12.05.2022
3761 Clear 25 1019 51 10000 4.12 260 14:47 12.05.2022
3762 Clear 24 1020 54 10000 5.66 260 13:47 12.05.2022
3763 Clouds 21 1020 64 10000 4.12 290 11:23 12.05.2022
3764 Clouds 20 1020 67 10000 4.12 310 09:31 12.05.2022
3765 Clear 19 1019 66 10000 1.54 0 08:51 12.05.2022
3766 Clear 18 1019 67 10000 2.06 250 07:41 12.05.2022
3767 Clear 15 1017 74 10000 3.09 270 06:39 12.05.2022
3768 Clear 17 1015 51 10000 4.12 240 03:31 12.05.2022
3769 Clouds 17 1016 57 10000 2.32 207 00:41 12.05.2022
3770 Clear 19 1015 40 10000 2.06 230 22:41 11.05.2022
3771 Clear 21 1015 31 10000 4.12 240 21:59 11.05.2022
3772 Clear 25 1014 29 10000 4.12 240 21:24 11.05.2022
3773 Clear 27 1014 29 10000 3.6 230 19:42 11.05.2022
3774 Clear 29 1014 30 10000 7.2 240 17:24 11.05.2022
3775 Clouds 29 1014 33 10000 5.69 240 15:59 11.05.2022
3776 Clear 29 1015 36 10000 4.63 230 14:45 11.05.2022
3777 Clear 29 1015 36 10000 4.12 240 14:24 11.05.2022
3778 Clear 27 1017 45 10000 4.63 220 12:23 11.05.2022
3779 Clear 26 1017 47 10000 4.63 230 11:47 11.05.2022
3780 Clear 21 1018 66 10000 1.03 0 09:29 11.05.2022
3781 Clear 13 1017 87 10000 0.51 0 06:27 11.05.2022
3782 Clouds 16 1018 86 10000 1.99 191 01:53 11.05.2022
3783 Clouds 18 1019 79 10000 1.44 207 22:56 10.05.2022
3784 Clear 19 1018 74 10000 1.54 290 22:21 10.05.2022
3785 Clouds 20 1019 73 10000 0.9 228 21:26 10.05.2022
3786 Clouds 24 1018 46 10000 1.54 340 20:26 10.05.2022
3787 Clear 25 1018 45 10000 3.09 270 18:38 10.05.2022
3788 Clear 25 1019 41 10000 2.57 260 17:38 10.05.2022
3789 Clouds 26 1018 42 10000 1.72 253 16:24 10.05.2022
3790 Clear 25 1021 44 10000 2.57 100 13:19 10.05.2022
3791 Clouds 24 1022 53 10000 1.54 130 11:53 10.05.2022
3792 Clouds 23 1022 58 10000 2.06 130 11:32 10.05.2022
3793 Clouds 22 1022 64 10000 1.54 0 10:56 10.05.2022
3794 Clear 19 1022 73 10000 1.03 0 09:47 10.05.2022
3795 Clear 14 1022 87 10000 1.03 0 08:18 10.05.2022
3796 Clear 10 1022 92 10000 1.03 110 06:20 10.05.2022
3797 Clear 12 1023 87 10000 1.03 300 02:23 10.05.2022
3798 Clear 14 1023 82 10000 1.03 320 23:53 09.05.2022
3799 Clear 17 1023 76 10000 0.51 100 22:36 09.05.2022
3800 Clear 18 1023 63 10000 1.03 70 21:42 09.05.2022
3801 Clear 22 1022 49 10000 3.6 80 20:21 09.05.2022
3802 Clear 23 1022 46 10000 3.09 100 18:26 09.05.2022
3803 Clear 23 1023 45 10000 3.09 80 17:26 09.05.2022
3804 Clear 23 1023 47 10000 4.63 80 16:19 09.05.2022
3805 Clear 23 1024 46 10000 4.12 80 15:47 09.05.2022
3806 Clouds 23 1024 48 10000 2.06 0 14:37 09.05.2022
3807 Clouds 23 1024 50 10000 2.57 0 13:59 09.05.2022
3808 Clouds 22 1025 55 10000 3.09 70 13:23 09.05.2022
3809 Clouds 20 1025 62 10000 3.09 80 11:53 09.05.2022
3810 Clouds 19 1025 70 10000 2.57 70 10:50 09.05.2022
3811 Clouds 19 1025 71 10000 3.09 70 10:26 09.05.2022
3812 Clear 11 1024 88 10000 0.51 140 07:57 09.05.2022
3813 Clear 9 1024 92 10000 0.51 20 05:59 09.05.2022
3814 Clear 11 1024 89 10000 0.51 0 01:59 09.05.2022
3815 Clouds 14 1024 84 10000 1.26 37 23:29 08.05.2022
3816 Clouds 14 1024 89 10000 1.26 37 22:42 08.05.2022
3817 Clouds 16 1023 78 10000 1.54 150 21:37 08.05.2022
3818 Clouds 18 1022 63 10000 1.03 0 20:25 08.05.2022
3819 Clouds 20 1022 54 10000 2.06 90 19:35 08.05.2022
3820 Clouds 20 1022 53 10000 2.57 100 18:49 08.05.2022
3821 Clouds 21 1023 49 10000 6.69 50 17:45 08.05.2022
3822 Clouds 21 1023 51 10000 5.66 40 16:23 08.05.2022
3823 Clouds 21 1023 49 10000 5.66 60 15:25 08.05.2022
3824 Clouds 21 1023 52 10000 6.69 50 14:23 08.05.2022
3825 Clouds 20 1022 68 10000 3.11 71 11:53 08.05.2022
3826 Clouds 15 1023 84 10000 1.03 0 10:27 08.05.2022
3827 Clear 12 1023 87 10000 0.51 0 09:54 08.05.2022
3828 Clear 10 1023 93 10000 0.51 0 08:37 08.05.2022
3829 Clear 8 1022 90 10000 1.03 0 06:31 08.05.2022
3830 Clear 9 1022 92 10000 1.03 0 03:23 08.05.2022
3831 Clear 11 1022 87 10000 2.06 300 01:25 08.05.2022
3832 Clear 12 1022 84 10000 1.54 310 00:20 08.05.2022
3833 Clear 12 1022 81 10000 0.51 40 23:41 07.05.2022
3834 Clear 14 1021 75 10000 0.51 0 22:46 07.05.2022
3835 Clear 14 1021 73 10000 1.54 80 21:57 07.05.2022
3836 Clear 15 1021 69 10000 1.54 80 21:32 07.05.2022
3837 Clear 18 1021 55 10000 3.09 70 20:27 07.05.2022
3838 Clear 20 1020 47 10000 4.12 50 18:59 07.05.2022
3839 Clear 21 1021 44 10000 2.57 30 17:31 07.05.2022
3840 Clear 21 1021 42 10000 2.57 10 15:18 07.05.2022
3841 Clouds 19 1022 51 10000 3.6 40 12:34 07.05.2022
3842 Clear 16 1023 74 10000 1.03 0 10:23 07.05.2022
3843 Clear 12 1023 81 10000 1.03 0 08:37 07.05.2022
3844 Fog 10 1023 81 10000 0 0 07:43 07.05.2022
3845 Fog 7 1022 93 10000 0.51 160 06:43 07.05.2022
3846 Clear 7 1022 90 10000 1.03 280 04:24 07.05.2022
3847 Clear 9 1023 89 10000 1.03 0 00:50 07.05.2022
3848 Clouds 11 1023 84 10000 1.01 330 22:55 06.05.2022
3849 Clear 13 1023 79 10000 1.03 0 22:21 06.05.2022
3850 Clouds 14 1023 79 10000 1.41 356 21:36 06.05.2022
3851 Clear 17 1023 62 10000 2.06 30 20:20 06.05.2022
3852 Clouds 17 1022 65 10000 2.06 60 19:29 06.05.2022
3853 Clouds 18 1022 64 10000 2.57 70 18:54 06.05.2022
3854 Clouds 18 1022 61 10000 3.6 70 17:38 06.05.2022
3855 Clouds 18 1023 58 10000 3.6 40 15:56 06.05.2022
3856 Clouds 18 1023 59 10000 1.54 60 15:38 06.05.2022
3857 Clouds 18 1023 61 10000 3.09 50 14:23 06.05.2022
3858 Clouds 17 1023 70 10000 2.57 360 12:53 06.05.2022
3859 Clouds 15 1023 75 10000 3.6 350 12:31 06.05.2022
3860 Clouds 13 1023 85 10000 3.09 350 11:38 06.05.2022
3861 Clouds 12 1023 89 10000 3.6 340 09:49 06.05.2022
3862 Clouds 12 1023 90 10000 3.09 340 09:19 06.05.2022
3863 Clouds 12 1022 91 10000 2.57 320 07:57 06.05.2022
3864 Clouds 11 1022 91 10000 3.6 330 06:39 06.05.2022
3865 Clouds 12 1022 91 10000 1.57 346 04:37 06.05.2022
3866 Clouds 12 1022 91 10000 0.51 0 02:43 06.05.2022
3867 Rain 13 1022 88 10000 3.09 310 23:34 05.05.2022
3868 Clouds 14 1021 84 10000 3.6 320 21:52 05.05.2022
3869 Clouds 14 1021 83 10000 4.12 310 20:53 05.05.2022
3870 Clouds 15 1020 85 10000 5.14 310 19:49 05.05.2022
3871 Clouds 16 1020 78 10000 4.12 320 16:57 05.05.2022
3872 Clouds 16 1020 77 10000 3.6 330 16:18 05.05.2022
3873 Clouds 16 1020 85 10000 1.54 10 14:43 05.05.2022
3874 Rain 15 1021 85 10000 0.51 0 13:20 05.05.2022
3875 Clouds 14 1021 84 10000 0.51 0 12:24 05.05.2022
3876 Rain 13 1020 86 10000 2.06 320 10:33 05.05.2022
3877 Rain 12 1020 85 10000 0.51 0 09:39 05.05.2022
3878 Clear 10 1019 91 10000 0.51 0 07:34 05.05.2022
3879 Clear 11 1018 90 10000 0.51 0 03:00 05.05.2022
3880 Clear 11 1018 90 10000 0.51 0 01:50 05.05.2022
3881 Clear 11 1018 88 10000 2.06 260 01:22 05.05.2022
3882 Clear 12 1018 88 10000 1.03 0 23:34 04.05.2022
3883 Clear 12 1018 87 10000 1.03 0 22:27 04.05.2022
3884 Clouds 13 1017 83 10000 3.09 350 21:49 04.05.2022
3885 Rain 13 1017 83 10000 3.09 350 21:26 04.05.2022
3886 Clouds 14 1016 80 10000 3.09 20 20:22 04.05.2022
3887 Rain 14 1016 79 10000 3.6 290 19:51 04.05.2022
3888 Clouds 17 1015 62 10000 2.57 250 18:54 04.05.2022
3889 Clouds 18 1015 63 10000 1.54 250 18:22 04.05.2022
3890 Clouds 19 1016 60 10000 2.06 200 17:38 04.05.2022
3891 Clouds 20 1015 56 10000 1.66 294 15:40 04.05.2022
3892 Rain 19 1016 58 10000 0.51 0 15:22 04.05.2022
3893 Clouds 19 1016 64 10000 2.06 20 14:21 04.05.2022
3894 Clouds 18 1017 69 10000 3.09 30 13:26 04.05.2022
3895 Clouds 17 1017 75 10000 3.6 320 12:33 04.05.2022
3896 Rain 15 1017 82 10000 0.51 0 10:40 04.05.2022
3897 Rain 14 1016 87 10000 0.51 100 09:43 04.05.2022
3898 Rain 13 1017 91 10000 0.86 220 08:46 04.05.2022
3899 Rain 10 1016 92 10000 1.03 0 06:41 04.05.2022
3900 Clear 10 1016 90 10000 1.54 230 02:58 04.05.2022
3901 Clouds 11 1016 89 10000 3.6 310 00:33 04.05.2022
3902 Rain 13 1016 83 10000 1.54 210 22:34 03.05.2022
3903 Clouds 14 1015 83 10000 0.51 0 21:46 03.05.2022
3904 Clouds 15 1015 80 10000 1.54 280 20:54 03.05.2022
3905 Clouds 17 1014 71 10000 4.63 280 19:57 03.05.2022
3906 Clouds 19 1014 63 10000 1.54 250 18:54 03.05.2022
3907 Clouds 19 1013 63 10000 2.45 47 18:21 03.05.2022
3908 Rain 19 1013 65 10000 2.56 38 16:44 03.05.2022
3909 Rain 18 1013 64 10000 2.6 22 15:38 03.05.2022
3910 Clouds 20 1015 56 10000 1.54 0 12:47 03.05.2022
3911 Clouds 19 1015 58 10000 1.54 0 12:27 03.05.2022
3912 Clouds 17 1016 69 10000 0.51 80 10:57 03.05.2022
3913 Clear 14 1015 82 10000 1.03 0 09:35 03.05.2022
3914 Clear 9 1015 90 10000 0.51 90 07:33 03.05.2022
3915 Clear 7 1014 91 10000 1.03 270 06:45 03.05.2022
3916 Clear 11 1015 87 10000 0.51 0 01:47 03.05.2022
3917 Clouds 13 1015 82 10000 0.28 236 22:44 02.05.2022
3918 Clear 13 1015 80 10000 1.03 0 21:54 02.05.2022
3919 Clouds 14 1015 84 10000 1.12 28 21:23 02.05.2022
3920 Clouds 19 1014 52 10000 3.09 30 18:46 02.05.2022
3921 Clouds 19 1014 52 10000 3.09 30 18:25 02.05.2022
3922 Clouds 19 1014 51 10000 1.03 0 17:37 02.05.2022
3923 Clouds 19 1015 50 10000 1.54 0 16:24 02.05.2022
3924 Clouds 19 1015 53 10000 3.6 20 15:37 02.05.2022
3925 Clouds 18 1015 54 10000 3.6 80 13:58 02.05.2022
3926 Clouds 18 1016 58 10000 3.09 80 12:27 02.05.2022
3927 Clouds 16 1017 65 10000 1.03 0 11:20 02.05.2022
3928 Clear 13 1017 83 10000 1.03 0 09:31 02.05.2022
3929 Clear 9 1017 89 10000 1.03 0 07:57 02.05.2022
3930 Clear 8 1017 93 10000 1.03 0 04:44 02.05.2022
3931 Clear 10 1019 89 10000 0.51 0 00:26 02.05.2022
3932 Clear 11 1019 86 10000 1.03 50 23:52 01.05.2022
3933 Clouds 11 1020 89 10000 0.55 8 22:45 01.05.2022
3934 Clouds 12 1019 87 10000 0.79 28 21:30 01.05.2022
3935 Clouds 14 1018 67 10000 2.57 350 20:23 01.05.2022
3936 Clouds 16 1018 59 10000 1.03 0 19:18 01.05.2022
3937 Clouds 16 1019 60 10000 2.06 20 18:50 01.05.2022
3938 Clouds 16 1019 59 10000 2.06 0 17:47 01.05.2022
3939 Clouds 16 1019 59 10000 1.03 0 16:24 01.05.2022
3940 Clouds 16 1020 64 10000 1.03 0 15:45 01.05.2022
3941 Clouds 15 1020 61 10000 1.03 0 14:41 01.05.2022
3942 Clouds 13 1021 76 10000 1.03 0 11:53 01.05.2022
3943 Clouds 10 1021 87 10000 1.03 0 09:33 01.05.2022
3944 Clouds 10 1021 89 8000 1.54 350 08:49 01.05.2022
3945 Clouds 9 1021 93 10000 1.03 250 05:42 01.05.2022
3946 Clouds 9 1022 91 10000 1.54 260 01:32 01.05.2022
3947 Clouds 9 1022 89 10000 3.6 320 21:59 30.04.2022
3948 Clouds 10 1022 87 10000 4.12 300 21:30 30.04.2022
3949 Clouds 10 1022 87 10000 4.12 300 21:30 30.04.2022
3950 Clouds 10 1022 87 10000 4.12 300 21:30 30.04.2022
3951 Clouds 10 1021 85 10000 4.12 330 19:48 30.04.2022
3952 Clouds 11 1022 85 10000 3.68 327 18:52 30.04.2022
3953 Clouds 11 1022 83 10000 5.14 330 17:26 30.04.2022
3954 Clouds 12 1022 82 10000 6.17 330 15:51 30.04.2022
3955 Clouds 13 1022 81 10000 4.12 340 14:58 30.04.2022
3956 Rain 12 1022 88 10000 2.06 350 13:41 30.04.2022
3957 Rain 11 1022 91 10000 4.12 320 11:39 30.04.2022
3958 Rain 11 1022 92 10000 3.6 300 10:56 30.04.2022
3959 Rain 11 1022 90 9000 2.06 290 09:54 30.04.2022
3960 Rain 11 1022 90 10000 2.57 290 07:36 30.04.2022
3961 Clear 10 1021 83 10000 1.54 290 03:58 30.04.2022
3962 Clear 11 1022 76 10000 1.54 320 23:55 29.04.2022
3963 Clear 13 1023 69 10000 1.54 280 22:37 29.04.2022
3964 Clouds 13 1023 68 10000 0.76 46 21:55 29.04.2022
3965 Clear 14 1022 60 10000 2.06 40 21:24 29.04.2022
3966 Clear 17 1022 51 10000 1.54 80 19:55 29.04.2022
3967 Clear 18 1022 45 10000 2.57 80 19:27 29.04.2022
3968 Clear 20 1023 39 10000 2.06 110 17:34 29.04.2022
3969 Clear 20 1023 39 10000 2.57 0 16:36 29.04.2022
3970 Clear 19 1025 39 10000 4.12 70 14:36 29.04.2022
3971 Clear 19 1025 40 10000 4.63 80 13:36 29.04.2022
3972 Clear 18 1025 41 10000 5.66 80 12:36 29.04.2022
3973 Clear 14 1026 66 10000 2.06 70 10:29 29.04.2022
3974 Clear 8 1026 82 10000 0.51 0 07:55 29.04.2022
3975 Clear 6 1026 89 10000 0.51 0 07:25 29.04.2022
3976 Clear 5 1026 91 10000 1.03 290 06:30 29.04.2022
3977 Clear 8 1027 83 10000 1.03 0 01:47 29.04.2022
3978 Clear 9 1027 76 10000 1.03 0 23:55 28.04.2022
3979 Clear 10 1028 77 10000 1.1 109 23:25 28.04.2022
3980 Clear 11 1027 72 10000 1.03 0 22:24 28.04.2022
3981 Clear 13 1027 65 10000 2.06 70 21:41 28.04.2022
3982 Clear 17 1026 44 10000 3.6 50 20:45 28.04.2022
3983 Clear 18 1026 39 10000 3.09 40 19:52 28.04.2022
3984 Clear 18 1026 42 10000 3.6 60 19:24 28.04.2022
3985 Clear 18 1026 40 10000 2.57 90 18:52 28.04.2022
3986 Clear 19 1026 38 10000 2.57 120 17:54 28.04.2022
3987 Clear 19 1026 37 10000 2.57 100 16:58 28.04.2022
3988 Clear 19 1026 38 10000 4.12 90 16:21 28.04.2022
3989 Clear 19 1026 39 10000 3.09 0 15:49 28.04.2022
3990 Clear 19 1027 39 10000 3.6 90 15:18 28.04.2022
3991 Clear 19 1027 41 10000 3.32 90 13:42 28.04.2022
3992 Clouds 17 1027 42 10000 6.69 80 12:30 28.04.2022
3993 Clouds 17 1027 42 10000 6.69 80 12:30 28.04.2022
3994 Clouds 17 1027 45 10000 5.14 90 11:38 28.04.2022
3995 Clear 15 1027 67 10000 3.6 70 10:27 28.04.2022
3996 Clear 13 1027 77 10000 2.06 80 09:50 28.04.2022
3997 Clear 8 1026 81 10000 0.51 0 07:43 28.04.2022
3998 Clear 4 1025 90 10000 1.03 0 06:53 28.04.2022
3999 Clear 4 1025 90 10000 1.03 290 05:53 28.04.2022
4000 Clear 4 1025 92 10000 0.51 0 04:43 28.04.2022
4001 Clear 5 1025 91 10000 1.03 270 02:45 28.04.2022
4002 Clear 8 1024 84 10000 1.03 0 23:36 27.04.2022
4003 Clear 10 1024 79 10000 1.54 100 22:25 27.04.2022
4004 Clear 11 1024 77 10000 3.09 40 21:47 27.04.2022
4005 Clear 12 1023 67 10000 2.57 80 20:47 27.04.2022
4006 Clear 13 1023 67 10000 2.57 80 20:47 27.04.2022
4007 Clear 13 1023 63 10000 3.6 90 20:29 27.04.2022
4008 Clear 15 1023 61 10000 3.6 80 19:36 27.04.2022
4009 Clear 16 1023 55 10000 3.09 90 18:45 27.04.2022
4010 Clear 16 1023 56 10000 3.09 100 18:21 27.04.2022
4011 Clouds 16 1023 61 10000 4.63 70 16:21 27.04.2022
4012 Clouds 14 1023 72 10000 2.06 90 13:29 27.04.2022
4013 Clouds 12 1023 81 10000 2.06 30 11:37 27.04.2022
4014 Clouds 11 1023 83 10000 2.06 30 11:18 27.04.2022
4015 Clouds 9 1022 91 10000 0.51 0 08:53 27.04.2022
4016 Clouds 8 1020 94 8000 1.54 90 06:45 27.04.2022
4017 Clouds 8 1019 93 10000 1.03 310 03:30 27.04.2022
4018 Clouds 8 1019 93 9000 2.06 320 01:30 27.04.2022
4019 Clouds 8 1019 92 10000 2.06 300 00:36 27.04.2022
4020 Clouds 8 1018 92 10000 1.54 340 23:25 26.04.2022
4021 Clouds 9 1020 90 10000 1.54 298 22:52 26.04.2022
4022 Rain 9 1018 89 10000 2.06 250 22:34 26.04.2022
4023 Rain 9 1018 88 10000 0.51 0 21:26 26.04.2022
4024 Clouds 9 1017 83 10000 2.06 330 20:40 26.04.2022
4025 Clouds 10 1017 79 10000 4.12 340 19:48 26.04.2022
4026 Clouds 11 1016 78 10000 3.6 310 19:26 26.04.2022
4027 Clouds 11 1016 77 10000 7.2 310 18:44 26.04.2022
4028 Rain 13 1016 62 10000 3.6 240 17:50 26.04.2022
4029 Clouds 13 1015 68 10000 5.26 284 16:26 26.04.2022
4030 Clouds 12 1014 68 10000 2.06 230 13:59 26.04.2022
4031 Clouds 13 1014 64 10000 3.6 240 13:31 26.04.2022
4032 Clouds 12 1014 83 10000 2.57 270 11:48 26.04.2022
4033 Clouds 10 1013 87 10000 2.06 270 10:31 26.04.2022
4034 Rain 9 1013 91 10000 1.03 0 08:47 26.04.2022
4035 Rain 9 1012 93 8000 0.51 0 06:57 26.04.2022
4036 Rain 10 1012 93 10000 1.03 0 04:23 26.04.2022
4037 Rain 10 1012 93 10000 1.03 0 04:23 26.04.2022
4038 Rain 10 1012 90 10000 1.03 0 01:22 26.04.2022
4039 Rain 10 1012 92 10000 1.03 0 00:25 26.04.2022
4040 Clear 11 1012 87 10000 1.03 0 22:21 25.04.2022
4041 Clear 11 1012 87 10000 1.03 0 21:39 25.04.2022
4042 Rain 12 1011 86 10000 1.54 230 20:35 25.04.2022
4043 Rain 13 1011 80 10000 1.54 120 18:54 25.04.2022
4044 Clouds 14 1010 73 10000 2.57 130 17:43 25.04.2022
4045 Clouds 13 1010 84 10000 2.57 150 16:52 25.04.2022
4046 Clouds 13 1010 82 10000 2.06 190 15:24 25.04.2022
4047 Rain 14 1010 75 10000 2.06 310 14:38 25.04.2022
4048 Rain 15 1009 63 10000 2.57 70 13:32 25.04.2022
4049 Clouds 13 1009 74 10000 1.03 0 11:37 25.04.2022
4050 Clouds 12 1008 78 10000 1.03 0 10:23 25.04.2022
4051 Clouds 9 1008 91 10000 0.51 0 08:39 25.04.2022
4052 Clouds 9 1009 90 10000 0.62 314 06:39 25.04.2022
4053 Clouds 9 1006 90 10000 4.12 280 03:47 25.04.2022
4054 Clouds 9 1005 92 10000 2.57 250 00:57 25.04.2022
4055 Clouds 10 1005 93 10000 2.57 250 23:51 24.04.2022
4056 Clouds 10 1004 91 10000 1.54 230 22:43 24.04.2022
4057 Clouds 10 1004 93 10000 1.54 0 22:20 24.04.2022
4058 Clouds 10 1004 92 10000 2.06 250 21:26 24.04.2022
4059 Clouds 9 1003 92 10000 3.09 250 20:49 24.04.2022
4060 Clouds 10 1003 92 10000 4.12 250 20:29 24.04.2022
4061 Clouds 9 1003 91 10000 6.17 280 19:46 24.04.2022
4062 Clouds 9 1002 92 3200 4.12 240 18:20 24.04.2022
4063 Clouds 10 1002 92 10000 2.06 0 17:28 24.04.2022
4064 Clouds 10 1001 91 10000 2.57 220 16:59 24.04.2022
4065 Clouds 10 1001 89 10000 2.57 230 16:32 24.04.2022
4066 Clouds 10 1001 90 10000 3.6 230 15:54 24.04.2022
4067 Rain 10 1001 91 10000 3.09 240 15:29 24.04.2022
4068 Rain 10 1001 92 10000 2.06 0 13:57 24.04.2022
4069 Rain 9 1000 92 10000 2.06 210 13:25 24.04.2022
4070 Rain 9 1000 90 10000 2.57 200 12:30 24.04.2022
4071 Rain 8 1000 92 10000 2.57 190 11:28 24.04.2022
4072 Rain 8 999 93 10000 3.09 250 10:25 24.04.2022
4073 Rain 8 999 91 9000 5.66 260 09:23 24.04.2022
4074 Rain 9 997 93 5000 0.51 0 06:34 24.04.2022
4075 Clear 10 996 81 10000 2.06 40 03:43 24.04.2022
4076 Clear 10 997 80 10000 3.09 50 01:38 24.04.2022
4077 Clear 10 997 82 10000 4.63 80 00:24 24.04.2022
4078 Clear 11 998 78 10000 3.6 70 23:44 23.04.2022
4079 Clear 11 998 83 10000 3.09 60 23:21 23.04.2022
4080 Clouds 11 1000 80 10000 1.54 40 21:51 23.04.2022
4081 Clouds 12 1000 81 10000 1.54 40 21:33 23.04.2022
4082 Clear 13 1000 80 10000 2.57 90 20:45 23.04.2022
4083 Clear 13 1000 74 10000 2.57 90 20:45 23.04.2022
4084 Clouds 14 1000 65 10000 3.6 90 19:47 23.04.2022
4085 Clouds 15 1000 64 10000 4.63 80 19:19 23.04.2022
4086 Clouds 15 1000 65 10000 4.63 80 18:52 23.04.2022
4087 Clouds 15 1001 67 10000 5.14 80 17:51 23.04.2022
4088 Clouds 15 1001 67 10000 4.12 80 17:26 23.04.2022
4089 Clouds 15 1002 64 10000 4.63 100 16:41 23.04.2022
4090 Clouds 15 1002 65 10000 4.63 100 15:20 23.04.2022
4091 Clouds 13 1003 71 10000 4.63 80 12:44 23.04.2022
4092 Clouds 12 1003 76 10000 5.66 80 10:44 23.04.2022
4093 Clouds 11 1003 77 10000 5.66 80 09:33 23.04.2022
4094 Clouds 8 1004 89 10000 1.78 85 06:32 23.04.2022
4095 Clear 9 1002 84 10000 3.6 80 03:54 23.04.2022
4096 Clear 11 1003 75 10000 3.6 80 01:20 23.04.2022
4097 Clear 13 1002 68 10000 3.6 70 23:30 22.04.2022
4098 Clear 14 1001 60 10000 3.09 70 22:20 22.04.2022
4099 Clear 14 1001 65 10000 4.63 60 21:43 22.04.2022
4100 Clear 16 1001 51 10000 4.12 50 20:48 22.04.2022
4101 Clear 17 1001 49 10000 4.12 30 20:27 22.04.2022
4102 Clear 18 1000 42 10000 3.6 50 19:20 22.04.2022
4103 Clear 19 1000 39 10000 4.12 60 18:42 22.04.2022
4104 Clear 19 1000 42 10000 4.63 50 17:41 22.04.2022
4105 Clear 18 1000 45 10000 3.6 60 16:46 22.04.2022
4106 Clouds 18 1000 47 10000 4.12 80 15:44 22.04.2022
4107 Clouds 18 1000 48 10000 4.12 30 15:18 22.04.2022
4108 Clouds 17 1001 53 10000 4.12 10 13:54 22.04.2022
4109 Clouds 16 1001 59 10000 3.6 10 12:58 22.04.2022
4110 Clouds 15 1002 64 10000 4.12 20 11:52 22.04.2022
4111 Clouds 14 1002 65 10000 2.57 20 11:22 22.04.2022
4112 Clouds 13 1002 68 10000 3.6 20 10:50 22.04.2022
4113 Clear 12 1003 71 10000 2.66 50 10:30 22.04.2022
4114 Clouds 10 1003 76 10000 2.57 40 09:53 22.04.2022
4115 Clear 8 1003 83 10000 3.09 40 08:51 22.04.2022
4116 Clear 5 1003 89 10000 2.57 20 07:33 22.04.2022
4117 Clear 7 1004 82 10000 3.09 40 03:47 22.04.2022
4118 Clear 8 1006 70 10000 3.6 50 00:52 22.04.2022
4119 Clear 10 1006 72 10000 4.63 70 23:26 21.04.2022
4120 Clear 11 1007 66 10000 4.63 60 22:29 21.04.2022
4121 Clear 13 1007 50 10000 5.66 60 20:46 21.04.2022
4122 Clear 13 1006 55 10000 6.69 70 20:26 21.04.2022
4123 Clear 15 1006 45 10000 6.69 60 18:47 21.04.2022
4124 Clear 16 1006 45 10000 5.14 50 18:19 21.04.2022
4125 Clear 16 1006 44 10000 5.66 50 16:49 21.04.2022
4126 Clear 16 1007 47 10000 3.6 60 15:23 21.04.2022
4127 Clear 17 1007 45 10000 3.6 70 14:50 21.04.2022
4128 Clouds 16 1008 47 10000 2.57 0 13:44 21.04.2022
4129 Clouds 15 1008 48 10000 3.09 20 13:18 21.04.2022
4130 Clear 13 1009 55 10000 2.57 60 11:25 21.04.2022
4131 Clear 8 1010 79 10000 1.03 0 08:59 21.04.2022
4132 Clear 5 1010 87 10000 1.03 150 07:55 21.04.2022
4133 Clear 4 1010 86 10000 1.03 0 06:21 21.04.2022
4134 Clear 5 1010 78 10000 1.54 310 03:35 21.04.2022
4135 Clear 6 1011 77 10000 1.03 0 02:48 21.04.2022
4136 Clear 7 1011 72 10000 2.57 50 01:50 21.04.2022
4137 Clear 7 1012 63 10000 1.03 70 23:53 20.04.2022
4138 Clear 8 1011 60 10000 0.51 0 23:23 20.04.2022
4139 Clear 8 1012 57 10000 0.51 0 22:52 20.04.2022
4140 Clear 8 1013 61 10000 1.72 56 22:32 20.04.2022
4141 Clear 10 1011 51 10000 3.09 40 21:35 20.04.2022
4142 Clear 12 1011 41 10000 4.12 50 20:43 20.04.2022
4143 Clear 14 1011 35 10000 4.63 50 19:55 20.04.2022
4144 Clear 15 1011 36 10000 4.63 50 19:29 20.04.2022
4145 Clear 15 1011 35 10000 4.63 50 18:33 20.04.2022
4146 Clear 16 1011 34 10000 4.12 40 16:59 20.04.2022
4147 Clear 16 1011 33 10000 4.12 40 16:39 20.04.2022
4148 Clear 15 1012 38 10000 4.63 60 14:52 20.04.2022
4149 Clouds 12 1013 46 10000 5.14 90 11:57 20.04.2022
4150 Clouds 12 1013 47 10000 5.14 90 11:33 20.04.2022
4151 Clear 10 1013 56 10000 5.66 70 10:30 20.04.2022
4152 Clear 8 1013 63 10000 6.17 80 09:27 20.04.2022
4153 Clear 6 1013 73 10000 2.57 70 08:25 20.04.2022
4154 Clear 6 1013 73 10000 2.57 70 08:25 20.04.2022
4155 Clear 4 1013 77 10000 1.54 70 07:44 20.04.2022
4156 Clear 4 1013 77 10000 1.54 100 05:19 20.04.2022
4157 Clear 8 1013 50 10000 4.12 70 01:20 20.04.2022
4158 Clear 8 1013 50 10000 4.12 70 01:20 20.04.2022
4159 Clear 9 1013 48 10000 3.09 60 00:21 20.04.2022
4160 Clear 12 1012 50 10000 5.14 60 22:44 19.04.2022
4161 Clear 12 1012 47 10000 3.09 50 22:22 19.04.2022
4162 Clear 12 1011 49 10000 3.6 70 21:38 19.04.2022
4163 Clear 14 1011 41 10000 2.57 40 20:57 19.04.2022
4164 Clear 15 1010 41 10000 3.6 40 20:36 19.04.2022
4165 Clear 16 1010 37 10000 3.6 360 19:32 19.04.2022
4166 Clear 18 1010 36 10000 3.6 350 18:26 19.04.2022
4167 Clear 18 1011 34 10000 5.14 350 16:47 19.04.2022
4168 Clear 18 1011 35 10000 4.63 350 16:25 19.04.2022
4169 Clear 18 1011 34 10000 3.6 360 15:57 19.04.2022
4170 Clear 17 1011 36 10000 4.12 360 14:40 19.04.2022
4171 Clear 17 1012 39 10000 3.6 20 12:52 19.04.2022
4172 Clear 16 1012 40 10000 2.57 20 12:29 19.04.2022
4173 Clear 15 1013 49 10000 1.54 0 11:27 19.04.2022
4174 Clear 9 1013 73 10000 0.51 0 09:31 19.04.2022
4175 Clear 3 1013 80 10000 0.51 0 07:43 19.04.2022
4176 Clear 4 1013 83 10000 1.03 290 04:24 19.04.2022
4177 Clear 6 1015 78 10000 2.06 270 01:24 19.04.2022
4178 Clear 7 1015 71 10000 1.03 0 23:44 18.04.2022
4179 Clear 9 1016 68 10000 0.89 139 22:46 18.04.2022
4180 Clear 11 1015 57 10000 1.03 80 21:25 18.04.2022
4181 Clear 14 1015 38 10000 2.06 50 20:39 18.04.2022
4182 Clear 16 1015 33 10000 2.57 50 19:59 18.04.2022
4183 Clear 16 1015 37 10000 3.09 80 19:32 18.04.2022
4184 Clear 17 1015 34 10000 2.57 80 18:45 18.04.2022
4185 Clear 17 1015 32 10000 1.54 70 17:49 18.04.2022
4186 Clear 17 1015 33 10000 1.54 0 17:19 18.04.2022
4187 Clear 17 1015 34 10000 3.09 70 16:39 18.04.2022
4188 Clear 16 1016 35 10000 3.6 120 15:32 18.04.2022
4189 Clear 16 1017 36 10000 3.6 90 14:27 18.04.2022
4190 Clear 15 1017 38 10000 4.12 70 13:24 18.04.2022
4191 Clear 14 1018 40 10000 4.63 70 12:27 18.04.2022
4192 Clear 13 1018 46 10000 2.57 60 10:58 18.04.2022
4193 Clear 10 1018 58 10000 2.06 60 09:53 18.04.2022
4194 Clear 8 1018 62 10000 1.03 0 09:27 18.04.2022
4195 Clear 1 1019 83 10000 0.51 0 07:25 18.04.2022
4196 Clear 3 1020 78 10000 2.06 300 03:51 18.04.2022
4197 Clear 7 1021 67 10000 0.51 0 23:30 17.04.2022
4198 Clear 8 1022 60 10000 2.06 90 22:37 17.04.2022
4199 Clear 9 1022 54 10000 4.63 60 21:34 17.04.2022
4200 Clear 10 1021 46 10000 3.6 70 20:53 17.04.2022
4201 Clear 12 1021 40 10000 5.66 70 20:25 17.04.2022
4202 Clear 14 1021 35 10000 5.14 70 19:20 17.04.2022
4203 Clear 16 1022 32 10000 4.63 90 17:34 17.04.2022
4204 Clear 15 1024 34 10000 3.6 80 15:37 17.04.2022
4205 Clear 15 1024 35 10000 4.12 90 14:53 17.04.2022
4206 Clear 15 1025 36 10000 5.66 90 13:41 17.04.2022
4207 Clear 14 1025 37 10000 4.81 82 12:56 17.04.2022
4208 Clear 12 1027 42 10000 5.66 90 11:22 17.04.2022
4209 Clear 11 1027 45 10000 5.14 80 10:38 17.04.2022
4210 Clear 10 1027 52 10000 4.12 90 10:19 17.04.2022
4211 Clear 7 1027 62 10000 3.6 90 09:23 17.04.2022
4212 Clear 6 1028 62 10000 3.09 80 08:41 17.04.2022
4213 Clear 2 1028 78 10000 2.06 60 06:52 17.04.2022
4214 Clear 5 1029 71 10000 3.6 80 02:56 17.04.2022
4215 Clear 7 1029 61 10000 4.12 80 00:53 17.04.2022
4216 Clear 6 1029 66 10000 4.12 80 23:48 16.04.2022
4217 Clear 8 1029 58 10000 3.6 50 21:55 16.04.2022
4218 Clear 10 1028 51 10000 4.12 50 21:29 16.04.2022
4219 Clouds 13 1028 35 10000 4.12 60 19:54 16.04.2022
4220 Clouds 14 1028 34 10000 5.66 40 18:54 16.04.2022
4221 Clouds 14 1027 41 10000 5.66 60 17:38 16.04.2022
4222 Clouds 14 1028 46 10000 4.12 70 16:31 16.04.2022
4223 Clouds 14 1028 50 10000 5.66 60 15:26 16.04.2022
4224 Clouds 13 1028 54 10000 5.66 50 14:47 16.04.2022
4225 Clouds 13 1029 62 10000 4.12 50 13:56 16.04.2022
4226 Clouds 12 1029 61 10000 4.63 30 13:26 16.04.2022
4227 Clouds 11 1028 73 10000 5.66 50 12:18 16.04.2022
4228 Clouds 10 1028 77 10000 5.14 50 10:42 16.04.2022
4229 Clouds 9 1027 79 10000 2.06 30 09:41 16.04.2022
4230 Clouds 8 1027 84 10000 2.06 50 08:56 16.04.2022
4231 Clear 6 1027 85 10000 2.57 30 07:32 16.04.2022
4232 Clouds 6 1028 87 10000 2.04 54 06:46 16.04.2022
4233 Clear 10 1026 75 10000 4.63 40 01:59 16.04.2022
4234 Clear 11 1026 73 10000 4.63 30 00:21 16.04.2022
4235 Clear 13 1025 63 10000 5.14 30 22:54 15.04.2022
4236 Clear 14 1024 60 10000 4.12 330 22:31 15.04.2022
4237 Clear 15 1024 51 10000 3.6 330 21:47 15.04.2022
4238 Clear 16 1024 47 10000 3.6 310 20:56 15.04.2022
4239 Clear 18 1023 42 10000 4.12 320 19:59 15.04.2022
4240 Clear 18 1023 46 10000 5.14 320 19:38 15.04.2022
4241 Clear 19 1023 42 10000 4.63 320 18:46 15.04.2022
4242 Clear 19 1023 45 10000 4.12 330 18:24 15.04.2022
4243 Clear 20 1023 46 10000 5.66 330 17:32 15.04.2022
4244 Clear 20 1023 45 10000 4.12 290 16:26 15.04.2022
4245 Clear 20 1023 45 10000 4.63 320 15:59 15.04.2022
4246 Clouds 20 1024 49 10000 5.66 340 14:41 15.04.2022
4247 Clouds 19 1024 56 10000 3.6 0 13:34 15.04.2022
4248 Clouds 19 1024 59 10000 3.6 0 12:40 15.04.2022
4249 Clouds 18 1024 63 10000 2.57 0 11:55 15.04.2022
4250 Clouds 17 1024 69 10000 1.03 0 10:58 15.04.2022
4251 Clouds 17 1024 71 10000 1.03 0 10:40 15.04.2022
4252 Clear 15 1024 80 10000 1.03 0 09:41 15.04.2022
4253 Clear 13 1024 84 10000 0.51 140 09:19 15.04.2022
4254 Clear 9 1023 91 10000 0.51 0 07:28 15.04.2022
4255 Clear 9 1023 90 10000 1.03 0 06:28 15.04.2022
4256 Clear 12 1022 84 10000 2.06 290 02:39 15.04.2022
4257 Clouds 15 1022 70 10000 2.06 340 23:31 14.04.2022
4258 Clouds 16 1022 65 10000 2.57 350 22:49 14.04.2022
4259 Clouds 16 1022 66 10000 5.14 350 22:29 14.04.2022
4260 Clouds 16 1021 67 10000 4.12 330 21:59 14.04.2022
4261 Clouds 17 1021 66 10000 7.2 330 20:43 14.04.2022
4262 Clouds 20 1019 59 10000 4.63 310 19:23 14.04.2022
4263 Clouds 20 1019 59 10000 4.63 330 18:22 14.04.2022
4264 Clouds 20 1019 55 10000 4.63 330 17:38 14.04.2022
4265 Clouds 21 1019 56 10000 4.63 340 16:46 14.04.2022
4266 Clouds 21 1019 56 10000 4.12 360 15:24 14.04.2022
4267 Clouds 20 1019 59 10000 3.09 330 13:47 14.04.2022
4268 Clouds 20 1019 65 10000 1.03 0 12:57 14.04.2022
4269 Clouds 19 1019 69 10000 1.03 0 12:31 14.04.2022
4270 Clear 18 1019 72 10000 2.06 0 11:29 14.04.2022
4271 Clear 16 1019 77 10000 1.03 0 10:53 14.04.2022
4272 Clear 16 1019 79 10000 1.54 0 10:27 14.04.2022
4273 Clear 13 1019 86 10000 1.03 0 09:25 14.04.2022
4274 Clear 9 1018 87 10000 0.51 150 07:33 14.04.2022
4275 Clear 9 1017 83 10000 1.03 0 04:28 14.04.2022
4276 Clouds 13 1017 78 10000 0.26 47 23:29 13.04.2022
4277 Clouds 15 1016 72 10000 0.73 16 22:24 13.04.2022
4278 Clouds 16 1016 68 10000 0.73 16 21:42 13.04.2022
4279 Clear 21 1015 37 10000 4.63 340 20:24 13.04.2022
4280 Clear 22 1015 35 10000 4.63 330 19:39 13.04.2022
4281 Clear 23 1015 37 10000 5.14 340 18:36 13.04.2022
4282 Clear 24 1014 35 10000 4.12 10 17:24 13.04.2022
4283 Clear 24 1014 33 10000 3.6 360 16:41 13.04.2022
4284 Clear 24 1015 38 10000 3.09 360 15:43 13.04.2022
4285 Clear 23 1015 39 10000 3.6 350 14:53 13.04.2022
4286 Clear 23 1015 41 10000 3.09 360 14:30 13.04.2022
4287 Clear 22 1015 42 10000 2.06 350 13:36 13.04.2022
4288 Clear 21 1016 46 10000 1.03 0 12:38 13.04.2022
4289 Clear 19 1016 57 10000 1.03 0 11:24 13.04.2022
4290 Clear 15 1015 72 10000 1.03 0 09:45 13.04.2022
4291 Clear 12 1015 76 10000 0.51 0 08:43 13.04.2022
4292 Clear 9 1014 82 10000 0.51 0 07:23 13.04.2022
4293 Clear 8 1014 81 10000 1.54 290 06:46 13.04.2022
4294 Clear 9 1014 80 10000 0.51 0 06:18 13.04.2022
4295 Clear 12 1013 76 10000 0.51 0 00:28 13.04.2022
4296 Clear 12 1013 74 10000 1.03 70 23:55 12.04.2022
4297 Clear 15 1013 63 10000 1.54 90 22:31 12.04.2022
4298 Clear 14 1013 68 10000 2.57 100 21:42 12.04.2022
4299 Clear 16 1012 58 10000 2.57 80 20:44 12.04.2022
4300 Clear 19 1012 52 10000 3.6 80 19:54 12.04.2022
4301 Clear 19 1012 52 10000 3.6 80 19:54 12.04.2022
4302 Clear 20 1012 45 10000 4.12 80 19:35 12.04.2022
4303 Clear 21 1012 40 10000 4.63 80 18:52 12.04.2022
4304 Clear 22 1012 36 10000 4.12 80 17:37 12.04.2022
4305 Clear 22 1012 34 10000 4.12 70 16:34 12.04.2022
4306 Clear 22 1012 33 10000 3.09 70 15:33 12.04.2022
4307 Clear 22 1013 36 10000 2.06 50 14:33 12.04.2022
4308 Clear 21 1013 39 10000 2.06 0 13:45 12.04.2022
4309 Clear 19 1013 42 10000 1.03 0 13:23 12.04.2022
4310 Clouds 18 1013 49 10000 2.17 135 11:49 12.04.2022
4311 Clear 16 1013 53 10000 1.03 0 11:28 12.04.2022
4312 Clear 10 1014 73 10000 1.03 0 09:32 12.04.2022
4313 Clear 7 1014 83 10000 0 0 08:32 12.04.2022
4314 Clear 5 1014 86 10000 0 0 06:33 12.04.2022
4315 Clear 5 1014 85 10000 1.03 260 05:38 12.04.2022
4316 Clear 7 1014 76 10000 0.51 0 01:48 12.04.2022
4317 Clear 9 1015 66 10000 2.57 90 23:20 11.04.2022
4318 Clear 10 1015 61 10000 2.57 90 21:51 11.04.2022
4319 Clear 11 1014 62 10000 2.57 90 21:18 11.04.2022
4320 Clear 13 1014 50 10000 3.6 70 20:30 11.04.2022
4321 Clear 14 1014 47 10000 4.63 60 19:58 11.04.2022
4322 Clear 15 1014 42 10000 4.63 60 19:26 11.04.2022
4323 Clear 16 1014 39 10000 4.63 60 18:53 11.04.2022
4324 Clear 17 1014 37 10000 2.57 70 17:58 11.04.2022
4325 Clear 17 1014 36 10000 2.57 70 17:33 11.04.2022
4326 Clear 16 1015 37 10000 2.06 50 16:26 11.04.2022
4327 Clear 15 1016 39 10000 4.12 70 14:42 11.04.2022
4328 Clear 14 1017 42 10000 3.09 110 13:34 11.04.2022
4329 Clear 13 1017 45 10000 4.12 70 12:38 11.04.2022
4330 Clear 13 1018 47 10000 2.57 90 12:19 11.04.2022
4331 Clouds 10 1019 63 10000 2.7 125 10:36 11.04.2022
4332 Clear 8 1018 73 10000 1.54 70 09:41 11.04.2022
4333 Clear 1 1018 87 10000 1.03 250 07:54 11.04.2022
4334 Clear 0 1020 91 10000 0.51 0 04:18 11.04.2022
4335 Clear 2 1021 88 10000 0.51 0 23:27 10.04.2022
4336 Clear 3 1021 84 10000 0.51 0 22:26 10.04.2022
4337 Clear 4 1021 81 10000 1.03 60 21:43 10.04.2022
4338 Clear 6 1020 78 10000 2.06 40 20:50 10.04.2022
4339 Clear 6 1020 77 10000 2.06 40 20:50 10.04.2022
4340 Clouds 7 1020 71 10000 2.57 30 19:54 10.04.2022
4341 Clouds 8 1020 69 10000 2.06 70 19:33 10.04.2022
4342 Clouds 8 1020 70 10000 2.06 40 18:46 10.04.2022
4343 Clouds 8 1020 67 10000 1.54 110 18:24 10.04.2022
4344 Clouds 9 1020 62 10000 1.54 130 17:42 10.04.2022
4345 Clouds 9 1021 64 10000 2.06 140 16:51 10.04.2022
4346 Clouds 8 1021 65 10000 2.57 170 15:38 10.04.2022
4347 Clouds 9 1021 68 10000 3.09 230 14:40 10.04.2022
4348 Clouds 8 1021 65 10000 3.6 310 12:58 10.04.2022
4349 Clouds 8 1021 62 10000 3.6 320 12:26 10.04.2022
4350 Clouds 8 1021 67 10000 2.57 250 11:35 10.04.2022
4351 Clouds 7 1021 70 10000 2.06 230 10:58 10.04.2022
4352 Clouds 6 1021 76 10000 2.06 240 10:23 10.04.2022
4353 Clouds 5 1020 82 10000 2.06 240 09:41 10.04.2022
4354 Clouds 3 1020 89 10000 2.06 240 08:26 10.04.2022
4355 Clouds 2 1019 87 10000 2.06 230 07:53 10.04.2022
4356 Clear 1 1019 90 10000 1.54 250 06:48 10.04.2022
4357 Clear 2 1018 89 10000 2.06 250 03:36 10.04.2022
4358 Clear 2 1018 89 10000 2.06 250 03:36 10.04.2022
4359 Clear 3 1018 86 10000 2.06 240 01:30 10.04.2022
4360 Clouds 4 1017 82 10000 2.06 230 23:53 09.04.2022
4361 Clouds 4 1016 79 10000 3.6 260 22:52 09.04.2022
4362 Clouds 5 1015 65 10000 4.12 240 21:51 09.04.2022
4363 Clouds 6 1015 60 10000 3.6 250 20:58 09.04.2022
4364 Clouds 7 1014 52 10000 4.63 280 20:26 09.04.2022
4365 Clouds 8 1014 53 10000 5.14 260 19:49 09.04.2022
4366 Clouds 8 1014 50 10000 5.66 270 19:30 09.04.2022
4367 Clouds 8 1013 54 10000 5.14 260 18:23 09.04.2022
4368 Clear 9 1013 51 10000 5.14 250 17:43 09.04.2022
4369 Clear 8 1013 54 10000 4.12 250 16:55 09.04.2022
4370 Clouds 9 1013 56 10000 4.12 260 16:29 09.04.2022
4371 Clouds 9 1015 61 10000 5.03 288 15:48 09.04.2022
4372 Clouds 9 1013 56 10000 5.66 270 15:25 09.04.2022
4373 Clouds 8 1013 61 10000 6.69 280 14:25 09.04.2022
4374 Clouds 7 1013 66 10000 7.72 280 13:26 09.04.2022
4375 Clouds 7 1013 73 10000 6.17 280 12:53 09.04.2022
4376 Clouds 5 1013 83 10000 5.66 270 11:44 09.04.2022
4377 Clouds 4 1013 85 10000 5.66 270 10:41 09.04.2022
4378 Clouds 4 1012 84 10000 4.63 250 10:18 09.04.2022
4379 Clouds 3 1011 88 10000 4.12 250 09:22 09.04.2022
4380 Clouds 2 1009 90 10000 4.63 270 07:49 09.04.2022
4381 Snow 1 1003 92 10000 6.69 290 03:57 09.04.2022
4382 Rain 5 993 93 10000 3.09 320 00:33 09.04.2022
4383 Rain 8 992 93 10000 8.75 320 23:22 08.04.2022
4384 Rain 7 993 100 10000 2.06 100 21:43 08.04.2022
4385 Clouds 6 995 100 10000 2.57 90 20:43 08.04.2022
4386 Clouds 7 996 93 10000 3.09 290 19:46 08.04.2022
4387 Rain 11 994 87 10000 7.72 230 18:42 08.04.2022
4388 Rain 11 994 84 10000 8.23 230 18:20 08.04.2022
4389 Rain 9 994 92 10000 4.12 200 17:28 08.04.2022
4390 Rain 7 995 94 6000 4.63 150 16:55 08.04.2022
4391 Rain 7 996 94 4000 1.54 140 16:27 08.04.2022
4392 Rain 7 996 93 6000 1.54 60 15:33 08.04.2022
4393 Rain 7 997 93 9000 2.06 20 14:52 08.04.2022
4394 Drizzle 7 997 91 8000 2.57 30 14:19 08.04.2022
4395 Rain 7 999 92 10000 2.06 80 13:31 08.04.2022
4396 Clouds 7 999 90 10000 1.54 80 12:49 08.04.2022
4397 Clouds 7 1002 89 10000 3.6 180 11:35 08.04.2022
4398 Rain 7 1003 85 10000 2.06 220 09:59 08.04.2022
4399 Rain 8 1003 77 10000 4.63 230 09:19 08.04.2022
4400 Rain 8 1003 69 10000 1.54 180 07:44 08.04.2022
4401 Clouds 8 1003 66 10000 4.63 260 06:45 08.04.2022
4402 Clouds 9 1002 67 10000 7.72 270 03:35 08.04.2022
4403 Clouds 10 999 72 10000 10.29 270 00:31 08.04.2022
4404 Clouds 10 999 74 10000 7.72 260 23:52 07.04.2022
4405 Clouds 11 998 77 10000 5.14 240 22:55 07.04.2022
4406 Clouds 11 997 80 10000 6.17 230 22:36 07.04.2022
4407 Clouds 11 997 81 10000 6.17 230 22:18 07.04.2022
4408 Clouds 11 996 84 10000 6.69 240 21:30 07.04.2022
4409 Rain 11 996 83 10000 7.72 240 20:55 07.04.2022
4410 Rain 11 995 86 10000 7.2 250 20:26 07.04.2022
4411 Rain 15 992 58 10000 12.86 230 17:45 07.04.2022
4412 Clouds 15 992 54 10000 12.35 230 17:23 07.04.2022
4413 Clouds 14 994 66 10000 11.55 230 16:42 07.04.2022
4414 Clouds 14 994 64 10000 8.23 220 15:56 07.04.2022
4415 Clouds 14 994 62 10000 8.75 220 13:59 07.04.2022
4416 Clouds 14 994 62 10000 8.75 220 13:41 07.04.2022
4417 Clouds 13 996 69 10000 8.23 220 12:28 07.04.2022
4418 Clouds 12 997 71 10000 5.14 200 10:56 07.04.2022
4419 Clouds 11 998 72 10000 4.63 200 09:34 07.04.2022
4420 Clouds 10 999 79 10000 4.12 200 08:27 07.04.2022
4421 Clouds 10 1000 81 10000 3.6 210 06:18 07.04.2022
4422 Clouds 10 1002 87 10000 3.6 230 02:40 07.04.2022
4423 Clouds 11 1002 83 10000 3.09 200 01:27 07.04.2022
4424 Clear 11 1003 81 10000 2.57 200 23:53 06.04.2022
4425 Clouds 11 1003 79 10000 2.06 210 22:45 06.04.2022
4426 Rain 12 1004 73 10000 2.57 220 22:24 06.04.2022
4427 Clouds 12 1003 71 10000 4.63 260 21:18 06.04.2022
4428 Clouds 13 1003 71 10000 3.09 220 20:27 06.04.2022
4429 Clouds 14 1003 62 10000 4.63 230 19:53 06.04.2022
4430 Clouds 15 1003 60 10000 5.14 250 18:50 06.04.2022
4431 Clouds 16 1004 56 10000 6.69 240 17:52 06.04.2022
4432 Clear 16 1004 54 10000 8.23 260 17:28 06.04.2022
4433 Clouds 16 1004 51 10000 6.17 240 16:35 06.04.2022
4434 Clouds 16 1005 49 10000 5.66 250 15:47 06.04.2022
4435 Clouds 15 1006 56 10000 4.63 240 14:23 06.04.2022
4436 Clouds 14 1007 65 10000 6.17 260 12:58 06.04.2022
4437 Clouds 13 1008 74 10000 4.63 230 11:55 06.04.2022
4438 Clouds 12 1008 80 10000 4.12 220 10:45 06.04.2022
4439 Clouds 11 1008 82 10000 2.57 220 10:20 06.04.2022
4440 Clouds 11 1008 83 10000 3.09 220 09:40 06.04.2022
4441 Clouds 10 1008 88 10000 2.06 210 08:32 06.04.2022
4442 Clouds 9 1008 87 10000 2.57 220 07:47 06.04.2022
4443 Clouds 9 1010 85 10000 2.06 210 03:37 06.04.2022
4444 Clouds 9 1011 86 10000 2.06 210 23:51 05.04.2022
4445 Clouds 9 1011 86 10000 5.14 240 22:30 05.04.2022
4446 Clouds 9 1010 87 10000 5.66 240 21:19 05.04.2022
4447 Clouds 9 1010 87 10000 4.63 230 20:25 05.04.2022
4448 Clouds 9 1012 92 10000 3.41 233 19:41 05.04.2022
4449 Clouds 9 1010 84 10000 5.66 230 17:55 05.04.2022
4450 Clouds 9 1010 85 10000 4.63 220 16:54 05.04.2022
4451 Clouds 9 1012 91 10000 4.55 241 15:53 05.04.2022
4452 Clouds 9 1012 92 10000 4.55 240 15:34 05.04.2022
4453 Rain 9 1011 85 10000 5.66 230 14:27 05.04.2022
4454 Rain 8 1011 88 10000 6.69 240 13:21 05.04.2022
4455 Clouds 7 1011 85 10000 5.66 230 11:51 05.04.2022
4456 Clouds 7 1011 84 10000 6.69 240 11:32 05.04.2022
4457 Rain 5 1010 86 10000 4.63 230 09:55 05.04.2022
4458 Rain 5 1010 85 10000 5.14 230 08:52 05.04.2022
4459 Rain 4 1010 82 10000 5.66 240 06:58 05.04.2022
4460 Clouds 6 1012 69 10000 5.66 230 01:55 05.04.2022
4461 Clouds 6 1012 63 10000 5.66 230 22:42 04.04.2022
4462 Clouds 6 1013 60 10000 5.14 230 22:24 04.04.2022
4463 Clouds 6 1012 60 10000 7.2 240 21:21 04.04.2022
4464 Clouds 6 1012 57 10000 6.69 240 20:49 04.04.2022
4465 Rain 7 1012 53 10000 5.66 230 19:58 04.04.2022
4466 Rain 7 1012 55 10000 4.12 230 19:26 04.04.2022
4467 Clouds 8 1012 54 10000 6.69 240 18:33 04.04.2022
4468 Clouds 8 1013 49 10000 5.66 220 16:37 04.04.2022
4469 Clouds 9 1014 48 10000 6.17 220 15:47 04.04.2022
4470 Clouds 8 1014 49 10000 6.17 230 15:29 04.04.2022
4471 Clouds 8 1015 50 10000 6.17 230 14:46 04.04.2022
4472 Clouds 7 1016 50 10000 5.66 200 13:33 04.04.2022
4473 Clouds 6 1017 49 10000 4.12 200 12:23 04.04.2022
4474 Clouds 5 1018 58 10000 3.6 230 11:29 04.04.2022
4475 Clear 0 1019 83 10000 1.03 0 09:20 04.04.2022
4476 Clear -3 1019 91 10000 0.51 130 05:27 04.04.2022
4477 Clear -3 1020 90 10000 1.03 260 02:41 04.04.2022
4478 Clouds 0 1021 74 10000 1.03 0 22:47 03.04.2022
4479 Clouds -1 1020 80 10000 1.54 250 21:58 03.04.2022
4480 Clouds 0 1020 74 10000 1.54 240 21:25 03.04.2022
4481 Clouds 2 1020 65 10000 3.6 280 19:52 03.04.2022
4482 Clouds 4 1019 59 10000 2.57 280 18:37 03.04.2022
4483 Clouds 4 1019 59 10000 1.54 300 17:50 03.04.2022
4484 Clouds 4 1019 62 10000 2.06 300 17:32 03.04.2022
4485 Clouds 4 1019 64 10000 3.09 320 16:49 03.04.2022
4486 Clouds 4 1019 67 10000 3.09 360 15:42 03.04.2022
4487 Clouds 4 1020 67 10000 2.57 350 13:58 03.04.2022
4488 Clouds 3 1020 71 10000 3.6 340 12:58 03.04.2022
4489 Clouds 2 1020 75 10000 3.09 20 11:39 03.04.2022
4490 Clouds 1 1019 85 10000 2.57 10 09:52 03.04.2022
4491 Clouds 0 1018 91 6000 2.57 350 08:57 03.04.2022
4492 Clouds 0 1017 94 10000 2.06 350 05:45 03.04.2022
4493 Clouds 0 1016 92 10000 2.57 360 02:55 03.04.2022
4494 Snow 0 1016 95 6000 3.6 360 23:35 02.04.2022
4495 Snow 0 1015 95 3500 3.6 350 22:44 02.04.2022
4496 Snow 0 1015 95 3000 2.57 350 21:56 02.04.2022
4497 Snow 0 1014 94 3300 3.6 350 21:20 02.04.2022
4498 Snow 0 1014 94 2500 3.09 350 20:36 02.04.2022
4499 Snow 1 1012 92 3000 4.12 350 18:47 02.04.2022
4500 Snow 1 1012 92 3200 3.6 360 18:19 02.04.2022
4501 Snow 1 1011 92 3600 5.14 10 17:23 02.04.2022
4502 Snow 1 1011 91 2400 5.14 10 15:55 02.04.2022
4503 Snow 1 1010 91 2300 4.63 20 15:20 02.04.2022
4504 Snow 1 1010 88 4300 6.17 10 14:31 02.04.2022
4505 Mist 1 1009 91 3200 5.66 360 13:34 02.04.2022
4506 Snow 0 1008 91 3200 5.66 10 12:21 02.04.2022
4507 Mist 0 1007 92 2800 5.14 360 10:46 02.04.2022
4508 Mist 0 1005 93 2500 5.66 360 08:33 02.04.2022
4509 Snow 1 1004 91 10000 4.63 360 05:24 02.04.2022
4510 Snow 1 1003 92 6000 4.63 350 03:28 02.04.2022
4511 Snow 0 1003 92 6000 4.12 340 23:55 01.04.2022
4512 Snow 0 1003 92 7000 4.63 340 22:51 01.04.2022
4513 Snow 1 1003 90 9000 5.14 350 21:27 01.04.2022
4514 Clouds 1 1002 89 7000 4.63 350 20:49 01.04.2022
4515 Snow 1 1002 92 6000 4.12 360 19:51 01.04.2022
4516 Snow 1 1001 91 7000 5.14 10 19:27 01.04.2022
4517 Snow 1 1001 90 7000 4.12 360 18:42 01.04.2022
4518 Snow 1 1000 92 3000 3.6 350 17:45 01.04.2022
4519 Clouds 2 1000 93 2000 5.14 360 16:34 01.04.2022
4520 Clouds 2 999 92 3800 4.12 350 15:19 01.04.2022
4521 Snow 2 999 90 4000 3.09 340 14:18 01.04.2022
4522 Snow 3 999 92 7000 4.63 320 13:32 01.04.2022
4523 Snow 3 998 92 7000 4.12 320 12:32 01.04.2022
4524 Snow 3 998 92 6000 4.63 310 11:18 01.04.2022
4525 Snow 3 997 92 6000 4.12 300 09:53 01.04.2022
4526 Clouds 3 996 92 7000 3.09 360 07:50 01.04.2022
4527 Clouds 3 996 93 5000 3.6 340 06:30 01.04.2022
4528 Clouds 4 996 92 10000 2.57 340 04:45 01.04.2022
4529 Rain 4 996 91 10000 2.06 360 03:41 01.04.2022
4530 Rain 5 996 91 10000 3.6 330 01:53 01.04.2022
4531 Rain 6 995 92 6000 5.66 300 22:56 31.03.2022
4532 Rain 6 995 92 6000 6.17 300 21:50 31.03.2022
4533 Rain 7 995 90 7000 6.17 310 21:31 31.03.2022
4534 Rain 7 994 88 10000 6.17 320 20:28 31.03.2022
4535 Clouds 8 994 85 10000 5.14 330 19:46 31.03.2022
4536 Clouds 8 993 86 10000 4.63 330 18:43 31.03.2022
4537 Rain 9 993 84 10000 4.63 350 17:41 31.03.2022
4538 Rain 10 994 79 10000 4.12 350 16:34 31.03.2022
4539 Clouds 11 994 76 10000 3.6 360 15:35 31.03.2022
4540 Clouds 10 994 77 10000 1.54 30 14:54 31.03.2022
4541 Clouds 10 994 78 10000 2.06 40 14:34 31.03.2022
4542 Clouds 7 995 85 10000 1.54 360 11:34 31.03.2022
4543 Clouds 7 996 87 10000 1.03 0 10:55 31.03.2022
4544 Clouds 6 996 87 10000 2.06 340 09:44 31.03.2022
4545 Clouds 5 996 90 8000 3.09 350 07:53 31.03.2022
4546 Clouds 6 997 88 10000 2.06 20 04:46 31.03.2022
4547 Clouds 8 999 92 10000 1.03 0 23:37 30.03.2022
4548 Clouds 8 999 89 10000 2.57 30 22:27 30.03.2022
4549 Clouds 8 1000 89 7000 3.09 20 21:38 30.03.2022
4550 Clouds 8 999 85 10000 2.57 320 20:44 30.03.2022
4551 Clouds 8 999 84 10000 4.63 330 19:59 30.03.2022
4552 Clouds 9 999 83 10000 3.6 340 18:59 30.03.2022
4553 Clouds 10 999 85 10000 4.63 330 18:18 30.03.2022
4554 Clouds 10 999 84 10000 4.12 330 17:44 30.03.2022
4555 Clouds 10 1000 85 10000 5.14 310 16:54 30.03.2022
4556 Clouds 10 1000 86 10000 5.14 330 16:31 30.03.2022
4557 Clouds 11 1000 86 10000 3.6 310 14:56 30.03.2022
4558 Clouds 11 1001 86 10000 1.03 0 13:34 30.03.2022
4559 Clouds 10 1001 89 10000 0.51 0 12:42 30.03.2022
4560 Clouds 9 1002 90 10000 1.03 0 10:55 30.03.2022
4561 Clouds 9 1002 90 10000 1.03 0 09:59 30.03.2022
4562 Clouds 9 1002 89 10000 1.03 0 09:20 30.03.2022
4563 Rain 9 1003 79 10000 3.09 230 07:31 30.03.2022
4564 Clear 9 1003 72 10000 1.03 0 05:40 30.03.2022
4565 Clear 9 1004 69 10000 2.57 250 03:31 30.03.2022
4566 Clear 11 1005 59 10000 3.09 320 00:31 30.03.2022
4567 Clear 13 1006 49 10000 1.54 30 22:20 29.03.2022
4568 Clear 14 1006 48 10000 2.06 110 21:44 29.03.2022
4569 Clear 15 1006 45 10000 2.06 10 20:49 29.03.2022
4570 Clear 16 1006 43 10000 3.6 330 19:53 29.03.2022
4571 Rain 17 1006 40 10000 3.09 230 18:55 29.03.2022
4572 Clear 17 1007 37 10000 8.23 260 18:19 29.03.2022
4573 Clear 18 1007 34 10000 5.66 210 17:21 29.03.2022
4574 Rain 18 1007 34 10000 3.09 270 16:56 29.03.2022
4575 Clear 18 1008 35 10000 2.57 250 15:57 29.03.2022
4576 Clear 18 1009 39 10000 1.03 0 14:50 29.03.2022
4577 Clear 17 1010 41 10000 2.06 60 13:53 29.03.2022
4578 Clear 16 1011 45 10000 1.54 70 12:51 29.03.2022
4579 Clear 13 1012 54 10000 1.03 0 11:31 29.03.2022
4580 Clear 11 1012 61 10000 1.03 0 10:28 29.03.2022
4581 Clear 9 1012 66 10000 1.03 0 09:33 29.03.2022
4582 Clear 6 1012 70 10000 1.03 60 06:56 29.03.2022
4583 Clear 6 1014 70 10000 1.03 30 03:49 29.03.2022
4584 Clear 9 1016 57 10000 1.54 320 23:54 28.03.2022
4585 Clear 10 1017 52 10000 1.03 0 23:19 28.03.2022
4586 Clear 11 1017 55 10000 1.03 0 22:47 28.03.2022
4587 Clear 12 1017 50 10000 1.54 230 22:22 28.03.2022
4588 Clouds 13 1018 46 10000 1.56 257 20:54 28.03.2022
4589 Clear 15 1017 38 10000 0.51 0 20:20 28.03.2022
4590 Clear 18 1018 31 10000 2.57 10 19:41 28.03.2022
4591 Clear 19 1018 26 10000 4.12 360 18:54 28.03.2022
4592 Clear 20 1018 27 10000 4.63 360 18:20 28.03.2022
4593 Clear 21 1019 27 10000 3.09 350 17:32 28.03.2022
4594 Clear 21 1020 30 10000 5.14 330 15:54 28.03.2022
4595 Clear 21 1021 28 10000 3.09 240 14:27 28.03.2022
4596 Clear 20 1022 33 10000 2.57 90 13:47 28.03.2022
4597 Clear 16 1023 42 10000 1.54 90 11:58 28.03.2022
4598 Clear 14 1024 46 10000 1.41 227 10:50 28.03.2022
4599 Clear 8 1024 61 10000 1.03 0 09:41 28.03.2022
4600 Clear 7 1024 67 10000 1.03 0 09:19 28.03.2022
4601 Clear 3 1024 75 10000 1.03 70 08:22 28.03.2022
4602 Clear 3 1024 75 10000 1.03 0 07:28 28.03.2022
4603 Clear 4 1025 65 10000 1.03 250 03:43 28.03.2022
4604 Clear 8 1027 63 10000 2.06 300 23:28 27.03.2022
4605 Clear 10 1026 56 10000 0.51 0 22:24 27.03.2022
4606 Clear 12 1026 50 10000 1.03 330 21:41 27.03.2022
4607 Clear 13 1027 47 10000 1.32 126 20:54 27.03.2022
4608 Clear 17 1026 33 10000 2.06 10 19:47 27.03.2022
4609 Clear 20 1026 24 10000 2.06 360 18:55 27.03.2022
4610 Clear 20 1026 27 10000 1.54 350 18:27 27.03.2022
4611 Clear 20 1026 27 10000 1.54 350 18:27 27.03.2022
4612 Clear 21 1026 26 10000 2.57 360 17:38 27.03.2022
4613 Clear 20 1027 26 10000 3.09 70 16:21 27.03.2022
4614 Clear 20 1027 27 10000 2.06 90 15:18 27.03.2022
4615 Clear 20 1028 32 10000 3.09 30 13:55 27.03.2022
4616 Clear 16 1028 46 10000 2.57 80 12:20 27.03.2022
4617 Clear 13 1029 54 10000 1.03 0 10:53 27.03.2022
4618 Clear 5 1028 70 10000 0.51 0 08:43 27.03.2022
4619 Clear 4 1028 72 10000 2.06 310 05:54 27.03.2022
4620 Clear 6 1028 61 10000 1.54 350 00:47 27.03.2022
4621 Clear 8 1029 55 10000 0.51 0 23:34 26.03.2022
4622 Clear 8 1028 51 10000 1.03 70 22:36 26.03.2022
4623 Clear 9 1028 47 10000 1.03 0 21:33 26.03.2022
4624 Clear 12 1027 35 10000 3.09 30 20:20 26.03.2022
4625 Clear 14 1027 32 10000 3.6 30 19:19 26.03.2022
4626 Clear 18 1027 22 10000 4.63 40 17:51 26.03.2022
4627 Clear 18 1027 25 10000 5.14 30 17:30 26.03.2022
4628 Clear 19 1026 26 10000 4.63 40 16:25 26.03.2022
4629 Clear 19 1027 26 10000 5.14 30 14:57 26.03.2022
4630 Clear 19 1027 28 10000 4.63 40 13:52 26.03.2022
4631 Clear 18 1028 30 10000 4.63 90 12:47 26.03.2022
4632 Clear 16 1028 38 10000 3.6 20 11:33 26.03.2022
4633 Clear 13 1028 48 10000 2.06 40 10:18 26.03.2022
4634 Clear 7 1028 66 10000 1.54 320 08:33 26.03.2022
4635 Clear 3 1027 71 10000 0.51 0 05:54 26.03.2022
4636 Clear 5 1027 64 10000 1.03 0 04:21 26.03.2022
4637 Clear 8 1027 55 10000 1.03 0 23:51 25.03.2022
4638 Clear 10 1026 46 10000 1.54 50 21:35 25.03.2022
4639 Clear 10 1026 46 10000 1.54 50 21:35 25.03.2022
4640 Clear 11 1026 41 10000 3.09 30 20:46 25.03.2022
4641 Clear 14 1025 37 10000 4.12 30 19:28 25.03.2022
4642 Clear 16 1025 31 10000 4.63 30 18:47 25.03.2022
4643 Clear 18 1025 29 10000 3.6 30 17:37 25.03.2022
4644 Clear 19 1025 27 10000 4.63 350 16:50 25.03.2022
4645 Clear 19 1025 27 10000 3.6 360 15:57 25.03.2022
4646 Clear 19 1026 30 10000 2.57 20 14:22 25.03.2022
4647 Clear 17 1027 39 10000 2.06 0 12:33 25.03.2022
4648 Clear 11 1027 55 10000 1.03 0 09:55 25.03.2022
4649 Clear 9 1027 58 10000 1.03 0 09:26 25.03.2022
4650 Clear 2 1026 75 10000 1.03 80 07:51 25.03.2022
4651 Clear 2 1026 75 10000 0.51 60 07:26 25.03.2022
4652 Clear 2 1026 69 10000 0.51 0 05:23 25.03.2022
4653 Clear 7 1026 58 10000 0.51 310 00:42 25.03.2022
4654 Clear 8 1026 56 10000 1.54 260 22:30 24.03.2022
4655 Clear 10 1026 47 10000 1.54 300 21:35 24.03.2022
4656 Clear 12 1027 40 10000 1.02 47 19:51 24.03.2022
4657 Clear 15 1026 29 10000 3.09 350 18:58 24.03.2022
4658 Clear 18 1025 24 10000 3.6 350 17:46 24.03.2022
4659 Clear 19 1026 23 10000 3.6 340 16:54 24.03.2022
4660 Clear 20 1026 24 10000 3.6 340 15:21 24.03.2022
4661 Clear 20 1027 25 10000 3.6 20 14:43 24.03.2022
4662 Clear 19 1027 25 10000 3.09 10 14:18 24.03.2022
4663 Clear 18 1028 30 10000 1.54 30 12:47 24.03.2022
4664 Clear 15 1028 40 10000 1.03 0 11:33 24.03.2022
4665 Clear 12 1028 54 10000 0.38 52 09:51 24.03.2022
4666 Clear 5 1028 65 10000 0.51 0 08:40 24.03.2022
4667 Clear 1 1028 74 10000 0.51 100 06:48 24.03.2022
4668 Clear 4 1028 65 10000 0.51 100 02:24 24.03.2022
4669 Clear 7 1028 54 10000 1.54 290 23:20 23.03.2022
4670 Clear 9 1030 50 10000 0.6 70 21:27 23.03.2022
4671 Clear 9 1030 47 10000 0.6 70 20:59 23.03.2022
4672 Clear 13 1028 35 10000 3.09 320 19:45 23.03.2022
4673 Clear 16 1028 29 10000 3.09 340 18:45 23.03.2022
4674 Clear 18 1027 23 10000 4.12 350 17:36 23.03.2022
4675 Clear 19 1028 25 10000 4.63 340 16:33 23.03.2022
4676 Clear 19 1029 26 10000 1.54 310 14:51 23.03.2022
4677 Clear 19 1029 27 10000 2.06 0 14:26 23.03.2022
4678 Clear 18 1030 33 10000 1.75 13 12:51 23.03.2022
4679 Clear 10 1031 52 10000 1.03 0 09:45 23.03.2022
4680 Clear -1 1030 80 10000 0.51 0 06:48 23.03.2022
4681 Clear 1 1029 80 10000 1.03 0 05:23 23.03.2022
4682 Clear 5 1030 65 10000 3.09 290 00:35 23.03.2022
4683 Clear 5 1030 65 10000 2.06 290 23:39 22.03.2022
4684 Clear 7 1030 58 10000 0.51 0 21:30 22.03.2022
4685 Clear 9 1029 54 10000 1.03 0 20:49 22.03.2022
4686 Clear 12 1029 48 10000 2.06 20 19:51 22.03.2022
4687 Clear 13 1029 43 10000 3.09 360 19:23 22.03.2022
4688 Clear 15 1028 39 10000 4.63 360 18:38 22.03.2022
4689 Clear 17 1028 35 10000 4.12 350 17:37 22.03.2022
4690 Clear 18 1029 32 10000 2.57 350 16:27 22.03.2022
4691 Clear 18 1029 32 10000 2.57 30 15:23 22.03.2022
4692 Clear 18 1030 32 10000 2.06 0 14:57 22.03.2022
4693 Clear 17 1030 32 10000 2.06 0 14:38 22.03.2022
4694 Clear 16 1030 36 10000 1.54 0 13:36 22.03.2022
4695 Clear 13 1031 41 10000 1.03 0 11:52 22.03.2022
4696 Clear 11 1031 49 10000 1.54 0 10:44 22.03.2022
4697 Clear 5 1031 65 10000 1.54 100 08:36 22.03.2022
4698 Clear 0 1031 80 10000 0.51 50 06:53 22.03.2022
4699 Clear 2 1030 69 10000 1.03 0 03:52 22.03.2022
4700 Clear 4 1031 64 10000 1.54 340 00:29 22.03.2022
4701 Clear 6 1031 58 10000 1.03 70 22:42 21.03.2022
4702 Clear 8 1031 51 10000 3.09 70 21:18 21.03.2022
4703 Clear 8 1031 51 10000 3.09 70 21:18 21.03.2022
4704 Clear 9 1031 48 10000 3.09 60 20:41 21.03.2022
4705 Clear 10 1030 48 10000 1.54 80 19:59 21.03.2022
4706 Clear 11 1030 46 10000 3.6 60 19:34 21.03.2022
4707 Clear 12 1030 41 10000 3.09 80 18:46 21.03.2022
4708 Clear 16 1030 35 10000 2.57 50 17:32 21.03.2022
4709 Clear 16 1030 35 10000 2.06 30 16:53 21.03.2022
4710 Clear 17 1030 35 10000 2.06 20 16:24 21.03.2022
4711 Clear 17 1030 34 10000 2.57 30 15:21 21.03.2022
4712 Clear 16 1031 35 10000 2.06 80 14:28 21.03.2022
4713 Clear 15 1031 37 10000 1.54 0 12:53 21.03.2022
4714 Clear 13 1032 41 10000 1.03 0 11:54 21.03.2022
4715 Clear 12 1032 41 10000 1.54 140 10:59 21.03.2022
4716 Clear 9 1032 51 10000 1.03 0 09:42 21.03.2022
4717 Clear 3 1031 71 10000 0.51 0 07:22 21.03.2022
4718 Clear 3 1030 70 10000 1.03 270 04:54 21.03.2022
4719 Clear 6 1030 59 10000 1.03 0 00:46 21.03.2022
4720 Clear 8 1030 48 10000 2.57 100 22:56 20.03.2022
4721 Clear 8 1030 53 10000 3.09 80 22:22 20.03.2022
4722 Clear 9 1029 50 10000 2.57 90 21:31 20.03.2022
4723 Clear 10 1029 48 10000 3.09 90 20:48 20.03.2022
4724 Clear 10 1029 46 10000 3.09 80 20:25 20.03.2022
4725 Clear 11 1029 41 10000 2.06 90 19:43 20.03.2022
4726 Clear 14 1028 33 10000 4.12 110 18:48 20.03.2022
4727 Clear 16 1028 31 10000 6.17 80 17:43 20.03.2022
4728 Clear 16 1028 34 10000 5.66 80 17:24 20.03.2022
4729 Clear 17 1028 33 10000 4.12 80 15:57 20.03.2022
4730 Clear 17 1028 36 10000 2.57 0 14:38 20.03.2022
4731 Clear 17 1029 40 10000 1.54 0 13:38 20.03.2022
4732 Clear 15 1029 42 10000 2.06 70 11:58 20.03.2022
4733 Clear 10 1028 52 10000 1.03 0 09:59 20.03.2022
4734 Clouds 6 1028 63 10000 1.03 0 08:20 20.03.2022
4735 Clear 4 1027 69 10000 0.51 80 05:49 20.03.2022
4736 Clear 4 1027 70 10000 0.51 250 03:18 20.03.2022
4737 Clear 4 1028 69 10000 1.03 0 00:53 20.03.2022
4738 Clear 4 1028 69 10000 2.06 30 00:28 20.03.2022
4739 Clear 4 1029 74 10000 4.63 60 22:31 19.03.2022
4740 Clear 5 1030 73 10000 3.6 60 21:26 19.03.2022
4741 Clear 6 1031 69 10000 5.66 60 19:29 19.03.2022
4742 Clear 6 1031 66 10000 6.17 50 18:38 19.03.2022
4743 Clouds 7 1031 62 10000 7.72 50 17:52 19.03.2022
4744 Clouds 8 1030 52 10000 8.23 60 16:57 19.03.2022
4745 Clear 11 1031 36 10000 6.17 40 15:29 19.03.2022
4746 Clear 12 1032 41 10000 7.72 50 14:19 19.03.2022
4747 Clouds 12 1034 45 10000 8.23 50 12:56 19.03.2022
4748 Clouds 12 1034 45 10000 8.23 50 12:37 19.03.2022
4749 Clear 11 1035 51 10000 7.2 60 11:46 19.03.2022
4750 Clear 8 1036 62 10000 5.14 50 09:31 19.03.2022
4751 Clear 4 1037 80 10000 2.06 30 05:48 19.03.2022
4752 Clear 5 1038 80 10000 5.66 50 02:37 19.03.2022
4753 Clear 6 1038 81 10000 5.66 60 00:54 19.03.2022
4754 Clear 7 1038 80 10000 6.17 70 23:19 18.03.2022
4755 Clear 7 1038 78 10000 6.17 50 22:23 18.03.2022
4756 Clear 8 1038 75 10000 6.17 40 20:48 18.03.2022
4757 Clear 9 1037 71 10000 5.14 30 19:48 18.03.2022
4758 Clear 10 1037 69 10000 5.66 40 19:19 18.03.2022
4759 Clear 10 1037 69 10000 5.66 40 19:19 18.03.2022
4760 Clouds 12 1036 62 10000 5.66 30 17:27 18.03.2022
4761 Clouds 12 1036 61 10000 6.69 50 16:45 18.03.2022
4762 Clouds 12 1036 61 10000 6.17 30 14:37 18.03.2022
4763 Clouds 12 1036 63 10000 6.69 50 14:18 18.03.2022
4764 Clouds 10 1037 71 10000 6.17 20 12:19 18.03.2022
4765 Clouds 9 1036 77 10000 5.66 40 10:38 18.03.2022
4766 Clouds 8 1036 81 10000 4.12 30 09:21 18.03.2022
4767 Clouds 7 1035 87 10000 4.12 10 07:45 18.03.2022
4768 Clouds 7 1034 90 10000 3.6 10 05:46 18.03.2022
4769 Clouds 7 1033 91 8000 4.12 350 02:50 18.03.2022
4770 Clouds 8 1032 92 3700 3.09 10 00:22 18.03.2022
4771 Clouds 8 1032 92 4000 3.6 360 23:20 17.03.2022
4772 Clouds 8 1032 92 4000 5.14 360 22:23 17.03.2022
4773 Clouds 8 1031 91 6000 5.14 360 21:47 17.03.2022
4774 Clouds 8 1031 91 6000 4.12 350 21:20 17.03.2022
4775 Clouds 9 1031 85 9000 4.12 360 20:41 17.03.2022
4776 Clouds 9 1030 86 10000 1.54 30 19:45 17.03.2022
4777 Clouds 9 1029 80 9000 1.54 60 18:57 17.03.2022
4778 Clouds 10 1028 78 10000 3.09 360 17:56 17.03.2022
4779 Clouds 10 1028 77 10000 3.6 340 16:48 17.03.2022
4780 Clouds 11 1027 76 10000 4.63 340 15:44 17.03.2022
4781 Clouds 11 1027 75 9000 3.6 350 15:23 17.03.2022
4782 Clouds 11 1027 77 9000 2.57 310 14:28 17.03.2022
4783 Clear 11 1026 72 10000 0.51 0 12:51 17.03.2022
4784 Clear 11 1026 72 10000 0.51 0 12:22 17.03.2022
4785 Clear 10 1025 72 10000 0.51 0 11:27 17.03.2022
4786 Clear 9 1025 74 10000 1.03 0 10:29 17.03.2022
4787 Rain 8 1024 77 10000 0.51 0 08:34 17.03.2022
4788 Rain 7 1023 77 10000 0.51 0 07:33 17.03.2022
4789 Clouds 8 1024 74 10000 1.25 146 05:47 17.03.2022
4790 Clouds 8 1024 75 10000 1.25 146 05:47 17.03.2022
4791 Clear 7 1022 79 10000 0.51 0 01:30 17.03.2022
4792 Clear 9 1022 77 10000 1.54 110 23:50 16.03.2022
4793 Clear 9 1022 77 10000 1.54 110 22:48 16.03.2022
4794 Clear 10 1022 75 10000 1.54 130 22:30 16.03.2022
4795 Clear 10 1023 75 10000 2.57 100 21:39 16.03.2022
4796 Clear 10 1023 76 10000 3.16 116 19:47 16.03.2022
4797 Clouds 10 1023 76 10000 2.06 110 19:21 16.03.2022
4798 Clear 11 1023 75 10000 2.57 120 18:37 16.03.2022
4799 Clouds 11 1022 75 10000 2.57 90 17:43 16.03.2022
4800 Clouds 11 1022 75 10000 2.57 90 17:43 16.03.2022
4801 Clouds 12 1022 75 10000 4.12 100 17:19 16.03.2022
4802 Clouds 12 1023 75 10000 6.17 70 15:55 16.03.2022
4803 Clouds 12 1023 76 10000 4.12 70 14:27 16.03.2022
4804 Clouds 12 1024 76 10000 4.12 80 13:31 16.03.2022
4805 Clouds 10 1024 84 8000 5.66 80 11:56 16.03.2022
4806 Clouds 9 1025 86 7000 5.14 80 11:21 16.03.2022
4807 Mist 8 1025 90 5000 3.6 70 10:23 16.03.2022
4808 Mist 7 1025 91 3000 2.06 90 08:53 16.03.2022
4809 Mist 7 1024 92 3000 1.03 30 06:27 16.03.2022
4810 Clouds 8 1024 92 8000 2.06 350 01:45 16.03.2022
4811 Rain 8 1023 93 6000 0.51 0 22:41 15.03.2022
4812 Rain 8 1023 93 10000 0.51 190 21:55 15.03.2022
4813 Clouds 9 1022 92 10000 0.51 0 20:33 15.03.2022
4814 Rain 9 1021 85 10000 2.06 290 18:58 15.03.2022
4815 Rain 10 1020 83 10000 2.57 280 16:59 15.03.2022
4816 Clear 10 1020 83 10000 2.57 280 16:32 15.03.2022
4817 Rain 10 1021 84 10000 1.03 0 15:21 15.03.2022
4818 Rain 10 1021 84 10000 1.03 0 15:21 15.03.2022
4819 Clouds 9 1022 84 10000 1.03 0 14:40 15.03.2022
4820 Clouds 9 1023 82 10000 1.78 208 13:46 15.03.2022
4821 Rain 10 1024 77 10000 1.03 0 12:24 15.03.2022
4822 Clouds 9 1025 75 10000 1.03 0 11:31 15.03.2022
4823 Rain 7 1026 79 10000 1.03 0 09:45 15.03.2022
4824 Rain 6 1026 80 10000 0.51 0 08:42 15.03.2022
4825 Clear 5 1026 84 10000 1.54 100 07:52 15.03.2022
4826 Clear 5 1027 84 10000 0 0 07:32 15.03.2022
4827 Clear 5 1027 82 10000 2.06 310 03:41 15.03.2022
4828 Clear 5 1029 80 10000 0.51 0 23:57 14.03.2022
4829 Clear 5 1029 79 10000 1.03 40 23:24 14.03.2022
4830 Clear 5 1029 78 10000 0 0 22:30 14.03.2022
4831 Clear 6 1029 74 10000 0.51 0 21:30 14.03.2022
4832 Clear 7 1029 71 10000 1.03 60 20:48 14.03.2022
4833 Clear 8 1029 68 10000 1.03 0 20:20 14.03.2022
4834 Clear 10 1028 58 10000 2.57 30 18:55 14.03.2022
4835 Clear 13 1028 51 10000 4.12 360 17:54 14.03.2022
4836 Clear 13 1028 49 10000 4.63 10 17:23 14.03.2022
4837 Clear 14 1027 47 10000 2.06 0 15:56 14.03.2022
4838 Clear 14 1027 45 10000 4.12 250 14:41 14.03.2022
4839 Clouds 13 1028 50 10000 4.63 200 12:51 14.03.2022
4840 Clouds 10 1028 62 10000 4.12 260 10:54 14.03.2022
4841 Clouds 10 1027 73 10000 5.66 240 09:55 14.03.2022
4842 Clouds 9 1026 77 10000 3.6 220 09:22 14.03.2022
4843 Clouds 8 1026 80 10000 2.57 230 08:56 14.03.2022
4844 Clouds 7 1025 84 10000 2.57 230 07:43 14.03.2022
4845 Rain 7 1023 90 10000 2.57 220 05:46 14.03.2022
4846 Rain 7 1017 58 10000 1.54 230 01:58 14.03.2022
4847 Clear 6 1017 57 10000 2.57 260 01:29 14.03.2022
4848 Clear 7 1016 53 10000 1.54 40 22:56 13.03.2022
4849 Clear 8 1015 49 10000 1.54 90 21:31 13.03.2022
4850 Clear 9 1015 44 10000 1.54 80 20:59 13.03.2022
4851 Clear 9 1015 44 10000 1.54 80 20:37 13.03.2022
4852 Clear 10 1014 42 10000 2.06 90 20:19 13.03.2022
4853 Clear 11 1014 40 10000 3.09 90 19:39 13.03.2022
4854 Clear 11 1014 40 10000 3.09 90 19:19 13.03.2022
4855 Clear 13 1014 36 10000 3.6 80 18:39 13.03.2022
4856 Clear 16 1014 29 10000 4.63 80 17:47 13.03.2022
4857 Clear 17 1014 30 10000 3.6 80 17:21 13.03.2022
4858 Clear 17 1014 29 10000 4.12 60 16:43 13.03.2022
4859 Clear 17 1014 31 10000 2.57 80 16:20 13.03.2022
4860 Clear 17 1014 30 10000 2.57 60 15:33 13.03.2022
4861 Clear 16 1015 34 10000 2.57 90 13:53 13.03.2022
4862 Clouds 16 1015 36 10000 1.96 73 13:26 13.03.2022
4863 Clear 14 1016 37 10000 1.54 0 12:20 13.03.2022
4864 Clear 13 1016 39 10000 1.03 0 11:36 13.03.2022
4865 Clear 11 1016 44 10000 1.03 0 10:48 13.03.2022
4866 Clear 9 1017 47 10000 1.03 0 10:25 13.03.2022
4867 Clear 7 1017 51 10000 1.03 0 09:41 13.03.2022
4868 Clear 4 1017 64 10000 1.03 0 08:47 13.03.2022
4869 Clear 1 1016 75 10000 1.03 0 07:57 13.03.2022
4870 Clear 0 1015 72 10000 1.03 60 05:55 13.03.2022
4871 Clear 1 1016 72 10000 1.54 300 03:26 13.03.2022
4872 Clear 3 1016 64 10000 1.03 0 00:30 13.03.2022
4873 Clear 4 1017 59 10000 0.51 0 22:47 12.03.2022
4874 Clear 7 1017 54 10000 2.06 90 20:59 12.03.2022
4875 Clear 8 1017 54 10000 3.09 70 19:57 12.03.2022
4876 Clear 8 1017 54 10000 3.09 70 19:57 12.03.2022
4877 Clear 9 1017 53 10000 3.09 70 19:38 12.03.2022
4878 Clear 11 1017 48 10000 3.6 50 18:29 12.03.2022
4879 Clear 13 1017 43 10000 3.09 60 17:43 12.03.2022
4880 Clear 15 1017 42 10000 3.6 60 16:25 12.03.2022
4881 Clear 15 1018 42 10000 1.54 0 15:24 12.03.2022
4882 Clear 15 1018 43 10000 2.57 20 14:52 12.03.2022
4883 Clear 14 1019 42 10000 3.09 60 13:53 12.03.2022
4884 Clear 14 1019 42 10000 3.09 60 13:53 12.03.2022
4885 Clear 13 1020 39 10000 3.09 90 12:25 12.03.2022
4886 Clear 12 1020 38 10000 2.57 80 11:51 12.03.2022
4887 Clear 11 1020 39 10000 1.54 0 11:19 12.03.2022
4888 Clear 7 1020 45 10000 1.03 0 09:58 12.03.2022
4889 Clear 7 1020 47 10000 1.03 0 09:39 12.03.2022
4890 Clear 2 1020 57 10000 1.03 0 07:51 12.03.2022
4891 Clear 3 1019 57 10000 1.54 100 05:44 12.03.2022
4892 Clear 4 1018 50 10000 0.51 0 00:24 12.03.2022
4893 Clear 4 1017 47 10000 1.03 0 23:28 11.03.2022
4894 Clear 5 1017 45 10000 3.09 90 21:48 11.03.2022
4895 Clear 7 1017 42 10000 4.63 80 20:58 11.03.2022
4896 Clear 7 1017 42 10000 4.63 80 20:37 11.03.2022
4897 Clear 8 1017 41 10000 4.63 90 19:54 11.03.2022
4898 Clear 9 1016 38 10000 5.14 80 19:27 11.03.2022
4899 Clear 13 1016 35 10000 6.17 70 17:38 11.03.2022
4900 Clear 13 1016 34 10000 6.17 70 17:19 11.03.2022
4901 Clear 14 1016 32 10000 4.63 70 15:57 11.03.2022
4902 Clear 14 1017 34 10000 3.09 40 14:22 11.03.2022
4903 Clear 13 1018 36 10000 2.57 60 13:27 11.03.2022
4904 Clear 11 1018 38 10000 3.6 70 12:23 11.03.2022
4905 Clear 10 1019 40 10000 3.6 80 11:56 11.03.2022
4906 Clear 6 1019 46 10000 1.54 100 10:24 11.03.2022
4907 Clear 4 1019 48 10000 2.57 90 09:32 11.03.2022
4908 Clear 2 1019 54 10000 1.54 90 08:25 11.03.2022
4909 Clear 1 1019 57 10000 1.54 100 07:46 11.03.2022
4910 Clouds 1 1021 57 10000 2.01 128 06:25 11.03.2022
4911 Clear 2 1019 67 10000 1.54 100 04:24 11.03.2022
4912 Clear 4 1020 49 10000 2.06 80 00:39 11.03.2022
4913 Clear 6 1021 44 10000 1.54 80 22:32 10.03.2022
4914 Clear 6 1021 43 10000 1.54 90 21:52 10.03.2022
4915 Clear 6 1021 44 10000 2.06 80 21:24 10.03.2022
4916 Clear 8 1021 40 10000 2.06 90 20:18 10.03.2022
4917 Clear 10 1021 31 10000 3.6 80 18:56 10.03.2022
4918 Clear 13 1021 26 10000 5.14 90 17:37 10.03.2022
4919 Clear 14 1021 24 10000 5.14 80 16:52 10.03.2022
4920 Clear 15 1022 25 10000 5.66 80 15:27 10.03.2022
4921 Clear 15 1023 29 10000 5.66 90 13:41 10.03.2022
4922 Clear 14 1024 31 10000 4.63 70 12:35 10.03.2022
4923 Clear 11 1025 42 10000 3.09 70 11:28 10.03.2022
4924 Clear 5 1025 61 10000 0.51 0 09:28 10.03.2022
4925 Clear 0 1025 74 10000 0.51 280 07:47 10.03.2022
4926 Clear -1 1025 68 10000 0.51 110 05:30 10.03.2022
4927 Clear 0 1024 67 10000 1.54 300 01:59 10.03.2022
4928 Clear 1 1024 63 10000 1.03 0 23:32 09.03.2022
4929 Clear 1 1024 62 10000 0.51 0 22:22 09.03.2022
4930 Clear 2 1024 59 10000 1.54 300 21:43 09.03.2022
4931 Clear 4 1024 52 10000 1.03 0 20:36 09.03.2022
4932 Clear 9 1022 33 10000 2.57 350 18:41 09.03.2022
4933 Clear 12 1022 28 10000 1.54 40 17:28 09.03.2022
4934 Clear 12 1022 24 10000 1.54 30 16:36 09.03.2022
4935 Clear 13 1023 25 10000 1.03 0 15:32 09.03.2022
4936 Clear 12 1023 29 10000 2.06 0 14:19 09.03.2022
4937 Clouds 11 1024 36 10000 0.55 109 12:59 09.03.2022
4938 Clear 10 1023 39 10000 1.54 60 12:20 09.03.2022
4939 Clear 9 1023 41 10000 1.54 100 11:45 09.03.2022
4940 Clear 6 1023 48 10000 1.54 0 10:49 09.03.2022
4941 Clear 2 1024 63 10000 1.03 0 09:22 09.03.2022
4942 Clear 0 1023 68 10000 1.03 0 08:42 09.03.2022
4943 Clear -3 1022 74 10000 0.51 0 04:49 09.03.2022
4944 Clear -1 1022 67 10000 1.03 0 00:56 09.03.2022
4945 Clear 0 1022 61 10000 0.51 0 23:37 08.03.2022
4946 Clear 0 1021 59 10000 0.51 80 22:45 08.03.2022
4947 Clear 1 1021 56 10000 0.51 0 21:43 08.03.2022
4948 Clear 1 1021 55 10000 1.54 80 21:18 08.03.2022
4949 Clear 2 1021 47 10000 0.51 160 20:18 08.03.2022
4950 Clear 5 1020 33 10000 2.57 90 18:55 08.03.2022
4951 Clear 8 1020 29 10000 4.63 90 17:58 08.03.2022
4952 Clear 9 1020 31 10000 5.14 90 16:37 08.03.2022
4953 Clear 9 1020 32 10000 5.14 100 14:24 08.03.2022
4954 Clouds 9 1020 34 10000 5.14 110 13:22 08.03.2022
4955 Clear 7 1021 36 10000 5.14 120 12:20 08.03.2022
4956 Clear 7 1021 39 10000 5.66 110 11:41 08.03.2022
4957 Clouds 5 1021 48 10000 5.14 100 10:27 08.03.2022
4958 Clear 2 1021 56 10000 1.54 80 08:54 08.03.2022
4959 Clear -3 1021 68 10000 2.06 70 05:49 08.03.2022
4960 Clear -2 1022 65 10000 1.54 50 01:49 08.03.2022
4961 Clear -1 1023 62 10000 1.03 0 22:41 07.03.2022
4962 Clear 0 1023 59 10000 3.6 80 21:36 07.03.2022
4963 Clear 0 1023 55 10000 3.09 80 20:55 07.03.2022
4964 Clear 1 1023 54 10000 2.06 80 20:29 07.03.2022
4965 Clear 1 1022 52 10000 1.54 100 19:48 07.03.2022
4966 Clear 2 1022 47 10000 2.57 110 18:50 07.03.2022
4967 Clear 3 1021 46 10000 3.09 100 18:28 07.03.2022
4968 Clear 4 1021 42 10000 6.17 60 17:24 07.03.2022
4969 Clear 5 1021 43 10000 4.63 80 16:41 07.03.2022
4970 Clouds 5 1022 42 10000 5.14 80 14:49 07.03.2022
4971 Clouds 4 1023 50 10000 4.63 80 12:34 07.03.2022
4972 Clouds 3 1023 51 10000 5.14 60 11:26 07.03.2022
4973 Clouds 2 1023 56 10000 4.63 80 10:30 07.03.2022
4974 Clouds -1 1022 66 10000 3.09 50 08:34 07.03.2022
4975 Clear 1 1021 59 10000 4.12 40 02:25 07.03.2022
4976 Clear 1 1021 55 10000 3.09 50 00:20 07.03.2022
4977 Clear 2 1021 51 10000 4.12 60 23:23 06.03.2022
4978 Clear 2 1021 51 10000 4.63 70 22:27 06.03.2022
4979 Clouds 2 1023 52 10000 3.65 57 21:37 06.03.2022
4980 Clear 3 1021 50 10000 4.63 40 20:29 06.03.2022
4981 Clear 3 1020 51 10000 3.6 30 19:39 06.03.2022
4982 Clear 3 1020 50 10000 4.12 40 18:50 06.03.2022
4983 Clear 4 1020 48 10000 5.14 40 17:46 06.03.2022
4984 Clear 4 1020 46 10000 5.66 60 17:19 06.03.2022
4985 Clear 5 1019 45 10000 5.14 40 16:39 06.03.2022
4986 Clear 6 1019 44 10000 4.63 40 15:31 06.03.2022
4987 Clear 6 1019 42 10000 3.09 40 14:42 06.03.2022
4988 Clouds 6 1020 43 10000 4.63 50 13:49 06.03.2022
4989 Clouds 6 1020 44 10000 4.12 70 12:40 06.03.2022
4990 Clouds 5 1020 50 10000 5.66 90 11:46 06.03.2022
4991 Clouds 4 1020 56 10000 5.14 70 10:43 06.03.2022
4992 Clear 0 1020 75 10000 1.54 80 09:21 06.03.2022
4993 Clear -2 1020 80 10000 2.06 50 08:28 06.03.2022
4994 Clear -3 1020 81 10000 1.54 20 07:26 06.03.2022
4995 Clear -2 1019 73 10000 1.54 60 03:18 06.03.2022
4996 Clear 0 1019 66 10000 1.54 40 00:41 06.03.2022
4997 Clear -1 1019 67 10000 1.03 60 00:22 06.03.2022
4998 Clear 0 1019 63 10000 1.54 60 23:19 05.03.2022
4999 Clear 0 1019 63 10000 1.54 70 22:38 05.03.2022
5000 Clear 1 1019 58 10000 2.06 50 21:31 05.03.2022
5001 Clear 1 1019 56 10000 2.06 80 20:39 05.03.2022
5002 Clear 3 1018 49 10000 4.63 80 19:23 05.03.2022
5003 Clear 4 1018 46 10000 5.66 70 18:48 05.03.2022
5004 Clear 6 1018 40 10000 4.63 60 17:39 05.03.2022
5005 Clear 7 1018 38 10000 3.6 110 16:20 05.03.2022
5006 Clear 8 1018 39 10000 4.12 110 15:30 05.03.2022
5007 Clear 7 1018 39 10000 4.12 80 14:37 05.03.2022
5008 Clouds 7 1019 41 10000 5.66 90 13:46 05.03.2022
5009 Clouds 7 1019 43 10000 6.17 90 12:46 05.03.2022
5010 Clouds 6 1019 47 10000 5.14 70 11:39 05.03.2022
5011 Clouds 5 1019 52 10000 5.14 70 11:18 05.03.2022
5012 Clear 3 1020 65 10000 4.63 80 09:40 05.03.2022
5013 Clear 0 1020 72 10000 1.03 0 08:46 05.03.2022
5014 Clear -3 1019 81 10000 1.03 0 07:23 05.03.2022
5015 Clear -2 1018 78 10000 1.03 100 05:41 05.03.2022
5016 Clear 0 1018 70 10000 0 0 01:25 05.03.2022
5017 Clear 1 1019 63 10000 1.03 0 23:30 04.03.2022
5018 Clear 1 1018 61 10000 1.03 0 22:40 04.03.2022
5019 Clear 1 1018 60 10000 2.06 50 21:47 04.03.2022
5020 Clear 2 1018 55 10000 1.54 80 20:49 04.03.2022
5021 Clear 2 1020 56 10000 2.09 78 20:18 04.03.2022
5022 Clear 4 1018 49 10000 3.6 50 19:35 04.03.2022
5023 Clear 5 1018 40 10000 3.09 70 18:36 04.03.2022
5024 Clear 8 1017 33 10000 4.12 50 17:30 04.03.2022
5025 Clear 9 1017 32 10000 5.14 50 16:43 04.03.2022
5026 Clear 9 1017 33 10000 2.06 30 15:28 04.03.2022
5027 Clear 9 1018 32 10000 3.6 90 13:53 04.03.2022
5028 Clear 8 1018 39 10000 1.03 0 12:54 04.03.2022
5029 Clear 7 1019 46 10000 1.54 0 11:38 04.03.2022
5030 Clear 5 1019 55 10000 2.57 80 10:42 04.03.2022
5031 Clear 2 1018 67 10000 0.51 0 09:28 04.03.2022
5032 Clear -1 1018 69 10000 0.51 0 08:34 04.03.2022
5033 Clear -2 1017 73 10000 0.51 0 07:23 04.03.2022
5034 Clear -1 1017 72 10000 0.51 0 03:43 04.03.2022
5035 Clear 0 1017 64 10000 1.54 20 00:24 04.03.2022
5036 Clear 1 1017 57 10000 2.06 50 22:21 03.03.2022
5037 Clear 2 1019 58 10000 1.55 72 21:40 03.03.2022
5038 Clear 3 1016 51 10000 1.54 60 21:18 03.03.2022
5039 Clear 5 1016 49 10000 3.6 350 19:50 03.03.2022
5040 Clear 7 1015 43 10000 3.09 330 18:53 03.03.2022
5041 Clear 8 1015 43 10000 3.09 320 18:22 03.03.2022
5042 Clear 10 1015 41 10000 5.14 350 17:28 03.03.2022
5043 Clear 11 1015 41 10000 4.63 360 16:22 03.03.2022
5044 Clear 11 1015 42 10000 3.6 340 15:21 03.03.2022
5045 Clear 11 1015 42 10000 3.09 350 14:42 03.03.2022
5046 Clear 10 1016 46 10000 1.54 0 13:19 03.03.2022
5047 Clear 8 1017 52 10000 1.54 0 11:54 03.03.2022
5048 Clear 6 1017 63 10000 1.03 0 10:42 03.03.2022
5049 Clear 3 1017 72 10000 1.03 0 09:38 03.03.2022
5050 Clear -2 1018 86 10000 1.54 330 07:48 03.03.2022
5051 Clear -2 1018 86 10000 1.03 180 06:35 03.03.2022
5052 Clear -1 1019 83 10000 2.06 260 02:42 03.03.2022
5053 Clear 0 1020 79 10000 2.06 300 23:34 02.03.2022
5054 Clear 1 1020 77 10000 1.03 0 22:52 02.03.2022
5055 Clear 3 1020 69 10000 0.51 0 21:34 02.03.2022
5056 Clear 4 1020 66 10000 1.54 340 20:55 02.03.2022
5057 Clear 5 1020 63 10000 2.06 360 20:24 02.03.2022
5058 Clear 5 1020 63 10000 2.06 360 20:24 02.03.2022
5059 Clear 5 1020 61 10000 2.57 360 19:36 02.03.2022
5060 Clear 6 1020 59 10000 2.57 10 18:54 02.03.2022
5061 Clear 6 1020 55 10000 2.57 350 18:19 02.03.2022
5062 Clear 7 1020 53 10000 2.06 360 17:36 02.03.2022
5063 Clear 7 1020 51 10000 1.54 350 16:51 02.03.2022
5064 Rain 8 1021 47 10000 1.03 0 14:59 02.03.2022
5065 Rain 7 1021 48 10000 0.51 0 13:30 02.03.2022
5066 Rain 7 1021 49 10000 0.51 0 12:45 02.03.2022
5067 Rain 6 1022 51 10000 1.03 0 12:21 02.03.2022
5068 Rain 5 1022 56 10000 1.03 0 11:26 02.03.2022
5069 Clear 3 1023 66 10000 0.51 0 10:30 02.03.2022
5070 Rain 3 1023 65 10000 0.51 0 10:30 02.03.2022
5071 Clear 0 1023 77 10000 0.51 0 09:31 02.03.2022
5072 Clear -1 1022 80 10000 0 0 07:59 02.03.2022
5073 Clear -2 1023 86 10000 0.51 140 07:23 02.03.2022
5074 Clear -2 1024 76 10000 1.03 200 03:56 02.03.2022
5075 Clear -1 1025 72 10000 0.51 0 00:40 02.03.2022
5076 Clear 0 1026 68 10000 1.03 0 22:53 01.03.2022
5077 Clear 0 1026 68 10000 1.03 0 22:35 01.03.2022
5078 Clear 1 1026 63 10000 1.03 0 21:37 01.03.2022
5079 Clear 2 1026 59 10000 1.03 90 20:38 01.03.2022
5080 Clear 2 1026 57 10000 1.03 90 20:19 01.03.2022
5081 Clear 4 1026 47 10000 1.03 60 18:52 01.03.2022
5082 Clear 5 1026 42 10000 1.54 90 18:22 01.03.2022
5083 Clear 6 1026 37 10000 0.51 0 17:42 01.03.2022
5084 Clear 8 1026 35 10000 2.57 60 16:36 01.03.2022
5085 Clear 8 1026 33 10000 1.03 0 15:47 01.03.2022
5086 Clear 8 1027 33 10000 1.03 0 14:54 01.03.2022
5087 Clear 8 1027 35 10000 2.06 350 14:31 01.03.2022
5088 Clear 7 1027 38 10000 1.54 0 13:26 01.03.2022
5089 Clear 7 1028 41 10000 1.03 0 12:37 01.03.2022
5090 Clear 5 1028 47 10000 4.12 80 11:35 01.03.2022
5091 Clear 2 1029 56 10000 3.6 80 09:52 01.03.2022
5092 Clear -1 1029 72 10000 0.51 0 08:30 01.03.2022
5093 Clear -2 1028 72 10000 2.06 90 07:19 01.03.2022
5094 Clear -1 1029 70 10000 1.03 0 03:27 01.03.2022
5095 Clear 1 1029 61 10000 3.6 80 00:48 01.03.2022
5096 Clear 1 1029 60 10000 3.09 80 23:47 28.02.2022
5097 Clear 2 1029 62 10000 3.6 70 22:43 28.02.2022
5098 Clear 2 1029 62 10000 2.06 90 21:48 28.02.2022
5099 Clear 2 1029 61 10000 1.54 110 20:55 28.02.2022
5100 Clear 3 1029 55 10000 2.06 80 19:51 28.02.2022
5101 Clear 5 1029 48 10000 1.54 90 18:57 28.02.2022
5102 Clear 8 1029 36 10000 2.06 90 17:57 28.02.2022
5103 Clear 9 1029 36 10000 2.57 110 17:23 28.02.2022
5104 Clear 10 1029 34 10000 4.12 80 16:32 28.02.2022
5105 Clear 10 1029 36 10000 3.09 60 15:21 28.02.2022
5106 Clear 10 1029 39 10000 4.12 70 14:29 28.02.2022
5107 Clear 9 1030 41 10000 4.63 80 13:24 28.02.2022
5108 Clear 8 1030 44 10000 2.57 70 12:31 28.02.2022
5109 Clear 7 1031 50 10000 3.6 90 11:37 28.02.2022
5110 Clear 5 1031 62 10000 2.06 80 10:24 28.02.2022
5111 Clear 4 1030 64 10000 1.03 0 09:59 28.02.2022
5112 Clear 2 1030 73 10000 0.51 0 09:30 28.02.2022
5113 Clear -1 1030 81 10000 1.54 320 08:26 28.02.2022
5114 Clear -3 1030 83 10000 1.03 360 07:19 28.02.2022
5115 Clear -1 1029 79 10000 1.54 40 04:31 28.02.2022
5116 Clear -1 1029 81 10000 1.54 300 03:30 28.02.2022
5117 Clear 0 1030 74 10000 2.06 80 23:26 27.02.2022
5118 Clear 2 1030 70 10000 1.54 120 22:33 27.02.2022
5119 Clear 2 1030 66 10000 1.03 0 21:47 27.02.2022
5120 Clear 3 1030 64 10000 1.03 0 20:54 27.02.2022
5121 Clear 3 1030 62 10000 2.57 80 20:27 27.02.2022
5122 Clear 4 1030 62 10000 3.6 90 19:56 27.02.2022
5123 Clear 4 1030 60 10000 3.6 100 19:26 27.02.2022
5124 Clear 5 1029 56 10000 3.09 90 18:40 27.02.2022
5125 Clear 6 1029 52 10000 6.69 90 17:54 27.02.2022
5126 Clear 8 1029 44 10000 7.2 80 16:38 27.02.2022
5127 Clear 8 1029 44 10000 8.75 80 15:59 27.02.2022
5128 Clouds 8 1030 49 10000 5.14 120 13:25 27.02.2022
5129 Clouds 8 1030 51 10000 7.2 110 12:32 27.02.2022
5130 Clouds 6 1031 66 10000 6.17 80 10:56 27.02.2022
5131 Clouds 5 1031 73 10000 5.14 90 10:18 27.02.2022
5132 Clear 3 1031 82 10000 5.14 80 09:44 27.02.2022
5133 Clear 3 1031 80 10000 3.6 90 09:19 27.02.2022
5134 Clouds -1 1030 90 10000 1.03 0 07:37 27.02.2022
5135 Clear -1 1029 89 10000 1.03 0 05:38 27.02.2022
5136 Clear 0 1030 86 10000 2.57 50 01:53 27.02.2022
5137 Clear 2 1031 80 10000 2.06 60 23:22 26.02.2022
5138 Clear 3 1031 74 10000 2.06 70 21:49 26.02.2022
5139 Clear 3 1031 71 10000 2.57 60 20:59 26.02.2022
5140 Clouds 3 1032 71 10000 2.57 80 20:20 26.02.2022
5141 Clouds 3 1031 69 10000 4.12 90 19:49 26.02.2022
5142 Clouds 4 1031 65 10000 3.09 80 19:26 26.02.2022
5143 Clouds 5 1031 56 10000 3.6 90 17:52 26.02.2022
5144 Clouds 5 1031 54 10000 6.17 70 17:28 26.02.2022
5145 Clouds 6 1032 52 10000 4.12 20 15:57 26.02.2022
5146 Clouds 6 1032 52 10000 4.12 20 15:25 26.02.2022
5147 Clouds 6 1032 52 10000 2.57 60 14:55 26.02.2022
5148 Clouds 6 1032 54 10000 2.57 60 14:36 26.02.2022
5149 Clouds 6 1033 54 10000 2.06 30 13:27 26.02.2022
5150 Clouds 6 1033 54 10000 3.6 70 12:51 26.02.2022
5151 Clouds 5 1033 69 10000 2.57 80 11:29 26.02.2022
5152 Clouds 4 1034 75 10000 2.06 50 10:55 26.02.2022
5153 Clouds 3 1033 89 10000 2.06 360 09:21 26.02.2022
5154 Clouds 2 1032 90 10000 2.06 320 07:57 26.02.2022
5155 Clouds 2 1032 90 10000 2.06 320 07:57 26.02.2022
5156 Clouds 3 1030 88 10000 3.6 300 02:53 26.02.2022
5157 Clouds 3 1029 87 10000 2.57 260 23:32 25.02.2022
5158 Clouds 3 1027 84 10000 3.09 240 21:49 25.02.2022
5159 Clear 3 1027 85 10000 2.57 240 21:29 25.02.2022
5160 Clear 4 1027 83 10000 4.12 230 20:33 25.02.2022
5161 Clouds 4 1027 81 10000 2.06 220 19:41 25.02.2022
5162 Clouds 5 1025 77 10000 3.6 230 17:48 25.02.2022
5163 Clouds 5 1025 78 10000 6.17 240 16:46 25.02.2022
5164 Clouds 5 1025 75 10000 8.75 270 15:49 25.02.2022
5165 Clouds 6 1024 66 10000 8.23 240 15:23 25.02.2022
5166 Clouds 7 1024 56 10000 6.69 240 14:49 25.02.2022
5167 Clouds 7 1024 55 10000 8.23 270 14:18 25.02.2022
5168 Clouds 7 1024 54 10000 8.23 260 13:20 25.02.2022
5169 Clouds 7 1024 60 10000 8.23 240 11:52 25.02.2022
5170 Clouds 6 1024 63 10000 7.2 240 11:18 25.02.2022
5171 Clouds 5 1024 70 10000 6.17 240 10:23 25.02.2022
5172 Clouds 4 1024 77 10000 5.14 240 09:42 25.02.2022
5173 Clouds 2 1023 84 10000 1.54 250 07:48 25.02.2022
5174 Clouds 2 1023 85 10000 2.57 240 06:51 25.02.2022
5175 Clouds 1 1022 83 10000 1.03 0 05:40 25.02.2022
5176 Clouds 3 1020 83 10000 5.14 260 01:23 25.02.2022
5177 Rain 4 1017 90 10000 9.77 320 22:31 24.02.2022
5178 Clouds 8 1014 76 10000 3.09 220 21:43 24.02.2022
5179 Rain 9 1014 72 10000 3.09 220 21:21 24.02.2022
5180 Clear 10 1013 62 10000 3.09 220 20:44 24.02.2022
5181 Clouds 11 1013 61 10000 3.6 220 19:31 24.02.2022
5182 Clouds 12 1013 54 10000 7.2 230 18:20 24.02.2022
5183 Clouds 12 1013 55 10000 5.14 230 17:54 24.02.2022
5184 Clouds 12 1013 57 10000 5.66 230 17:20 24.02.2022
5185 Clouds 12 1013 56 10000 6.69 230 16:28 24.02.2022
5186 Clouds 13 1013 55 10000 6.17 220 15:43 24.02.2022
5187 Clear 14 1013 52 10000 8.23 220 14:45 24.02.2022
5188 Clouds 14 1014 52 10000 7.72 230 13:59 24.02.2022
5189 Clouds 14 1014 53 10000 8.23 230 13:37 24.02.2022
5190 Clouds 12 1015 64 10000 1.54 0 11:41 24.02.2022
5191 Clear 8 1016 81 10000 0.51 0 10:32 24.02.2022
5192 Clouds 5 1018 88 10000 2 189 08:43 24.02.2022
5193 Clouds 4 1018 90 10000 1.03 100 07:26 24.02.2022
5194 Clouds 4 1019 88 10000 0.51 0 05:43 24.02.2022
5195 Clear 4 1022 87 10000 1.03 0 00:32 24.02.2022
5196 Clear 4 1022 87 10000 0.51 0 22:29 23.02.2022
5197 Clear 5 1023 83 10000 1.54 150 20:52 23.02.2022
5198 Clear 6 1023 83 10000 2.06 150 20:30 23.02.2022
5199 Clear 7 1024 78 10000 1.03 0 19:36 23.02.2022
5200 Clouds 9 1024 73 10000 2.57 90 18:31 23.02.2022
5201 Clouds 12 1025 56 10000 1.03 0 16:43 23.02.2022
5202 Clouds 12 1027 56 10000 2.06 150 14:33 23.02.2022
5203 Clouds 11 1028 63 10000 2.57 120 12:37 23.02.2022
5204 Clouds 9 1028 76 10000 2.06 160 11:23 23.02.2022
5205 Clouds 8 1028 79 10000 1.54 180 10:30 23.02.2022
5206 Clouds 4 1028 92 10000 1.03 280 08:57 23.02.2022
5207 Clear 3 1027 93 10000 2.06 260 07:57 23.02.2022
5208 Clouds 6 1024 90 8000 9.26 340 03:48 23.02.2022
5209 Clouds 8 1021 83 10000 6.69 230 00:19 23.02.2022
5210 Clouds 8 1021 83 10000 8.23 230 23:35 22.02.2022
5211 Clouds 7 1021 84 10000 5.66 220 22:31 22.02.2022
5212 Clouds 8 1021 83 10000 6.17 220 21:49 22.02.2022
5213 Clouds 7 1021 83 10000 5.66 230 21:28 22.02.2022
5214 Clouds 7 1022 83 10000 7.72 230 20:51 22.02.2022
5215 Clouds 7 1021 83 10000 7.72 240 20:29 22.02.2022
5216 Clouds 7 1021 83 10000 7.72 240 20:29 22.02.2022
5217 Clouds 8 1021 79 10000 6.69 240 19:36 22.02.2022
5218 Clouds 8 1021 79 10000 6.69 240 19:18 22.02.2022
5219 Clouds 9 1021 71 10000 5.66 230 17:46 22.02.2022
5220 Clouds 9 1021 69 10000 5.14 240 17:20 22.02.2022
5221 Clouds 9 1021 67 10000 5.14 0 16:36 22.02.2022
5222 Clouds 9 1022 64 10000 6.17 250 15:39 22.02.2022
5223 Clouds 9 1021 67 10000 6.69 240 14:44 22.02.2022
5224 Clouds 8 1023 75 10000 4.63 250 12:23 22.02.2022
5225 Clouds 7 1023 77 10000 4.12 260 10:39 22.02.2022
5226 Clouds 4 1021 82 10000 1.54 220 08:40 22.02.2022
5227 Clouds 4 1020 85 10000 6.17 270 07:26 22.02.2022
5228 Clouds 5 1017 85 10000 4.12 260 04:31 22.02.2022
5229 Clouds 6 1016 81 10000 4.63 260 01:44 22.02.2022
5230 Clouds 6 1016 80 10000 4.63 260 01:44 22.02.2022
5231 Clouds 6 1013 83 10000 8.23 270 22:44 21.02.2022
5232 Clouds 6 1011 83 10000 8.75 280 21:31 21.02.2022
5233 Clouds 6 1009 86 10000 5.66 230 20:34 21.02.2022
5234 Clouds 5 1007 86 10000 9.77 230 18:46 21.02.2022
5235 Rain 7 1006 71 10000 6.69 230 16:56 21.02.2022
5236 Clouds 7 1007 63 10000 7.2 240 15:20 21.02.2022
5237 Clouds 7 1007 61 10000 8.23 240 14:21 21.02.2022
5238 Clouds 7 1008 63 10000 10.29 240 13:20 21.02.2022
5239 Clouds 7 1008 61 10000 11.83 250 12:23 21.02.2022
5240 Clouds 6 1008 69 10000 10.29 250 10:58 21.02.2022
5241 Clouds 6 1008 70 10000 9.26 250 09:34 21.02.2022
5242 Rain 4 1005 86 10000 13.89 290 05:35 21.02.2022
5243 Clouds 10 1009 76 10000 5.14 220 23:41 20.02.2022
5244 Clouds 10 1010 74 10000 8.23 230 22:21 20.02.2022
5245 Rain 10 1011 75 10000 10.29 230 21:42 20.02.2022
5246 Clouds 10 1011 74 10000 7.72 230 20:53 20.02.2022
5247 Clouds 10 1011 74 10000 7.72 230 20:33 20.02.2022
5248 Clouds 10 1012 73 10000 6.17 220 19:32 20.02.2022
5249 Clouds 10 1012 73 10000 6.17 210 18:50 20.02.2022
5250 Clouds 10 1013 73 10000 6.17 210 18:31 20.02.2022
5251 Clouds 10 1013 73 10000 7.72 230 17:48 20.02.2022
5252 Clouds 10 1015 70 10000 8.23 230 15:37 20.02.2022
5253 Rain 10 1016 70 10000 8.75 230 14:42 20.02.2022
5254 Rain 10 1016 69 10000 8.75 230 13:23 20.02.2022
5255 Clouds 9 1017 70 10000 8.75 240 12:28 20.02.2022
5256 Clouds 8 1018 73 10000 4.63 210 10:47 20.02.2022
5257 Clouds 7 1018 76 10000 5.14 220 10:19 20.02.2022
5258 Clouds 6 1019 80 10000 6.69 230 08:50 20.02.2022
5259 Clear 6 1016 62 10000 5.14 220 00:54 20.02.2022
5260 Clear 6 1016 62 10000 4.12 220 00:30 20.02.2022
5261 Clear 6 1017 60 10000 3.6 200 23:18 19.02.2022
5262 Clear 6 1017 59 10000 4.63 210 22:22 19.02.2022
5263 Clear 5 1017 62 10000 3.09 200 21:25 19.02.2022
5264 Clear 5 1018 62 10000 2.06 210 19:53 19.02.2022
5265 Clear 5 1018 61 10000 2.06 220 19:30 19.02.2022
5266 Clear 6 1018 56 10000 3.6 260 18:33 19.02.2022
5267 Clear 8 1018 49 10000 4.63 250 17:36 19.02.2022
5268 Clear 9 1018 47 10000 6.69 250 16:28 19.02.2022
5269 Clear 9 1018 42 10000 6.17 250 15:18 19.02.2022
5270 Clear 9 1018 43 10000 8.23 250 14:49 19.02.2022
5271 Clear 9 1019 48 10000 7.2 250 13:45 19.02.2022
5272 Clouds 8 1019 55 10000 7.72 260 11:38 19.02.2022
5273 Clouds 6 1019 62 10000 7.2 260 09:57 19.02.2022
5274 Clear 5 1016 64 10000 6.69 250 06:58 19.02.2022
5275 Clear 7 1013 59 10000 7.72 250 03:54 19.02.2022
5276 Clouds 8 1010 74 10000 6.69 240 23:38 18.02.2022
5277 Rain 8 1009 71 10000 8.23 240 21:53 18.02.2022
5278 Rain 9 1008 74 10000 9.77 260 20:51 18.02.2022
5279 Clouds 9 1005 79 9000 20.06 290 19:53 18.02.2022
5280 Clear 15 1003 64 10000 9.26 240 18:50 18.02.2022
5281 Clouds 15 1003 64 10000 8.75 240 18:22 18.02.2022
5282 Clouds 15 1003 65 10000 7.72 240 17:51 18.02.2022
5283 Clouds 16 1004 61 10000 11.32 240 15:22 18.02.2022
5284 Clouds 16 1005 62 10000 8.23 240 13:55 18.02.2022
5285 Clouds 16 1006 65 10000 7.2 240 12:55 18.02.2022
5286 Clouds 16 1007 67 10000 6.69 230 12:36 18.02.2022
5287 Clouds 13 1008 73 10000 4.63 190 11:29 18.02.2022
5288 Clouds 11 1009 75 10000 3.6 200 10:23 18.02.2022
5289 Clear 8 1013 80 10000 1.03 0 06:57 18.02.2022
5290 Clear 8 1013 77 10000 2.06 180 05:41 18.02.2022
5291 Clear 9 1016 68 10000 4.63 230 23:34 17.02.2022
5292 Clear 9 1016 68 10000 5.66 230 21:46 17.02.2022
5293 Clear 10 1016 66 10000 6.69 240 21:20 17.02.2022
5294 Clear 10 1015 65 10000 7.72 240 20:39 17.02.2022
5295 Clear 10 1014 67 10000 9.26 250 19:50 17.02.2022
5296 Clouds 10 1013 65 10000 11.32 260 18:52 17.02.2022
5297 Clouds 11 1012 64 10000 10.29 260 17:55 17.02.2022
5298 Clouds 11 1011 57 10000 12.35 250 16:43 17.02.2022
5299 Clouds 12 1010 56 10000 13.89 260 15:38 17.02.2022
5300 Clouds 12 1010 54 10000 14.92 270 14:28 17.02.2022
5301 Clouds 12 1009 59 10000 14.92 260 12:43 17.02.2022
5302 Clouds 11 1008 65 10000 15.43 270 11:27 17.02.2022
5303 Clouds 11 1006 77 10000 12.35 270 09:18 17.02.2022
5304 Clouds 12 1003 89 10000 7.72 230 04:20 17.02.2022
5305 Clouds 12 1004 86 10000 6.17 220 23:21 16.02.2022
5306 Clouds 12 1005 83 10000 6.17 210 21:45 16.02.2022
5307 Clouds 11 1006 84 10000 7.72 230 19:57 16.02.2022
5308 Clouds 11 1006 85 10000 4.63 210 18:43 16.02.2022
5309 Clouds 11 1006 84 10000 5.66 220 17:53 16.02.2022
5310 Clouds 10 1006 84 10000 7.2 230 15:55 16.02.2022
5311 Clouds 10 1005 84 10000 7.2 220 15:19 16.02.2022
5312 Clouds 10 1007 85 10000 6.17 230 13:31 16.02.2022
5313 Clouds 8 1007 83 10000 5.66 210 12:20 16.02.2022
5314 Clouds 7 1008 86 10000 4.63 210 11:28 16.02.2022
5315 Rain 7 1008 87 10000 5.14 210 10:34 16.02.2022
5316 Rain 7 1009 79 10000 5.14 200 08:24 16.02.2022
5317 Rain 6 1010 78 10000 5.14 200 06:43 16.02.2022
5318 Clear 4 1015 81 10000 2.06 200 23:45 15.02.2022
5319 Clear 4 1016 83 10000 3.09 200 22:33 15.02.2022
5320 Clear 4 1016 83 10000 3.09 200 21:49 15.02.2022
5321 Clear 4 1016 85 10000 2.57 210 21:29 15.02.2022
5322 Clear 5 1016 84 10000 2.57 210 20:56 15.02.2022
5323 Clouds 5 1016 83 10000 2.57 210 19:59 15.02.2022
5324 Clouds 5 1016 81 10000 2.57 210 19:26 15.02.2022
5325 Clouds 6 1015 77 10000 3.09 240 18:24 15.02.2022
5326 Clouds 7 1015 75 10000 4.12 240 17:52 15.02.2022
5327 Clouds 7 1017 75 10000 3.97 241 17:21 15.02.2022
5328 Clouds 7 1015 78 10000 3.6 300 15:32 15.02.2022
5329 Clouds 8 1015 72 10000 5.14 280 13:28 15.02.2022
5330 Clouds 8 1015 75 10000 6.17 280 12:59 15.02.2022
5331 Clouds 7 1014 81 10000 3.6 240 11:40 15.02.2022
5332 Clouds 6 1013 88 10000 2.06 230 09:52 15.02.2022
5333 Clouds 6 1011 68 10000 2.57 220 06:59 15.02.2022
5334 Clouds 6 1011 70 10000 2.06 220 06:19 15.02.2022
5335 Clouds 7 1009 84 10000 3.6 230 23:34 14.02.2022
5336 Clouds 7 1009 89 10000 1.54 220 21:55 14.02.2022
5337 Clouds 8 1009 86 10000 2.57 210 20:51 14.02.2022
5338 Rain 8 1008 84 10000 3.6 240 19:45 14.02.2022
5339 Rain 9 1008 84 10000 2.57 220 19:26 14.02.2022
5340 Rain 10 1007 79 10000 3.09 210 18:23 14.02.2022
5341 Clouds 10 1006 73 10000 6.17 260 17:27 14.02.2022
5342 Clouds 12 1006 68 10000 3.09 210 16:26 14.02.2022
5343 Clouds 12 1006 62 10000 5.14 230 14:43 14.02.2022
5344 Clouds 13 1007 58 10000 5.14 230 13:34 14.02.2022
5345 Clear 13 1007 53 10000 3.6 210 12:58 14.02.2022
5346 Clouds 12 1007 44 10000 4.12 190 11:56 14.02.2022
5347 Clouds 12 1007 40 10000 2.57 180 11:37 14.02.2022
5348 Clear 4 1008 70 10000 1.03 0 09:25 14.02.2022
5349 Clear 3 1008 71 10000 2.06 200 07:34 14.02.2022
5350 Clear 2 1008 80 10000 1.54 200 06:54 14.02.2022
5351 Clear 3 1012 74 10000 1.54 210 22:44 13.02.2022
5352 Clear 3 1012 73 10000 1.03 0 22:26 13.02.2022
5353 Clear 4 1012 71 10000 1.03 0 21:48 13.02.2022
5354 Clear 5 1013 67 10000 2.06 200 20:42 13.02.2022
5355 Clear 6 1013 64 10000 2.57 170 19:57 13.02.2022
5356 Clear 7 1013 61 10000 3.6 180 18:57 13.02.2022
5357 Clear 7 1013 62 10000 3.6 180 18:38 13.02.2022
5358 Clear 12 1014 43 10000 4.63 190 16:53 13.02.2022
5359 Clear 12 1015 44 10000 4.12 180 15:51 13.02.2022
5360 Clear 13 1016 45 10000 4.12 170 14:50 13.02.2022
5361 Clear 12 1018 52 10000 3.09 130 13:27 13.02.2022
5362 Clear 11 1018 55 10000 2.57 150 12:42 13.02.2022
5363 Clouds 7 1020 70 10000 2.65 195 10:43 13.02.2022
5364 Clear 5 1020 78 10000 1.54 70 10:23 13.02.2022
5365 Clear 1 1021 86 10000 0.51 0 08:55 13.02.2022
5366 Clear -1 1022 88 10000 1.54 80 02:49 13.02.2022
5367 Clear -1 1023 82 10000 0.51 0 00:32 13.02.2022
5368 Clear 0 1024 82 10000 0.51 0 22:55 12.02.2022
5369 Clear 0 1024 86 10000 0.51 0 22:30 12.02.2022
5370 Clear 0 1024 84 10000 1.03 170 20:55 12.02.2022
5371 Clear 1 1024 81 10000 1.54 140 20:24 12.02.2022
5372 Clear 3 1025 77 10000 1.54 160 18:54 12.02.2022
5373 Clear 3 1025 76 10000 1.54 160 18:36 12.02.2022
5374 Clear 5 1025 67 10000 3.09 150 17:40 12.02.2022
5375 Clear 7 1025 61 10000 3.09 140 16:46 12.02.2022
5376 Clear 7 1026 53 10000 3.09 110 15:59 12.02.2022
5377 Clear 7 1026 52 10000 3.09 120 15:23 12.02.2022
5378 Clouds 7 1027 50 10000 4.63 110 14:30 12.02.2022
5379 Clear 6 1029 73 10000 2.57 80 12:26 12.02.2022
5380 Clear 2 1030 91 10000 1.54 100 10:34 12.02.2022
5381 Clear 1 1030 86 10000 0.51 0 09:38 12.02.2022
5382 Fog -1 1030 93 10000 0.51 0 08:48 12.02.2022
5383 Fog -2 1030 97 10000 0.51 0 07:50 12.02.2022
5384 Mist -2 1031 95 1000 0.51 0 05:31 12.02.2022
5385 Fog -1 1033 95 300 2.06 290 02:20 12.02.2022
5386 Clear -1 1033 93 10000 2.57 300 00:31 12.02.2022
5387 Clouds 0 1034 94 10000 0.51 0 22:27 11.02.2022
5388 Clouds 1 1033 93 10000 1.03 0 21:43 11.02.2022
5389 Clouds 1 1033 89 10000 0.51 0 20:38 11.02.2022
5390 Clouds 2 1033 90 10000 0.51 0 19:33 11.02.2022
5391 Clouds 3 1032 89 10000 4.63 330 18:58 11.02.2022
5392 Clouds 4 1031 72 10000 6.69 280 17:28 11.02.2022
5393 Clouds 5 1031 67 10000 6.69 270 16:58 11.02.2022
5394 Clouds 6 1030 62 10000 5.66 270 15:33 11.02.2022
5395 Clouds 6 1030 67 10000 7.72 300 14:38 11.02.2022
5396 Clouds 6 1030 68 10000 6.17 270 14:20 11.02.2022
5397 Clouds 6 1030 71 10000 6.69 270 13:50 11.02.2022
5398 Clouds 5 1030 74 10000 5.14 260 13:31 11.02.2022
5399 Clouds 5 1029 76 10000 5.14 240 11:27 11.02.2022
5400 Clouds 3 1028 89 10000 4.63 270 09:39 11.02.2022
5401 Clouds 2 1026 89 10000 4.12 280 08:40 11.02.2022
5402 Clouds 2 1025 88 10000 4.12 290 08:22 11.02.2022
5403 Clouds 3 1023 92 10000 7.72 300 06:33 11.02.2022
5404 Clouds 6 1020 82 10000 3.09 310 02:26 11.02.2022
5405 Clouds 6 1021 85 10000 1.03 290 00:47 11.02.2022
5406 Clouds 6 1021 82 10000 0.51 0 22:45 10.02.2022
5407 Clouds 6 1022 80 10000 1.03 0 21:45 10.02.2022
5408 Clouds 7 1022 77 10000 2.57 230 20:54 10.02.2022
5409 Clouds 7 1022 77 10000 4.12 240 20:29 10.02.2022
5410 Clouds 7 1023 75 10000 4.63 260 19:25 10.02.2022
5411 Clouds 7 1022 76 10000 5.14 270 18:44 10.02.2022
5412 Clouds 7 1023 82 10000 3.23 282 17:26 10.02.2022
5413 Clouds 8 1022 79 10000 5.66 270 16:50 10.02.2022
5414 Clouds 8 1022 79 10000 7.72 280 15:49 10.02.2022
5415 Clouds 9 1022 78 10000 4.63 290 15:29 10.02.2022
5416 Clouds 9 1022 73 10000 7.72 260 14:47 10.02.2022
5417 Clouds 10 1022 72 10000 6.17 280 14:23 10.02.2022
5418 Clouds 11 1022 68 10000 7.2 280 13:26 10.02.2022
5419 Clouds 11 1023 65 10000 5.66 240 12:27 10.02.2022
5420 Clouds 10 1022 67 10000 2.57 220 11:33 10.02.2022
5421 Clouds 9 1023 71 10000 3.09 220 10:43 10.02.2022
5422 Clear 6 1022 80 10000 1.54 40 09:50 10.02.2022
5423 Clear 4 1022 87 10000 1.03 0 09:18 10.02.2022
5424 Clear 1 1022 87 10000 1.03 0 06:50 10.02.2022
5425 Clear 1 1023 89 10000 1.54 110 04:23 10.02.2022
5426 Clear 2 1024 90 10000 0.51 0 01:48 10.02.2022
5427 Clear 2 1024 88 10000 1.54 80 00:44 10.02.2022
5428 Clear 3 1024 88 10000 1.03 0 00:25 10.02.2022
5429 Clear 4 1025 84 10000 1.03 0 22:58 09.02.2022
5430 Clear 4 1025 84 10000 1.03 0 22:34 09.02.2022
5431 Clear 4 1025 86 10000 1.03 0 21:50 09.02.2022
5432 Clear 5 1025 83 10000 1.54 230 21:28 09.02.2022
5433 Clear 5 1026 86 10000 2.06 240 20:47 09.02.2022
5434 Clear 6 1026 85 10000 2.06 240 20:24 09.02.2022
5435 Clear 6 1026 84 10000 1.54 260 19:45 09.02.2022
5436 Clear 7 1025 83 10000 1.03 0 19:22 09.02.2022
5437 Clear 11 1025 54 10000 1.54 240 17:35 09.02.2022
5438 Clear 15 1026 47 10000 1.03 0 16:32 09.02.2022
5439 Clear 13 1026 57 10000 2.06 140 15:40 09.02.2022
5440 Clear 13 1027 61 10000 3.09 130 14:28 09.02.2022
5441 Clear 11 1029 66 10000 1.54 100 12:28 09.02.2022
5442 Clear 8 1029 77 10000 1.54 160 10:51 09.02.2022
5443 Clear 7 1029 78 10000 1.54 190 10:26 09.02.2022
5444 Clear 7 1029 83 10000 1.54 230 09:35 09.02.2022
5445 Clouds 5 1030 87 10000 1.54 180 08:59 09.02.2022
5446 Clouds 5 1030 75 10000 1.03 0 07:47 09.02.2022
5447 Clouds 6 1030 81 10000 1.03 210 05:30 09.02.2022
5448 Clouds 6 1030 81 10000 1.03 210 05:30 09.02.2022
5449 Clouds 6 1030 75 10000 1.03 0 03:50 09.02.2022
5450 Clouds 7 1031 90 10000 0.51 0 00:38 09.02.2022
5451 Clouds 7 1031 85 10000 2.06 350 23:31 08.02.2022
5452 Clouds 7 1031 88 10000 2.57 350 22:46 08.02.2022
5453 Clouds 7 1031 89 10000 1.54 330 22:21 08.02.2022
5454 Clouds 7 1031 88 10000 1.54 330 22:21 08.02.2022
5455 Clouds 7 1031 88 10000 1.54 330 22:21 08.02.2022
5456 Clouds 7 1031 88 10000 2.06 300 21:38 08.02.2022
5457 Clouds 7 1031 88 10000 2.06 290 21:20 08.02.2022
5458 Clouds 7 1031 87 10000 2.57 290 20:42 08.02.2022
5459 Clouds 8 1031 85 10000 2.06 260 19:46 08.02.2022
5460 Clouds 8 1031 85 10000 3.6 310 18:35 08.02.2022
5461 Clouds 8 1030 83 10000 4.63 290 17:38 08.02.2022
5462 Clouds 9 1030 79 10000 5.14 260 16:29 08.02.2022
5463 Clouds 10 1030 76 10000 5.66 260 15:29 08.02.2022
5464 Clouds 9 1031 70 10000 4.12 250 14:31 08.02.2022
5465 Clouds 9 1031 64 10000 5.14 230 13:20 08.02.2022
5466 Clouds 7 1031 63 10000 4.12 0 11:33 08.02.2022
5467 Clouds 5 1031 74 10000 4.12 230 10:23 08.02.2022
5468 Clouds 5 1031 76 10000 3.6 220 09:44 08.02.2022
5469 Clouds 3 1031 80 10000 3.09 210 07:46 08.02.2022
5470 Clouds 2 1031 81 10000 3.09 220 05:37 08.02.2022
5471 Clouds 2 1031 83 10000 3.6 230 04:39 08.02.2022
5472 Clouds 1 1031 84 10000 2.06 230 04:21 08.02.2022
5473 Clouds 1 1032 84 10000 1.54 230 03:36 08.02.2022
5474 Clouds 1 1032 85 10000 1.54 230 03:18 08.02.2022
5475 Clouds 1 1031 85 10000 2.57 230 02:58 08.02.2022
5476 Clouds 1 1031 87 10000 1.54 210 02:36 08.02.2022
5477 Clouds 1 1031 87 10000 1.54 210 02:18 08.02.2022
5478 Clear 1 1031 85 10000 3.09 190 01:43 08.02.2022
5479 Clear 0 1031 88 10000 2.57 180 01:24 08.02.2022
5480 Clear 1 1031 88 10000 1.03 0 00:53 08.02.2022
5481 Clear 1 1031 85 10000 1.54 220 23:54 07.02.2022
5482 Clear 1 1030 85 10000 1.54 250 23:36 07.02.2022
5483 Clear 1 1030 85 10000 1.54 250 23:18 07.02.2022
5484 Clouds 2 1033 85 10000 3.43 238 22:19 07.02.2022
5485 Clouds 2 1030 83 10000 2.06 220 21:55 07.02.2022
5486 Clouds 3 1029 82 10000 1.54 210 21:29 07.02.2022
5487 Clouds 3 1029 82 10000 1.54 200 20:56 07.02.2022
5488 Clouds 3 1029 82 10000 1.54 200 20:38 07.02.2022
5489 Clouds 3 1029 80 10000 3.6 230 19:49 07.02.2022
5490 Clouds 3 1028 80 10000 3.6 240 19:31 07.02.2022
5491 Clear 4 1027 78 10000 7.2 260 17:52 07.02.2022
5492 Clouds 5 1027 74 10000 9.77 270 16:53 07.02.2022
5493 Clouds 5 1026 75 10000 7.72 260 15:49 07.02.2022
5494 Clouds 5 1026 75 10000 6.17 250 14:55 07.02.2022
5495 Clouds 5 1025 75 10000 5.14 250 13:28 07.02.2022
5496 Clouds 5 1024 76 10000 4.63 250 12:42 07.02.2022
5497 Clouds 4 1023 78 10000 6.69 250 11:58 07.02.2022
5498 Clouds 4 1022 80 10000 7.2 270 11:35 07.02.2022
5499 Clouds 4 1022 82 10000 8.23 270 10:50 07.02.2022
5500 Clouds 3 1021 85 10000 5.66 270 10:30 07.02.2022
5501 Clouds 3 1020 86 10000 6.69 270 09:53 07.02.2022
5502 Clouds 2 1020 85 10000 7.72 270 09:18 07.02.2022
5503 Clouds 2 1018 83 10000 7.2 280 08:36 07.02.2022
5504 Clouds 2 1016 87 10000 7.2 290 06:58 07.02.2022
5505 Snow 2 1015 89 10000 8.23 300 06:34 07.02.2022
5506 Snow 3 1008 89 10000 7.72 290 02:59 07.02.2022
5507 Rain 3 1005 92 8000 8.23 280 00:45 07.02.2022
5508 Rain 3 1005 92 8000 8.23 280 00:45 07.02.2022
5509 Rain 4 1004 90 10000 8.23 270 23:48 06.02.2022
5510 Clouds 5 1004 88 10000 10.8 230 22:48 06.02.2022
5511 Clouds 6 1004 90 10000 10.8 240 21:55 06.02.2022
5512 Rain 6 1004 89 10000 9.77 230 21:35 06.02.2022
5513 Rain 6 1005 87 10000 10.8 230 20:55 06.02.2022
5514 Rain 7 1005 86 10000 10.29 220 20:31 06.02.2022
5515 Clouds 7 1006 84 10000 9.26 220 19:38 06.02.2022
5516 Rain 6 1007 86 10000 9.26 220 18:40 06.02.2022
5517 Rain 6 1007 85 10000 9.26 220 17:56 06.02.2022
5518 Rain 6 1008 87 10000 9.77 220 17:21 06.02.2022
5519 Rain 6 1009 86 10000 9.26 230 16:47 06.02.2022
5520 Rain 7 1009 81 10000 11.32 230 15:49 06.02.2022
5521 Rain 8 1010 79 10000 13.38 230 15:27 06.02.2022
5522 Rain 8 1010 73 10000 10.29 220 14:46 06.02.2022
5523 Clouds 8 1013 72 10000 8.75 230 13:27 06.02.2022
5524 Clouds 8 1014 72 10000 8.75 220 12:58 06.02.2022
5525 Clouds 7 1016 72 10000 6.17 220 11:38 06.02.2022
5526 Clouds 7 1016 72 10000 5.66 210 10:31 06.02.2022
5527 Clouds 6 1017 73 10000 4.63 210 09:25 06.02.2022
5528 Clouds 5 1018 75 10000 7.72 230 08:30 06.02.2022
5529 Clouds 4 1019 78 10000 4.63 210 05:33 06.02.2022
5530 Clouds 4 1021 79 10000 3.09 200 03:18 06.02.2022
5531 Clouds 3 1022 80 10000 3.09 200 02:24 06.02.2022
5532 Clear 3 1023 81 10000 2.57 210 00:29 06.02.2022
5533 Clouds 3 1023 80 10000 2.06 210 23:18 05.02.2022
5534 Clouds 4 1023 76 10000 3.09 210 21:33 05.02.2022
5535 Clouds 5 1024 73 10000 2.57 220 20:25 05.02.2022
5536 Clouds 5 1024 72 10000 2.57 210 19:49 05.02.2022
5537 Clouds 4 1024 75 10000 2.06 210 19:18 05.02.2022
5538 Clouds 5 1024 69 10000 4.63 240 18:23 05.02.2022
5539 Clouds 6 1023 64 10000 5.14 230 17:31 05.02.2022
5540 Clouds 8 1023 57 10000 5.14 250 15:42 05.02.2022
5541 Clouds 8 1023 55 10000 5.66 260 15:24 05.02.2022
5542 Clouds 7 1024 66 10000 4.12 230 12:54 05.02.2022
5543 Clouds 7 1024 68 10000 4.63 230 12:34 05.02.2022
5544 Clouds 5 1024 78 10000 3.09 220 10:57 05.02.2022
5545 Clouds 4 1024 80 10000 3.6 230 10:38 05.02.2022
5546 Clouds 3 1023 83 10000 2.06 220 09:47 05.02.2022
5547 Clouds 2 1023 86 10000 3.09 220 08:21 05.02.2022
5548 Clouds 2 1022 85 10000 3.6 240 06:58 05.02.2022
5549 Clear 1 1021 85 10000 3.6 230 05:38 05.02.2022
5550 Clouds 4 1018 84 10000 6.17 300 01:40 05.02.2022
5551 Clouds 4 1018 85 10000 6.17 300 01:18 05.02.2022
5552 Clouds 6 1016 88 10000 10.29 280 23:59 04.02.2022
5553 Clouds 7 1014 87 10000 5.14 230 23:33 04.02.2022
5554 Rain 8 1014 83 10000 4.12 220 22:28 04.02.2022
5555 Clouds 7 1014 82 10000 4.12 220 21:36 04.02.2022
5556 Clouds 7 1013 82 10000 4.12 220 21:18 04.02.2022
5557 Clouds 7 1013 80 10000 4.12 220 20:21 04.02.2022
5558 Clouds 7 1013 78 10000 3.6 210 18:27 04.02.2022
5559 Clouds 7 1014 77 10000 5.66 230 15:55 04.02.2022
5560 Clouds 8 1014 77 10000 5.66 250 14:56 04.02.2022
5561 Clouds 8 1014 81 10000 6.17 250 14:24 04.02.2022
5562 Clouds 7 1015 86 10000 5.14 240 12:43 04.02.2022
5563 Clouds 7 1016 86 10000 3.09 210 11:43 04.02.2022
5564 Clouds 7 1016 89 10000 3.09 230 10:51 04.02.2022
5565 Clouds 5 1016 91 10000 2.57 210 08:50 04.02.2022
5566 Rain 5 1016 90 10000 2.06 220 07:35 04.02.2022
5567 Clouds 6 1015 93 10000 1.03 0 02:54 04.02.2022
5568 Clouds 6 1015 93 10000 1.54 230 02:20 04.02.2022
5569 Clear 6 1014 93 10000 1.54 240 23:34 03.02.2022
5570 Clear 6 1014 92 10000 3.09 320 22:48 03.02.2022
5571 Clear 6 1014 89 10000 1.03 0 21:50 03.02.2022
5572 Clear 7 1015 89 10000 1.03 0 20:50 03.02.2022
5573 Clear 7 1015 88 10000 2.06 280 20:21 03.02.2022
5574 Clear 7 1015 89 10000 2.06 310 19:34 03.02.2022
5575 Clouds 7 1015 91 10000 2.06 250 18:48 03.02.2022
5576 Clouds 8 1015 88 10000 2.57 260 17:47 03.02.2022
5577 Clouds 9 1015 84 10000 1.54 180 16:39 03.02.2022
5578 Clouds 10 1016 78 10000 3.09 190 14:54 03.02.2022
5579 Clouds 9 1017 85 10000 2.57 170 13:19 03.02.2022
5580 Clouds 9 1019 85 10000 2.57 190 11:43 03.02.2022
5581 Clouds 6 1021 76 10000 1.54 250 08:40 03.02.2022
5582 Clear 6 1021 78 10000 0 0 07:20 03.02.2022
5583 Clouds 5 1023 93 10000 1.03 0 00:33 03.02.2022
5584 Clouds 5 1023 92 10000 0.51 0 23:45 02.02.2022
5585 Clouds 6 1025 93 10000 2.15 243 22:36 02.02.2022
5586 Clouds 5 1023 92 10000 1.03 0 21:37 02.02.2022
5587 Clouds 6 1023 89 10000 1.54 220 20:56 02.02.2022
5588 Clear 6 1023 92 10000 1.54 220 20:19 02.02.2022
5589 Clouds 6 1022 91 10000 3.09 250 19:45 02.02.2022
5590 Clouds 6 1022 90 10000 2.06 260 18:53 02.02.2022
5591 Clouds 7 1022 89 10000 3.6 260 18:22 02.02.2022
5592 Clouds 7 1021 86 10000 5.66 270 17:20 02.02.2022
5593 Clouds 8 1021 87 10000 5.14 270 16:47 02.02.2022
5594 Clouds 8 1019 80 10000 6.69 290 14:21 02.02.2022
5595 Clouds 8 1019 82 10000 7.2 290 12:26 02.02.2022
5596 Clouds 8 1018 81 10000 8.23 280 11:42 02.02.2022
5597 Clouds 8 1018 82 10000 7.72 280 11:23 02.02.2022
5598 Clouds 7 1015 84 10000 6.69 270 07:59 02.02.2022
5599 Clouds 6 1014 89 10000 3.09 220 01:36 02.02.2022
5600 Clouds 5 1014 91 7000 4.63 210 21:59 01.02.2022
5601 Clouds 4 1014 90 10000 5.14 220 20:49 01.02.2022
5602 Clouds 4 1014 86 10000 7.72 230 18:55 01.02.2022
5603 Clouds 3 1015 87 10000 6.17 220 16:44 01.02.2022
5604 Clouds 4 1017 81 10000 9.26 230 15:30 01.02.2022
5605 Rain 4 1020 77 10000 7.72 240 12:49 01.02.2022
5606 Clouds 4 1021 78 10000 6.69 240 11:48 01.02.2022
5607 Clouds 2 1022 84 10000 4.12 250 08:37 01.02.2022
5608 Clouds 3 1015 91 10000 11.32 290 00:28 01.02.2022
5609 Clouds 3 1014 91 8000 7.2 270 23:36 31.01.2022
5610 Rain 3 1014 90 10000 8.23 270 22:30 31.01.2022
5611 Clouds 3 1014 91 10000 6.69 260 21:34 31.01.2022
5612 Clouds 3 1013 90 10000 10.29 270 20:34 31.01.2022
5613 Clouds 4 1013 86 10000 9.26 270 19:46 31.01.2022
5614 Clouds 4 1011 85 10000 8.75 270 18:31 31.01.2022
5615 Clouds 4 1011 88 10000 9.77 270 17:55 31.01.2022
5616 Rain 3 1010 88 10000 11.32 270 16:58 31.01.2022
5617 Rain 4 1010 86 10000 10.29 260 16:20 31.01.2022
5618 Clouds 5 1010 86 10000 8.75 250 14:49 31.01.2022
5619 Rain 6 1010 78 10000 11.83 260 12:57 31.01.2022
5620 Clouds 5 1010 79 10000 9.77 260 12:36 31.01.2022
5621 Clouds 5 1011 86 10000 6.69 250 10:58 31.01.2022
5622 Clouds 4 1011 89 10000 6.17 240 10:38 31.01.2022
5623 Clouds 4 1011 91 10000 5.14 230 09:36 31.01.2022
5624 Rain 4 1011 89 10000 6.69 240 08:54 31.01.2022
5625 Snow 4 1011 87 10000 7.72 230 08:20 31.01.2022
5626 Rain 4 1012 83 10000 4.12 200 07:29 31.01.2022
5627 Clouds 2 1014 87 10000 3.6 200 05:24 31.01.2022
5628 Clouds 0 1022 86 10000 1.03 0 00:23 31.01.2022
5629 Clouds 1 1025 87 10000 1.54 230 22:33 30.01.2022
5630 Clouds 1 1025 87 10000 1.54 220 21:45 30.01.2022
5631 Clouds 1 1025 87 10000 2.06 240 21:24 30.01.2022
5632 Clouds 2 1026 84 10000 2.06 250 20:53 30.01.2022
5633 Clouds 2 1026 82 10000 3.6 290 20:31 30.01.2022
5634 Clouds 3 1027 81 10000 3.6 290 19:56 30.01.2022
5635 Clear 4 1029 78 10000 1.64 265 18:51 30.01.2022
5636 Clouds 5 1027 73 10000 4.63 270 18:22 30.01.2022
5637 Clouds 6 1027 69 10000 5.66 270 17:31 30.01.2022
5638 Clouds 6 1028 68 10000 5.14 290 16:43 30.01.2022
5639 Clouds 7 1028 68 10000 6.17 290 16:23 30.01.2022
5640 Clouds 7 1028 69 10000 6.17 290 16:23 30.01.2022
5641 Clouds 7 1028 66 10000 7.2 290 15:55 30.01.2022
5642 Clouds 7 1028 65 10000 5.66 300 15:33 30.01.2022
5643 Clouds 7 1028 62 10000 7.2 300 14:48 30.01.2022
5644 Clouds 7 1028 71 10000 7.2 270 13:49 30.01.2022
5645 Clouds 7 1029 69 10000 7.2 280 12:46 30.01.2022
5646 Clouds 7 1028 73 10000 8.75 270 11:23 30.01.2022
5647 Clouds 6 1028 76 10000 6.69 290 10:26 30.01.2022
5648 Clouds 6 1028 86 10000 5.14 290 09:26 30.01.2022
5649 Clouds 6 1028 86 10000 6.69 280 08:32 30.01.2022
5650 Drizzle 7 1025 90 10000 7.2 230 02:55 30.01.2022
5651 Clouds 7 1025 89 10000 6.17 240 01:54 30.01.2022
5652 Drizzle 6 1026 89 10000 6.69 220 23:49 29.01.2022
5653 Drizzle 6 1026 89 4200 9.26 230 22:58 29.01.2022
5654 Clouds 7 1026 83 10000 10.29 240 21:35 29.01.2022
5655 Clouds 7 1027 83 10000 6.69 240 21:00 29.01.2022
5656 Clouds 7 1027 83 10000 4.12 240 20:20 29.01.2022
5657 Clouds 6 1026 85 10000 5.14 230 19:33 29.01.2022
5658 Clouds 6 1026 84 10000 3.6 220 18:51 29.01.2022
5659 Clouds 6 1027 84 10000 4.12 220 17:56 29.01.2022
5660 Clouds 6 1027 84 10000 4.63 220 17:19 29.01.2022
5661 Clouds 6 1027 83 10000 5.66 220 15:35 29.01.2022
5662 Clouds 6 1029 83 10000 5.66 220 13:58 29.01.2022
5663 Clouds 7 1029 82 10000 5.14 230 13:36 29.01.2022
5664 Clouds 7 1029 81 10000 5.14 230 13:18 29.01.2022
5665 Clouds 5 1029 79 10000 5.14 220 11:40 29.01.2022
5666 Clouds 4 1030 81 10000 4.63 220 10:38 29.01.2022
5667 Clouds 2 1030 87 10000 2.57 280 08:36 29.01.2022
5668 Clear 2 1032 87 10000 2.06 230 03:25 29.01.2022
5669 Clear 2 1034 84 10000 2.57 250 00:32 29.01.2022
5670 Clouds 3 1034 86 10000 2.06 220 23:43 28.01.2022
5671 Clouds 3 1035 85 10000 3.09 230 22:48 28.01.2022
5672 Clouds 3 1035 85 10000 3.6 230 22:20 28.01.2022
5673 Clouds 4 1035 83 10000 2.06 240 20:42 28.01.2022
5674 Clouds 4 1035 83 10000 2.57 250 19:59 28.01.2022
5675 Clouds 4 1034 84 10000 2.57 250 19:28 28.01.2022
5676 Clouds 4 1034 84 10000 2.57 240 18:38 28.01.2022
5677 Clouds 5 1034 79 10000 5.14 270 16:39 28.01.2022
5678 Clouds 6 1033 78 10000 5.14 290 14:59 28.01.2022
5679 Clouds 6 1034 77 10000 7.2 280 13:23 28.01.2022
5680 Clouds 6 1034 77 10000 6.17 260 12:26 28.01.2022
5681 Clouds 4 1033 87 10000 4.12 260 10:32 28.01.2022
5682 Clouds 3 1033 90 10000 5.14 260 09:48 28.01.2022
5683 Clouds 2 1032 91 10000 4.12 250 07:43 28.01.2022
5684 Clouds 3 1031 90 10000 4.63 260 06:31 28.01.2022
5685 Clouds 3 1030 91 10000 2.57 250 03:52 28.01.2022
5686 Clouds 3 1029 89 10000 5.66 260 02:29 28.01.2022
5687 Clouds 3 1029 90 10000 5.66 270 01:57 28.01.2022
5688 Clouds 3 1029 90 10000 5.66 270 01:57 28.01.2022
5689 Clouds 3 1028 89 10000 4.63 270 01:29 28.01.2022
5690 Clouds 3 1026 92 10000 3.09 210 22:40 27.01.2022
5691 Drizzle 3 1027 94 2300 3.09 240 21:41 27.01.2022
5692 Drizzle 3 1026 93 7000 3.6 240 21:21 27.01.2022
5693 Drizzle 3 1026 91 6000 3.6 230 20:23 27.01.2022
5694 Drizzle 3 1026 91 10000 3.6 210 18:23 27.01.2022
5695 Clouds 3 1026 86 10000 3.09 210 17:18 27.01.2022
5696 Clouds 2 1027 84 10000 3.09 200 14:25 27.01.2022
5697 Clouds 2 1028 86 10000 2.57 200 13:19 27.01.2022
5698 Clouds 1 1028 89 10000 3.09 190 12:20 27.01.2022
5699 Clouds -1 1029 90 8000 1.54 310 09:56 27.01.2022
5700 Clouds -1 1028 90 8000 2.06 240 08:41 27.01.2022
5701 Clouds -1 1028 92 8000 1.54 240 08:18 27.01.2022
5702 Clouds -1 1029 91 10000 2.06 280 03:37 27.01.2022
5703 Mist -1 1030 94 3500 1.03 0 00:25 27.01.2022
5704 Mist -1 1031 93 5000 1.03 0 22:37 26.01.2022
5705 Mist -1 1031 93 4800 0.51 0 21:45 26.01.2022
5706 Clouds -1 1031 95 5000 1.03 0 20:59 26.01.2022
5707 Clouds -1 1031 95 5000 1.03 0 20:35 26.01.2022
5708 Clouds -1 1031 93 8000 2.06 360 19:52 26.01.2022
5709 Clouds -1 1031 93 8000 2.57 320 19:18 26.01.2022
5710 Clouds -1 1031 93 7000 3.09 300 18:26 26.01.2022
5711 Mist -1 1031 95 4200 2.57 320 17:49 26.01.2022
5712 Mist -1 1031 94 2500 2.57 330 17:19 26.01.2022
5713 Mist 0 1031 93 4000 4.63 350 16:26 26.01.2022
5714 Mist 1 1031 100 3800 3.09 360 15:24 26.01.2022
5715 Mist 1 1031 93 4800 1.54 290 12:52 26.01.2022
5716 Fog 1 1032 92 4500 1.54 250 11:34 26.01.2022
5717 Fog -1 1031 92 1500 2.57 320 10:19 26.01.2022
5718 Fog -1 1031 94 800 2.06 330 09:42 26.01.2022
5719 Fog -1 1030 95 800 1.54 10 07:31 26.01.2022
5720 Fog -1 1030 95 150 0.51 0 00:48 26.01.2022
5721 Fog -1 1030 95 150 0.51 0 00:48 26.01.2022
5722 Fog -1 1031 95 150 1.03 0 23:48 25.01.2022
5723 Fog 0 1031 95 100 1.54 150 22:50 25.01.2022
5724 Fog 0 1031 94 100 1.54 150 22:50 25.01.2022
5725 Fog 0 1031 95 100 1.54 150 22:50 25.01.2022
5726 Fog 0 1031 94 100 1.03 0 22:21 25.01.2022
5727 Fog 0 1031 95 150 0.51 0 21:37 25.01.2022
5728 Fog 0 1031 94 150 0.51 0 20:46 25.01.2022
5729 Fog 0 1031 94 150 2.06 320 20:21 25.01.2022
5730 Fog 0 1031 94 150 1.03 340 19:44 25.01.2022
5731 Mist 1 1031 94 2900 2.06 340 18:22 25.01.2022
5732 Clear 1 1031 92 6000 1.54 0 17:42 25.01.2022
5733 Clear 3 1031 89 10000 2.57 10 16:35 25.01.2022
5734 Clear 5 1031 83 10000 1.54 10 15:47 25.01.2022
5735 Clear 6 1031 81 10000 2.57 10 15:28 25.01.2022
5736 Clear 5 1031 80 10000 3.09 360 14:57 25.01.2022
5737 Clear 5 1031 80 10000 3.09 360 14:57 25.01.2022
5738 Clear 5 1031 76 10000 1.03 0 13:18 25.01.2022
5739 Clear 2 1032 86 10000 0.51 0 10:35 25.01.2022
5740 Clear -2 1032 100 8000 0.51 0 08:33 25.01.2022
5741 Fog -2 1031 93 10000 1.03 350 07:28 25.01.2022
5742 Fog -2 1031 93 9000 0.51 30 06:22 25.01.2022
5743 Clear -1 1032 92 10000 0.51 0 01:36 25.01.2022
5744 Clear 0 1032 93 10000 0.51 0 23:36 24.01.2022
5745 Clear 0 1032 92 10000 0.51 0 23:18 24.01.2022
5746 Clear 0 1032 92 10000 0.51 110 22:59 24.01.2022
5747 Clear 0 1032 92 10000 0.51 110 22:41 24.01.2022
5748 Clear 0 1032 89 10000 0 0 21:49 24.01.2022
5749 Clear 1 1032 89 10000 1.03 290 21:27 24.01.2022
5750 Clear 1 1031 90 10000 0.51 140 20:29 24.01.2022
5751 Clear 2 1031 87 10000 0.51 0 19:39 24.01.2022
5752 Clear 2 1031 87 10000 0.51 0 19:19 24.01.2022
5753 Clear 4 1032 81 10000 2.06 90 17:44 24.01.2022
5754 Clear 5 1031 79 10000 2.06 90 17:23 24.01.2022
5755 Clear 7 1031 73 10000 1.54 100 16:33 24.01.2022
5756 Clear 7 1031 68 10000 1.54 30 15:52 24.01.2022
5757 Clouds 7 1032 69 10000 2.06 80 14:28 24.01.2022
5758 Clouds 6 1032 74 10000 2.57 70 12:38 24.01.2022
5759 Clouds 5 1033 78 10000 2.06 80 11:59 24.01.2022
5760 Clouds 3 1033 86 10000 0.51 0 10:25 24.01.2022
5761 Clouds 2 1033 92 10000 0.51 0 09:47 24.01.2022
5762 Clouds 0 1032 93 10000 0.51 0 08:24 24.01.2022
5763 Clear 0 1032 90 10000 1.03 270 04:50 24.01.2022
5764 Clouds 1 1033 87 10000 1.03 80 01:29 24.01.2022
5765 Clouds 1 1033 86 10000 1.54 70 00:35 24.01.2022
5766 Clouds 2 1033 82 10000 1.54 90 23:49 23.01.2022
5767 Clouds 3 1033 82 10000 2.57 70 22:27 23.01.2022
5768 Clouds 4 1033 82 10000 3.09 70 21:44 23.01.2022
5769 Clouds 4 1033 81 10000 2.06 80 21:24 23.01.2022
5770 Clouds 4 1033 80 10000 3.09 80 20:30 23.01.2022
5771 Clouds 4 1033 81 10000 2.57 70 19:43 23.01.2022
5772 Clouds 4 1033 82 10000 1.54 80 18:50 23.01.2022
5773 Clouds 5 1033 79 10000 2.06 110 17:34 23.01.2022
5774 Clouds 5 1033 78 10000 2.57 100 16:45 23.01.2022
5775 Clouds 5 1033 81 10000 2.06 50 14:59 23.01.2022
5776 Clouds 5 1033 82 10000 1.54 60 14:25 23.01.2022
5777 Clouds 5 1033 85 10000 1.54 60 14:25 23.01.2022
5778 Clouds 5 1034 89 10000 1.54 60 12:54 23.01.2022
5779 Clouds 5 1034 89 10000 1.03 0 12:22 23.01.2022
5780 Clouds 5 1034 89 10000 1.03 0 12:22 23.01.2022
5781 Clouds 4 1034 90 10000 1.03 0 11:52 23.01.2022
5782 Clouds 4 1034 91 10000 0.51 0 11:18 23.01.2022
5783 Clouds 3 1034 92 7000 0.51 0 10:27 23.01.2022
5784 Clouds 3 1034 92 8000 1.03 0 09:51 23.01.2022
5785 Clouds 3 1034 95 8000 0.51 0 08:54 23.01.2022
5786 Drizzle 3 1033 93 10000 0.51 0 05:57 23.01.2022
5787 Drizzle 3 1033 92 10000 1.03 0 01:52 23.01.2022
5788 Drizzle 3 1033 92 10000 3.09 260 01:27 23.01.2022
5789 Drizzle 3 1033 92 10000 3.09 260 00:23 23.01.2022
5790 Drizzle 3 1033 92 10000 3.6 260 23:56 22.01.2022
5791 Drizzle 3 1034 90 10000 4.12 260 22:46 22.01.2022
5792 Clouds 3 1034 93 9000 3.09 250 21:36 22.01.2022
5793 Clouds 3 1034 91 10000 3.09 260 20:21 22.01.2022
5794 Clouds 4 1033 90 10000 4.63 270 18:56 22.01.2022
5795 Clouds 4 1033 90 10000 3.6 270 18:24 22.01.2022
5796 Clouds 4 1033 90 10000 4.12 280 17:40 22.01.2022
5797 Clouds 4 1032 90 10000 4.12 290 16:56 22.01.2022
5798 Clouds 4 1032 89 10000 3.6 300 15:53 22.01.2022
5799 Clouds 4 1032 88 10000 3.6 300 15:32 22.01.2022
5800 Clouds 4 1032 91 10000 1.03 0 13:51 22.01.2022
5801 Clouds 3 1032 91 10000 2.06 240 12:53 22.01.2022
5802 Clouds 3 1033 91 10000 3.09 230 12:29 22.01.2022
5803 Clouds 3 1033 91 10000 2.57 240 11:49 22.01.2022
5804 Clouds 3 1032 89 9000 2.06 250 10:31 22.01.2022
5805 Clouds 3 1032 89 7000 3.09 250 09:59 22.01.2022
5806 Clouds 2 1032 90 10000 3.09 240 08:53 22.01.2022
5807 Clouds 2 1032 90 10000 2.57 240 07:56 22.01.2022
5808 Clouds 2 1031 91 10000 2.06 220 04:53 22.01.2022
5809 Clouds 1 1031 89 10000 3.6 230 01:58 22.01.2022
5810 Snow 1 1032 90 10000 2.57 220 23:48 21.01.2022
5811 Snow 2 1032 89 10000 4.12 230 22:41 21.01.2022
5812 Clouds 2 1032 85 10000 3.6 240 20:45 21.01.2022
5813 Clouds 2 1032 84 10000 3.09 230 18:41 21.01.2022
5814 Clouds 2 1032 84 10000 2.57 250 17:45 21.01.2022
5815 Clouds 3 1032 82 10000 4.63 290 15:48 21.01.2022
5816 Clouds 2 1032 82 10000 4.12 280 14:37 21.01.2022
5817 Clouds 2 1033 79 10000 2.7 298 12:40 21.01.2022
5818 Clouds 1 1032 85 10000 4.63 290 11:29 21.01.2022
5819 Clouds 1 1032 87 10000 5.66 300 10:27 21.01.2022
5820 Clouds 0 1031 88 10000 5.14 320 08:50 21.01.2022
5821 Clouds 0 1031 87 10000 5.14 300 07:26 21.01.2022
5822 Clouds 0 1029 87 10000 5.14 290 01:48 21.01.2022
5823 Clouds 1 1028 85 10000 4.63 290 22:46 20.01.2022
5824 Clouds 1 1028 84 10000 5.14 280 21:48 20.01.2022
5825 Clear 1 1028 85 10000 6.69 290 20:57 20.01.2022
5826 Clouds 1 1027 87 10000 5.66 280 19:46 20.01.2022
5827 Clouds 1 1027 85 10000 5.14 280 19:18 20.01.2022
5828 Clouds 2 1026 85 10000 6.17 300 17:36 20.01.2022
5829 Clouds 2 1025 91 5000 5.14 270 15:59 20.01.2022
5830 Snow 2 1025 91 6000 5.14 280 15:29 20.01.2022
5831 Rain 3 1025 90 10000 8.23 280 14:18 20.01.2022
5832 Clouds 4 1025 87 10000 7.2 280 12:48 20.01.2022
5833 Clouds 4 1025 84 10000 6.69 270 12:27 20.01.2022
5834 Clouds 3 1025 89 10000 3.6 250 10:59 20.01.2022
5835 Clouds 3 1025 90 10000 3.6 250 09:44 20.01.2022
5836 Clouds 3 1024 90 10000 5.66 250 08:37 20.01.2022
5837 Clouds 3 1023 90 10000 3.6 250 06:49 20.01.2022
5838 Clouds 3 1023 87 10000 3.6 220 00:30 20.01.2022
5839 Clouds 4 1023 81 10000 4.12 230 22:38 19.01.2022
5840 Clouds 4 1024 81 10000 2.57 210 21:33 19.01.2022
5841 Clouds 4 1024 81 10000 4.63 230 20:56 19.01.2022
5842 Clouds 4 1024 81 10000 3.6 220 20:30 19.01.2022
5843 Clouds 4 1023 80 10000 4.63 230 18:52 19.01.2022
5844 Clouds 4 1024 79 10000 3.6 220 17:51 19.01.2022
5845 Clouds 5 1024 76 10000 4.63 220 17:18 19.01.2022
5846 Clouds 5 1024 77 10000 4.63 220 17:18 19.01.2022
5847 Clouds 5 1024 75 10000 1.03 0 15:32 19.01.2022
5848 Clear 5 1025 71 10000 2.57 250 13:25 19.01.2022
5849 Clear 4 1027 79 10000 1.54 110 11:58 19.01.2022
5850 Clear 4 1027 81 10000 1.54 110 11:38 19.01.2022
5851 Clear 1 1027 90 10000 1.03 0 09:35 19.01.2022
5852 Clouds 0 1028 91 10000 1.03 0 08:38 19.01.2022
5853 Clouds -1 1029 93 10000 1.54 100 05:20 19.01.2022
5854 Clouds 3 1033 84 10000 1.54 110 00:22 19.01.2022
5855 Clouds 3 1033 75 10000 2.06 110 23:18 18.01.2022
5856 Clouds 4 1034 81 10000 3.09 90 21:45 18.01.2022
5857 Clouds 5 1035 78 10000 3.09 100 20:38 18.01.2022
5858 Clouds 5 1035 77 10000 3.09 90 19:51 18.01.2022
5859 Clouds 5 1035 83 10000 4.63 80 19:33 18.01.2022
5860 Clouds 5 1035 82 10000 4.12 60 18:23 18.01.2022
5861 Clouds 5 1035 83 10000 3.6 60 17:33 18.01.2022
5862 Clouds 6 1035 81 10000 2.57 60 16:22 18.01.2022
5863 Clouds 6 1036 78 10000 4.12 40 15:25 18.01.2022
5864 Clouds 6 1036 83 10000 3.09 30 14:34 18.01.2022
5865 Clouds 5 1037 89 8000 2.06 100 11:51 18.01.2022
5866 Clouds 4 1037 91 7000 0.51 0 10:30 18.01.2022
5867 Clouds 3 1036 93 6000 2.57 10 08:36 18.01.2022
5868 Clouds 4 1036 93 9000 1.54 30 07:45 18.01.2022
5869 Clouds 3 1035 91 10000 1.03 210 01:34 18.01.2022
5870 Clouds 4 1035 90 10000 1.54 230 22:47 17.01.2022
5871 Clouds 4 1035 90 10000 1.54 220 21:58 17.01.2022
5872 Clouds 4 1035 90 10000 1.54 240 21:31 17.01.2022
5873 Clouds 4 1035 89 10000 2.06 240 19:42 17.01.2022
5874 Rain 4 1034 86 10000 2.57 240 18:27 17.01.2022
5875 Clouds 4 1034 85 10000 5.14 260 17:24 17.01.2022
5876 Clouds 5 1033 81 10000 4.12 250 16:24 17.01.2022
5877 Clouds 5 1033 84 10000 6.69 270 14:58 17.01.2022
5878 Clouds 5 1033 85 10000 6.69 270 14:33 17.01.2022
5879 Clouds 5 1033 87 10000 4.63 250 13:20 17.01.2022
5880 Clouds 5 1034 86 10000 5.14 250 12:52 17.01.2022
5881 Clouds 4 1033 87 10000 5.66 240 11:48 17.01.2022
5882 Clouds 3 1032 90 10000 3.6 240 10:21 17.01.2022
5883 Clouds 3 1032 91 10000 2.06 0 08:44 17.01.2022
5884 Clouds 2 1031 93 10000 3.09 260 07:22 17.01.2022
5885 Clear 2 1031 87 10000 2.57 330 02:23 17.01.2022
5886 Clouds 2 1031 87 10000 1.03 0 00:53 17.01.2022
5887 Clouds 2 1030 88 10000 1.54 210 21:44 16.01.2022
5888 Clouds 2 1029 88 10000 1.54 220 20:33 16.01.2022
5889 Clouds 2 1029 88 10000 1.54 220 20:33 16.01.2022
5890 Clouds 2 1029 86 10000 2.57 270 18:50 16.01.2022
5891 Clouds 2 1028 84 10000 2.57 230 17:55 16.01.2022
5892 Clouds 3 1028 83 10000 2.57 230 16:56 16.01.2022
5893 Clouds 2 1028 86 10000 4.12 240 16:20 16.01.2022
5894 Clouds 2 1027 89 10000 1.03 0 14:30 16.01.2022
5895 Clouds 2 1027 89 10000 1.03 0 14:30 16.01.2022
5896 Clouds 2 1027 91 10000 1.03 0 13:33 16.01.2022
5897 Clouds 1 1026 91 10000 1.03 0 12:26 16.01.2022
5898 Fog 0 1026 91 10000 1.03 0 11:38 16.01.2022
5899 Fog 0 1026 90 6000 0.51 330 10:45 16.01.2022
5900 Fog -1 1025 94 300 1.54 350 09:59 16.01.2022
5901 Clouds -1 1027 95 10000 1.15 235 09:38 16.01.2022
5902 Clouds -1 1027 95 10000 1.15 235 09:20 16.01.2022
5903 Fog -1 1024 95 300 0.51 0 07:21 16.01.2022
5904 Clouds 0 1026 94 10000 1.13 190 00:36 16.01.2022
5905 Clouds 0 1026 97 10000 1.31 182 23:22 15.01.2022
5906 Clouds 0 1025 92 8000 1.03 0 21:23 15.01.2022
5907 Clouds 0 1025 92 9000 2.06 100 20:48 15.01.2022
5908 Clouds 0 1025 92 8000 2.06 100 20:29 15.01.2022
5909 Clear 0 1025 91 10000 1.54 80 19:27 15.01.2022
5910 Clear 1 1025 94 10000 1.54 70 18:28 15.01.2022
5911 Clear 2 1025 88 10000 1.54 360 16:49 15.01.2022
5912 Clear 4 1025 82 10000 1.54 80 15:38 15.01.2022
5913 Clear 5 1027 78 10000 2.06 80 13:35 15.01.2022
5914 Clouds 3 1028 85 10000 1.03 0 11:46 15.01.2022
5915 Clear -2 1028 96 10000 0 0 09:49 15.01.2022
5916 Clear -2 1029 100 10000 1.03 240 05:26 15.01.2022
5917 Clear -1 1031 90 10000 1.03 270 23:40 14.01.2022
5918 Clear 0 1032 87 10000 1.03 0 21:29 14.01.2022
5919 Clear 0 1032 90 10000 1.03 0 20:37 14.01.2022
5920 Clear 1 1032 89 10000 2.06 320 19:56 14.01.2022
5921 Clear 2 1032 85 10000 1.54 320 18:43 14.01.2022
5922 Clear 3 1032 82 10000 1.03 100 17:53 14.01.2022
5923 Clear 4 1034 76 10000 0.22 267 16:47 14.01.2022
5924 Clear 6 1033 68 10000 1.03 80 15:33 14.01.2022
5925 Clear 7 1034 70 10000 1.54 120 14:29 14.01.2022
5926 Clear 5 1035 75 10000 1.03 0 12:59 14.01.2022
5927 Clear 4 1035 82 10000 0.51 0 11:59 14.01.2022
5928 Clear 2 1035 84 10000 0.51 0 10:46 14.01.2022
5929 Clear -2 1035 93 10000 1.03 30 08:54 14.01.2022
5930 Clear -2 1035 93 10000 1.03 0 07:46 14.01.2022
5931 Clear -2 1036 92 10000 0.51 0 03:19 14.01.2022
5932 Clear -1 1037 92 10000 0.51 170 00:44 14.01.2022
5933 Clear -1 1038 90 10000 1.03 250 21:57 13.01.2022
5934 Clear 0 1038 89 10000 1.03 0 21:30 13.01.2022
5935 Clear 0 1038 88 10000 0 0 20:33 13.01.2022
5936 Clear 0 1038 90 10000 1.54 310 19:32 13.01.2022
5937 Clear 1 1039 87 10000 2.57 330 18:51 13.01.2022
5938 Clear 3 1038 82 10000 1.03 190 17:23 13.01.2022
5939 Clear 5 1039 77 10000 1.03 0 16:18 13.01.2022
5940 Clear 4 1039 76 10000 1.03 0 15:31 13.01.2022
5941 Clouds 4 1040 77 10000 1.03 0 13:47 13.01.2022
5942 Clouds 2 1040 83 10000 1.03 0 12:20 13.01.2022
5943 Clouds -1 1040 89 10000 1.03 0 09:38 13.01.2022
5944 Clouds -2 1040 90 10000 1.03 0 08:54 13.01.2022
5945 Clouds -2 1040 91 10000 1.54 140 08:24 13.01.2022
5946 Clouds -2 1039 90 10000 1.03 0 07:21 13.01.2022
5947 Clouds -2 1039 91 10000 0.51 0 05:57 13.01.2022
5948 Clouds -2 1039 91 10000 0.51 0 05:18 13.01.2022
5949 Clouds -2 1039 91 10000 1.03 0 01:49 13.01.2022
5950 Clear -3 1039 90 10000 0.51 0 00:40 13.01.2022
5951 Clear -3 1039 92 10000 1.03 280 23:45 12.01.2022
5952 Clear -3 1039 93 10000 1.03 0 22:57 12.01.2022
5953 Clear -3 1039 88 10000 1.03 330 21:56 12.01.2022
5954 Clear -2 1038 90 10000 0.51 190 21:21 12.01.2022
5955 Clear -2 1039 91 10000 0.51 150 20:56 12.01.2022
5956 Clear -2 1038 90 10000 0.51 0 19:35 12.01.2022
5957 Clear -1 1038 85 10000 1.54 30 18:30 12.01.2022
5958 Clear -1 1038 85 10000 1.54 30 18:30 12.01.2022
5959 Clear 1 1037 81 10000 1.54 30 16:59 12.01.2022
5960 Clear 1 1037 78 10000 2.06 10 16:26 12.01.2022
5961 Clouds 2 1037 72 10000 0.51 0 14:48 12.01.2022
5962 Clouds 1 1038 78 10000 1.03 0 12:59 12.01.2022
5963 Clouds 1 1038 78 10000 1.03 0 12:58 12.01.2022
5964 Clear -1 1037 89 10000 0.51 0 10:38 12.01.2022
5965 Clouds -3 1036 92 10000 0.51 0 08:37 12.01.2022
5966 Clouds -3 1036 94 10000 0.51 0 07:49 12.01.2022
5967 Clouds -3 1036 92 10000 1.03 0 07:31 12.01.2022
5968 Clouds 0 1034 83 10000 1.54 70 23:40 11.01.2022
5969 Clouds 1 1033 82 10000 1.54 100 22:54 11.01.2022
5970 Clouds 2 1033 79 10000 2.06 80 22:22 11.01.2022
5971 Clouds 3 1033 77 10000 2.57 80 20:54 11.01.2022
5972 Clouds 3 1033 78 10000 1.54 90 19:50 11.01.2022
5973 Clouds 3 1032 79 10000 2.06 100 18:31 11.01.2022
5974 Clouds 3 1032 77 10000 4.12 80 17:26 11.01.2022
5975 Clouds 4 1031 76 10000 3.09 80 16:37 11.01.2022
5976 Clouds 4 1031 77 10000 3.6 70 15:46 11.01.2022
5977 Clouds 5 1031 74 10000 4.63 80 14:42 11.01.2022
5978 Clear 5 1033 75 10000 2.72 60 13:56 11.01.2022
5979 Clouds 5 1031 69 10000 5.14 70 13:36 11.01.2022
5980 Clouds 5 1031 83 10000 3.6 60 12:48 11.01.2022
5981 Clouds 4 1032 90 10000 2.06 60 11:45 11.01.2022
5982 Clouds 2 1031 93 8000 0.51 90 09:58 11.01.2022
5983 Clouds 1 1029 93 7000 1.54 360 07:18 11.01.2022
5984 Clouds 1 1028 93 7000 0.51 350 00:43 11.01.2022
5985 Clouds 1 1028 95 7000 0.51 0 00:21 11.01.2022
5986 Clouds 1 1028 95 9000 1.54 320 23:28 10.01.2022
5987 Clouds 1 1027 93 9000 2.06 290 22:19 10.01.2022
5988 Clouds 1 1027 93 8000 0.51 0 21:54 10.01.2022
5989 Clouds 1 1027 93 10000 1.03 0 21:31 10.01.2022
5990 Clouds 1 1026 92 10000 2.06 320 20:58 10.01.2022
5991 Clouds 1 1026 91 10000 1.54 300 20:29 10.01.2022
5992 Clouds 2 1026 92 10000 1.54 320 19:45 10.01.2022
5993 Clouds 2 1025 90 10000 1.54 20 19:22 10.01.2022
5994 Clouds 2 1025 91 10000 1.54 340 18:50 10.01.2022
5995 Clouds 3 1024 91 10000 1.54 340 18:31 10.01.2022
5996 Clouds 4 1023 89 10000 0.51 0 16:42 10.01.2022
5997 Clouds 4 1022 88 10000 0.51 90 15:50 10.01.2022
5998 Clouds 4 1021 87 10000 1.03 0 14:39 10.01.2022
5999 Clouds 4 1019 91 10000 1.54 0 12:31 10.01.2022
6000 Clouds 3 1019 93 10000 2.06 10 11:25 10.01.2022
6001 Clouds 2 1018 94 10000 2.57 350 10:21 10.01.2022
6002 Clouds 2 1016 94 10000 2.06 360 08:57 10.01.2022
6003 Clouds 2 1013 93 10000 1.03 280 05:50 10.01.2022
6004 Clouds 2 1010 93 10000 0.51 0 01:33 10.01.2022
6005 Clouds 2 1009 93 10000 0.51 0 00:36 10.01.2022
6006 Clouds 2 1009 93 10000 1.03 0 23:54 09.01.2022
6007 Clouds 2 1008 92 10000 0.51 0 22:43 09.01.2022
6008 Clouds 2 1008 92 10000 1.54 300 21:47 09.01.2022
6009 Clouds 2 1007 91 10000 1.03 0 21:25 09.01.2022
6010 Clouds 2 1007 92 10000 0.51 0 20:58 09.01.2022
6011 Clouds 2 1007 92 10000 0.51 0 20:39 09.01.2022
6012 Clouds 2 1007 92 10000 1.54 210 20:21 09.01.2022
6013 Clouds 2 1006 93 10000 0.51 0 19:38 09.01.2022
6014 Clouds 2 1006 93 10000 0.51 220 19:18 09.01.2022
6015 Clouds 2 1006 92 10000 2.57 280 18:37 09.01.2022
6016 Clouds 3 1006 93 6000 5.14 290 17:48 09.01.2022
6017 Clouds 3 1005 90 2500 7.72 310 17:29 09.01.2022
6018 Rain 4 1005 86 10000 3.6 220 16:43 09.01.2022
6019 Clouds 4 1004 86 10000 3.09 260 15:42 09.01.2022
6020 Clouds 4 1004 86 10000 3.09 260 15:42 09.01.2022
6021 Clouds 4 1004 86 10000 5.14 230 14:58 09.01.2022
6022 Clouds 4 1004 87 10000 5.66 240 14:24 09.01.2022
6023 Clouds 5 1004 83 10000 6.17 250 13:48 09.01.2022
6024 Clouds 5 1003 83 10000 6.17 270 11:56 09.01.2022
6025 Clouds 4 1003 83 10000 4.63 240 11:28 09.01.2022
6026 Clouds 4 1002 87 10000 6.17 250 09:55 09.01.2022
6027 Clouds 3 1001 90 10000 6.17 240 09:20 09.01.2022
6028 Rain 4 997 90 10000 7.72 250 06:57 09.01.2022
6029 Rain 4 996 87 10000 4.12 180 01:30 09.01.2022
6030 Rain 4 998 82 10000 5.14 180 00:38 09.01.2022
6031 Clouds 4 999 82 10000 3.09 170 23:34 08.01.2022
6032 Clouds 3 1001 83 10000 1.03 0 22:48 08.01.2022
6033 Clear 2 1004 82 10000 2.06 130 21:28 08.01.2022
6034 Clear 2 1005 83 10000 2.57 140 20:44 08.01.2022
6035 Clear 2 1005 83 10000 2.57 140 20:44 08.01.2022
6036 Clouds 2 1006 82 10000 2.57 200 20:22 08.01.2022
6037 Clouds 2 1007 81 10000 2.06 170 19:22 08.01.2022
6038 Clouds 3 1009 77 10000 2.57 190 17:43 08.01.2022
6039 Rain 3 1010 77 10000 2.57 200 16:57 08.01.2022
6040 Clouds 3 1012 77 10000 2.06 200 15:34 08.01.2022
6041 Clouds 4 1014 73 10000 3.6 230 14:33 08.01.2022
6042 Clouds 3 1015 76 10000 3.09 240 12:35 08.01.2022
6043 Clouds 2 1015 89 10000 5.66 260 10:43 08.01.2022
6044 Clouds 2 1015 89 10000 4.12 260 10:23 08.01.2022
6045 Clouds 2 1015 89 10000 4.12 260 10:23 08.01.2022
6046 Clouds 2 1013 91 8000 7.72 280 09:34 08.01.2022
6047 Clouds 2 1009 93 7000 5.66 230 07:18 08.01.2022
6048 Clouds 2 1012 86 10000 1.03 0 01:49 08.01.2022
6049 Clouds 2 1013 85 10000 2.57 230 00:23 08.01.2022
6050 Clouds 2 1015 88 10000 2.57 200 22:21 07.01.2022
6051 Clouds 2 1015 88 10000 3.09 220 20:40 07.01.2022
6052 Clouds 2 1015 87 10000 3.09 210 19:34 07.01.2022
6053 Clouds 2 1015 88 10000 3.09 220 18:50 07.01.2022
6054 Clouds 2 1015 89 10000 2.57 210 18:26 07.01.2022
6055 Clouds 2 1015 88 10000 4.63 240 17:24 07.01.2022
6056 Clouds 2 1015 88 10000 2.57 220 16:22 07.01.2022
6057 Clouds 1 1016 89 10000 2.57 170 13:53 07.01.2022
6058 Clouds 1 1016 90 9000 2.57 180 13:18 07.01.2022
6059 Snow 1 1017 87 6000 3.09 0 12:35 07.01.2022
6060 Clear -1 1019 90 10000 2.57 200 07:31 07.01.2022
6061 Clear -2 1019 93 10000 0.51 0 02:54 07.01.2022
6062 Fog -2 1020 95 10000 1.03 0 01:52 07.01.2022
6063 Clear -2 1020 94 10000 0.51 0 01:27 07.01.2022
6064 Clear -2 1020 94 10000 0 0 00:57 07.01.2022
6065 Clear -1 1021 92 10000 0.51 0 22:46 06.01.2022
6066 Clear -1 1020 92 10000 0.51 0 21:23 06.01.2022
6067 Clear 0 1021 91 10000 1.03 0 20:20 06.01.2022
6068 Clouds 0 1021 91 10000 2.06 260 19:40 06.01.2022
6069 Clouds 2 1020 89 10000 0.51 0 17:53 06.01.2022
6070 Clouds 2 1020 86 10000 1.03 0 17:34 06.01.2022
6071 Clouds 3 1020 84 10000 1.03 130 16:40 06.01.2022
6072 Clouds 3 1019 85 10000 2.57 320 15:45 06.01.2022
6073 Clouds 4 1019 83 10000 3.09 330 15:24 06.01.2022
6074 Clouds 4 1019 80 10000 2.57 300 14:21 06.01.2022
6075 Clouds 4 1019 80 10000 5.14 320 13:47 06.01.2022
6076 Clouds 4 1019 81 10000 4.12 330 12:43 06.01.2022
6077 Clouds 4 1018 88 10000 4.12 280 11:41 06.01.2022
6078 Clouds 3 1018 88 10000 4.12 280 11:21 06.01.2022
6079 Clouds 2 1017 92 10000 3.6 250 08:51 06.01.2022
6080 Clouds 3 1014 86 8000 3.6 250 00:43 06.01.2022
6081 Clouds 3 1013 82 10000 3.6 240 23:36 05.01.2022
6082 Clouds 3 1013 79 10000 4.12 240 22:56 05.01.2022
6083 Clouds 3 1013 79 10000 4.12 240 22:31 05.01.2022
6084 Clouds 3 1013 78 10000 3.6 230 21:47 05.01.2022
6085 Clouds 3 1012 78 10000 3.6 210 20:56 05.01.2022
6086 Clouds 3 1013 78 10000 3.09 230 20:18 05.01.2022
6087 Clouds 2 1012 76 10000 4.12 230 18:42 05.01.2022
6088 Clouds 2 1011 75 10000 5.14 270 17:23 05.01.2022
6089 Clouds 3 1011 73 10000 4.63 290 16:38 05.01.2022
6090 Clouds 3 1010 71 10000 6.17 260 15:26 05.01.2022
6091 Clouds 3 1010 73 10000 6.17 260 13:51 05.01.2022
6092 Clouds 3 1009 74 10000 7.72 270 12:59 05.01.2022
6093 Clouds 2 1008 85 10000 7.2 280 10:32 05.01.2022
6094 Clouds 2 1004 92 10000 6.69 290 07:45 05.01.2022
6095 Clouds 5 1002 90 10000 5.14 220 06:24 05.01.2022
6096 Clouds 5 1001 76 10000 2.57 180 00:58 05.01.2022
6097 Rain 4 1001 93 10000 1.03 0 23:28 04.01.2022
6098 Rain 4 1001 93 10000 1.03 0 23:28 04.01.2022
6099 Rain 4 1001 93 10000 1.54 200 22:46 04.01.2022
6100 Rain 4 1001 92 10000 2.06 290 21:24 04.01.2022
6101 Rain 5 1001 92 10000 3.6 290 19:20 04.01.2022
6102 Clouds 6 1000 92 10000 7.2 320 17:51 04.01.2022
6103 Clouds 7 999 92 10000 6.69 310 16:44 04.01.2022
6104 Drizzle 8 998 93 5000 7.2 320 16:24 04.01.2022
6105 Rain 12 997 90 10000 6.69 230 14:54 04.01.2022
6106 Rain 12 996 90 10000 6.69 230 14:34 04.01.2022
6107 Rain 13 996 87 10000 8.75 240 13:29 04.01.2022
6108 Rain 12 998 88 10000 5.66 230 10:41 04.01.2022
6109 Rain 11 998 93 10000 4.63 200 09:47 04.01.2022
6110 Rain 11 999 92 10000 4.12 210 08:34 04.01.2022
6111 Clouds 11 1006 86 10000 3.6 200 02:52 04.01.2022
6112 Clouds 11 1008 84 10000 3.09 200 00:42 04.01.2022
6113 Clouds 10 1009 84 10000 2.57 200 23:34 03.01.2022
6114 Clouds 10 1011 81 10000 5.14 230 22:21 03.01.2022
6115 Clouds 10 1011 78 10000 5.14 230 21:34 03.01.2022
6116 Clouds 10 1012 76 10000 3.6 220 20:28 03.01.2022
6117 Clear 11 1013 74 10000 3.6 210 18:54 03.01.2022
6118 Clear 11 1014 74 10000 4.12 220 18:28 03.01.2022
6119 Clouds 11 1014 69 10000 4.12 220 17:18 03.01.2022
6120 Clouds 12 1015 72 10000 6.69 240 15:50 03.01.2022
6121 Clouds 12 1016 71 10000 3.6 240 14:31 03.01.2022
6122 Clouds 11 1017 79 10000 5.14 230 12:51 03.01.2022
6123 Clouds 11 1018 82 10000 5.66 240 11:50 03.01.2022
6124 Clouds 10 1018 81 10000 4.63 240 10:37 03.01.2022
6125 Rain 10 1018 82 10000 6.17 240 08:54 03.01.2022
6126 Rain 10 1018 84 10000 5.66 230 07:51 03.01.2022
6127 Clear 12 1017 71 10000 7.72 240 02:28 03.01.2022
6128 Clouds 11 1018 68 10000 2.06 210 23:22 02.01.2022
6129 Clouds 10 1018 74 10000 3.09 210 22:56 02.01.2022
6130 Clouds 9 1018 82 10000 1.03 0 21:52 02.01.2022
6131 Clear 9 1018 82 10000 1.03 0 20:50 02.01.2022
6132 Clear 8 1018 86 10000 2.06 80 20:29 02.01.2022
6133 Clear 9 1018 81 10000 1.54 250 19:31 02.01.2022
6134 Clear 10 1018 79 10000 2.06 240 18:55 02.01.2022
6135 Clear 11 1018 75 10000 3.6 240 17:56 02.01.2022
6136 Clear 11 1018 74 10000 3.6 240 17:38 02.01.2022
6137 Clear 12 1018 71 10000 3.6 240 17:20 02.01.2022
6138 Clear 13 1018 60 10000 3.6 220 16:27 02.01.2022
6139 Clear 13 1018 65 10000 3.6 230 14:41 02.01.2022
6140 Clear 10 1019 78 10000 1.03 0 13:25 02.01.2022
6141 Clear 8 1019 89 10000 1.54 110 12:32 02.01.2022
6142 Clear 8 1020 88 10000 1.54 90 11:49 02.01.2022
6143 Clear 7 1020 91 10000 0.51 0 10:53 02.01.2022
6144 Clear 4 1020 100 10000 1.03 0 09:56 02.01.2022
6145 Fog 3 1020 100 10000 1.03 0 07:34 02.01.2022
6146 Clouds 5 1023 96 10000 1.82 183 02:56 02.01.2022
6147 Fog 5 1024 98 10000 0.51 80 23:42 01.01.2022
6148 Fog 5 1024 97 10000 0.51 0 23:24 01.01.2022
6149 Clear 6 1024 94 10000 0.51 0 22:25 01.01.2022
6150 Clear 6 1024 80 10000 1.03 220 21:46 01.01.2022
6151 Clear 6 1024 78 10000 1.03 0 21:28 01.01.2022
6152 Clear 7 1025 93 10000 1.54 260 20:25 01.01.2022
6153 Clear 7 1025 94 10000 2.06 270 19:34 01.01.2022
6154 Clear 8 1025 91 10000 2.06 300 18:51 01.01.2022
6155 Clouds 9 1026 90 10000 1.24 178 17:38 01.01.2022
6156 Clear 12 1026 82 10000 1.03 0 16:35 01.01.2022
6157 Clear 13 1026 75 10000 2.06 80 15:37 01.01.2022
6158 Clear 13 1026 73 10000 1.54 80 14:39 01.01.2022
6159 Clouds 13 1027 73 10000 1.54 130 13:41 01.01.2022
6160 Clouds 13 1028 74 10000 3.09 140 12:25 01.01.2022
6161 Clouds 11 1028 82 10000 1.03 0 11:26 01.01.2022
6162 Clouds 10 1028 85 10000 1.03 0 10:58 01.01.2022
6163 Clouds 8 1028 75 10000 1.54 190 09:48 01.01.2022
6164 Clouds 8 1028 74 10000 1.03 0 08:39 01.01.2022
6165 Clouds 7 1028 74 10000 0.51 0 07:57 01.01.2022
6166 Clouds 8 1028 74 10000 0.51 0 07:38 01.01.2022
6167 Clouds 8 1027 74 10000 1.03 0 06:44 01.01.2022
6168 Clouds 9 1027 73 10000 1.54 210 05:24 01.01.2022
6169 Clouds 9 1027 75 10000 2.57 280 04:35 01.01.2022
6170 Clouds 9 1027 74 10000 1.03 0 00:23 01.01.2022
6171 Clear 8 1026 76 10000 3.09 270 22:30 31.12.2021
6172 Clear 8 1026 79 10000 2.06 240 21:47 31.12.2021
6173 Clear 9 1024 76 10000 3.09 260 19:48 31.12.2021
6174 Clear 10 1023 71 10000 4.63 250 19:28 31.12.2021
6175 Clear 11 1022 87 10000 1.54 250 18:24 31.12.2021
6176 Clear 11 1022 89 10000 1.54 190 17:37 31.12.2021
6177 Clouds 12 1023 90 10000 1.56 206 16:56 31.12.2021
6178 Clouds 13 1022 81 10000 2.57 270 16:18 31.12.2021
6179 Clouds 13 1023 84 10000 1.17 217 15:50 31.12.2021
6180 Clouds 14 1022 81 10000 1.03 0 15:28 31.12.2021
6181 Clouds 14 1022 79 10000 2.57 260 14:41 31.12.2021
6182 Clear 14 1022 79 10000 2.06 210 13:58 31.12.2021
6183 Clear 14 1022 80 10000 2.57 220 13:23 31.12.2021
6184 Clouds 13 1023 86 10000 2.06 190 12:33 31.12.2021
6185 Clouds 12 1023 85 10000 3.09 190 11:42 31.12.2021
6186 Clear 11 1023 86 10000 2.57 170 11:19 31.12.2021
6187 Clear 9 1024 78 10000 0.51 0 10:30 31.12.2021
6188 Fog 8 1023 80 10000 1.03 90 09:35 31.12.2021
6189 Clear 7 1023 75 10000 0.51 0 08:56 31.12.2021
6190 Clear 7 1023 77 10000 0.51 0 08:25 31.12.2021
6191 Clouds 8 1023 77 10000 1.54 260 07:30 31.12.2021
6192 Clouds 13 1024 86 10000 2.57 220 23:23 30.12.2021
6193 Clouds 13 1024 88 10000 3.6 200 22:33 30.12.2021
6194 Clouds 13 1023 88 10000 2.57 220 21:51 30.12.2021
6195 Clouds 13 1023 88 10000 2.57 220 21:33 30.12.2021
6196 Clouds 13 1023 89 10000 2.57 240 20:44 30.12.2021
6197 Clouds 13 1023 89 10000 2.57 240 20:24 30.12.2021
6198 Clouds 13 1023 89 10000 1.54 210 19:44 30.12.2021
6199 Clouds 14 1022 73 10000 3.09 240 18:29 30.12.2021
6200 Clouds 14 1022 87 10000 2.06 220 17:52 30.12.2021
6201 Clouds 15 1021 88 10000 3.6 230 16:19 30.12.2021
6202 Clouds 15 1021 86 10000 5.14 240 15:42 30.12.2021
6203 Clouds 15 1021 86 10000 4.63 230 14:38 30.12.2021
6204 Clouds 16 1021 86 10000 3.09 230 13:49 30.12.2021
6205 Clouds 15 1021 89 10000 2.06 220 12:40 30.12.2021
6206 Clouds 14 1020 90 10000 3.09 230 10:58 30.12.2021
6207 Clouds 13 1020 77 10000 4.63 230 09:59 30.12.2021
6208 Clouds 12 1020 77 10000 3.6 230 08:58 30.12.2021
6209 Clouds 12 1018 76 10000 1.54 210 06:52 30.12.2021
6210 Clouds 12 1017 92 10000 1.54 240 03:43 30.12.2021
6211 Clouds 12 1016 93 10000 2.06 250 03:23 30.12.2021
6212 Clouds 12 1013 74 10000 1.54 220 23:57 29.12.2021
6213 Clouds 11 1013 69 10000 3.09 220 23:23 29.12.2021
6214 Clouds 11 1012 76 10000 4.12 220 22:22 29.12.2021
6215 Clouds 9 1012 71 10000 4.63 230 21:45 29.12.2021
6216 Clouds 9 1011 76 10000 2.57 230 20:40 29.12.2021
6217 Clouds 9 1011 95 9000 2.57 200 19:54 29.12.2021
6218 Clouds 9 1011 93 5000 2.06 200 19:25 29.12.2021
6219 Rain 9 1011 94 10000 2.57 190 18:19 29.12.2021
6220 Rain 9 1011 91 10000 2.57 210 17:29 29.12.2021
6221 Clouds 10 1011 90 10000 2.06 210 16:49 29.12.2021
6222 Clouds 10 1011 87 10000 2.57 210 16:19 29.12.2021
6223 Clouds 10 1011 86 10000 3.09 220 14:46 29.12.2021
6224 Clouds 10 1011 88 10000 3.09 210 12:49 29.12.2021
6225 Clouds 10 1011 88 10000 2.57 210 12:27 29.12.2021
6226 Clouds 9 1011 90 10000 1.54 190 10:38 29.12.2021
6227 Clouds 8 1009 92 10000 2.06 220 08:37 29.12.2021
6228 Clouds 8 1008 91 10000 3.09 250 06:49 29.12.2021
6229 Clouds 9 1008 89 10000 2.06 220 06:28 29.12.2021
6230 Clouds 9 1007 87 10000 2.06 200 05:50 29.12.2021
6231 Clouds 9 1006 86 10000 6.17 240 03:46 29.12.2021
6232 Clouds 9 1002 86 10000 6.69 230 00:28 29.12.2021
6233 Clouds 9 1002 87 10000 5.14 220 23:56 28.12.2021
6234 Clouds 8 1001 90 10000 4.63 200 22:56 28.12.2021
6235 Clouds 8 1001 90 10000 3.09 200 22:24 28.12.2021
6236 Rain 7 1001 91 10000 2.57 200 21:54 28.12.2021
6237 Rain 7 1001 92 10000 2.57 180 21:28 28.12.2021
6238 Clouds 7 1002 88 10000 3.09 210 19:52 28.12.2021
6239 Clouds 8 1001 84 10000 7.72 240 18:53 28.12.2021
6240 Clouds 7 1002 86 10000 10.8 280 18:25 28.12.2021
6241 Rain 9 1000 88 9000 11.83 280 17:29 28.12.2021
6242 Rain 11 997 88 10000 2.57 220 15:53 28.12.2021
6243 Clouds 11 998 86 10000 5.14 220 15:29 28.12.2021
6244 Clouds 11 998 88 10000 4.12 220 14:55 28.12.2021
6245 Clouds 11 998 89 10000 2.57 220 14:37 28.12.2021
6246 Clouds 11 998 90 10000 2.57 220 14:18 28.12.2021
6247 Clouds 12 999 89 10000 4.12 200 13:37 28.12.2021
6248 Clouds 11 999 89 10000 3.6 210 12:56 28.12.2021
6249 Clouds 11 999 89 10000 3.6 220 12:21 28.12.2021
6250 Clouds 10 999 88 10000 4.12 200 10:47 28.12.2021
6251 Clouds 7 999 75 10000 3.6 180 07:39 28.12.2021
6252 Clouds 6 1001 75 10000 1.03 0 03:37 28.12.2021
6253 Clouds 8 1003 91 10000 1.54 180 23:41 27.12.2021
6254 Clouds 8 1002 73 10000 3.6 200 22:27 27.12.2021
6255 Clouds 8 1002 73 10000 1.54 190 21:31 27.12.2021
6256 Clouds 8 1002 74 10000 2.57 180 20:39 27.12.2021
6257 Rain 8 1003 75 10000 2.57 190 19:55 27.12.2021
6258 Rain 8 1002 76 10000 2.06 200 19:37 27.12.2021
6259 Rain 8 1002 76 10000 1.03 0 17:55 27.12.2021
6260 Rain 8 1002 74 10000 1.03 0 17:55 27.12.2021
6261 Rain 8 1002 74 10000 1.03 150 17:29 27.12.2021
6262 Clouds 9 1002 88 10000 2.06 180 16:27 27.12.2021
6263 Clouds 9 1002 86 10000 1.03 0 15:49 27.12.2021
6264 Clouds 10 1002 84 10000 1.54 190 14:26 27.12.2021
6265 Clouds 10 1002 87 10000 1.54 140 13:32 27.12.2021
6266 Clouds 8 1003 71 10000 0.51 0 11:34 27.12.2021
6267 Clear 7 1003 79 10000 0.51 0 10:27 27.12.2021
6268 Fog 5 1003 78 10000 0.51 0 09:38 27.12.2021
6269 Clouds 6 1004 77 10000 0.51 70 07:35 27.12.2021
6270 Clouds 6 1004 79 10000 0.51 80 06:30 27.12.2021
6271 Clouds 6 1005 77 10000 1.54 260 01:59 27.12.2021
6272 Fog 6 1005 78 3500 0.51 50 23:52 26.12.2021
6273 Fog 6 1005 77 4000 0.51 0 23:34 26.12.2021
6274 Fog 6 1005 79 5000 0.51 70 21:48 26.12.2021
6275 Clouds 6 1005 78 10000 1.54 70 20:42 26.12.2021
6276 Rain 6 1006 78 10000 1.54 80 19:31 26.12.2021
6277 Rain 6 1006 76 10000 0.51 0 18:23 26.12.2021
6278 Clouds 7 1006 92 10000 1.54 90 15:56 26.12.2021
6279 Clouds 7 1006 91 10000 1.54 70 14:27 26.12.2021
6280 Clouds 7 1006 92 10000 2.06 90 13:40 26.12.2021
6281 Clouds 7 1006 92 10000 1.54 110 13:18 26.12.2021
6282 Clouds 6 1006 93 6000 1.03 0 12:27 26.12.2021
6283 Drizzle 5 1007 75 6000 1.54 90 10:22 26.12.2021
6284 Mist 4 1006 77 4700 0.51 0 09:19 26.12.2021
6285 Mist 4 1006 77 4500 0 0 08:43 26.12.2021
6286 Mist 4 1006 77 4500 0.51 0 07:34 26.12.2021
6287 Drizzle 4 1006 77 3200 1.54 350 01:24 26.12.2021
6288 Drizzle 4 1006 77 2200 1.54 350 23:54 25.12.2021
6289 Drizzle 4 1006 77 1800 1.54 330 23:27 25.12.2021
6290 Drizzle 4 1006 77 1300 2.57 350 22:26 25.12.2021
6291 Drizzle 5 1006 75 2300 2.06 350 20:57 25.12.2021
6292 Fog 6 1005 76 500 3.09 360 19:26 25.12.2021
6293 Clouds 6 1005 77 4000 2.57 20 18:55 25.12.2021
6294 Clouds 7 1005 76 10000 1.03 0 17:37 25.12.2021
6295 Clouds 7 1005 75 10000 2.57 340 16:36 25.12.2021
6296 Clouds 8 1004 91 10000 1.03 0 15:18 25.12.2021
6297 Clouds 9 1004 90 10000 2.06 250 13:31 25.12.2021
6298 Clouds 9 1005 76 10000 1.54 230 11:51 25.12.2021
6299 Rain 8 1004 78 10000 2.57 250 09:57 25.12.2021
6300 Clouds 8 1004 77 10000 2.57 250 09:37 25.12.2021
6301 Rain 7 1004 76 10000 1.54 210 04:34 25.12.2021
6302 Rain 8 1005 76 10000 2.06 270 01:25 25.12.2021
6303 Clouds 8 1005 91 10000 2.57 240 23:47 24.12.2021
6304 Clouds 7 1005 91 10000 3.6 230 19:50 24.12.2021
6305 Clouds 8 1005 91 10000 2.06 230 19:24 24.12.2021
6306 Clouds 8 1006 91 10000 1.54 210 16:59 24.12.2021
6307 Clouds 9 1006 91 10000 2.06 220 16:23 24.12.2021
6308 Clouds 9 1006 91 10000 2.06 190 15:48 24.12.2021
6309 Rain 9 1006 91 10000 2.06 210 15:20 24.12.2021
6310 Clouds 9 1007 91 10000 3.09 210 14:31 24.12.2021
6311 Clouds 8 1007 91 10000 3.09 220 13:44 24.12.2021
6312 Rain 8 1007 91 10000 3.09 220 12:49 24.12.2021
6313 Rain 8 1007 91 10000 3.09 220 12:23 24.12.2021
6314 Rain 9 1008 88 10000 4.12 230 11:42 24.12.2021
6315 Rain 9 1008 88 10000 3.09 220 11:19 24.12.2021
6316 Rain 9 1008 83 10000 4.12 230 10:33 24.12.2021
6317 Clouds 8 1008 84 10000 5.14 240 08:38 24.12.2021
6318 Clouds 8 1008 84 10000 3.6 230 07:58 24.12.2021
6319 Clouds 7 1008 85 10000 2.57 210 06:44 24.12.2021
6320 Clear 7 1011 81 10000 3.6 230 00:21 24.12.2021
6321 Clear 6 1011 85 10000 4.63 250 23:39 23.12.2021
6322 Clear 6 1011 85 10000 4.63 230 22:50 23.12.2021
6323 Clear 6 1011 86 10000 3.6 220 22:22 23.12.2021
6324 Clear 6 1011 84 10000 2.57 220 21:39 23.12.2021
6325 Clear 6 1011 80 10000 2.06 280 20:27 23.12.2021
6326 Clear 5 1011 79 10000 1.03 0 19:28 23.12.2021
6327 Clouds 5 1012 80 10000 1.54 200 18:18 23.12.2021
6328 Clouds 5 1012 78 10000 2.06 230 17:45 23.12.2021
6329 Clouds 4 1012 78 10000 3.09 200 16:27 23.12.2021
6330 Clouds 4 1013 77 10000 1.03 0 15:40 23.12.2021
6331 Clouds 4 1013 77 10000 1.03 0 15:22 23.12.2021
6332 Clear 4 1013 79 10000 1.03 0 14:40 23.12.2021
6333 Rain 3 1014 80 10000 2.06 70 13:31 23.12.2021
6334 Clear 1 1015 85 10000 1.54 100 11:52 23.12.2021
6335 Clear -2 1016 86 10000 1.54 140 09:53 23.12.2021
6336 Clear -2 1016 80 10000 1.54 120 09:34 23.12.2021
6337 Clear -3 1016 83 10000 1.54 120 08:38 23.12.2021
6338 Clear -3 1017 93 10000 1.03 0 05:43 23.12.2021
6339 Clear -4 1019 92 10000 1.54 120 02:56 23.12.2021
6340 Clear -3 1020 87 10000 0 0 22:53 22.12.2021
6341 Clear -3 1021 89 10000 0.51 100 22:22 22.12.2021
6342 Clear -4 1021 89 10000 0.51 0 21:37 22.12.2021
6343 Clear -3 1021 89 10000 1.54 100 21:19 22.12.2021
6344 Clear -3 1022 91 10000 0.51 80 20:40 22.12.2021
6345 Clear -3 1022 90 10000 1.03 110 19:57 22.12.2021
6346 Clear -2 1022 89 10000 2.06 90 18:56 22.12.2021
6347 Clear -2 1022 86 10000 1.54 90 17:38 22.12.2021
6348 Clear 0 1022 81 10000 1.54 140 16:32 22.12.2021
6349 Clear 1 1023 74 10000 1.03 0 15:21 22.12.2021
6350 Clear 0 1024 77 10000 1.54 150 12:59 22.12.2021
6351 Clear -1 1025 81 10000 2.06 180 11:50 22.12.2021
6352 Clear -4 1025 92 10000 0.51 0 09:53 22.12.2021
6353 Clear -5 1025 93 10000 0 0 08:58 22.12.2021
6354 Clear -5 1025 93 10000 0.51 0 07:21 22.12.2021
6355 Clear -5 1025 93 10000 0.51 100 05:39 22.12.2021
6356 Clear -5 1025 93 10000 0.51 100 05:20 22.12.2021
6357 Clear -4 1025 93 10000 0.51 100 04:42 22.12.2021
6358 Clear -5 1025 92 10000 0 0 03:56 22.12.2021
6359 Clear -5 1025 87 10000 0.51 0 03:31 22.12.2021
6360 Clear -3 1024 89 10000 0.51 0 23:57 21.12.2021
6361 Clear -3 1024 89 10000 1.03 290 22:44 21.12.2021
6362 Clear -3 1024 91 10000 0.51 360 22:24 21.12.2021
6363 Clear -2 1024 89 10000 1.03 0 21:42 21.12.2021
6364 Clear -2 1024 88 10000 0.51 0 20:44 21.12.2021
6365 Clear -2 1023 90 10000 1.03 170 20:20 21.12.2021
6366 Clear -2 1023 89 10000 1.03 170 20:20 21.12.2021
6367 Clouds -2 1023 90 10000 1.03 150 19:41 21.12.2021
6368 Clear -1 1023 86 10000 3.09 50 18:36 21.12.2021
6369 Clear 0 1022 85 10000 2.06 50 17:59 21.12.2021
6370 Clear 0 1022 85 10000 2.06 50 17:40 21.12.2021
6371 Clouds 2 1022 74 10000 2.06 360 15:46 21.12.2021
6372 Clouds 3 1022 73 10000 3.6 80 14:59 21.12.2021
6373 Clear 3 1022 75 10000 2.06 70 13:47 21.12.2021
6374 Clear 2 1022 78 10000 1.03 0 13:29 21.12.2021
6375 Clear 0 1023 88 10000 0.51 0 10:55 21.12.2021
6376 Clear -3 1023 91 10000 0 0 09:57 21.12.2021
6377 Clear -3 1023 87 10000 0.51 150 09:18 21.12.2021
6378 Clear -3 1023 93 10000 0 0 07:54 21.12.2021
6379 Clear -3 1023 93 10000 0.51 0 07:25 21.12.2021
6380 Clear -3 1023 86 10000 0.51 0 04:56 21.12.2021
6381 Clear -2 1023 92 10000 0.51 0 02:39 21.12.2021
6382 Clear -2 1024 94 10000 0.51 190 23:58 20.12.2021
6383 Clear -2 1025 92 10000 0.51 360 22:49 20.12.2021
6384 Clear -1 1025 92 10000 0.51 0 22:28 20.12.2021
6385 Clear -1 1025 90 10000 1.54 20 21:43 20.12.2021
6386 Clear -1 1025 92 10000 1.54 70 21:23 20.12.2021
6387 Clear -1 1025 89 10000 0.51 0 20:42 20.12.2021
6388 Clear 0 1025 86 10000 0.51 70 19:48 20.12.2021
6389 Clear 0 1025 88 10000 1.03 60 19:29 20.12.2021
6390 Clear 0 1025 85 10000 1.03 360 18:53 20.12.2021
6391 Clouds 2 1025 86 10000 1.54 340 17:52 20.12.2021
6392 Clouds 2 1025 85 10000 1.03 50 17:23 20.12.2021
6393 Clouds 3 1025 83 10000 2.57 60 16:38 20.12.2021
6394 Clouds 5 1025 82 10000 1.54 40 15:48 20.12.2021
6395 Clouds 5 1024 82 10000 2.57 40 14:42 20.12.2021
6396 Clouds 5 1025 88 10000 2.57 50 12:51 20.12.2021
6397 Clouds 4 1025 93 7000 1.03 80 11:19 20.12.2021
6398 Clouds 3 1025 93 6000 0.51 0 09:47 20.12.2021
6399 Clouds 3 1025 94 6000 0.51 0 08:58 20.12.2021
6400 Clouds 2 1025 94 6000 0.51 0 08:40 20.12.2021
6401 Clouds 3 1024 95 9000 1.03 0 07:49 20.12.2021
6402 Clouds 2 1024 94 9000 0.51 160 07:25 20.12.2021
6403 Clouds 3 1024 92 8000 1.03 210 03:43 20.12.2021
6404 Clouds 3 1026 92 7000 1.03 0 23:58 19.12.2021
6405 Drizzle 2 1026 92 5000 1.54 260 22:45 19.12.2021
6406 Drizzle 2 1026 94 6000 2.06 240 21:50 19.12.2021
6407 Drizzle 2 1026 94 7000 2.57 240 21:29 19.12.2021
6408 Drizzle 2 1026 92 4500 2.57 230 20:30 19.12.2021
6409 Drizzle 2 1026 92 4500 1.54 240 19:46 19.12.2021
6410 Drizzle 2 1026 92 5000 2.57 300 18:58 19.12.2021
6411 Clouds 2 1026 92 7000 3.09 350 18:29 19.12.2021
6412 Clouds 2 1026 92 7000 1.54 200 17:51 19.12.2021
6413 Clouds 2 1026 92 7000 1.03 0 17:18 19.12.2021
6414 Clouds 2 1026 93 9000 1.03 0 16:25 19.12.2021
6415 Mist 2 1027 93 4700 2.06 230 15:31 19.12.2021
6416 Mist 2 1027 94 4500 1.54 210 14:59 19.12.2021
6417 Mist 2 1028 94 4500 2.06 210 14:36 19.12.2021
6418 Clouds 2 1029 94 6000 1.54 200 13:22 19.12.2021
6419 Clouds 2 1029 93 10000 1.54 230 12:33 19.12.2021
6420 Clouds 2 1030 95 10000 1.54 230 11:44 19.12.2021
6421 Mist 2 1031 94 3400 1.54 230 10:59 19.12.2021
6422 Mist 2 1031 94 2800 2.06 200 10:25 19.12.2021
6423 Mist 1 1031 94 2800 1.03 0 09:37 19.12.2021
6424 Mist 1 1031 94 2000 2.06 240 07:50 19.12.2021
6425 Mist 2 1032 94 1500 1.54 180 04:45 19.12.2021
6426 Clouds 2 1034 94 6000 0.51 0 01:19 19.12.2021
6427 Clouds 2 1034 93 7000 0.51 0 00:52 19.12.2021
6428 Clouds 2 1034 92 10000 0.51 0 22:36 18.12.2021
6429 Clouds 2 1034 92 10000 1.54 150 21:57 18.12.2021
6430 Clouds 2 1034 92 10000 1.54 150 21:35 18.12.2021
6431 Clouds 3 1035 92 10000 2.06 30 20:44 18.12.2021
6432 Clouds 3 1034 90 10000 1.54 30 19:59 18.12.2021
6433 Clouds 3 1034 90 10000 2.06 50 19:20 18.12.2021
6434 Clouds 3 1035 90 10000 2.57 40 18:21 18.12.2021
6435 Clouds 3 1035 90 10000 2.06 40 17:48 18.12.2021
6436 Clouds 3 1035 89 10000 2.06 360 16:26 18.12.2021
6437 Clouds 3 1035 89 10000 2.06 360 16:26 18.12.2021
6438 Clouds 4 1035 87 10000 2.57 30 15:27 18.12.2021
6439 Clouds 4 1035 84 10000 2.06 100 14:38 18.12.2021
6440 Clouds 4 1036 87 10000 2.57 110 13:21 18.12.2021
6441 Clouds 3 1037 88 10000 2.57 80 11:22 18.12.2021
6442 Clouds 3 1037 91 10000 0.51 0 09:40 18.12.2021
6443 Clouds 2 1037 91 9000 1.03 0 08:47 18.12.2021
6444 Clouds 2 1037 92 7000 1.54 70 08:23 18.12.2021
6445 Clouds 3 1037 90 10000 2.57 70 03:58 18.12.2021
6446 Clouds 3 1037 89 10000 2.06 70 00:29 18.12.2021
6447 Clouds 4 1037 89 10000 1.54 80 23:46 17.12.2021
6448 Clouds 4 1037 89 10000 2.06 20 21:58 17.12.2021
6449 Clouds 4 1037 89 10000 1.54 360 21:19 17.12.2021
6450 Clouds 4 1037 89 10000 2.57 360 20:40 17.12.2021
6451 Clear 4 1039 90 10000 0.59 48 19:28 17.12.2021
6452 Clouds 5 1037 89 10000 1.54 20 18:39 17.12.2021
6453 Clouds 5 1037 87 10000 3.6 360 17:33 17.12.2021
6454 Clouds 6 1037 87 10000 4.63 10 16:49 17.12.2021
6455 Clouds 7 1037 85 10000 3.6 10 16:22 17.12.2021
6456 Clouds 7 1036 80 10000 2.57 360 15:25 17.12.2021
6457 Clouds 7 1036 79 10000 3.6 360 14:40 17.12.2021
6458 Clouds 8 1037 78 10000 2.57 360 13:21 17.12.2021
6459 Clouds 7 1037 81 10000 1.54 60 12:21 17.12.2021
6460 Clouds 5 1037 70 10000 2.06 90 10:38 17.12.2021
6461 Clouds 4 1037 90 10000 3.09 50 09:34 17.12.2021
6462 Clouds 4 1036 93 10000 2.06 60 08:31 17.12.2021
6463 Clouds 4 1036 93 10000 1.03 0 07:18 17.12.2021
6464 Clouds 4 1037 93 10000 0.51 0 04:39 17.12.2021
6465 Clouds 2 1037 95 10000 0.51 0 23:47 16.12.2021
6466 Clear 2 1037 94 10000 1.54 320 22:24 16.12.2021
6467 Clear 2 1037 94 10000 1.54 300 21:51 16.12.2021
6468 Clear 2 1037 92 10000 1.03 270 21:30 16.12.2021
6469 Clear 3 1037 94 10000 2.06 310 20:31 16.12.2021
6470 Clouds 4 1037 91 10000 1.54 300 19:49 16.12.2021
6471 Clouds 4 1037 91 10000 1.03 230 18:41 16.12.2021
6472 Clouds 4 1037 92 10000 1.54 90 17:57 16.12.2021
6473 Clouds 5 1037 91 10000 1.03 0 17:31 16.12.2021
6474 Clouds 6 1037 88 10000 0.51 80 16:23 16.12.2021
6475 Clouds 6 1036 88 10000 1.03 0 14:54 16.12.2021
6476 Clouds 6 1036 89 10000 0.51 0 13:43 16.12.2021
6477 Clouds 5 1037 92 8000 1.54 130 11:46 16.12.2021
6478 Clouds 5 1036 92 9000 1.54 140 11:18 16.12.2021
6479 Clouds 5 1036 93 10000 1.03 0 10:32 16.12.2021
6480 Clouds 4 1035 93 8000 2.06 260 08:56 16.12.2021
6481 Clouds 4 1034 93 8000 2.06 180 06:23 16.12.2021
6482 Mist 4 1034 93 3900 1.03 0 02:59 16.12.2021
6483 Clouds 5 1034 91 10000 1.54 360 23:36 15.12.2021
6484 Clouds 5 1034 91 10000 1.03 0 22:49 15.12.2021
6485 Clouds 5 1034 91 10000 2.06 80 22:19 15.12.2021
6486 Clouds 5 1034 90 10000 2.57 70 21:31 15.12.2021
6487 Clouds 5 1033 91 10000 2.06 50 20:32 15.12.2021
6488 Clouds 5 1033 91 10000 1.54 90 19:53 15.12.2021
6489 Clouds 5 1032 90 10000 1.54 50 18:40 15.12.2021
6490 Clouds 5 1032 88 10000 1.03 0 18:18 15.12.2021
6491 Clouds 5 1032 88 10000 1.03 0 17:40 15.12.2021
6492 Clouds 6 1032 88 10000 1.03 0 16:57 15.12.2021
6493 Clouds 6 1031 89 10000 1.54 130 15:47 15.12.2021
6494 Clouds 6 1031 89 10000 1.03 0 15:29 15.12.2021
6495 Clouds 6 1031 87 10000 1.03 0 14:44 15.12.2021
6496 Clouds 6 1032 87 10000 1.54 160 13:27 15.12.2021
6497 Clouds 6 1032 90 10000 2.06 170 11:40 15.12.2021
6498 Clouds 5 1032 89 10000 2.06 130 09:38 15.12.2021
6499 Clouds 5 1031 94 10000 1.54 90 07:55 15.12.2021
6500 Mist 6 1030 93 3000 0.51 90 04:22 15.12.2021
6501 Mist 6 1030 93 5000 0.51 80 23:53 14.12.2021
6502 Mist 6 1030 93 5000 0.51 0 23:21 14.12.2021
6503 Clouds 6 1030 92 7000 0.51 0 22:42 14.12.2021
6504 Clouds 6 1029 92 10000 1.03 0 21:38 14.12.2021
6505 Clouds 6 1029 92 10000 0.51 0 20:20 14.12.2021
6506 Clouds 6 1029 92 10000 0.51 0 19:21 14.12.2021
6507 Clouds 6 1029 92 10000 3.09 340 18:38 14.12.2021
6508 Clouds 6 1029 92 10000 4.12 330 17:53 14.12.2021
6509 Clouds 6 1028 91 10000 4.12 340 16:43 14.12.2021
6510 Clouds 6 1027 91 10000 1.54 40 16:18 14.12.2021
6511 Clouds 7 1027 90 10000 1.03 0 13:58 14.12.2021
6512 Clouds 6 1027 92 10000 1.03 0 12:48 14.12.2021
6513 Fog 5 1027 92 9000 1.03 0 11:25 14.12.2021
6514 Fog 5 1027 94 9000 1.54 100 10:59 14.12.2021
6515 Fog 4 1027 93 3500 2.06 160 09:54 14.12.2021
6516 Fog 4 1027 92 500 3.6 150 08:49 14.12.2021
6517 Fog 4 1027 94 3000 1.54 170 08:21 14.12.2021
6518 Fog 4 1027 94 900 1.54 0 07:23 14.12.2021
6519 Clouds 6 1028 91 8000 2.57 150 23:52 13.12.2021
6520 Clouds 6 1028 94 10000 2.06 140 22:26 13.12.2021
6521 Clouds 6 1028 87 10000 1.03 190 21:39 13.12.2021
6522 Clouds 6 1028 87 10000 2.06 170 20:54 13.12.2021
6523 Clouds 7 1028 90 10000 3.6 160 20:22 13.12.2021
6524 Clouds 7 1028 91 10000 3.6 170 19:49 13.12.2021
6525 Clouds 7 1028 91 10000 3.6 170 19:49 13.12.2021
6526 Clouds 8 1028 92 10000 2.06 80 17:28 13.12.2021
6527 Clouds 8 1028 93 10000 1.03 100 16:43 13.12.2021
6528 Clouds 8 1028 93 10000 1.03 50 15:43 13.12.2021
6529 Clouds 8 1028 91 10000 1.03 0 14:43 13.12.2021
6530 Clouds 8 1028 93 7000 0.51 0 13:37 13.12.2021
6531 Mist 8 1028 92 1700 0.51 0 12:40 13.12.2021
6532 Mist 7 1029 94 1400 0.51 0 11:53 13.12.2021
6533 Mist 7 1029 92 2000 0.51 0 11:34 13.12.2021
6534 Mist 6 1029 94 1300 0.51 0 10:37 13.12.2021
6535 Fog 5 1028 95 2000 0.51 90 08:44 13.12.2021
6536 Fog 5 1028 95 6000 1.54 70 06:55 13.12.2021
6537 Drizzle 5 1027 94 8000 0.51 0 05:19 13.12.2021
6538 Clouds 5 1027 90 10000 0.51 0 00:27 13.12.2021
6539 Clouds 6 1027 82 10000 2.06 230 21:59 12.12.2021
6540 Clouds 6 1027 81 10000 1.03 0 21:29 12.12.2021
6541 Clouds 6 1027 78 10000 1.54 200 19:36 12.12.2021
6542 Clouds 6 1027 77 10000 2.06 240 18:23 12.12.2021
6543 Clouds 6 1026 75 10000 2.06 210 16:47 12.12.2021
6544 Clouds 6 1026 75 10000 2.06 230 16:22 12.12.2021
6545 Clouds 6 1026 70 10000 4.12 230 15:28 12.12.2021
6546 Clouds 6 1026 69 10000 3.09 230 14:54 12.12.2021
6547 Clouds 6 1026 68 10000 2.57 210 14:22 12.12.2021
6548 Clear 5 1027 78 10000 2.57 230 12:51 12.12.2021
6549 Clear 5 1027 79 10000 2.06 200 12:23 12.12.2021
6550 Clear 4 1027 82 10000 2.57 210 11:43 12.12.2021
6551 Clear 3 1027 84 10000 0.51 200 10:45 12.12.2021
6552 Clear 2 1027 84 10000 0.51 0 10:21 12.12.2021
6553 Clear 0 1027 90 10000 1.54 220 08:50 12.12.2021
6554 Clouds 1 1026 89 10000 1.54 250 07:31 12.12.2021
6555 Clouds 2 1026 84 10000 1.03 0 05:56 12.12.2021
6556 Clouds 2 1026 83 10000 1.03 0 04:55 12.12.2021
6557 Clouds 3 1025 87 10000 2.06 270 02:56 12.12.2021
6558 Clouds 3 1024 87 10000 1.03 0 23:30 11.12.2021
6559 Clouds 3 1023 88 10000 0.51 230 22:21 11.12.2021
6560 Clouds 3 1023 88 10000 1.03 0 21:50 11.12.2021
6561 Clouds 3 1022 87 10000 2.06 230 20:21 11.12.2021
6562 Clouds 3 1021 86 10000 2.06 220 19:21 11.12.2021
6563 Clouds 3 1021 84 10000 1.54 210 18:50 11.12.2021
6564 Clouds 3 1020 86 10000 2.57 260 17:56 11.12.2021
6565 Clouds 3 1019 85 10000 1.54 220 16:40 11.12.2021
6566 Clouds 4 1019 83 10000 2.57 240 15:47 11.12.2021
6567 Clouds 4 1017 82 10000 2.57 250 14:54 11.12.2021
6568 Clouds 3 1016 87 10000 6.17 280 12:42 11.12.2021
6569 Clouds 3 1015 90 10000 4.12 270 11:24 11.12.2021
6570 Clouds 2 1013 92 10000 5.14 290 09:45 11.12.2021
6571 Clouds 2 1013 92 10000 5.14 290 09:45 11.12.2021
6572 Clouds 2 1013 92 10000 5.14 290 09:45 11.12.2021
6573 Clouds 2 1013 92 10000 5.14 290 09:45 11.12.2021
6574 Clouds 2 1009 92 7000 3.09 280 07:32 11.12.2021
6575 Clouds 3 1002 92 10000 4.12 220 00:51 11.12.2021
6576 Clouds 4 1001 90 10000 4.12 220 23:49 10.12.2021
6577 Clouds 4 1000 90 10000 5.14 230 23:18 10.12.2021
6578 Clouds 4 999 89 10000 3.6 220 21:52 10.12.2021
6579 Clouds 4 998 89 10000 3.6 210 20:57 10.12.2021
6580 Clouds 3 996 91 10000 3.09 210 19:21 10.12.2021
6581 Clouds 2 994 90 10000 3.09 210 17:59 10.12.2021
6582 Clouds 2 994 90 10000 2.57 200 16:56 10.12.2021
6583 Rain 2 993 93 10000 1.54 140 16:19 10.12.2021
6584 Snow 2 993 93 10000 1.03 160 15:39 10.12.2021
6585 Snow 1 993 93 10000 1.03 0 15:20 10.12.2021
6586 Snow 2 993 90 5000 2.06 130 13:51 10.12.2021
6587 Snow 3 993 81 5000 5.14 180 13:26 10.12.2021
6588 Clouds 3 993 79 10000 2.06 170 12:35 10.12.2021
6589 Clouds 2 994 84 10000 1.54 180 11:28 10.12.2021
6590 Clear 1 995 87 10000 0.51 0 10:26 10.12.2021
6591 Clear 0 995 92 10000 2.06 80 08:52 10.12.2021
6592 Clear 0 998 90 10000 1.03 110 06:22 10.12.2021
6593 Clear 1 1002 87 10000 1.54 200 02:48 10.12.2021
6594 Clouds 3 1004 87 10000 2.57 190 00:32 10.12.2021
6595 Clouds 3 1006 87 10000 3.09 220 23:22 09.12.2021
6596 Clouds 3 1006 88 10000 3.6 230 22:26 09.12.2021
6597 Clouds 3 1006 88 10000 3.6 220 21:59 09.12.2021
6598 Rain 3 1006 88 10000 4.12 220 21:18 09.12.2021
6599 Clouds 3 1007 89 10000 2.57 210 20:28 09.12.2021
6600 Clouds 3 1007 88 10000 3.09 220 19:21 09.12.2021
6601 Clouds 3 1007 87 10000 3.09 230 18:48 09.12.2021
6602 Clouds 3 1007 87 10000 2.57 200 17:56 09.12.2021
6603 Clouds 3 1007 90 10000 2.06 210 17:27 09.12.2021
6604 Clouds 3 1007 89 10000 2.57 220 16:56 09.12.2021
6605 Clouds 4 1008 90 10000 2.35 233 15:57 09.12.2021
6606 Clouds 4 1006 89 10000 3.09 220 14:50 09.12.2021
6607 Clouds 5 1006 88 10000 3.6 240 13:39 09.12.2021
6608 Clouds 4 1007 89 10000 4.12 240 12:47 09.12.2021
6609 Clouds 4 1007 91 10000 3.09 240 11:24 09.12.2021
6610 Clouds 3 1006 92 10000 3.09 230 09:45 09.12.2021
6611 Clouds 3 1005 94 10000 3.09 250 06:51 09.12.2021
6612 Clouds 3 1003 76 10000 1.03 210 03:46 09.12.2021
6613 Clouds 3 1002 93 10000 2.06 240 23:50 08.12.2021
6614 Clouds 3 1002 93 10000 1.54 250 23:31 08.12.2021
6615 Clouds 3 1002 92 10000 1.03 240 22:53 08.12.2021
6616 Rain 4 1002 92 10000 1.03 200 21:49 08.12.2021
6617 Clouds 4 1001 92 10000 0.51 0 21:30 08.12.2021
6618 Rain 4 1001 72 10000 3.6 290 20:19 08.12.2021
6619 Rain 4 1001 75 10000 2.57 310 19:39 08.12.2021
6620 Rain 4 1001 76 10000 2.06 260 18:53 08.12.2021
6621 Rain 4 1000 76 10000 0.51 0 18:21 08.12.2021
6622 Rain 4 1000 93 10000 0.51 0 16:44 08.12.2021
6623 Rain 5 1000 93 10000 1.54 170 15:40 08.12.2021
6624 Rain 5 999 93 10000 1.54 150 15:21 08.12.2021
6625 Rain 5 1000 91 10000 0.51 0 13:21 08.12.2021
6626 Rain 4 1001 94 10000 0.51 0 10:42 08.12.2021
6627 Rain 3 1001 93 5000 1.03 0 09:32 08.12.2021
6628 Rain 3 1001 94 10000 0.51 80 07:37 08.12.2021
6629 Rain 2 1001 94 10000 1.03 90 04:58 08.12.2021
6630 Rain 2 1003 82 10000 1.54 150 00:21 08.12.2021
6631 Clear 2 1004 86 10000 1.03 0 22:48 07.12.2021
6632 Clear 1 1006 86 10000 1.54 90 21:24 07.12.2021
6633 Clear 1 1007 84 10000 0.51 0 20:25 07.12.2021
6634 Clear 2 1008 83 10000 1.54 100 18:57 07.12.2021
6635 Clear 2 1009 85 10000 1.54 110 18:20 07.12.2021
6636 Clear 2 1010 82 10000 1.54 120 17:23 07.12.2021
6637 Clouds 4 1010 77 10000 1.03 0 16:41 07.12.2021
6638 Clouds 5 1011 71 10000 3.6 230 15:59 07.12.2021
6639 Clouds 6 1012 66 10000 4.12 210 14:37 07.12.2021
6640 Clouds 6 1012 73 10000 4.12 230 13:38 07.12.2021
6641 Clouds 5 1013 77 10000 3.09 220 12:22 07.12.2021
6642 Clouds 4 1014 89 10000 3.09 230 10:48 07.12.2021
6643 Clouds 3 1013 91 10000 1.03 0 09:20 07.12.2021
6644 Clouds 3 1011 90 10000 3.09 210 06:50 07.12.2021
6645 Clouds 2 1011 91 10000 3.09 230 05:50 07.12.2021
6646 Rain 2 1009 90 10000 4.12 200 03:25 07.12.2021
6647 Clouds 1 1011 90 10000 2.06 160 23:23 06.12.2021
6648 Clouds 0 1011 92 10000 1.54 120 22:40 06.12.2021
6649 Clouds 0 1013 90 10000 1.54 270 21:59 06.12.2021
6650 Clouds 0 1013 91 10000 1.03 0 21:31 06.12.2021
6651 Clouds 1 1013 91 10000 1.54 180 20:32 06.12.2021
6652 Clouds 1 1013 91 10000 1.54 180 20:32 06.12.2021
6653 Clouds 1 1013 88 10000 1.54 170 19:24 06.12.2021
6654 Clouds 2 1013 88 10000 1.54 220 18:40 06.12.2021
6655 Clouds 3 1014 87 10000 2.57 210 17:54 06.12.2021
6656 Clouds 3 1014 87 10000 3.09 250 17:33 06.12.2021
6657 Clouds 4 1016 92 10000 0.9 157 15:51 06.12.2021
6658 Clouds 4 1016 86 10000 0.77 188 14:40 06.12.2021
6659 Clouds 4 1014 87 10000 1.54 180 13:28 06.12.2021
6660 Clouds 4 1014 90 10000 1.54 180 12:37 06.12.2021
6661 Clouds 2 1014 92 10000 1.03 0 10:23 06.12.2021
6662 Clouds 2 1012 93 9000 0.51 230 07:40 06.12.2021
6663 Clouds 1 1009 93 10000 1.54 310 02:28 06.12.2021
6664 Clouds 2 1007 90 10000 0.51 0 22:26 05.12.2021
6665 Clouds 2 1006 90 10000 1.54 80 21:25 05.12.2021
6666 Clouds 2 1006 91 10000 1.03 0 20:54 05.12.2021
6667 Clouds 2 1006 91 10000 0.51 0 20:18 05.12.2021
6668 Clouds 3 1005 89 10000 0.51 0 19:26 05.12.2021
6669 Clouds 3 1005 89 10000 1.03 0 18:31 05.12.2021
6670 Clouds 3 1005 88 10000 1.03 170 17:52 05.12.2021
6671 Clouds 3 1004 88 10000 1.03 0 17:34 05.12.2021
6672 Clouds 4 1004 87 10000 1.54 210 16:36 05.12.2021
6673 Clouds 4 1004 82 10000 1.54 240 16:18 05.12.2021
6674 Clouds 6 1003 79 10000 3.09 220 14:48 05.12.2021
6675 Clouds 6 1003 78 10000 3.09 220 14:30 05.12.2021
6676 Clouds 6 1003 77 10000 4.12 250 13:36 05.12.2021
6677 Clouds 6 1003 76 10000 3.09 230 12:47 05.12.2021